<?xml version="1.0" encoding="UTF-8" standalone="no" ?>
<gpx xmlns="http://www.topografix.com/GPX/1/1" creator="MapSource 6.16.3" version="1.1" xmlns:xsi="http://www.w3.org/2001/XMLSchema-instance" xsi:schemaLocation="http://www.topografix.com/GPX/1/1 http://www.topografix.com/GPX/1/1/gpx.xsd">

  <metadata>
    <link href="http://www.garmin.com">
      <text>Garmin International</text>
    </link>
    <time>2016-09-15T12:30:52Z</time>
    <bounds maxlat="43.990263640880585" maxlon="10.97601025365293" minlat="43.931783940643072" minlon="10.911002727225423"/>
  </metadata>

  <wpt lat="43.941824287176132" lon="10.914106629788876">
    <ele>65.9757080078125</ele>
    <name>001</name>
    <cmt>23-NOV-03 08:26</cmt>
    <desc>23-NOV-03 08:26</desc>
    <sym>Waypoint</sym>
    <extensions>
      <gpxx:WaypointExtension xmlns:gpxx="http://www.garmin.com/xmlschemas/GpxExtensions/v3">
        <gpxx:DisplayMode>SymbolAndName</gpxx:DisplayMode>
      </gpxx:WaypointExtension>
    </extensions>
  </wpt>

  <wpt lat="43.98784227669239" lon="10.947031164541841">
    <ele>398.3489990234375</ele>
    <name>002</name>
    <cmt>23-NOV-03 09:39</cmt>
    <desc>23-NOV-03 09:39</desc>
    <sym>Waypoint</sym>
    <extensions>
      <gpxx:WaypointExtension xmlns:gpxx="http://www.garmin.com/xmlschemas/GpxExtensions/v3">
        <gpxx:DisplayMode>SymbolAndName</gpxx:DisplayMode>
      </gpxx:WaypointExtension>
    </extensions>
  </wpt>

  <wpt lat="43.988557923585176" lon="10.95656524412334">
    <ele>396.666748046875</ele>
    <name>003</name>
    <cmt>23-NOV-03 10:03</cmt>
    <desc>23-NOV-03 10:03</desc>
    <sym>Waypoint</sym>
    <extensions>
      <gpxx:WaypointExtension xmlns:gpxx="http://www.garmin.com/xmlschemas/GpxExtensions/v3">
        <gpxx:DisplayMode>SymbolAndName</gpxx:DisplayMode>
      </gpxx:WaypointExtension>
    </extensions>
  </wpt>

  <wpt lat="43.968310095369816" lon="10.954031310975552">
    <ele>316.6375732421875</ele>
    <name>004</name>
    <cmt>23-NOV-03 10:59</cmt>
    <desc>23-NOV-03 10:59</desc>
    <sym>Waypoint</sym>
    <extensions>
      <gpxx:WaypointExtension xmlns:gpxx="http://www.garmin.com/xmlschemas/GpxExtensions/v3">
        <gpxx:DisplayMode>SymbolAndName</gpxx:DisplayMode>
      </gpxx:WaypointExtension>
    </extensions>
  </wpt>

  <wpt lat="43.961808923631907" lon="10.966349942609668">
    <ele>334.9024658203125</ele>
    <name>005</name>
    <cmt>23-NOV-03 11:29</cmt>
    <desc>23-NOV-03 11:29</desc>
    <sym>Waypoint</sym>
    <extensions>
      <gpxx:WaypointExtension xmlns:gpxx="http://www.garmin.com/xmlschemas/GpxExtensions/v3">
        <gpxx:DisplayMode>SymbolAndName</gpxx:DisplayMode>
      </gpxx:WaypointExtension>
    </extensions>
  </wpt>

  <trk>
    <name>ACTIVE LOG</name>
    <trkseg>
      <trkpt lat="43.941805260255933" lon="10.914186174049973">
        <ele>65.9876708984375</ele>
        <time>2003-11-23T07:25:03Z</time>
      </trkpt>
      <trkpt lat="43.94181976094842" lon="10.914270244538784">
        <ele>66.948974609375</ele>
        <time>2003-11-23T07:27:05Z</time>
      </trkpt>
      <trkpt lat="43.94182562828064" lon="10.914443666115403">
        <ele>67.4296875</ele>
        <time>2003-11-23T07:27:10Z</time>
      </trkpt>
      <trkpt lat="43.941843984648585" lon="10.914598144590855">
        <ele>67.9102783203125</ele>
        <time>2003-11-23T07:27:15Z</time>
      </trkpt>
      <trkpt lat="43.941863095387816" lon="10.914802327752113">
        <ele>67.9102783203125</ele>
        <time>2003-11-23T07:27:20Z</time>
      </trkpt>
      <trkpt lat="43.941889079287648" lon="10.914969965815544">
        <ele>68.390869140625</ele>
        <time>2003-11-23T07:27:24Z</time>
      </trkpt>
      <trkpt lat="43.941899891942739" lon="10.915159396827221">
        <ele>67.9102783203125</ele>
        <time>2003-11-23T07:27:28Z</time>
      </trkpt>
      <trkpt lat="43.941907100379467" lon="10.915337176993489">
        <ele>67.9102783203125</ele>
        <time>2003-11-23T07:27:32Z</time>
      </trkpt>
      <trkpt lat="43.941915482282639" lon="10.915523255243897">
        <ele>67.9102783203125</ele>
        <time>2003-11-23T07:27:36Z</time>
      </trkpt>
      <trkpt lat="43.941919673234224" lon="10.915685696527362">
        <ele>67.4296875</ele>
        <time>2003-11-23T07:27:39Z</time>
      </trkpt>
      <trkpt lat="43.941945489495993" lon="10.915866242721677">
        <ele>68.390869140625</ele>
        <time>2003-11-23T07:27:43Z</time>
      </trkpt>
      <trkpt lat="43.942032996565104" lon="10.915937069803476">
        <ele>68.390869140625</ele>
        <time>2003-11-23T07:27:47Z</time>
      </trkpt>
      <trkpt lat="43.94213835708797" lon="10.915951235219836">
        <ele>68.87158203125</ele>
        <time>2003-11-23T07:27:51Z</time>
      </trkpt>
      <trkpt lat="43.942241705954075" lon="10.915956348180771">
        <ele>69.8328857421875</ele>
        <time>2003-11-23T07:27:55Z</time>
      </trkpt>
      <trkpt lat="43.942349497228861" lon="10.915982248261571">
        <ele>69.8328857421875</ele>
        <time>2003-11-23T07:27:59Z</time>
      </trkpt>
      <trkpt lat="43.942464664578438" lon="10.915979398414493">
        <ele>69.8328857421875</ele>
        <time>2003-11-23T07:28:03Z</time>
      </trkpt>
      <trkpt lat="43.9425805862993" lon="10.915976800024509">
        <ele>70.3134765625</ele>
        <time>2003-11-23T07:28:07Z</time>
      </trkpt>
      <trkpt lat="43.94269541837275" lon="10.915966909378767">
        <ele>70.3134765625</ele>
        <time>2003-11-23T07:28:11Z</time>
      </trkpt>
      <trkpt lat="43.942807232961059" lon="10.915958192199469">
        <ele>70.794189453125</ele>
        <time>2003-11-23T07:28:15Z</time>
      </trkpt>
      <trkpt lat="43.942917371168733" lon="10.915956851094961">
        <ele>70.794189453125</ele>
        <time>2003-11-23T07:28:19Z</time>
      </trkpt>
      <trkpt lat="43.943024827167392" lon="10.915951486676931">
        <ele>71.27490234375</ele>
        <time>2003-11-23T07:28:23Z</time>
      </trkpt>
      <trkpt lat="43.943132031708956" lon="10.915947211906314">
        <ele>71.27490234375</ele>
        <time>2003-11-23T07:28:27Z</time>
      </trkpt>
      <trkpt lat="43.943240074440837" lon="10.915943775326014">
        <ele>71.7554931640625</ele>
        <time>2003-11-23T07:28:31Z</time>
      </trkpt>
      <trkpt lat="43.943345686420798" lon="10.915940003469586">
        <ele>72.2362060546875</ele>
        <time>2003-11-23T07:28:35Z</time>
      </trkpt>
      <trkpt lat="43.943438222631812" lon="10.915949307382107">
        <ele>72.7169189453125</ele>
        <time>2003-11-23T07:28:39Z</time>
      </trkpt>
      <trkpt lat="43.94353243522346" lon="10.915957856923342">
        <ele>73.1976318359375</ele>
        <time>2003-11-23T07:28:44Z</time>
      </trkpt>
      <trkpt lat="43.94362430088222" lon="10.915896501392126">
        <ele>73.67822265625</ele>
        <time>2003-11-23T07:28:49Z</time>
      </trkpt>
      <trkpt lat="43.943672915920615" lon="10.915761301293969">
        <ele>73.67822265625</ele>
        <time>2003-11-23T07:28:53Z</time>
      </trkpt>
      <trkpt lat="43.943710215389729" lon="10.915615120902658">
        <ele>72.7169189453125</ele>
        <time>2003-11-23T07:28:57Z</time>
      </trkpt>
      <trkpt lat="43.94376159645617" lon="10.915511017665267">
        <ele>73.1976318359375</ele>
        <time>2003-11-23T07:29:01Z</time>
      </trkpt>
      <trkpt lat="43.943840973079205" lon="10.915425522252917">
        <ele>72.7169189453125</ele>
        <time>2003-11-23T07:29:05Z</time>
      </trkpt>
      <trkpt lat="43.943938370794058" lon="10.915394257754087">
        <ele>72.2362060546875</ele>
        <time>2003-11-23T07:29:08Z</time>
      </trkpt>
      <trkpt lat="43.944054124876857" lon="10.91536114923656">
        <ele>71.27490234375</ele>
        <time>2003-11-23T07:29:11Z</time>
      </trkpt>
      <trkpt lat="43.944172142073512" lon="10.91533767990768">
        <ele>72.2362060546875</ele>
        <time>2003-11-23T07:29:14Z</time>
      </trkpt>
      <trkpt lat="43.944274736568332" lon="10.915322592481971">
        <ele>72.7169189453125</ele>
        <time>2003-11-23T07:29:17Z</time>
      </trkpt>
      <trkpt lat="43.944369200617075" lon="10.915306331589818">
        <ele>71.7554931640625</ele>
        <time>2003-11-23T07:29:20Z</time>
      </trkpt>
      <trkpt lat="43.94446131773293" lon="10.91528051532805">
        <ele>72.2362060546875</ele>
        <time>2003-11-23T07:29:23Z</time>
      </trkpt>
      <trkpt lat="43.944555362686515" lon="10.915251011028886">
        <ele>72.2362060546875</ele>
        <time>2003-11-23T07:29:26Z</time>
      </trkpt>
      <trkpt lat="43.944653263315558" lon="10.91521312482655">
        <ele>71.27490234375</ele>
        <time>2003-11-23T07:29:29Z</time>
      </trkpt>
      <trkpt lat="43.944748649373651" lon="10.91517155058682">
        <ele>72.2362060546875</ele>
        <time>2003-11-23T07:29:32Z</time>
      </trkpt>
      <trkpt lat="43.944839593023062" lon="10.915122013539076">
        <ele>71.7554931640625</ele>
        <time>2003-11-23T07:29:35Z</time>
      </trkpt>
      <trkpt lat="43.944930536672473" lon="10.915068788453937">
        <ele>72.2362060546875</ele>
        <time>2003-11-23T07:29:38Z</time>
      </trkpt>
      <trkpt lat="43.94501930102706" lon="10.915007600560784">
        <ele>71.7554931640625</ele>
        <time>2003-11-23T07:29:41Z</time>
      </trkpt>
      <trkpt lat="43.945106221362948" lon="10.914944903925061">
        <ele>72.2362060546875</ele>
        <time>2003-11-23T07:29:44Z</time>
      </trkpt>
      <trkpt lat="43.945193896070123" lon="10.914890337735415">
        <ele>72.7169189453125</ele>
        <time>2003-11-23T07:29:47Z</time>
      </trkpt>
      <trkpt lat="43.945281067863107" lon="10.914830323308706">
        <ele>72.7169189453125</ele>
        <time>2003-11-23T07:29:50Z</time>
      </trkpt>
      <trkpt lat="43.945366647094488" lon="10.914776930585504">
        <ele>72.7169189453125</ele>
        <time>2003-11-23T07:29:53Z</time>
      </trkpt>
      <trkpt lat="43.945451555773616" lon="10.914719430729747">
        <ele>73.1976318359375</ele>
        <time>2003-11-23T07:29:56Z</time>
      </trkpt>
      <trkpt lat="43.945533446967602" lon="10.914677688851953">
        <ele>73.1976318359375</ele>
        <time>2003-11-23T07:29:59Z</time>
      </trkpt>
      <trkpt lat="43.945614164695144" lon="10.914613818749785">
        <ele>73.1976318359375</ele>
        <time>2003-11-23T07:30:02Z</time>
      </trkpt>
      <trkpt lat="43.94569362513721" lon="10.914541063830256">
        <ele>72.7169189453125</ele>
        <time>2003-11-23T07:30:05Z</time>
      </trkpt>
      <trkpt lat="43.945777025073767" lon="10.914478786289692">
        <ele>73.67822265625</ele>
        <time>2003-11-23T07:30:08Z</time>
      </trkpt>
      <trkpt lat="43.945859922096133" lon="10.914420029148459">
        <ele>73.1976318359375</ele>
        <time>2003-11-23T07:30:11Z</time>
      </trkpt>
      <trkpt lat="43.945942567661405" lon="10.914355320855975">
        <ele>73.1976318359375</ele>
        <time>2003-11-23T07:30:14Z</time>
      </trkpt>
      <trkpt lat="43.946027979254723" lon="10.914288014173508">
        <ele>73.67822265625</ele>
        <time>2003-11-23T07:30:17Z</time>
      </trkpt>
      <trkpt lat="43.946109535172582" lon="10.914219869300723">
        <ele>73.67822265625</ele>
        <time>2003-11-23T07:30:20Z</time>
      </trkpt>
      <trkpt lat="43.946210034191608" lon="10.91412540525198">
        <ele>74.1588134765625</ele>
        <time>2003-11-23T07:30:24Z</time>
      </trkpt>
      <trkpt lat="43.94628438167274" lon="10.914053069427609">
        <ele>74.1588134765625</ele>
        <time>2003-11-23T07:30:27Z</time>
      </trkpt>
      <trkpt lat="43.946373481303453" lon="10.913977045565844">
        <ele>74.6395263671875</ele>
        <time>2003-11-23T07:30:31Z</time>
      </trkpt>
      <trkpt lat="43.94644514657557" lon="10.91390261426568">
        <ele>74.6395263671875</ele>
        <time>2003-11-23T07:30:35Z</time>
      </trkpt>
      <trkpt lat="43.946531731635332" lon="10.91379658319056">
        <ele>74.6395263671875</ele>
        <time>2003-11-23T07:30:40Z</time>
      </trkpt>
      <trkpt lat="43.946613287553191" lon="10.913733970373869">
        <ele>74.6395263671875</ele>
        <time>2003-11-23T07:30:44Z</time>
      </trkpt>
      <trkpt lat="43.946708841249347" lon="10.913666412234306">
        <ele>75.1202392578125</ele>
        <time>2003-11-23T07:30:48Z</time>
      </trkpt>
      <trkpt lat="43.94680917263031" lon="10.913601536303759">
        <ele>75.1202392578125</ele>
        <time>2003-11-23T07:30:52Z</time>
      </trkpt>
      <trkpt lat="43.946917131543159" lon="10.913534481078386">
        <ele>75.1202392578125</ele>
        <time>2003-11-23T07:30:56Z</time>
      </trkpt>
      <trkpt lat="43.947012182325125" lon="10.913474466651678">
        <ele>75.600830078125</ele>
        <time>2003-11-23T07:31:00Z</time>
      </trkpt>
      <trkpt lat="43.94710966385901" lon="10.913423001766205">
        <ele>75.600830078125</ele>
        <time>2003-11-23T07:31:04Z</time>
      </trkpt>
      <trkpt lat="43.947206307202578" lon="10.913373548537493">
        <ele>75.600830078125</ele>
        <time>2003-11-23T07:31:08Z</time>
      </trkpt>
      <trkpt lat="43.94730756059289" lon="10.913334488868713">
        <ele>76.0814208984375</ele>
        <time>2003-11-23T07:31:12Z</time>
      </trkpt>
      <trkpt lat="43.947422811761498" lon="10.913302302360535">
        <ele>76.0814208984375</ele>
        <time>2003-11-23T07:31:16Z</time>
      </trkpt>
      <trkpt lat="43.947524735704064" lon="10.913257710635662">
        <ele>76.0814208984375</ele>
        <time>2003-11-23T07:31:20Z</time>
      </trkpt>
      <trkpt lat="43.947628168389201" lon="10.913200462237">
        <ele>76.5621337890625</ele>
        <time>2003-11-23T07:31:24Z</time>
      </trkpt>
      <trkpt lat="43.947723805904388" lon="10.91310708783567">
        <ele>77.0428466796875</ele>
        <time>2003-11-23T07:31:28Z</time>
      </trkpt>
      <trkpt lat="43.947813240811229" lon="10.91299963183701">
        <ele>77.0428466796875</ele>
        <time>2003-11-23T07:31:32Z</time>
      </trkpt>
      <trkpt lat="43.947891611605883" lon="10.912867030128837">
        <ele>77.5234375</ele>
        <time>2003-11-23T07:31:36Z</time>
      </trkpt>
      <trkpt lat="43.947974089533091" lon="10.912737529724836">
        <ele>77.0428466796875</ele>
        <time>2003-11-23T07:31:40Z</time>
      </trkpt>
      <trkpt lat="43.948063775897026" lon="10.912609035149217">
        <ele>77.0428466796875</ele>
        <time>2003-11-23T07:31:44Z</time>
      </trkpt>
      <trkpt lat="43.948133764788508" lon="10.912509122863412">
        <ele>77.5234375</ele>
        <time>2003-11-23T07:31:47Z</time>
      </trkpt>
      <trkpt lat="43.948226971551776" lon="10.912388172000647">
        <ele>78.0040283203125</ele>
        <time>2003-11-23T07:31:51Z</time>
      </trkpt>
      <trkpt lat="43.948322022333741" lon="10.912284823134542">
        <ele>77.5234375</ele>
        <time>2003-11-23T07:31:55Z</time>
      </trkpt>
      <trkpt lat="43.948418917134404" lon="10.912185832858086">
        <ele>78.0040283203125</ele>
        <time>2003-11-23T07:31:59Z</time>
      </trkpt>
      <trkpt lat="43.94851547665894" lon="10.912094721570611">
        <ele>78.4847412109375</ele>
        <time>2003-11-23T07:32:03Z</time>
      </trkpt>
      <trkpt lat="43.948619496077299" lon="10.912023056298494">
        <ele>78.0040283203125</ele>
        <time>2003-11-23T07:32:07Z</time>
      </trkpt>
      <trkpt lat="43.948731394484639" lon="10.911949630826712">
        <ele>78.9654541015625</ele>
        <time>2003-11-23T07:32:11Z</time>
      </trkpt>
      <trkpt lat="43.948839018121362" lon="10.911875031888485">
        <ele>78.9654541015625</ele>
        <time>2003-11-23T07:32:15Z</time>
      </trkpt>
      <trkpt lat="43.948940858244896" lon="10.911793056875467">
        <ele>78.9654541015625</ele>
        <time>2003-11-23T07:32:19Z</time>
      </trkpt>
      <trkpt lat="43.949055103585124" lon="10.911740167066455">
        <ele>79.446044921875</ele>
        <time>2003-11-23T07:32:23Z</time>
      </trkpt>
      <trkpt lat="43.949149902909994" lon="10.911697670817375">
        <ele>79.446044921875</ele>
        <time>2003-11-23T07:32:27Z</time>
      </trkpt>
      <trkpt lat="43.949244786053896" lon="10.911661796271801">
        <ele>79.9266357421875</ele>
        <time>2003-11-23T07:32:31Z</time>
      </trkpt>
      <trkpt lat="43.949356265366077" lon="10.911642434075475">
        <ele>80.407470703125</ele>
        <time>2003-11-23T07:32:35Z</time>
      </trkpt>
      <trkpt lat="43.949467074126005" lon="10.911643272265792">
        <ele>80.88818359375</ele>
        <time>2003-11-23T07:32:39Z</time>
      </trkpt>
      <trkpt lat="43.94957235082984" lon="10.911653665825725">
        <ele>81.849365234375</ele>
        <time>2003-11-23T07:32:44Z</time>
      </trkpt>
      <trkpt lat="43.949681986123323" lon="10.911664729937911">
        <ele>81.849365234375</ele>
        <time>2003-11-23T07:32:49Z</time>
      </trkpt>
      <trkpt lat="43.949803356081247" lon="10.911728851497173">
        <ele>81.849365234375</ele>
        <time>2003-11-23T07:32:54Z</time>
      </trkpt>
      <trkpt lat="43.949904190376401" lon="10.911718877032399">
        <ele>82.330078125</ele>
        <time>2003-11-23T07:32:58Z</time>
      </trkpt>
      <trkpt lat="43.950000498443842" lon="10.91166665777564">
        <ele>82.810791015625</ele>
        <time>2003-11-23T07:33:02Z</time>
      </trkpt>
      <trkpt lat="43.950089933350682" lon="10.911610499024391">
        <ele>82.810791015625</ele>
        <time>2003-11-23T07:33:06Z</time>
      </trkpt>
      <trkpt lat="43.950187331065536" lon="10.911557022482157">
        <ele>82.810791015625</ele>
        <time>2003-11-23T07:33:10Z</time>
      </trkpt>
      <trkpt lat="43.950290512293577" lon="10.911511341109872">
        <ele>82.810791015625</ele>
        <time>2003-11-23T07:33:14Z</time>
      </trkpt>
      <trkpt lat="43.950404589995742" lon="10.91147412545979">
        <ele>83.77197265625</ele>
        <time>2003-11-23T07:33:18Z</time>
      </trkpt>
      <trkpt lat="43.95052713342011" lon="10.911424672231078">
        <ele>83.77197265625</ele>
        <time>2003-11-23T07:33:22Z</time>
      </trkpt>
      <trkpt lat="43.950619753450155" lon="10.911388630047441">
        <ele>84.252685546875</ele>
        <time>2003-11-23T07:33:25Z</time>
      </trkpt>
      <trkpt lat="43.950739027932286" lon="10.91134219430387">
        <ele>83.77197265625</ele>
        <time>2003-11-23T07:33:29Z</time>
      </trkpt>
      <trkpt lat="43.950828546658158" lon="10.911306152120233">
        <ele>84.7333984375</ele>
        <time>2003-11-23T07:33:32Z</time>
      </trkpt>
      <trkpt lat="43.95094103179872" lon="10.911253513768315">
        <ele>84.7333984375</ele>
        <time>2003-11-23T07:33:36Z</time>
      </trkpt>
      <trkpt lat="43.951053433120251" lon="10.911202216520905">
        <ele>84.7333984375</ele>
        <time>2003-11-23T07:33:40Z</time>
      </trkpt>
      <trkpt lat="43.951165163889527" lon="10.911159804090858">
        <ele>84.7333984375</ele>
        <time>2003-11-23T07:33:44Z</time>
      </trkpt>
      <trkpt lat="43.951268345117569" lon="10.911121582612395">
        <ele>85.2139892578125</ele>
        <time>2003-11-23T07:33:48Z</time>
      </trkpt>
      <trkpt lat="43.951376052573323" lon="10.91107732616365">
        <ele>86.17529296875</ele>
        <time>2003-11-23T07:33:52Z</time>
      </trkpt>
      <trkpt lat="43.951474288478494" lon="10.911040781065822">
        <ele>85.694580078125</ele>
        <time>2003-11-23T07:33:56Z</time>
      </trkpt>
      <trkpt lat="43.951568165794015" lon="10.911002727225423">
        <ele>86.17529296875</ele>
        <time>2003-11-23T07:34:01Z</time>
      </trkpt>
      <trkpt lat="43.951649470254779" lon="10.911045223474503">
        <ele>86.656005859375</ele>
        <time>2003-11-23T07:34:08Z</time>
      </trkpt>
      <trkpt lat="43.951660366728902" lon="10.911171790212393">
        <ele>87.1365966796875</ele>
        <time>2003-11-23T07:34:13Z</time>
      </trkpt>
      <trkpt lat="43.951664641499519" lon="10.911304475739598">
        <ele>88.0980224609375</ele>
        <time>2003-11-23T07:34:18Z</time>
      </trkpt>
      <trkpt lat="43.951672436669469" lon="10.911444453522563">
        <ele>89.059326171875</ele>
        <time>2003-11-23T07:34:23Z</time>
      </trkpt>
      <trkpt lat="43.951672436669469" lon="10.911573702469468">
        <ele>90.0206298828125</ele>
        <time>2003-11-23T07:34:27Z</time>
      </trkpt>
      <trkpt lat="43.951678052544594" lon="10.911715272814035">
        <ele>90.98193359375</ele>
        <time>2003-11-23T07:34:33Z</time>
      </trkpt>
      <trkpt lat="43.951683668419719" lon="10.91185818426311">
        <ele>92.904541015625</ele>
        <time>2003-11-23T07:34:39Z</time>
      </trkpt>
      <trkpt lat="43.951704958453774" lon="10.911993971094489">
        <ele>93.3851318359375</ele>
        <time>2003-11-23T07:34:45Z</time>
      </trkpt>
      <trkpt lat="43.951767738908529" lon="10.912106288596988">
        <ele>94.3465576171875</ele>
        <time>2003-11-23T07:34:51Z</time>
      </trkpt>
      <trkpt lat="43.95183764398098" lon="10.912190359085798">
        <ele>94.8271484375</ele>
        <time>2003-11-23T07:34:56Z</time>
      </trkpt>
      <trkpt lat="43.951910482719541" lon="10.912297815084457">
        <ele>96.269287109375</ele>
        <time>2003-11-23T07:35:02Z</time>
      </trkpt>
      <trkpt lat="43.951985081657767" lon="10.91240837238729">
        <ele>96.269287109375</ele>
        <time>2003-11-23T07:35:08Z</time>
      </trkpt>
      <trkpt lat="43.952054819092155" lon="10.912510380148888">
        <ele>97.711181640625</ele>
        <time>2003-11-23T07:35:13Z</time>
      </trkpt>
      <trkpt lat="43.952122963964939" lon="10.9126150701195">
        <ele>98.19189453125</ele>
        <time>2003-11-23T07:35:18Z</time>
      </trkpt>
      <trkpt lat="43.952195970341563" lon="10.912720430642366">
        <ele>98.6724853515625</ele>
        <time>2003-11-23T07:35:23Z</time>
      </trkpt>
      <trkpt lat="43.952264618128538" lon="10.912825455889106">
        <ele>99.153076171875</ele>
        <time>2003-11-23T07:35:28Z</time>
      </trkpt>
      <trkpt lat="43.952336786314845" lon="10.912938863039017">
        <ele>99.153076171875</ele>
        <time>2003-11-23T07:35:33Z</time>
      </trkpt>
      <trkpt lat="43.952410882338881" lon="10.913048582151532">
        <ele>99.6337890625</ele>
        <time>2003-11-23T07:35:38Z</time>
      </trkpt>
      <trkpt lat="43.952469052746892" lon="10.913139274343848">
        <ele>100.114501953125</ele>
        <time>2003-11-23T07:35:42Z</time>
      </trkpt>
      <trkpt lat="43.952526887878776" lon="10.913235750049353">
        <ele>100.114501953125</ele>
        <time>2003-11-23T07:35:46Z</time>
      </trkpt>
      <trkpt lat="43.952604504302144" lon="10.913328370079398">
        <ele>101.07568359375</ele>
        <time>2003-11-23T07:35:51Z</time>
      </trkpt>
      <trkpt lat="43.952688742429018" lon="10.913412105292082">
        <ele>101.556396484375</ele>
        <time>2003-11-23T07:35:56Z</time>
      </trkpt>
      <trkpt lat="43.952777171507478" lon="10.913489889353514">
        <ele>102.998291015625</ele>
        <time>2003-11-23T07:36:01Z</time>
      </trkpt>
      <trkpt lat="43.952867779880762" lon="10.913570942357183">
        <ele>103.47900390625</ele>
        <time>2003-11-23T07:36:06Z</time>
      </trkpt>
      <trkpt lat="43.952959226444364" lon="10.913644870743155">
        <ele>104.4404296875</ele>
        <time>2003-11-23T07:36:11Z</time>
      </trkpt>
      <trkpt lat="43.953042877838016" lon="10.913724079728127">
        <ele>104.9210205078125</ele>
        <time>2003-11-23T07:36:16Z</time>
      </trkpt>
      <trkpt lat="43.953120578080416" lon="10.913798259571195">
        <ele>105.8824462890625</ele>
        <time>2003-11-23T07:36:21Z</time>
      </trkpt>
      <trkpt lat="43.953201798722148" lon="10.913873864337802">
        <ele>106.8436279296875</ele>
        <time>2003-11-23T07:36:26Z</time>
      </trkpt>
      <trkpt lat="43.953280001878738" lon="10.913950726389885">
        <ele>107.3243408203125</ele>
        <time>2003-11-23T07:36:31Z</time>
      </trkpt>
      <trkpt lat="43.95335434935987" lon="10.914020463824272">
        <ele>108.7662353515625</ele>
        <time>2003-11-23T07:36:36Z</time>
      </trkpt>
      <trkpt lat="43.953430792316794" lon="10.914116352796555">
        <ele>110.208251953125</ele>
        <time>2003-11-23T07:36:42Z</time>
      </trkpt>
      <trkpt lat="43.953480329364538" lon="10.91421484015882">
        <ele>111.1695556640625</ele>
        <time>2003-11-23T07:36:47Z</time>
      </trkpt>
      <trkpt lat="43.953537996858358" lon="10.914333695545793">
        <ele>112.1309814453125</ele>
        <time>2003-11-23T07:36:53Z</time>
      </trkpt>
      <trkpt lat="43.953596418723464" lon="10.914436457678676">
        <ele>113.572998046875</ele>
        <time>2003-11-23T07:36:59Z</time>
      </trkpt>
      <trkpt lat="43.953697420656681" lon="10.91442639939487">
        <ele>115.49560546875</ele>
        <time>2003-11-23T07:37:06Z</time>
      </trkpt>
      <trkpt lat="43.953760704025626" lon="10.914318105205894">
        <ele>117.418212890625</ele>
        <time>2003-11-23T07:37:12Z</time>
      </trkpt>
      <trkpt lat="43.953802362084389" lon="10.914199417456985">
        <ele>117.8988037109375</ele>
        <time>2003-11-23T07:37:18Z</time>
      </trkpt>
      <trkpt lat="43.953821305185556" lon="10.914068575948477">
        <ele>118.37939453125</ele>
        <time>2003-11-23T07:37:24Z</time>
      </trkpt>
      <trkpt lat="43.953841924667358" lon="10.91393044218421">
        <ele>119.8214111328125</ele>
        <time>2003-11-23T07:37:30Z</time>
      </trkpt>
      <trkpt lat="43.953879978507757" lon="10.913798846304417">
        <ele>120.3021240234375</ele>
        <time>2003-11-23T07:37:36Z</time>
      </trkpt>
      <trkpt lat="43.953965557739139" lon="10.91373011469841">
        <ele>121.2635498046875</ele>
        <time>2003-11-23T07:37:42Z</time>
      </trkpt>
      <trkpt lat="43.954044431447983" lon="10.913806976750493">
        <ele>122.7054443359375</ele>
        <time>2003-11-23T07:37:48Z</time>
      </trkpt>
      <trkpt lat="43.954096985980868" lon="10.913906386122108">
        <ele>123.666748046875</ele>
        <time>2003-11-23T07:37:53Z</time>
      </trkpt>
      <trkpt lat="43.954159095883369" lon="10.914024990051985">
        <ele>124.6280517578125</ele>
        <time>2003-11-23T07:37:59Z</time>
      </trkpt>
      <trkpt lat="43.954218523576856" lon="10.914134290069342">
        <ele>125.58935546875</ele>
        <time>2003-11-23T07:38:05Z</time>
      </trkpt>
      <trkpt lat="43.954281974583864" lon="10.914243087172508">
        <ele>127.0313720703125</ele>
        <time>2003-11-23T07:38:11Z</time>
      </trkpt>
      <trkpt lat="43.954339809715748" lon="10.914354147389531">
        <ele>127.511962890625</ele>
        <time>2003-11-23T07:38:17Z</time>
      </trkpt>
      <trkpt lat="43.954405356198549" lon="10.914469314739108">
        <ele>128.473388671875</ele>
        <time>2003-11-23T07:38:23Z</time>
      </trkpt>
      <trkpt lat="43.954460006207228" lon="10.914566544815898">
        <ele>128.9541015625</ele>
        <time>2003-11-23T07:38:28Z</time>
      </trkpt>
      <trkpt lat="43.95453586243093" lon="10.914652459323406">
        <ele>130.39599609375</ele>
        <time>2003-11-23T07:38:34Z</time>
      </trkpt>
      <trkpt lat="43.954613897949457" lon="10.91459252871573">
        <ele>131.837890625</ele>
        <time>2003-11-23T07:38:40Z</time>
      </trkpt>
      <trkpt lat="43.954672152176499" lon="10.914480881765485">
        <ele>132.318603515625</ele>
        <time>2003-11-23T07:38:46Z</time>
      </trkpt>
      <trkpt lat="43.954721940681338" lon="10.914370073005557">
        <ele>133.2799072265625</ele>
        <time>2003-11-23T07:38:52Z</time>
      </trkpt>
      <trkpt lat="43.954781200736761" lon="10.914260186254978">
        <ele>133.2799072265625</ele>
        <time>2003-11-23T07:39:32Z</time>
      </trkpt>
      <trkpt lat="43.954834258183837" lon="10.914155580103397">
        <ele>133.760498046875</ele>
        <time>2003-11-23T07:39:36Z</time>
      </trkpt>
      <trkpt lat="43.954917239025235" lon="10.914111994206905">
        <ele>134.721923828125</ele>
        <time>2003-11-23T07:39:40Z</time>
      </trkpt>
      <trkpt lat="43.954995526000857" lon="10.914207715541124">
        <ele>135.68310546875</ele>
        <time>2003-11-23T07:39:44Z</time>
      </trkpt>
      <trkpt lat="43.955072639510036" lon="10.914295557886362">
        <ele>135.68310546875</ele>
        <time>2003-11-23T07:39:47Z</time>
      </trkpt>
      <trkpt lat="43.955141454935074" lon="10.914368228986859">
        <ele>136.6446533203125</ele>
        <time>2003-11-23T07:39:50Z</time>
      </trkpt>
      <trkpt lat="43.955238433554769" lon="10.914426483213902">
        <ele>136.1639404296875</ele>
        <time>2003-11-23T07:39:54Z</time>
      </trkpt>
      <trkpt lat="43.955322420224547" lon="10.914476523175836">
        <ele>137.125244140625</ele>
        <time>2003-11-23T07:39:58Z</time>
      </trkpt>
      <trkpt lat="43.955403892323375" lon="10.91452413238585">
        <ele>136.6446533203125</ele>
        <time>2003-11-23T07:40:03Z</time>
      </trkpt>
      <trkpt lat="43.955478239804506" lon="10.914590265601873">
        <ele>136.6446533203125</ele>
        <time>2003-11-23T07:40:09Z</time>
      </trkpt>
      <trkpt lat="43.95546717569232" lon="10.914733679965138">
        <ele>136.6446533203125</ele>
        <time>2003-11-23T07:40:15Z</time>
      </trkpt>
      <trkpt lat="43.955434821546078" lon="10.91486762277782">
        <ele>136.6446533203125</ele>
        <time>2003-11-23T07:40:21Z</time>
      </trkpt>
      <trkpt lat="43.955401293933392" lon="10.914980359375477">
        <ele>136.6446533203125</ele>
        <time>2003-11-23T07:40:26Z</time>
      </trkpt>
      <trkpt lat="43.955364497378469" lon="10.915115140378475">
        <ele>137.125244140625</ele>
        <time>2003-11-23T07:40:32Z</time>
      </trkpt>
      <trkpt lat="43.955329041928053" lon="10.915237851440907">
        <ele>137.6058349609375</ele>
        <time>2003-11-23T07:40:38Z</time>
      </trkpt>
      <trkpt lat="43.955290904268622" lon="10.915372464805841">
        <ele>138.5672607421875</ele>
        <time>2003-11-23T07:40:44Z</time>
      </trkpt>
      <trkpt lat="43.955249330028892" lon="10.915496433153749">
        <ele>139.0478515625</ele>
        <time>2003-11-23T07:40:50Z</time>
      </trkpt>
      <trkpt lat="43.955209264531732" lon="10.915613947436213">
        <ele>140.0091552734375</ele>
        <time>2003-11-23T07:40:57Z</time>
      </trkpt>
      <trkpt lat="43.955173641443253" lon="10.915748896077275">
        <ele>141.9317626953125</ele>
        <time>2003-11-23T07:41:04Z</time>
      </trkpt>
      <trkpt lat="43.955144556239247" lon="10.915880491957068">
        <ele>142.89306640625</ele>
        <time>2003-11-23T07:41:11Z</time>
      </trkpt>
      <trkpt lat="43.955099377781153" lon="10.915994234383106">
        <ele>145.29638671875</ele>
        <time>2003-11-23T07:41:18Z</time>
      </trkpt>
      <trkpt lat="43.955068867653608" lon="10.916116023436189">
        <ele>148.6610107421875</ele>
        <time>2003-11-23T07:41:25Z</time>
      </trkpt>
      <trkpt lat="43.955033579841256" lon="10.916248289868236">
        <ele>150.10302734375</ele>
        <time>2003-11-23T07:41:33Z</time>
      </trkpt>
      <trkpt lat="43.955008601769805" lon="10.916387597098947">
        <ele>152.50634765625</ele>
        <time>2003-11-23T07:41:41Z</time>
      </trkpt>
      <trkpt lat="43.954976331442595" lon="10.916505698114634">
        <ele>154.428955078125</ele>
        <time>2003-11-23T07:41:48Z</time>
      </trkpt>
      <trkpt lat="43.954941295087337" lon="10.916641652584076">
        <ele>155.8709716796875</ele>
        <time>2003-11-23T07:41:55Z</time>
      </trkpt>
      <trkpt lat="43.95492285490036" lon="10.91676545329392">
        <ele>157.3128662109375</ele>
        <time>2003-11-23T07:42:10Z</time>
      </trkpt>
      <trkpt lat="43.954895948991179" lon="10.916904006153345">
        <ele>158.274169921875</ele>
        <time>2003-11-23T07:42:16Z</time>
      </trkpt>
      <trkpt lat="43.954881867393851" lon="10.917024873197079">
        <ele>158.274169921875</ele>
        <time>2003-11-23T07:42:20Z</time>
      </trkpt>
      <trkpt lat="43.954869378358126" lon="10.917179435491562">
        <ele>159.2354736328125</ele>
        <time>2003-11-23T07:42:25Z</time>
      </trkpt>
      <trkpt lat="43.954862169921398" lon="10.917321424931288">
        <ele>159.2354736328125</ele>
        <time>2003-11-23T07:42:30Z</time>
      </trkpt>
      <trkpt lat="43.954911287873983" lon="10.91741094365716">
        <ele>159.2354736328125</ele>
        <time>2003-11-23T07:42:36Z</time>
      </trkpt>
      <trkpt lat="43.955026874318719" lon="10.917448410764337">
        <ele>159.2354736328125</ele>
        <time>2003-11-23T07:42:45Z</time>
      </trkpt>
      <trkpt lat="43.955200966447592" lon="10.917486296966672">
        <ele>162.1195068359375</ele>
        <time>2003-11-23T07:43:05Z</time>
      </trkpt>
      <trkpt lat="43.955344464629889" lon="10.917465258389711">
        <ele>163.080810546875</ele>
        <time>2003-11-23T07:43:15Z</time>
      </trkpt>
      <trkpt lat="43.955479077994823" lon="10.917480261996388">
        <ele>164.0421142578125</ele>
        <time>2003-11-23T07:43:23Z</time>
      </trkpt>
      <trkpt lat="43.955611009150743" lon="10.917485961690545">
        <ele>164.0421142578125</ele>
        <time>2003-11-23T07:43:29Z</time>
      </trkpt>
      <trkpt lat="43.955729696899652" lon="10.917507838457823">
        <ele>164.522705078125</ele>
        <time>2003-11-23T07:43:35Z</time>
      </trkpt>
      <trkpt lat="43.9558688364923" lon="10.917527452111244">
        <ele>165.484130859375</ele>
        <time>2003-11-23T07:43:41Z</time>
      </trkpt>
      <trkpt lat="43.9559914637357" lon="10.917556956410408">
        <ele>165.9647216796875</ele>
        <time>2003-11-23T07:43:47Z</time>
      </trkpt>
      <trkpt lat="43.956123813986778" lon="10.9175780788064">
        <ele>166.4453125</ele>
        <time>2003-11-23T07:43:53Z</time>
      </trkpt>
      <trkpt lat="43.956242250278592" lon="10.917608924210072">
        <ele>166.926025390625</ele>
        <time>2003-11-23T07:43:59Z</time>
      </trkpt>
      <trkpt lat="43.9563540648669" lon="10.917629459872842">
        <ele>167.40673828125</ele>
        <time>2003-11-23T07:44:04Z</time>
      </trkpt>
      <trkpt lat="43.956466466188431" lon="10.917653096839786">
        <ele>167.8873291015625</ele>
        <time>2003-11-23T07:44:09Z</time>
      </trkpt>
      <trkpt lat="43.956593619659543" lon="10.917670279741287">
        <ele>167.8873291015625</ele>
        <time>2003-11-23T07:44:15Z</time>
      </trkpt>
      <trkpt lat="43.956705518066883" lon="10.917682684957981">
        <ele>168.3680419921875</ele>
        <time>2003-11-23T07:44:21Z</time>
      </trkpt>
      <trkpt lat="43.956804256886244" lon="10.917716883122921">
        <ele>169.3294677734375</ele>
        <time>2003-11-23T07:44:27Z</time>
      </trkpt>
      <trkpt lat="43.956909198313951" lon="10.917762732133269">
        <ele>169.3294677734375</ele>
        <time>2003-11-23T07:44:32Z</time>
      </trkpt>
      <trkpt lat="43.957007601857185" lon="10.917819309979677">
        <ele>169.3294677734375</ele>
        <time>2003-11-23T07:44:37Z</time>
      </trkpt>
      <trkpt lat="43.95710458047688" lon="10.917878653854132">
        <ele>169.81005859375</ele>
        <time>2003-11-23T07:44:42Z</time>
      </trkpt>
      <trkpt lat="43.957205163314939" lon="10.917937159538269">
        <ele>169.81005859375</ele>
        <time>2003-11-23T07:44:47Z</time>
      </trkpt>
      <trkpt lat="43.957299878820777" lon="10.917999520897865">
        <ele>170.2906494140625</ele>
        <time>2003-11-23T07:44:52Z</time>
      </trkpt>
      <trkpt lat="43.957402305677533" lon="10.918056266382337">
        <ele>171.2520751953125</ele>
        <time>2003-11-23T07:44:57Z</time>
      </trkpt>
      <trkpt lat="43.957492243498564" lon="10.918095242232084">
        <ele>171.2520751953125</ele>
        <time>2003-11-23T07:45:02Z</time>
      </trkpt>
      <trkpt lat="43.95758687518537" lon="10.918146455660462">
        <ele>171.732666015625</ele>
        <time>2003-11-23T07:45:07Z</time>
      </trkpt>
      <trkpt lat="43.957676058635116" lon="10.918224910274148">
        <ele>172.2132568359375</ele>
        <time>2003-11-23T07:45:13Z</time>
      </trkpt>
      <trkpt lat="43.957779156044126" lon="10.918283835053444">
        <ele>172.6939697265625</ele>
        <time>2003-11-23T07:45:19Z</time>
      </trkpt>
      <trkpt lat="43.957873620092869" lon="10.918333288282156">
        <ele>173.1746826171875</ele>
        <time>2003-11-23T07:45:24Z</time>
      </trkpt>
      <trkpt lat="43.957963557913899" lon="10.918386848643422">
        <ele>173.6552734375</ele>
        <time>2003-11-23T07:45:29Z</time>
      </trkpt>
      <trkpt lat="43.958051148802042" lon="10.918431440368295">
        <ele>174.1358642578125</ele>
        <time>2003-11-23T07:45:34Z</time>
      </trkpt>
      <trkpt lat="43.958153324201703" lon="10.918469410389662">
        <ele>174.6165771484375</ele>
        <time>2003-11-23T07:45:39Z</time>
      </trkpt>
      <trkpt lat="43.958247117698193" lon="10.918499920517206">
        <ele>175.577880859375</ele>
        <time>2003-11-23T07:45:44Z</time>
      </trkpt>
      <trkpt lat="43.958345772698522" lon="10.918537387624383">
        <ele>176.05859375</ele>
        <time>2003-11-23T07:45:50Z</time>
      </trkpt>
      <trkpt lat="43.958446523174644" lon="10.918589858338237">
        <ele>176.539306640625</ele>
        <time>2003-11-23T07:45:56Z</time>
      </trkpt>
      <trkpt lat="43.958540735766292" lon="10.918632606044412">
        <ele>177.02001953125</ele>
        <time>2003-11-23T07:46:02Z</time>
      </trkpt>
      <trkpt lat="43.958642743527889" lon="10.918663367629051">
        <ele>177.981201171875</ele>
        <time>2003-11-23T07:46:09Z</time>
      </trkpt>
      <trkpt lat="43.958733938634396" lon="10.918650794774294">
        <ele>177.981201171875</ele>
        <time>2003-11-23T07:46:16Z</time>
      </trkpt>
      <trkpt lat="43.958850614726543" lon="10.918646436184645">
        <ele>177.981201171875</ele>
        <time>2003-11-23T07:46:22Z</time>
      </trkpt>
      <trkpt lat="43.958952454850078" lon="10.918632857501507">
        <ele>177.5006103515625</ele>
        <time>2003-11-23T07:46:27Z</time>
      </trkpt>
      <trkpt lat="43.959049517288804" lon="10.918621625751257">
        <ele>177.02001953125</ele>
        <time>2003-11-23T07:46:32Z</time>
      </trkpt>
      <trkpt lat="43.959151357412338" lon="10.918610645458102">
        <ele>177.02001953125</ele>
        <time>2003-11-23T07:46:37Z</time>
      </trkpt>
      <trkpt lat="43.959264932200313" lon="10.918612657114863">
        <ele>176.05859375</ele>
        <time>2003-11-23T07:46:43Z</time>
      </trkpt>
      <trkpt lat="43.959370544180274" lon="10.91864962130785">
        <ele>175.577880859375</ele>
        <time>2003-11-23T07:46:48Z</time>
      </trkpt>
      <trkpt lat="43.959471546113491" lon="10.918694129213691">
        <ele>176.539306640625</ele>
        <time>2003-11-23T07:46:53Z</time>
      </trkpt>
      <trkpt lat="43.959570117294788" lon="10.918734110891819">
        <ele>176.539306640625</ele>
        <time>2003-11-23T07:46:58Z</time>
      </trkpt>
      <trkpt lat="43.959660641849041" lon="10.91877518221736">
        <ele>176.539306640625</ele>
        <time>2003-11-23T07:47:02Z</time>
      </trkpt>
      <trkpt lat="43.95978176034987" lon="10.918820109218359">
        <ele>176.05859375</ele>
        <time>2003-11-23T07:47:07Z</time>
      </trkpt>
      <trkpt lat="43.959874548017979" lon="10.918848523870111">
        <ele>176.05859375</ele>
        <time>2003-11-23T07:47:11Z</time>
      </trkpt>
      <trkpt lat="43.959979573264718" lon="10.918910885229707">
        <ele>176.539306640625</ele>
        <time>2003-11-23T07:47:16Z</time>
      </trkpt>
      <trkpt lat="43.960089962929487" lon="10.918977437540889">
        <ele>177.02001953125</ele>
        <time>2003-11-23T07:47:22Z</time>
      </trkpt>
      <trkpt lat="43.960185265168548" lon="10.919035272672772">
        <ele>176.539306640625</ele>
        <time>2003-11-23T07:47:28Z</time>
      </trkpt>
      <trkpt lat="43.960279813036323" lon="10.919091515243053">
        <ele>177.02001953125</ele>
        <time>2003-11-23T07:47:33Z</time>
      </trkpt>
      <trkpt lat="43.960389783605933" lon="10.919151613488793">
        <ele>176.539306640625</ele>
        <time>2003-11-23T07:47:38Z</time>
      </trkpt>
      <trkpt lat="43.960505034774542" lon="10.919207101687789">
        <ele>176.539306640625</ele>
        <time>2003-11-23T07:47:43Z</time>
      </trkpt>
      <trkpt lat="43.960596481338143" lon="10.919248424470425">
        <ele>177.02001953125</ele>
        <time>2003-11-23T07:47:47Z</time>
      </trkpt>
      <trkpt lat="43.960705362260342" lon="10.919299721717834">
        <ele>177.02001953125</ele>
        <time>2003-11-23T07:47:52Z</time>
      </trkpt>
      <trkpt lat="43.960802340880036" lon="10.919361161068082">
        <ele>177.5006103515625</ele>
        <time>2003-11-23T07:47:57Z</time>
      </trkpt>
      <trkpt lat="43.960884567350149" lon="10.919424360617995">
        <ele>177.981201171875</ele>
        <time>2003-11-23T07:48:02Z</time>
      </trkpt>
      <trkpt lat="43.960975259542465" lon="10.919497283175588">
        <ele>177.981201171875</ele>
        <time>2003-11-23T07:48:08Z</time>
      </trkpt>
      <trkpt lat="43.961062347516418" lon="10.919588059186935">
        <ele>177.981201171875</ele>
        <time>2003-11-23T07:48:15Z</time>
      </trkpt>
      <trkpt lat="43.961165780201554" lon="10.919650001451373">
        <ele>178.4619140625</ele>
        <time>2003-11-23T07:48:20Z</time>
      </trkpt>
      <trkpt lat="43.961276253685355" lon="10.919713117182255">
        <ele>178.4619140625</ele>
        <time>2003-11-23T07:48:25Z</time>
      </trkpt>
      <trkpt lat="43.961373567581177" lon="10.919770868495107">
        <ele>178.4619140625</ele>
        <time>2003-11-23T07:48:30Z</time>
      </trkpt>
      <trkpt lat="43.961485717445612" lon="10.919827278703451">
        <ele>178.4619140625</ele>
        <time>2003-11-23T07:48:36Z</time>
      </trkpt>
      <trkpt lat="43.961585545912385" lon="10.919854687526822">
        <ele>177.981201171875</ele>
        <time>2003-11-23T07:48:41Z</time>
      </trkpt>
      <trkpt lat="43.961691576987505" lon="10.919898860156536">
        <ele>178.4619140625</ele>
        <time>2003-11-23T07:48:46Z</time>
      </trkpt>
      <trkpt lat="43.961791153997183" lon="10.919954348355532">
        <ele>178.942626953125</ele>
        <time>2003-11-23T07:48:51Z</time>
      </trkpt>
      <trkpt lat="43.961908584460616" lon="10.920001873746514">
        <ele>178.942626953125</ele>
        <time>2003-11-23T07:48:56Z</time>
      </trkpt>
      <trkpt lat="43.962022745981812" lon="10.920036658644676">
        <ele>178.942626953125</ele>
        <time>2003-11-23T07:49:01Z</time>
      </trkpt>
      <trkpt lat="43.962145373225212" lon="10.920038083568215">
        <ele>179.4232177734375</ele>
        <time>2003-11-23T07:49:06Z</time>
      </trkpt>
      <trkpt lat="43.962263306602836" lon="10.920064151287079">
        <ele>179.90380859375</ele>
        <time>2003-11-23T07:49:12Z</time>
      </trkpt>
      <trkpt lat="43.96236221306026" lon="10.920113855972886">
        <ele>179.4232177734375</ele>
        <time>2003-11-23T07:49:18Z</time>
      </trkpt>
      <trkpt lat="43.962480649352074" lon="10.920172780752182">
        <ele>179.90380859375</ele>
        <time>2003-11-23T07:49:24Z</time>
      </trkpt>
      <trkpt lat="43.962588524445891" lon="10.920198177918792">
        <ele>179.90380859375</ele>
        <time>2003-11-23T07:49:29Z</time>
      </trkpt>
      <trkpt lat="43.962704865261912" lon="10.920210499316454">
        <ele>179.90380859375</ele>
        <time>2003-11-23T07:49:34Z</time>
      </trkpt>
      <trkpt lat="43.962819864973426" lon="10.920236147940159">
        <ele>179.90380859375</ele>
        <time>2003-11-23T07:49:39Z</time>
      </trkpt>
      <trkpt lat="43.962925812229514" lon="10.920259617269039">
        <ele>179.90380859375</ele>
        <time>2003-11-23T07:49:44Z</time>
      </trkpt>
      <trkpt lat="43.963041231036186" lon="10.92028945684433">
        <ele>179.90380859375</ele>
        <time>2003-11-23T07:49:49Z</time>
      </trkpt>
      <trkpt lat="43.963151201605797" lon="10.920298090204597">
        <ele>179.90380859375</ele>
        <time>2003-11-23T07:49:54Z</time>
      </trkpt>
      <trkpt lat="43.96326812915504" lon="10.920306891202927">
        <ele>180.384521484375</ele>
        <time>2003-11-23T07:49:59Z</time>
      </trkpt>
      <trkpt lat="43.963389582931995" lon="10.920312758535147">
        <ele>180.865234375</ele>
        <time>2003-11-23T07:50:05Z</time>
      </trkpt>
      <trkpt lat="43.963500307872891" lon="10.920320302248001">
        <ele>181.826416015625</ele>
        <time>2003-11-23T07:50:10Z</time>
      </trkpt>
      <trkpt lat="43.963600974529982" lon="10.9203324560076">
        <ele>181.826416015625</ele>
        <time>2003-11-23T07:50:14Z</time>
      </trkpt>
      <trkpt lat="43.96370792761445" lon="10.920335473492742">
        <ele>181.3458251953125</ele>
        <time>2003-11-23T07:50:18Z</time>
      </trkpt>
      <trkpt lat="43.963812282308936" lon="10.920321308076382">
        <ele>180.865234375</ele>
        <time>2003-11-23T07:50:22Z</time>
      </trkpt>
      <trkpt lat="43.963908338919282" lon="10.920261712744832">
        <ele>181.3458251953125</ele>
        <time>2003-11-23T07:50:26Z</time>
      </trkpt>
      <trkpt lat="43.963999953120947" lon="10.920200776308775">
        <ele>182.30712890625</ele>
        <time>2003-11-23T07:50:30Z</time>
      </trkpt>
      <trkpt lat="43.964083436876535" lon="10.920128105208278">
        <ele>182.30712890625</ele>
        <time>2003-11-23T07:50:34Z</time>
      </trkpt>
      <trkpt lat="43.964175889268517" lon="10.920052416622639">
        <ele>182.30712890625</ele>
        <time>2003-11-23T07:50:39Z</time>
      </trkpt>
      <trkpt lat="43.964265491813421" lon="10.919977650046349">
        <ele>181.826416015625</ele>
        <time>2003-11-23T07:50:44Z</time>
      </trkpt>
      <trkpt lat="43.964357357472181" lon="10.919903386384249">
        <ele>182.787841796875</ele>
        <time>2003-11-23T07:50:49Z</time>
      </trkpt>
      <trkpt lat="43.964460454881191" lon="10.919813616201282">
        <ele>182.30712890625</ele>
        <time>2003-11-23T07:50:54Z</time>
      </trkpt>
      <trkpt lat="43.964553410187364" lon="10.919765001162887">
        <ele>182.787841796875</ele>
        <time>2003-11-23T07:50:58Z</time>
      </trkpt>
      <trkpt lat="43.964659357443452" lon="10.919719152152538">
        <ele>183.7490234375</ele>
        <time>2003-11-23T07:51:03Z</time>
      </trkpt>
      <trkpt lat="43.964761616662145" lon="10.919675398617983">
        <ele>183.7490234375</ele>
        <time>2003-11-23T07:51:08Z</time>
      </trkpt>
      <trkpt lat="43.964868485927582" lon="10.919632064178586">
        <ele>183.7490234375</ele>
        <time>2003-11-23T07:51:13Z</time>
      </trkpt>
      <trkpt lat="43.964987844228745" lon="10.91959903948009">
        <ele>184.2298583984375</ele>
        <time>2003-11-23T07:51:18Z</time>
      </trkpt>
      <trkpt lat="43.965087002143264" lon="10.91957506723702">
        <ele>183.7490234375</ele>
        <time>2003-11-23T07:51:22Z</time>
      </trkpt>
      <trkpt lat="43.965186579152942" lon="10.919553861021996">
        <ele>184.2298583984375</ele>
        <time>2003-11-23T07:51:26Z</time>
      </trkpt>
      <trkpt lat="43.965288838371634" lon="10.919538857415318">
        <ele>183.7490234375</ele>
        <time>2003-11-23T07:51:30Z</time>
      </trkpt>
      <trkpt lat="43.965399311855435" lon="10.919518154114485">
        <ele>183.7490234375</ele>
        <time>2003-11-23T07:51:34Z</time>
      </trkpt>
      <trkpt lat="43.965494530275464" lon="10.919457552954555">
        <ele>183.2684326171875</ele>
        <time>2003-11-23T07:51:38Z</time>
      </trkpt>
      <trkpt lat="43.965594610199332" lon="10.91939770616591">
        <ele>183.2684326171875</ele>
        <time>2003-11-23T07:51:42Z</time>
      </trkpt>
      <trkpt lat="43.96569024771452" lon="10.919344313442707">
        <ele>183.7490234375</ele>
        <time>2003-11-23T07:51:46Z</time>
      </trkpt>
      <trkpt lat="43.965784041211009" lon="10.919308355078101">
        <ele>182.787841796875</ele>
        <time>2003-11-23T07:51:50Z</time>
      </trkpt>
      <trkpt lat="43.965886048972607" lon="10.919294692575932">
        <ele>182.30712890625</ele>
        <time>2003-11-23T07:51:54Z</time>
      </trkpt>
      <trkpt lat="43.965996941551566" lon="10.919304331764579">
        <ele>182.787841796875</ele>
        <time>2003-11-23T07:51:59Z</time>
      </trkpt>
      <trkpt lat="43.966097692027688" lon="10.919336434453726">
        <ele>183.2684326171875</ele>
        <time>2003-11-23T07:52:04Z</time>
      </trkpt>
      <trkpt lat="43.96620430983603" lon="10.919370967894793">
        <ele>183.7490234375</ele>
        <time>2003-11-23T07:52:09Z</time>
      </trkpt>
      <trkpt lat="43.966295840218663" lon="10.919406255707145">
        <ele>184.2298583984375</ele>
        <time>2003-11-23T07:52:14Z</time>
      </trkpt>
      <trkpt lat="43.966389214619994" lon="10.919461157172918">
        <ele>184.7105712890625</ele>
        <time>2003-11-23T07:52:19Z</time>
      </trkpt>
      <trkpt lat="43.966484852135181" lon="10.919533912092447">
        <ele>184.7105712890625</ele>
        <time>2003-11-23T07:52:24Z</time>
      </trkpt>
      <trkpt lat="43.96656347438693" lon="10.919597949832678">
        <ele>183.7490234375</ele>
        <time>2003-11-23T07:52:29Z</time>
      </trkpt>
      <trkpt lat="43.966645868495107" lon="10.919667016714811">
        <ele>183.7490234375</ele>
        <time>2003-11-23T07:52:34Z</time>
      </trkpt>
      <trkpt lat="43.966724071651697" lon="10.919747650623322">
        <ele>184.2298583984375</ele>
        <time>2003-11-23T07:52:39Z</time>
      </trkpt>
      <trkpt lat="43.966796072199941" lon="10.919849658384919">
        <ele>183.7490234375</ele>
        <time>2003-11-23T07:52:44Z</time>
      </trkpt>
      <trkpt lat="43.966864719986916" lon="10.91996356844902">
        <ele>184.2298583984375</ele>
        <time>2003-11-23T07:52:49Z</time>
      </trkpt>
      <trkpt lat="43.966920794919133" lon="10.920085273683071">
        <ele>183.2684326171875</ele>
        <time>2003-11-23T07:53:03Z</time>
      </trkpt>
      <trkpt lat="43.967013247311115" lon="10.920208990573883">
        <ele>183.2684326171875</ele>
        <time>2003-11-23T07:53:09Z</time>
      </trkpt>
      <trkpt lat="43.9671072922647" lon="10.920318039134145">
        <ele>184.2298583984375</ele>
        <time>2003-11-23T07:53:14Z</time>
      </trkpt>
      <trkpt lat="43.967194883152843" lon="10.920420968905091">
        <ele>185.191162109375</ele>
        <time>2003-11-23T07:53:19Z</time>
      </trkpt>
      <trkpt lat="43.967271242290735" lon="10.920503614470363">
        <ele>183.2684326171875</ele>
        <time>2003-11-23T07:53:23Z</time>
      </trkpt>
      <trkpt lat="43.967331340536475" lon="10.920584164559841">
        <ele>183.7490234375</ele>
        <time>2003-11-23T07:53:27Z</time>
      </trkpt>
      <trkpt lat="43.967404766008258" lon="10.920510571449995">
        <ele>184.7105712890625</ele>
        <time>2003-11-23T07:53:32Z</time>
      </trkpt>
      <trkpt lat="43.967460924759507" lon="10.920371096581221">
        <ele>184.7105712890625</ele>
        <time>2003-11-23T07:53:37Z</time>
      </trkpt>
      <trkpt lat="43.96753485314548" lon="10.920293144881725">
        <ele>185.191162109375</ele>
        <time>2003-11-23T07:53:41Z</time>
      </trkpt>
      <trkpt lat="43.967626467347145" lon="10.920209074392915">
        <ele>185.191162109375</ele>
        <time>2003-11-23T07:53:46Z</time>
      </trkpt>
      <trkpt lat="43.967707268893719" lon="10.92011209577322">
        <ele>184.7105712890625</ele>
        <time>2003-11-23T07:53:50Z</time>
      </trkpt>
      <trkpt lat="43.967777425423265" lon="10.920012267306447">
        <ele>185.191162109375</ele>
        <time>2003-11-23T07:53:54Z</time>
      </trkpt>
      <trkpt lat="43.967830901965499" lon="10.919903386384249">
        <ele>185.6717529296875</ele>
        <time>2003-11-23T07:53:58Z</time>
      </trkpt>
      <trkpt lat="43.967881361022592" lon="10.91977346688509">
        <ele>186.1524658203125</ele>
        <time>2003-11-23T07:54:02Z</time>
      </trkpt>
      <trkpt lat="43.96792771294713" lon="10.919645391404629">
        <ele>186.1524658203125</ele>
        <time>2003-11-23T07:54:06Z</time>
      </trkpt>
      <trkpt lat="43.967994684353471" lon="10.91950910165906">
        <ele>186.6331787109375</ele>
        <time>2003-11-23T07:54:11Z</time>
      </trkpt>
      <trkpt lat="43.968057716265321" lon="10.919409776106477">
        <ele>186.1524658203125</ele>
        <time>2003-11-23T07:54:16Z</time>
      </trkpt>
      <trkpt lat="43.968155113980174" lon="10.919333919882774">
        <ele>186.6331787109375</ele>
        <time>2003-11-23T07:54:24Z</time>
      </trkpt>
      <trkpt lat="43.968251086771488" lon="10.919330231845379">
        <ele>187.5943603515625</ele>
        <time>2003-11-23T07:54:31Z</time>
      </trkpt>
      <trkpt lat="43.968354938551784" lon="10.919346828013659">
        <ele>188.0750732421875</ele>
        <time>2003-11-23T07:54:38Z</time>
      </trkpt>
      <trkpt lat="43.968457784503698" lon="10.919337775558233">
        <ele>189.5169677734375</ele>
        <time>2003-11-23T07:55:17Z</time>
      </trkpt>
      <trkpt lat="43.968554427847266" lon="10.919356886297464">
        <ele>190.4783935546875</ele>
        <time>2003-11-23T07:55:22Z</time>
      </trkpt>
      <trkpt lat="43.968637743964791" lon="10.919386390596628">
        <ele>190.958984375</ele>
        <time>2003-11-23T07:55:26Z</time>
      </trkpt>
      <trkpt lat="43.968739248812199" lon="10.919404160231352">
        <ele>192.401123046875</ele>
        <time>2003-11-23T07:55:31Z</time>
      </trkpt>
      <trkpt lat="43.968844274058938" lon="10.919411201030016">
        <ele>193.3623046875</ele>
        <time>2003-11-23T07:55:36Z</time>
      </trkpt>
      <trkpt lat="43.968944689258933" lon="10.919410614296794">
        <ele>194.32373046875</ele>
        <time>2003-11-23T07:55:41Z</time>
      </trkpt>
      <trkpt lat="43.96904862485826" lon="10.919416733086109">
        <ele>194.8043212890625</ele>
        <time>2003-11-23T07:55:46Z</time>
      </trkpt>
      <trkpt lat="43.969139233231544" lon="10.919430227950215">
        <ele>195.765625</ele>
        <time>2003-11-23T07:55:51Z</time>
      </trkpt>
      <trkpt lat="43.969231769442558" lon="10.919444980099797">
        <ele>196.7269287109375</ele>
        <time>2003-11-23T07:55:56Z</time>
      </trkpt>
      <trkpt lat="43.96932078525424" lon="10.919474568217993">
        <ele>197.20751953125</ele>
        <time>2003-11-23T07:56:01Z</time>
      </trkpt>
      <trkpt lat="43.969421871006489" lon="10.919466521590948">
        <ele>197.20751953125</ele>
        <time>2003-11-23T07:56:06Z</time>
      </trkpt>
      <trkpt lat="43.969519687816501" lon="10.91947297565639">
        <ele>198.1689453125</ele>
        <time>2003-11-23T07:56:11Z</time>
      </trkpt>
      <trkpt lat="43.969614738598466" lon="10.919485380873084">
        <ele>198.6495361328125</ele>
        <time>2003-11-23T07:56:16Z</time>
      </trkpt>
      <trkpt lat="43.969712555408478" lon="10.919520081952214">
        <ele>199.61083984375</ele>
        <time>2003-11-23T07:56:22Z</time>
      </trkpt>
      <trkpt lat="43.969782795757055" lon="10.919606583192945">
        <ele>200.0916748046875</ele>
        <time>2003-11-23T07:56:29Z</time>
      </trkpt>
      <trkpt lat="43.96981724537909" lon="10.919735748320818">
        <ele>201.0528564453125</ele>
        <time>2003-11-23T07:56:37Z</time>
      </trkpt>
      <trkpt lat="43.969811126589775" lon="10.919875390827656">
        <ele>202.0142822265625</ele>
        <time>2003-11-23T07:56:44Z</time>
      </trkpt>
      <trkpt lat="43.969766115769744" lon="10.920004639774561">
        <ele>202.9754638671875</ele>
        <time>2003-11-23T07:56:51Z</time>
      </trkpt>
      <trkpt lat="43.969682129099965" lon="10.920113017782569">
        <ele>202.9754638671875</ele>
        <time>2003-11-23T07:56:57Z</time>
      </trkpt>
      <trkpt lat="43.969617923721671" lon="10.920228101313114">
        <ele>204.41748046875</ele>
        <time>2003-11-23T07:57:03Z</time>
      </trkpt>
      <trkpt lat="43.969568135216832" lon="10.92035056091845">
        <ele>204.8980712890625</ele>
        <time>2003-11-23T07:57:09Z</time>
      </trkpt>
      <trkpt lat="43.969536116346717" lon="10.920482575893402">
        <ele>206.340087890625</ele>
        <time>2003-11-23T07:57:15Z</time>
      </trkpt>
      <trkpt lat="43.96949621848762" lon="10.920631857588887">
        <ele>207.3013916015625</ele>
        <time>2003-11-23T07:57:22Z</time>
      </trkpt>
      <trkpt lat="43.969453638419509" lon="10.920757753774524">
        <ele>208.2628173828125</ele>
        <time>2003-11-23T07:57:28Z</time>
      </trkpt>
      <trkpt lat="43.969400664791465" lon="10.92088071629405">
        <ele>209.22412109375</ele>
        <time>2003-11-23T07:57:35Z</time>
      </trkpt>
      <trkpt lat="43.969365041702986" lon="10.921016335487366">
        <ele>210.666015625</ele>
        <time>2003-11-23T07:57:41Z</time>
      </trkpt>
      <trkpt lat="43.96932321600616" lon="10.921152038499713">
        <ele>210.666015625</ele>
        <time>2003-11-23T07:57:47Z</time>
      </trkpt>
      <trkpt lat="43.969235541298985" lon="10.921249184757471">
        <ele>211.146728515625</ele>
        <time>2003-11-23T07:57:53Z</time>
      </trkpt>
      <trkpt lat="43.969147615134716" lon="10.921327052637935">
        <ele>211.146728515625</ele>
        <time>2003-11-23T07:57:58Z</time>
      </trkpt>
      <trkpt lat="43.969057174399495" lon="10.921421432867646">
        <ele>211.146728515625</ele>
        <time>2003-11-23T07:58:03Z</time>
      </trkpt>
      <trkpt lat="43.968968410044909" lon="10.921506257727742">
        <ele>212.1080322265625</ele>
        <time>2003-11-23T07:58:08Z</time>
      </trkpt>
      <trkpt lat="43.968885177746415" lon="10.921581778675318">
        <ele>211.62744140625</ele>
        <time>2003-11-23T07:59:08Z</time>
      </trkpt>
      <trkpt lat="43.968774871900678" lon="10.921614887192845">
        <ele>212.1080322265625</ele>
        <time>2003-11-23T08:00:48Z</time>
      </trkpt>
      <trkpt lat="43.968668254092336" lon="10.921656712889671">
        <ele>212.588623046875</ele>
        <time>2003-11-23T08:00:58Z</time>
      </trkpt>
      <trkpt lat="43.96858049556613" lon="10.921684456989169">
        <ele>213.0693359375</ele>
        <time>2003-11-23T08:01:04Z</time>
      </trkpt>
      <trkpt lat="43.96848569624126" lon="10.921738352626562">
        <ele>213.0693359375</ele>
        <time>2003-11-23T08:01:11Z</time>
      </trkpt>
      <trkpt lat="43.968398608267307" lon="10.921805910766125">
        <ele>213.550048828125</ele>
        <time>2003-11-23T08:01:18Z</time>
      </trkpt>
      <trkpt lat="43.968316884711385" lon="10.921901129186153">
        <ele>213.0693359375</ele>
        <time>2003-11-23T08:01:26Z</time>
      </trkpt>
      <trkpt lat="43.968231389299035" lon="10.921985870227218">
        <ele>213.0693359375</ele>
        <time>2003-11-23T08:01:31Z</time>
      </trkpt>
      <trkpt lat="43.968139020726085" lon="10.922064492478967">
        <ele>212.588623046875</ele>
        <time>2003-11-23T08:01:36Z</time>
      </trkpt>
      <trkpt lat="43.968055788427591" lon="10.922116292640567">
        <ele>213.0693359375</ele>
        <time>2003-11-23T08:01:40Z</time>
      </trkpt>
      <trkpt lat="43.967966269701719" lon="10.922168511897326">
        <ele>212.588623046875</ele>
        <time>2003-11-23T08:01:44Z</time>
      </trkpt>
      <trkpt lat="43.96787591278553" lon="10.922199273481965">
        <ele>212.588623046875</ele>
        <time>2003-11-23T08:01:48Z</time>
      </trkpt>
      <trkpt lat="43.967784214764833" lon="10.922194244340062">
        <ele>212.588623046875</ele>
        <time>2003-11-23T08:01:52Z</time>
      </trkpt>
      <trkpt lat="43.96768681704998" lon="10.922187957912683">
        <ele>212.588623046875</ele>
        <time>2003-11-23T08:01:56Z</time>
      </trkpt>
      <trkpt lat="43.967592939734459" lon="10.922183264046907">
        <ele>213.0693359375</ele>
        <time>2003-11-23T08:02:00Z</time>
      </trkpt>
      <trkpt lat="43.967491267248988" lon="10.922175049781799">
        <ele>213.550048828125</ele>
        <time>2003-11-23T08:02:04Z</time>
      </trkpt>
      <trkpt lat="43.967390097677708" lon="10.922174379229546">
        <ele>214.0306396484375</ele>
        <time>2003-11-23T08:02:09Z</time>
      </trkpt>
      <trkpt lat="43.967293789610267" lon="10.922174714505672">
        <ele>215.9532470703125</ele>
        <time>2003-11-23T08:02:14Z</time>
      </trkpt>
      <trkpt lat="43.967205947265029" lon="10.9222112596035">
        <ele>216.9146728515625</ele>
        <time>2003-11-23T08:02:20Z</time>
      </trkpt>
      <trkpt lat="43.967275684699416" lon="10.922248223796487">
        <ele>217.8759765625</ele>
        <time>2003-11-23T08:03:20Z</time>
      </trkpt>
      <trkpt lat="43.967306697741151" lon="10.922367079183459">
        <ele>218.3565673828125</ele>
        <time>2003-11-23T08:03:25Z</time>
      </trkpt>
      <trkpt lat="43.967267051339149" lon="10.922490125522017">
        <ele>218.8372802734375</ele>
        <time>2003-11-23T08:03:30Z</time>
      </trkpt>
      <trkpt lat="43.967246264219284" lon="10.92260118573904">
        <ele>220.2791748046875</ele>
        <time>2003-11-23T08:03:36Z</time>
      </trkpt>
      <trkpt lat="43.967297729104757" lon="10.922722807154059">
        <ele>221.72119140625</ele>
        <time>2003-11-23T08:03:43Z</time>
      </trkpt>
      <trkpt lat="43.967403592541814" lon="10.92278198339045">
        <ele>221.2406005859375</ele>
        <time>2003-11-23T08:03:50Z</time>
      </trkpt>
      <trkpt lat="43.967520771548152" lon="10.922815762460232">
        <ele>221.2406005859375</ele>
        <time>2003-11-23T08:03:56Z</time>
      </trkpt>
      <trkpt lat="43.967643566429615" lon="10.922847529873252">
        <ele>221.72119140625</ele>
        <time>2003-11-23T08:04:01Z</time>
      </trkpt>
      <trkpt lat="43.967744149267673" lon="10.922921458259225">
        <ele>222.6824951171875</ele>
        <time>2003-11-23T08:04:07Z</time>
      </trkpt>
      <trkpt lat="43.967865938320756" lon="10.922905616462231">
        <ele>223.1632080078125</ele>
        <time>2003-11-23T08:04:13Z</time>
      </trkpt>
      <trkpt lat="43.967973310500383" lon="10.922958590090275">
        <ele>224.605224609375</ele>
        <time>2003-11-23T08:04:19Z</time>
      </trkpt>
      <trkpt lat="43.968097949400544" lon="10.922961942851543">
        <ele>226.52783203125</ele>
        <time>2003-11-23T08:04:25Z</time>
      </trkpt>
      <trkpt lat="43.968213032931089" lon="10.922942496836185">
        <ele>227.008544921875</ele>
        <time>2003-11-23T08:04:30Z</time>
      </trkpt>
      <trkpt lat="43.968327529728413" lon="10.922936629503965">
        <ele>227.4891357421875</ele>
        <time>2003-11-23T08:04:35Z</time>
      </trkpt>
      <trkpt lat="43.968388885259628" lon="10.923042744398117">
        <ele>227.4891357421875</ele>
        <time>2003-11-23T08:04:41Z</time>
      </trkpt>
      <trkpt lat="43.968350747600198" lon="10.923130419105291">
        <ele>228.450439453125</ele>
        <time>2003-11-23T08:04:47Z</time>
      </trkpt>
      <trkpt lat="43.96827363409102" lon="10.923143578693271">
        <ele>228.93115234375</ele>
        <time>2003-11-23T08:04:54Z</time>
      </trkpt>
      <trkpt lat="43.968242788687348" lon="10.923224966973066">
        <ele>229.4117431640625</ele>
        <time>2003-11-23T08:05:01Z</time>
      </trkpt>
      <trkpt lat="43.968335576355457" lon="10.923256734386086">
        <ele>229.892333984375</ele>
        <time>2003-11-23T08:05:08Z</time>
      </trkpt>
      <trkpt lat="43.968438170850277" lon="10.923262098804116">
        <ele>230.853759765625</ele>
        <time>2003-11-23T08:05:15Z</time>
      </trkpt>
      <trkpt lat="43.968538418412209" lon="10.923272240906954">
        <ele>231.3343505859375</ele>
        <time>2003-11-23T08:05:21Z</time>
      </trkpt>
      <trkpt lat="43.968646125867963" lon="10.923283975571394">
        <ele>231.81494140625</ele>
        <time>2003-11-23T08:05:27Z</time>
      </trkpt>
      <trkpt lat="43.968749055638909" lon="10.92329110018909">
        <ele>232.2957763671875</ele>
        <time>2003-11-23T08:05:33Z</time>
      </trkpt>
      <trkpt lat="43.968852488324046" lon="10.923301242291927">
        <ele>233.257080078125</ele>
        <time>2003-11-23T08:05:39Z</time>
      </trkpt>
      <trkpt lat="43.968955166637897" lon="10.923308618366718">
        <ele>233.7376708984375</ele>
        <time>2003-11-23T08:05:45Z</time>
      </trkpt>
      <trkpt lat="43.969048541039228" lon="10.923317838460207">
        <ele>234.2183837890625</ele>
        <time>2003-11-23T08:05:51Z</time>
      </trkpt>
      <trkpt lat="43.969089696183801" lon="10.923412470147014">
        <ele>235.1796875</ele>
        <time>2003-11-23T08:05:59Z</time>
      </trkpt>
      <trkpt lat="43.969012666493654" lon="10.923413140699267">
        <ele>236.1409912109375</ele>
        <time>2003-11-23T08:06:05Z</time>
      </trkpt>
      <trkpt lat="43.969002608209848" lon="10.923414984717965">
        <ele>235.6602783203125</ele>
        <time>2003-11-23T08:08:10Z</time>
      </trkpt>
      <trkpt lat="43.968928009271622" lon="10.923450859263539">
        <ele>236.1409912109375</ele>
        <time>2003-11-23T08:08:21Z</time>
      </trkpt>
      <trkpt lat="43.968829438090324" lon="10.923456810414791">
        <ele>236.1409912109375</ele>
        <time>2003-11-23T08:08:26Z</time>
      </trkpt>
      <trkpt lat="43.968742936849594" lon="10.923472819849849">
        <ele>235.6602783203125</ele>
        <time>2003-11-23T08:08:31Z</time>
      </trkpt>
      <trkpt lat="43.968648556619883" lon="10.923481034114957">
        <ele>236.1409912109375</ele>
        <time>2003-11-23T08:08:36Z</time>
      </trkpt>
      <trkpt lat="43.968552500009537" lon="10.923491595312953">
        <ele>236.1409912109375</ele>
        <time>2003-11-23T08:08:41Z</time>
      </trkpt>
      <trkpt lat="43.968460634350777" lon="10.923544066026807">
        <ele>235.6602783203125</ele>
        <time>2003-11-23T08:08:46Z</time>
      </trkpt>
      <trkpt lat="43.968396093696356" lon="10.923651689663529">
        <ele>235.1796875</ele>
        <time>2003-11-23T08:08:51Z</time>
      </trkpt>
      <trkpt lat="43.968313615769148" lon="10.923711871728301">
        <ele>236.1409912109375</ele>
        <time>2003-11-23T08:08:56Z</time>
      </trkpt>
      <trkpt lat="43.968210853636265" lon="10.923729809001088">
        <ele>236.1409912109375</ele>
        <time>2003-11-23T08:09:02Z</time>
      </trkpt>
      <trkpt lat="43.968162154778838" lon="10.923809520900249">
        <ele>237.102294921875</ele>
        <time>2003-11-23T08:09:17Z</time>
      </trkpt>
      <trkpt lat="43.968163328245282" lon="10.923929130658507">
        <ele>239.02490234375</ele>
        <time>2003-11-23T08:09:28Z</time>
      </trkpt>
      <trkpt lat="43.968231389299035" lon="10.924012446776032">
        <ele>240.467041015625</ele>
        <time>2003-11-23T08:09:41Z</time>
      </trkpt>
      <trkpt lat="43.968324009329081" lon="10.924051087349653">
        <ele>241.42822265625</ele>
        <time>2003-11-23T08:09:56Z</time>
      </trkpt>
      <trkpt lat="43.968403218314052" lon="10.924098193645477">
        <ele>242.3896484375</ele>
        <time>2003-11-23T08:10:03Z</time>
      </trkpt>
      <trkpt lat="43.968479325994849" lon="10.924134068191051">
        <ele>243.350830078125</ele>
        <time>2003-11-23T08:10:10Z</time>
      </trkpt>
      <trkpt lat="43.968562893569469" lon="10.924145132303238">
        <ele>244.7928466796875</ele>
        <time>2003-11-23T08:10:17Z</time>
      </trkpt>
      <trkpt lat="43.968665571883321" lon="10.924161225557327">
        <ele>244.7928466796875</ele>
        <time>2003-11-23T08:10:24Z</time>
      </trkpt>
      <trkpt lat="43.968757521361113" lon="10.924174301326275">
        <ele>246.23486328125</ele>
        <time>2003-11-23T08:10:31Z</time>
      </trkpt>
      <trkpt lat="43.96885558962822" lon="10.924179498106241">
        <ele>247.6767578125</ele>
        <time>2003-11-23T08:10:38Z</time>
      </trkpt>
      <trkpt lat="43.968945862725377" lon="10.924190394580364">
        <ele>249.1187744140625</ele>
        <time>2003-11-23T08:10:44Z</time>
      </trkpt>
      <trkpt lat="43.969031441956758" lon="10.924204392358661">
        <ele>250.0802001953125</ele>
        <time>2003-11-23T08:10:50Z</time>
      </trkpt>
      <trkpt lat="43.969121379777789" lon="10.924261724576354">
        <ele>250.560791015625</ele>
        <time>2003-11-23T08:10:57Z</time>
      </trkpt>
      <trkpt lat="43.969183154404163" lon="10.924368090927601">
        <ele>251.0413818359375</ele>
        <time>2003-11-23T08:11:04Z</time>
      </trkpt>
      <trkpt lat="43.969128001481295" lon="10.924492897465825">
        <ele>251.5220947265625</ele>
        <time>2003-11-23T08:11:11Z</time>
      </trkpt>
      <trkpt lat="43.969066394492984" lon="10.924590043723583">
        <ele>252.4833984375</ele>
        <time>2003-11-23T08:11:18Z</time>
      </trkpt>
      <trkpt lat="43.968997243791819" lon="10.924678891897202">
        <ele>254.406005859375</ele>
        <time>2003-11-23T08:11:25Z</time>
      </trkpt>
      <trkpt lat="43.968936055898666" lon="10.924787437543273">
        <ele>256.3287353515625</ele>
        <time>2003-11-23T08:11:33Z</time>
      </trkpt>
      <trkpt lat="43.968918034806848" lon="10.924920290708542">
        <ele>257.2900390625</ele>
        <time>2003-11-23T08:11:40Z</time>
      </trkpt>
      <trkpt lat="43.968915101140738" lon="10.925057837739587">
        <ele>259.212646484375</ele>
        <time>2003-11-23T08:11:47Z</time>
      </trkpt>
      <trkpt lat="43.968914849683642" lon="10.925205443054438">
        <ele>261.13525390625</ele>
        <time>2003-11-23T08:11:55Z</time>
      </trkpt>
      <trkpt lat="43.968906216323376" lon="10.925334105268121">
        <ele>263.057861328125</ele>
        <time>2003-11-23T08:12:02Z</time>
      </trkpt>
      <trkpt lat="43.968887943774462" lon="10.925482800230384">
        <ele>264.4998779296875</ele>
        <time>2003-11-23T08:12:10Z</time>
      </trkpt>
      <trkpt lat="43.968854080885649" lon="10.925609283149242">
        <ele>266.4224853515625</ele>
        <time>2003-11-23T08:12:17Z</time>
      </trkpt>
      <trkpt lat="43.968894900754094" lon="10.925743812695146">
        <ele>266.9031982421875</ele>
        <time>2003-11-23T08:13:09Z</time>
      </trkpt>
      <trkpt lat="43.968963045626879" lon="10.925860069692135">
        <ele>266.4224853515625</ele>
        <time>2003-11-23T08:13:15Z</time>
      </trkpt>
      <trkpt lat="43.969027418643236" lon="10.925946906208992">
        <ele>266.9031982421875</ele>
        <time>2003-11-23T08:13:20Z</time>
      </trkpt>
      <trkpt lat="43.969089528545737" lon="10.926047824323177">
        <ele>267.864501953125</ele>
        <time>2003-11-23T08:13:26Z</time>
      </trkpt>
      <trkpt lat="43.969169743359089" lon="10.92612762004137">
        <ele>268.3450927734375</ele>
        <time>2003-11-23T08:13:32Z</time>
      </trkpt>
      <trkpt lat="43.96925968118012" lon="10.926138432696462">
        <ele>267.864501953125</ele>
        <time>2003-11-23T08:13:37Z</time>
      </trkpt>
      <trkpt lat="43.969364957883954" lon="10.926173971965909">
        <ele>268.3450927734375</ele>
        <time>2003-11-23T08:13:43Z</time>
      </trkpt>
      <trkpt lat="43.969473419710994" lon="10.926179587841034">
        <ele>269.3065185546875</ele>
        <time>2003-11-23T08:13:49Z</time>
      </trkpt>
      <trkpt lat="43.96957048214972" lon="10.926201548427343">
        <ele>270.2677001953125</ele>
        <time>2003-11-23T08:13:55Z</time>
      </trkpt>
      <trkpt lat="43.969672322273254" lon="10.926224095746875">
        <ele>270.7484130859375</ele>
        <time>2003-11-23T08:14:00Z</time>
      </trkpt>
      <trkpt lat="43.969780784100294" lon="10.92624974437058">
        <ele>271.2291259765625</ele>
        <time>2003-11-23T08:14:06Z</time>
      </trkpt>
      <trkpt lat="43.969881115481257" lon="10.926276566460729">
        <ele>271.709716796875</ele>
        <time>2003-11-23T08:14:12Z</time>
      </trkpt>
      <trkpt lat="43.969976920634508" lon="10.926285032182932">
        <ele>272.1904296875</ele>
        <time>2003-11-23T08:14:18Z</time>
      </trkpt>
      <trkpt lat="43.970061996951699" lon="10.926314285025001">
        <ele>273.15185546875</ele>
        <time>2003-11-23T08:14:24Z</time>
      </trkpt>
      <trkpt lat="43.970151012763381" lon="10.92634554952383">
        <ele>274.59375</ele>
        <time>2003-11-23T08:14:31Z</time>
      </trkpt>
      <trkpt lat="43.97023843601346" lon="10.926400367170572">
        <ele>276.03564453125</ele>
        <time>2003-11-23T08:14:38Z</time>
      </trkpt>
      <trkpt lat="43.970327116549015" lon="10.926453927531838">
        <ele>278.919677734375</ele>
        <time>2003-11-23T08:14:46Z</time>
      </trkpt>
      <trkpt lat="43.970419736579061" lon="10.926448982208967">
        <ele>280.3616943359375</ele>
        <time>2003-11-23T08:14:53Z</time>
      </trkpt>
      <trkpt lat="43.970512105152011" lon="10.92645451426506">
        <ele>282.2843017578125</ele>
        <time>2003-11-23T08:15:00Z</time>
      </trkpt>
      <trkpt lat="43.970615034922957" lon="10.92643884010613">
        <ele>284.2069091796875</ele>
        <time>2003-11-23T08:15:07Z</time>
      </trkpt>
      <trkpt lat="43.970712767913938" lon="10.926454178988934">
        <ele>284.6876220703125</ele>
        <time>2003-11-23T08:15:14Z</time>
      </trkpt>
      <trkpt lat="43.970724837854505" lon="10.926561132073402">
        <ele>285.168212890625</ele>
        <time>2003-11-23T08:15:21Z</time>
      </trkpt>
      <trkpt lat="43.970638504251838" lon="10.926612848415971">
        <ele>287.0908203125</ele>
        <time>2003-11-23T08:15:29Z</time>
      </trkpt>
      <trkpt lat="43.970568850636482" lon="10.926688704639673">
        <ele>288.05224609375</ele>
        <time>2003-11-23T08:15:37Z</time>
      </trkpt>
      <trkpt lat="43.970562061294913" lon="10.926815690472722">
        <ele>290.45556640625</ele>
        <time>2003-11-23T08:15:45Z</time>
      </trkpt>
      <trkpt lat="43.97058435715735" lon="10.926956757903099">
        <ele>291.8974609375</ele>
        <time>2003-11-23T08:15:54Z</time>
      </trkpt>
      <trkpt lat="43.970563234761357" lon="10.927085168659687">
        <ele>292.8587646484375</ele>
        <time>2003-11-23T08:16:03Z</time>
      </trkpt>
      <trkpt lat="43.970503471791744" lon="10.927192037925124">
        <ele>293.820068359375</ele>
        <time>2003-11-23T08:16:11Z</time>
      </trkpt>
      <trkpt lat="43.970449743792415" lon="10.927291950210929">
        <ele>295.74267578125</ele>
        <time>2003-11-23T08:16:18Z</time>
      </trkpt>
      <trkpt lat="43.970391238108277" lon="10.927392533048987">
        <ele>296.7041015625</ele>
        <time>2003-11-23T08:16:25Z</time>
      </trkpt>
      <trkpt lat="43.970360560342669" lon="10.927519183605909">
        <ele>297.6654052734375</ele>
        <time>2003-11-23T08:16:32Z</time>
      </trkpt>
      <trkpt lat="43.970364332199097" lon="10.927652874961495">
        <ele>299.1072998046875</ele>
        <time>2003-11-23T08:16:39Z</time>
      </trkpt>
      <trkpt lat="43.970402637496591" lon="10.927773071452975">
        <ele>300.0687255859375</ele>
        <time>2003-11-23T08:16:46Z</time>
      </trkpt>
      <trkpt lat="43.970439685508609" lon="10.927887232974172">
        <ele>301.0299072265625</ele>
        <time>2003-11-23T08:16:53Z</time>
      </trkpt>
      <trkpt lat="43.970425771549344" lon="10.928008435294032">
        <ele>301.9913330078125</ele>
        <time>2003-11-23T08:17:00Z</time>
      </trkpt>
      <trkpt lat="43.970381263643503" lon="10.928131816908717">
        <ele>302.9525146484375</ele>
        <time>2003-11-23T08:17:07Z</time>
      </trkpt>
      <trkpt lat="43.970337845385075" lon="10.928251091390848">
        <ele>302.471923828125</ele>
        <time>2003-11-23T08:17:12Z</time>
      </trkpt>
      <trkpt lat="43.970293337479234" lon="10.928362654522061">
        <ele>301.9913330078125</ele>
        <time>2003-11-23T08:17:16Z</time>
      </trkpt>
      <trkpt lat="43.970237094908953" lon="10.928479665890336">
        <ele>301.9913330078125</ele>
        <time>2003-11-23T08:17:21Z</time>
      </trkpt>
      <trkpt lat="43.970188312232494" lon="10.92859910801053">
        <ele>301.5106201171875</ele>
        <time>2003-11-23T08:17:26Z</time>
      </trkpt>
      <trkpt lat="43.9701241068542" lon="10.92874176800251">
        <ele>301.5106201171875</ele>
        <time>2003-11-23T08:17:31Z</time>
      </trkpt>
      <trkpt lat="43.970069624483585" lon="10.928861377760768">
        <ele>301.9913330078125</ele>
        <time>2003-11-23T08:17:35Z</time>
      </trkpt>
      <trkpt lat="43.969995863735676" lon="10.928987693041563">
        <ele>301.0299072265625</ele>
        <time>2003-11-23T08:17:40Z</time>
      </trkpt>
      <trkpt lat="43.969944147393107" lon="10.929111074656248">
        <ele>300.0687255859375</ele>
        <time>2003-11-23T08:17:44Z</time>
      </trkpt>
      <trkpt lat="43.969889748841524" lon="10.929241580888629">
        <ele>300.0687255859375</ele>
        <time>2003-11-23T08:17:48Z</time>
      </trkpt>
      <trkpt lat="43.96985144354403" lon="10.929361525923014">
        <ele>299.5880126953125</ele>
        <time>2003-11-23T08:17:51Z</time>
      </trkpt>
      <trkpt lat="43.969828225672245" lon="10.929493205621839">
        <ele>298.626708984375</ele>
        <time>2003-11-23T08:17:54Z</time>
      </trkpt>
      <trkpt lat="43.969860998913646" lon="10.929611138999462">
        <ele>299.1072998046875</ele>
        <time>2003-11-23T08:17:59Z</time>
      </trkpt>
      <trkpt lat="43.969888994470239" lon="10.929750697687268">
        <ele>301.5106201171875</ele>
        <time>2003-11-23T08:18:06Z</time>
      </trkpt>
      <trkpt lat="43.969924366101623" lon="10.92987097799778">
        <ele>303.4332275390625</ele>
        <time>2003-11-23T08:18:12Z</time>
      </trkpt>
      <trkpt lat="43.969974489882588" lon="10.929987905547023">
        <ele>305.35595703125</ele>
        <time>2003-11-23T08:18:19Z</time>
      </trkpt>
      <trkpt lat="43.970035510137677" lon="10.93010894022882">
        <ele>306.7978515625</ele>
        <time>2003-11-23T08:18:27Z</time>
      </trkpt>
      <trkpt lat="43.970078425481915" lon="10.930256377905607">
        <ele>308.2398681640625</ele>
        <time>2003-11-23T08:18:34Z</time>
      </trkpt>
      <trkpt lat="43.970104325562716" lon="10.930408593267202">
        <ele>308.720458984375</ele>
        <time>2003-11-23T08:18:40Z</time>
      </trkpt>
      <trkpt lat="43.970121843740344" lon="10.930551672354341">
        <ele>309.681884765625</ele>
        <time>2003-11-23T08:18:45Z</time>
      </trkpt>
      <trkpt lat="43.97014363668859" lon="10.930704893544316">
        <ele>309.681884765625</ele>
        <time>2003-11-23T08:18:50Z</time>
      </trkpt>
      <trkpt lat="43.970168698579073" lon="10.930863646790385">
        <ele>310.64306640625</ele>
        <time>2003-11-23T08:18:55Z</time>
      </trkpt>
      <trkpt lat="43.970199376344681" lon="10.930993482470512">
        <ele>311.6044921875</ele>
        <time>2003-11-23T08:18:59Z</time>
      </trkpt>
      <trkpt lat="43.970238352194428" lon="10.931124575436115">
        <ele>312.085205078125</ele>
        <time>2003-11-23T08:19:03Z</time>
      </trkpt>
      <trkpt lat="43.970281854271889" lon="10.931259104982018">
        <ele>312.085205078125</ele>
        <time>2003-11-23T08:19:07Z</time>
      </trkpt>
      <trkpt lat="43.970329128205776" lon="10.93138575553894">
        <ele>312.085205078125</ele>
        <time>2003-11-23T08:19:11Z</time>
      </trkpt>
      <trkpt lat="43.970378497615457" lon="10.931517854332924">
        <ele>312.085205078125</ele>
        <time>2003-11-23T08:19:15Z</time>
      </trkpt>
      <trkpt lat="43.970425184816122" lon="10.931650372222066">
        <ele>312.5657958984375</ele>
        <time>2003-11-23T08:19:19Z</time>
      </trkpt>
      <trkpt lat="43.970476733520627" lon="10.931777358055115">
        <ele>312.5657958984375</ele>
        <time>2003-11-23T08:19:23Z</time>
      </trkpt>
      <trkpt lat="43.97052283398807" lon="10.931888753548265">
        <ele>312.5657958984375</ele>
        <time>2003-11-23T08:19:27Z</time>
      </trkpt>
      <trkpt lat="43.970571449026465" lon="10.93200677074492">
        <ele>312.5657958984375</ele>
        <time>2003-11-23T08:19:31Z</time>
      </trkpt>
      <trkpt lat="43.970621656626463" lon="10.93212797306478">
        <ele>313.0465087890625</ele>
        <time>2003-11-23T08:19:35Z</time>
      </trkpt>
      <trkpt lat="43.970663566142321" lon="10.932261412963271">
        <ele>313.5272216796875</ele>
        <time>2003-11-23T08:19:39Z</time>
      </trkpt>
      <trkpt lat="43.970707654953003" lon="10.93239719979465">
        <ele>314.0078125</ele>
        <time>2003-11-23T08:19:43Z</time>
      </trkpt>
      <trkpt lat="43.970755599439144" lon="10.932526364922523">
        <ele>314.4884033203125</ele>
        <time>2003-11-23T08:19:47Z</time>
      </trkpt>
      <trkpt lat="43.970792982727289" lon="10.932662654668093">
        <ele>314.4884033203125</ele>
        <time>2003-11-23T08:19:51Z</time>
      </trkpt>
      <trkpt lat="43.970815446227789" lon="10.932802632451057">
        <ele>314.9691162109375</ele>
        <time>2003-11-23T08:19:55Z</time>
      </trkpt>
      <trkpt lat="43.970822906121612" lon="10.932936323806643">
        <ele>315.4498291015625</ele>
        <time>2003-11-23T08:19:59Z</time>
      </trkpt>
      <trkpt lat="43.970820140093565" lon="10.933067500591278">
        <ele>315.930419921875</ele>
        <time>2003-11-23T08:20:03Z</time>
      </trkpt>
      <trkpt lat="43.970805555582047" lon="10.933197923004627">
        <ele>316.4110107421875</ele>
        <time>2003-11-23T08:20:07Z</time>
      </trkpt>
      <trkpt lat="43.970784936100245" lon="10.933329183608294">
        <ele>316.8917236328125</ele>
        <time>2003-11-23T08:20:11Z</time>
      </trkpt>
      <trkpt lat="43.97075342014432" lon="10.933462372049689">
        <ele>317.85302734375</ele>
        <time>2003-11-23T08:20:15Z</time>
      </trkpt>
      <trkpt lat="43.970728274434805" lon="10.933590866625309">
        <ele>318.8143310546875</ele>
        <time>2003-11-23T08:20:19Z</time>
      </trkpt>
      <trkpt lat="43.970720730721951" lon="10.933745009824634">
        <ele>319.775634765625</ele>
        <time>2003-11-23T08:20:24Z</time>
      </trkpt>
      <trkpt lat="43.970735399052501" lon="10.933872330933809">
        <ele>319.775634765625</ele>
        <time>2003-11-23T08:20:28Z</time>
      </trkpt>
      <trkpt lat="43.97076079621911" lon="10.934006106108427">
        <ele>319.775634765625</ele>
        <time>2003-11-23T08:20:32Z</time>
      </trkpt>
      <trkpt lat="43.97080035880208" lon="10.934139965102077">
        <ele>320.25634765625</ele>
        <time>2003-11-23T08:20:36Z</time>
      </trkpt>
      <trkpt lat="43.970852494239807" lon="10.934255300089717">
        <ele>320.737060546875</ele>
        <time>2003-11-23T08:20:40Z</time>
      </trkpt>
      <trkpt lat="43.970913765951991" lon="10.934363007545471">
        <ele>320.737060546875</ele>
        <time>2003-11-23T08:20:44Z</time>
      </trkpt>
      <trkpt lat="43.970978809520602" lon="10.934466775506735">
        <ele>321.6983642578125</ele>
        <time>2003-11-23T08:20:48Z</time>
      </trkpt>
      <trkpt lat="43.971044775098562" lon="10.934575069695711">
        <ele>322.178955078125</ele>
        <time>2003-11-23T08:20:52Z</time>
      </trkpt>
      <trkpt lat="43.971109902486205" lon="10.934677915647626">
        <ele>322.178955078125</ele>
        <time>2003-11-23T08:20:56Z</time>
      </trkpt>
      <trkpt lat="43.971169162541628" lon="10.934791741892695">
        <ele>322.65966796875</ele>
        <time>2003-11-23T08:21:00Z</time>
      </trkpt>
      <trkpt lat="43.971237307414412" lon="10.934908082708716">
        <ele>323.6209716796875</ele>
        <time>2003-11-23T08:21:04Z</time>
      </trkpt>
      <trkpt lat="43.971303105354309" lon="10.935023501515388">
        <ele>323.6209716796875</ele>
        <time>2003-11-23T08:21:08Z</time>
      </trkpt>
      <trkpt lat="43.971371334046125" lon="10.935142356902361">
        <ele>324.582275390625</ele>
        <time>2003-11-23T08:21:12Z</time>
      </trkpt>
      <trkpt lat="43.971436209976673" lon="10.93525224365294">
        <ele>325.06298828125</ele>
        <time>2003-11-23T08:21:16Z</time>
      </trkpt>
      <trkpt lat="43.971500918269157" lon="10.935368919745088">
        <ele>325.5435791015625</ele>
        <time>2003-11-23T08:21:20Z</time>
      </trkpt>
      <trkpt lat="43.971563028171659" lon="10.935487188398838">
        <ele>325.5435791015625</ele>
        <time>2003-11-23T08:21:24Z</time>
      </trkpt>
      <trkpt lat="43.971623545512557" lon="10.935598164796829">
        <ele>326.024169921875</ele>
        <time>2003-11-23T08:21:28Z</time>
      </trkpt>
      <trkpt lat="43.971689846366644" lon="10.935705536976457">
        <ele>326.5048828125</ele>
        <time>2003-11-23T08:21:32Z</time>
      </trkpt>
      <trkpt lat="43.971769055351615" lon="10.935798324644566">
        <ele>326.5048828125</ele>
        <time>2003-11-23T08:21:36Z</time>
      </trkpt>
      <trkpt lat="43.97184994071722" lon="10.935897398740053">
        <ele>327.4661865234375</ele>
        <time>2003-11-23T08:21:40Z</time>
      </trkpt>
      <trkpt lat="43.971933256834745" lon="10.935984905809164">
        <ele>327.94677734375</ele>
        <time>2003-11-23T08:21:44Z</time>
      </trkpt>
      <trkpt lat="43.972018584609032" lon="10.936060845851898">
        <ele>328.4276123046875</ele>
        <time>2003-11-23T08:21:48Z</time>
      </trkpt>
      <trkpt lat="43.972101816907525" lon="10.936123374849558">
        <ele>329.388916015625</ele>
        <time>2003-11-23T08:21:52Z</time>
      </trkpt>
      <trkpt lat="43.972177170217037" lon="10.93619872815907">
        <ele>329.388916015625</ele>
        <time>2003-11-23T08:21:57Z</time>
      </trkpt>
      <trkpt lat="43.972249003127217" lon="10.936277266591787">
        <ele>330.3502197265625</ele>
        <time>2003-11-23T08:22:02Z</time>
      </trkpt>
      <trkpt lat="43.972336510196328" lon="10.936370138078928">
        <ele>331.3115234375</ele>
        <time>2003-11-23T08:22:07Z</time>
      </trkpt>
      <trkpt lat="43.972423430532217" lon="10.936469212174416">
        <ele>331.3115234375</ele>
        <time>2003-11-23T08:22:12Z</time>
      </trkpt>
      <trkpt lat="43.972506998106837" lon="10.936562502756715">
        <ele>331.7921142578125</ele>
        <time>2003-11-23T08:22:17Z</time>
      </trkpt>
      <trkpt lat="43.972586877644062" lon="10.936665683984756">
        <ele>332.7535400390625</ele>
        <time>2003-11-23T08:22:22Z</time>
      </trkpt>
      <trkpt lat="43.972669271752238" lon="10.936765260994434">
        <ele>333.234130859375</ele>
        <time>2003-11-23T08:22:27Z</time>
      </trkpt>
      <trkpt lat="43.972754431888461" lon="10.936854192987084">
        <ele>333.234130859375</ele>
        <time>2003-11-23T08:22:32Z</time>
      </trkpt>
      <trkpt lat="43.972835652530193" lon="10.936943292617798">
        <ele>334.1954345703125</ele>
        <time>2003-11-23T08:22:37Z</time>
      </trkpt>
      <trkpt lat="43.972919723019004" lon="10.937049575150013">
        <ele>335.15673828125</ele>
        <time>2003-11-23T08:22:42Z</time>
      </trkpt>
      <trkpt lat="43.972988119348884" lon="10.937163904309273">
        <ele>336.1181640625</ele>
        <time>2003-11-23T08:22:47Z</time>
      </trkpt>
      <trkpt lat="43.973034471273422" lon="10.937311677262187">
        <ele>336.598876953125</ele>
        <time>2003-11-23T08:22:52Z</time>
      </trkpt>
      <trkpt lat="43.973041009157896" lon="10.937451822683215">
        <ele>337.0794677734375</ele>
        <time>2003-11-23T08:22:57Z</time>
      </trkpt>
      <trkpt lat="43.973036902025342" lon="10.93759129755199">
        <ele>338.040771484375</ele>
        <time>2003-11-23T08:23:02Z</time>
      </trkpt>
      <trkpt lat="43.973017875105143" lon="10.937729431316257">
        <ele>339.0020751953125</ele>
        <time>2003-11-23T08:23:07Z</time>
      </trkpt>
      <trkpt lat="43.973012007772923" lon="10.937869492918253">
        <ele>339.482666015625</ele>
        <time>2003-11-23T08:23:12Z</time>
      </trkpt>
      <trkpt lat="43.97302751429379" lon="10.938016343861818">
        <ele>340.444091796875</ele>
        <time>2003-11-23T08:23:17Z</time>
      </trkpt>
      <trkpt lat="43.973061125725508" lon="10.938131930306554">
        <ele>340.444091796875</ele>
        <time>2003-11-23T08:23:21Z</time>
      </trkpt>
      <trkpt lat="43.973104963079095" lon="10.938246762380004">
        <ele>340.9246826171875</ele>
        <time>2003-11-23T08:23:25Z</time>
      </trkpt>
      <trkpt lat="43.973160199820995" lon="10.938347177579999">
        <ele>340.444091796875</ele>
        <time>2003-11-23T08:23:29Z</time>
      </trkpt>
      <trkpt lat="43.973233373835683" lon="10.938467709347606">
        <ele>341.4052734375</ele>
        <time>2003-11-23T08:23:34Z</time>
      </trkpt>
      <trkpt lat="43.973299087956548" lon="10.938562424853444">
        <ele>341.4052734375</ele>
        <time>2003-11-23T08:23:38Z</time>
      </trkpt>
      <trkpt lat="43.97336857393384" lon="10.938657810911536">
        <ele>342.36669921875</ele>
        <time>2003-11-23T08:23:42Z</time>
      </trkpt>
      <trkpt lat="43.973437137901783" lon="10.938745485618711">
        <ele>342.8472900390625</ele>
        <time>2003-11-23T08:23:46Z</time>
      </trkpt>
      <trkpt lat="43.973503522574902" lon="10.938830897212029">
        <ele>343.80859375</ele>
        <time>2003-11-23T08:23:50Z</time>
      </trkpt>
      <trkpt lat="43.973580887541175" lon="10.938938856124878">
        <ele>344.2894287109375</ele>
        <time>2003-11-23T08:23:55Z</time>
      </trkpt>
      <trkpt lat="43.97366370074451" lon="10.939045138657093">
        <ele>345.2506103515625</ele>
        <time>2003-11-23T08:24:00Z</time>
      </trkpt>
      <trkpt lat="43.973744083195925" lon="10.939141865819693">
        <ele>345.7313232421875</ele>
        <time>2003-11-23T08:24:05Z</time>
      </trkpt>
      <trkpt lat="43.973829662427306" lon="10.939226690679789">
        <ele>346.2120361328125</ele>
        <time>2003-11-23T08:24:10Z</time>
      </trkpt>
      <trkpt lat="43.973918342962861" lon="10.939299948513508">
        <ele>347.1732177734375</ele>
        <time>2003-11-23T08:24:15Z</time>
      </trkpt>
      <trkpt lat="43.974014483392239" lon="10.939359292387962">
        <ele>348.1346435546875</ele>
        <time>2003-11-23T08:24:20Z</time>
      </trkpt>
      <trkpt lat="43.974116910248995" lon="10.939408913254738">
        <ele>349.0958251953125</ele>
        <time>2003-11-23T08:24:25Z</time>
      </trkpt>
      <trkpt lat="43.974215649068356" lon="10.939446715638041">
        <ele>350.0572509765625</ele>
        <time>2003-11-23T08:24:30Z</time>
      </trkpt>
      <trkpt lat="43.97431262768805" lon="10.939477058127522">
        <ele>350.0572509765625</ele>
        <time>2003-11-23T08:24:35Z</time>
      </trkpt>
      <trkpt lat="43.974409103393555" lon="10.939485691487789">
        <ele>350.537841796875</ele>
        <time>2003-11-23T08:24:40Z</time>
      </trkpt>
      <trkpt lat="43.974517732858658" lon="10.939491810277104">
        <ele>351.4991455078125</ele>
        <time>2003-11-23T08:24:45Z</time>
      </trkpt>
      <trkpt lat="43.974619237706065" lon="10.939492229372263">
        <ele>351.9798583984375</ele>
        <time>2003-11-23T08:24:50Z</time>
      </trkpt>
      <trkpt lat="43.974721832200885" lon="10.939491475000978">
        <ele>352.941162109375</ele>
        <time>2003-11-23T08:24:55Z</time>
      </trkpt>
      <trkpt lat="43.974828869104385" lon="10.939471442252398">
        <ele>352.941162109375</ele>
        <time>2003-11-23T08:25:00Z</time>
      </trkpt>
      <trkpt lat="43.974934816360474" lon="10.939440093934536">
        <ele>353.902587890625</ele>
        <time>2003-11-23T08:25:05Z</time>
      </trkpt>
      <trkpt lat="43.975024251267314" lon="10.939394412562251">
        <ele>354.86376953125</ele>
        <time>2003-11-23T08:25:10Z</time>
      </trkpt>
      <trkpt lat="43.975102538242936" lon="10.939328530803323">
        <ele>355.344482421875</ele>
        <time>2003-11-23T08:25:15Z</time>
      </trkpt>
      <trkpt lat="43.975176550447941" lon="10.939241275191307">
        <ele>356.786376953125</ele>
        <time>2003-11-23T08:25:20Z</time>
      </trkpt>
      <trkpt lat="43.975239833816886" lon="10.93914027325809">
        <ele>357.747802734375</ele>
        <time>2003-11-23T08:25:25Z</time>
      </trkpt>
      <trkpt lat="43.975289454683661" lon="10.93899610452354">
        <ele>357.747802734375</ele>
        <time>2003-11-23T08:25:30Z</time>
      </trkpt>
      <trkpt lat="43.975314516574144" lon="10.938880685716867">
        <ele>358.708984375</ele>
        <time>2003-11-23T08:25:34Z</time>
      </trkpt>
      <trkpt lat="43.975334465503693" lon="10.938738361001015">
        <ele>359.189697265625</ele>
        <time>2003-11-23T08:25:39Z</time>
      </trkpt>
      <trkpt lat="43.975338991731405" lon="10.938612967729568">
        <ele>359.67041015625</ele>
        <time>2003-11-23T08:25:43Z</time>
      </trkpt>
      <trkpt lat="43.975338069722056" lon="10.938486065715551">
        <ele>360.6317138671875</ele>
        <time>2003-11-23T08:25:47Z</time>
      </trkpt>
      <trkpt lat="43.975336393341422" lon="10.93836335465312">
        <ele>360.6317138671875</ele>
        <time>2003-11-23T08:25:51Z</time>
      </trkpt>
      <trkpt lat="43.975338153541088" lon="10.93823779374361">
        <ele>361.1124267578125</ele>
        <time>2003-11-23T08:25:55Z</time>
      </trkpt>
      <trkpt lat="43.975331280380487" lon="10.938096139580011">
        <ele>362.07373046875</ele>
        <time>2003-11-23T08:25:59Z</time>
      </trkpt>
      <trkpt lat="43.975323401391506" lon="10.937966220080853">
        <ele>362.07373046875</ele>
        <time>2003-11-23T08:26:03Z</time>
      </trkpt>
      <trkpt lat="43.975321557372808" lon="10.937834372743964">
        <ele>362.5543212890625</ele>
        <time>2003-11-23T08:26:07Z</time>
      </trkpt>
      <trkpt lat="43.975320048630238" lon="10.937704872339964">
        <ele>363.0350341796875</ele>
        <time>2003-11-23T08:26:11Z</time>
      </trkpt>
      <trkpt lat="43.975319797173142" lon="10.937578808516264">
        <ele>363.5157470703125</ele>
        <time>2003-11-23T08:26:15Z</time>
      </trkpt>
      <trkpt lat="43.975324239581823" lon="10.937426593154669">
        <ele>363.996337890625</ele>
        <time>2003-11-23T08:26:20Z</time>
      </trkpt>
      <trkpt lat="43.975325664505363" lon="10.93729474581778">
        <ele>364.4769287109375</ele>
        <time>2003-11-23T08:26:24Z</time>
      </trkpt>
      <trkpt lat="43.975333878770471" lon="10.937163401395082">
        <ele>364.9576416015625</ele>
        <time>2003-11-23T08:26:28Z</time>
      </trkpt>
      <trkpt lat="43.975339159369469" lon="10.937025267630816">
        <ele>365.4383544921875</ele>
        <time>2003-11-23T08:26:32Z</time>
      </trkpt>
      <trkpt lat="43.975346367806196" lon="10.93688185326755">
        <ele>366.3995361328125</ele>
        <time>2003-11-23T08:26:36Z</time>
      </trkpt>
      <trkpt lat="43.975359862670302" lon="10.936744641512632">
        <ele>366.8802490234375</ele>
        <time>2003-11-23T08:26:40Z</time>
      </trkpt>
      <trkpt lat="43.975378554314375" lon="10.936611033976078">
        <ele>366.3995361328125</ele>
        <time>2003-11-23T08:26:44Z</time>
      </trkpt>
      <trkpt lat="43.975424487143755" lon="10.936497207731009">
        <ele>366.8802490234375</ele>
        <time>2003-11-23T08:26:48Z</time>
      </trkpt>
      <trkpt lat="43.975527752190828" lon="10.936436271294951">
        <ele>367.3609619140625</ele>
        <time>2003-11-23T08:26:52Z</time>
      </trkpt>
      <trkpt lat="43.975631771609187" lon="10.936375586315989">
        <ele>367.841552734375</ele>
        <time>2003-11-23T08:26:56Z</time>
      </trkpt>
      <trkpt lat="43.975741490721703" lon="10.936369718983769">
        <ele>367.841552734375</ele>
        <time>2003-11-23T08:27:00Z</time>
      </trkpt>
      <trkpt lat="43.975853892043233" lon="10.936425793915987">
        <ele>367.841552734375</ele>
        <time>2003-11-23T08:27:04Z</time>
      </trkpt>
      <trkpt lat="43.975946260616183" lon="10.936510032042861">
        <ele>369.28369140625</ele>
        <time>2003-11-23T08:27:08Z</time>
      </trkpt>
      <trkpt lat="43.97603745572269" lon="10.936590163037181">
        <ele>369.7642822265625</ele>
        <time>2003-11-23T08:27:12Z</time>
      </trkpt>
      <trkpt lat="43.976137032732368" lon="10.936664091423154">
        <ele>370.7255859375</ele>
        <time>2003-11-23T08:27:16Z</time>
      </trkpt>
      <trkpt lat="43.976241303607821" lon="10.936724105849862">
        <ele>371.6868896484375</ele>
        <time>2003-11-23T08:27:20Z</time>
      </trkpt>
      <trkpt lat="43.976342305541039" lon="10.936768529936671">
        <ele>372.16748046875</ele>
        <time>2003-11-23T08:27:24Z</time>
      </trkpt>
      <trkpt lat="43.97643081843853" lon="10.936822593212128">
        <ele>372.16748046875</ele>
        <time>2003-11-23T08:27:28Z</time>
      </trkpt>
      <trkpt lat="43.976531736552715" lon="10.936894090846181">
        <ele>373.6094970703125</ele>
        <time>2003-11-23T08:27:33Z</time>
      </trkpt>
      <trkpt lat="43.976638186722994" lon="10.936961229890585">
        <ele>374.57080078125</ele>
        <time>2003-11-23T08:27:38Z</time>
      </trkpt>
      <trkpt lat="43.976726699620485" lon="10.937009928748012">
        <ele>375.051513671875</ele>
        <time>2003-11-23T08:27:42Z</time>
      </trkpt>
      <trkpt lat="43.976811105385423" lon="10.937057705596089">
        <ele>376.0128173828125</ele>
        <time>2003-11-23T08:27:46Z</time>
      </trkpt>
      <trkpt lat="43.976904479786754" lon="10.937102129682899">
        <ele>376.0128173828125</ele>
        <time>2003-11-23T08:27:50Z</time>
      </trkpt>
      <trkpt lat="43.976996848359704" lon="10.937137249857187">
        <ele>377.454833984375</ele>
        <time>2003-11-23T08:27:54Z</time>
      </trkpt>
      <trkpt lat="43.97708804346621" lon="10.937163149937987">
        <ele>377.9354248046875</ele>
        <time>2003-11-23T08:27:58Z</time>
      </trkpt>
      <trkpt lat="43.977184183895588" lon="10.937180919572711">
        <ele>377.9354248046875</ele>
        <time>2003-11-23T08:28:02Z</time>
      </trkpt>
      <trkpt lat="43.977285353466868" lon="10.937187457457185">
        <ele>377.9354248046875</ele>
        <time>2003-11-23T08:28:06Z</time>
      </trkpt>
      <trkpt lat="43.977383589372039" lon="10.937187289819121">
        <ele>378.8968505859375</ele>
        <time>2003-11-23T08:28:10Z</time>
      </trkpt>
      <trkpt lat="43.977484004572034" lon="10.937172872945666">
        <ele>379.37744140625</ele>
        <time>2003-11-23T08:28:14Z</time>
      </trkpt>
      <trkpt lat="43.97757469676435" lon="10.937141356989741">
        <ele>379.8580322265625</ele>
        <time>2003-11-23T08:28:18Z</time>
      </trkpt>
      <trkpt lat="43.977662622928619" lon="10.937085282057524">
        <ele>380.8194580078125</ele>
        <time>2003-11-23T08:28:22Z</time>
      </trkpt>
      <trkpt lat="43.977735713124275" lon="10.937005151063204">
        <ele>380.8194580078125</ele>
        <time>2003-11-23T08:28:26Z</time>
      </trkpt>
      <trkpt lat="43.977800756692886" lon="10.936903143301606">
        <ele>381.300048828125</ele>
        <time>2003-11-23T08:28:30Z</time>
      </trkpt>
      <trkpt lat="43.977834200486541" lon="10.936777833849192">
        <ele>381.300048828125</ele>
        <time>2003-11-23T08:28:34Z</time>
      </trkpt>
      <trkpt lat="43.977843336760998" lon="10.936634754762053">
        <ele>382.7420654296875</ele>
        <time>2003-11-23T08:28:38Z</time>
      </trkpt>
      <trkpt lat="43.977826237678528" lon="10.936479270458221">
        <ele>383.22265625</ele>
        <time>2003-11-23T08:28:42Z</time>
      </trkpt>
      <trkpt lat="43.977802852168679" lon="10.936321271583438">
        <ele>383.7032470703125</ele>
        <time>2003-11-23T08:28:46Z</time>
      </trkpt>
      <trkpt lat="43.977780053392053" lon="10.936185568571091">
        <ele>384.18408203125</ele>
        <time>2003-11-23T08:28:50Z</time>
      </trkpt>
      <trkpt lat="43.977757086977363" lon="10.936034442856908">
        <ele>384.664794921875</ele>
        <time>2003-11-23T08:28:54Z</time>
      </trkpt>
      <trkpt lat="43.977744849398732" lon="10.935879293829203">
        <ele>385.1453857421875</ele>
        <time>2003-11-23T08:28:58Z</time>
      </trkpt>
      <trkpt lat="43.977736886590719" lon="10.93571936711669">
        <ele>385.6259765625</ele>
        <time>2003-11-23T08:29:02Z</time>
      </trkpt>
      <trkpt lat="43.977728839963675" lon="10.935561703518033">
        <ele>385.6259765625</ele>
        <time>2003-11-23T08:29:06Z</time>
      </trkpt>
      <trkpt lat="43.977732444182038" lon="10.935405716300011">
        <ele>385.6259765625</ele>
        <time>2003-11-23T08:29:10Z</time>
      </trkpt>
      <trkpt lat="43.977767145261168" lon="10.935262721031904">
        <ele>385.6259765625</ele>
        <time>2003-11-23T08:29:14Z</time>
      </trkpt>
      <trkpt lat="43.977838475257158" lon="10.935161300003529">
        <ele>386.106689453125</ele>
        <time>2003-11-23T08:29:18Z</time>
      </trkpt>
      <trkpt lat="43.977953977882862" lon="10.935121569782495">
        <ele>386.58740234375</ele>
        <time>2003-11-23T08:29:22Z</time>
      </trkpt>
      <trkpt lat="43.978085573762655" lon="10.93510908074677">
        <ele>387.0679931640625</ele>
        <time>2003-11-23T08:29:26Z</time>
      </trkpt>
      <trkpt lat="43.978216331452131" lon="10.935086365789175">
        <ele>387.548583984375</ele>
        <time>2003-11-23T08:29:30Z</time>
      </trkpt>
      <trkpt lat="43.978342227637768" lon="10.935056023299694">
        <ele>388.029296875</ele>
        <time>2003-11-23T08:29:34Z</time>
      </trkpt>
      <trkpt lat="43.978474829345942" lon="10.935054766014218">
        <ele>387.548583984375</ele>
        <time>2003-11-23T08:29:38Z</time>
      </trkpt>
      <trkpt lat="43.978605754673481" lon="10.935091646388173">
        <ele>388.029296875</ele>
        <time>2003-11-23T08:29:42Z</time>
      </trkpt>
      <trkpt lat="43.978733997792006" lon="10.935128275305033">
        <ele>388.510009765625</ele>
        <time>2003-11-23T08:29:46Z</time>
      </trkpt>
      <trkpt lat="43.978862995281816" lon="10.935165323317051">
        <ele>388.9906005859375</ele>
        <time>2003-11-23T08:29:50Z</time>
      </trkpt>
      <trkpt lat="43.978993585333228" lon="10.935197845101357">
        <ele>389.47119140625</ele>
        <time>2003-11-23T08:29:54Z</time>
      </trkpt>
      <trkpt lat="43.979116044938564" lon="10.935228858143091">
        <ele>389.951904296875</ele>
        <time>2003-11-23T08:29:58Z</time>
      </trkpt>
      <trkpt lat="43.979236660525203" lon="10.935264565050602">
        <ele>390.4326171875</ele>
        <time>2003-11-23T08:30:02Z</time>
      </trkpt>
      <trkpt lat="43.979346128180623" lon="10.93529624864459">
        <ele>390.9132080078125</ele>
        <time>2003-11-23T08:30:06Z</time>
      </trkpt>
      <trkpt lat="43.979464313015342" lon="10.93533824197948">
        <ele>391.393798828125</ele>
        <time>2003-11-23T08:30:10Z</time>
      </trkpt>
      <trkpt lat="43.979587778449059" lon="10.935377301648259">
        <ele>392.3553466796875</ele>
        <time>2003-11-23T08:30:14Z</time>
      </trkpt>
      <trkpt lat="43.979705879464746" lon="10.935420803725719">
        <ele>392.8359375</ele>
        <time>2003-11-23T08:30:18Z</time>
      </trkpt>
      <trkpt lat="43.979824902489781" lon="10.935459360480309">
        <ele>393.3165283203125</ele>
        <time>2003-11-23T08:30:22Z</time>
      </trkpt>
      <trkpt lat="43.979948870837688" lon="10.935491127893329">
        <ele>393.7972412109375</ele>
        <time>2003-11-23T08:30:26Z</time>
      </trkpt>
      <trkpt lat="43.980067558586597" lon="10.935517027974129">
        <ele>394.2779541015625</ele>
        <time>2003-11-23T08:30:30Z</time>
      </trkpt>
      <trkpt lat="43.980177529156208" lon="10.935539994388819">
        <ele>393.7972412109375</ele>
        <time>2003-11-23T08:30:34Z</time>
      </trkpt>
      <trkpt lat="43.980290098115802" lon="10.935550136491656">
        <ele>394.758544921875</ele>
        <time>2003-11-23T08:30:38Z</time>
      </trkpt>
      <trkpt lat="43.980411719530821" lon="10.935556003823876">
        <ele>394.758544921875</ele>
        <time>2003-11-23T08:30:42Z</time>
      </trkpt>
      <trkpt lat="43.980538370087743" lon="10.93555617146194">
        <ele>394.758544921875</ele>
        <time>2003-11-23T08:30:46Z</time>
      </trkpt>
      <trkpt lat="43.980657225474715" lon="10.935552986338735">
        <ele>395.7198486328125</ele>
        <time>2003-11-23T08:30:50Z</time>
      </trkpt>
      <trkpt lat="43.980775913223624" lon="10.93554544262588">
        <ele>395.7198486328125</ele>
        <time>2003-11-23T08:30:54Z</time>
      </trkpt>
      <trkpt lat="43.980896780267358" lon="10.935534797608852">
        <ele>396.68115234375</ele>
        <time>2003-11-23T08:30:58Z</time>
      </trkpt>
      <trkpt lat="43.981021335348487" lon="10.935524571686983">
        <ele>397.6424560546875</ele>
        <time>2003-11-23T08:31:02Z</time>
      </trkpt>
      <trkpt lat="43.981111356988549" lon="10.935519626364112">
        <ele>397.6424560546875</ele>
        <time>2003-11-23T08:31:05Z</time>
      </trkpt>
      <trkpt lat="43.981205988675356" lon="10.935517195612192">
        <ele>398.1231689453125</ele>
        <time>2003-11-23T08:31:08Z</time>
      </trkpt>
      <trkpt lat="43.981304978951812" lon="10.935516022145748">
        <ele>398.1231689453125</ele>
        <time>2003-11-23T08:31:11Z</time>
      </trkpt>
      <trkpt lat="43.981407321989536" lon="10.935516441240907">
        <ele>398.1231689453125</ele>
        <time>2003-11-23T08:31:14Z</time>
      </trkpt>
      <trkpt lat="43.981510167941451" lon="10.935514597222209">
        <ele>398.1231689453125</ele>
        <time>2003-11-23T08:31:17Z</time>
      </trkpt>
      <trkpt lat="43.981616115197539" lon="10.935502778738737">
        <ele>398.603759765625</ele>
        <time>2003-11-23T08:31:20Z</time>
      </trkpt>
      <trkpt lat="43.981711501255631" lon="10.935494564473629">
        <ele>398.603759765625</ele>
        <time>2003-11-23T08:31:23Z</time>
      </trkpt>
      <trkpt lat="43.981806468218565" lon="10.93548433855176">
        <ele>399.0843505859375</ele>
        <time>2003-11-23T08:31:26Z</time>
      </trkpt>
      <trkpt lat="43.981902189552784" lon="10.935470759868622">
        <ele>398.603759765625</ele>
        <time>2003-11-23T08:31:29Z</time>
      </trkpt>
      <trkpt lat="43.982004532590508" lon="10.935465982183814">
        <ele>399.0843505859375</ele>
        <time>2003-11-23T08:31:32Z</time>
      </trkpt>
      <trkpt lat="43.98211115039885" lon="10.935471262782812">
        <ele>399.0843505859375</ele>
        <time>2003-11-23T08:31:35Z</time>
      </trkpt>
      <trkpt lat="43.982218187302351" lon="10.935492049902678">
        <ele>399.5650634765625</ele>
        <time>2003-11-23T08:31:38Z</time>
      </trkpt>
      <trkpt lat="43.982330672442913" lon="10.935521135106683">
        <ele>400.0458984375</ele>
        <time>2003-11-23T08:31:41Z</time>
      </trkpt>
      <trkpt lat="43.982437709346414" lon="10.935559524223208">
        <ele>400.0458984375</ele>
        <time>2003-11-23T08:31:44Z</time>
      </trkpt>
      <trkpt lat="43.982540303841233" lon="10.935610234737396">
        <ele>400.0458984375</ele>
        <time>2003-11-23T08:31:47Z</time>
      </trkpt>
      <trkpt lat="43.982613477855921" lon="10.935690198093653">
        <ele>400.5264892578125</ele>
        <time>2003-11-23T08:31:50Z</time>
      </trkpt>
      <trkpt lat="43.982676090672612" lon="10.935801258310676">
        <ele>400.5264892578125</ele>
        <time>2003-11-23T08:31:53Z</time>
      </trkpt>
      <trkpt lat="43.982706181704998" lon="10.935937212780118">
        <ele>400.5264892578125</ele>
        <time>2003-11-23T08:31:56Z</time>
      </trkpt>
      <trkpt lat="43.982705175876617" lon="10.936076855286956">
        <ele>401.007080078125</ele>
        <time>2003-11-23T08:31:59Z</time>
      </trkpt>
      <trkpt lat="43.982698386535048" lon="10.936213480308652">
        <ele>401.007080078125</ele>
        <time>2003-11-23T08:32:02Z</time>
      </trkpt>
      <trkpt lat="43.982687406241894" lon="10.936345411464572">
        <ele>401.007080078125</ele>
        <time>2003-11-23T08:32:05Z</time>
      </trkpt>
      <trkpt lat="43.982701906934381" lon="10.93646502122283">
        <ele>401.48779296875</ele>
        <time>2003-11-23T08:32:08Z</time>
      </trkpt>
      <trkpt lat="43.982738284394145" lon="10.936585888266563">
        <ele>401.48779296875</ele>
        <time>2003-11-23T08:32:11Z</time>
      </trkpt>
      <trkpt lat="43.982791258022189" lon="10.936712874099612">
        <ele>401.48779296875</ele>
        <time>2003-11-23T08:32:14Z</time>
      </trkpt>
      <trkpt lat="43.982853451743722" lon="10.936824856325984">
        <ele>401.48779296875</ele>
        <time>2003-11-23T08:32:17Z</time>
      </trkpt>
      <trkpt lat="43.982922937721014" lon="10.936922002583742">
        <ele>401.48779296875</ele>
        <time>2003-11-23T08:32:20Z</time>
      </trkpt>
      <trkpt lat="43.982990579679608" lon="10.937027782201767">
        <ele>401.968505859375</ele>
        <time>2003-11-23T08:32:23Z</time>
      </trkpt>
      <trkpt lat="43.983040871098638" lon="10.937153846025467">
        <ele>402.4490966796875</ele>
        <time>2003-11-23T08:32:26Z</time>
      </trkpt>
      <trkpt lat="43.983029387891293" lon="10.937306564301252">
        <ele>401.968505859375</ele>
        <time>2003-11-23T08:32:29Z</time>
      </trkpt>
      <trkpt lat="43.982943138107657" lon="10.937408488243818">
        <ele>402.9296875</ele>
        <time>2003-11-23T08:32:32Z</time>
      </trkpt>
      <trkpt lat="43.98284406401217" lon="10.93745743855834">
        <ele>402.4490966796875</ele>
        <time>2003-11-23T08:32:35Z</time>
      </trkpt>
      <trkpt lat="43.982745576649904" lon="10.9375009406358">
        <ele>402.4490966796875</ele>
        <time>2003-11-23T08:32:38Z</time>
      </trkpt>
      <trkpt lat="43.982653878629208" lon="10.937569420784712">
        <ele>402.9296875</ele>
        <time>2003-11-23T08:32:41Z</time>
      </trkpt>
      <trkpt lat="43.982577351853251" lon="10.937666483223438">
        <ele>402.9296875</ele>
        <time>2003-11-23T08:32:44Z</time>
      </trkpt>
      <trkpt lat="43.982518678531051" lon="10.937786344438791">
        <ele>403.410400390625</ele>
        <time>2003-11-23T08:32:47Z</time>
      </trkpt>
      <trkpt lat="43.982478445395827" lon="10.937921209260821">
        <ele>402.9296875</ele>
        <time>2003-11-23T08:32:50Z</time>
      </trkpt>
      <trkpt lat="43.982453383505344" lon="10.938067305833101">
        <ele>403.410400390625</ele>
        <time>2003-11-23T08:32:53Z</time>
      </trkpt>
      <trkpt lat="43.982443241402507" lon="10.938216168433428">
        <ele>403.410400390625</ele>
        <time>2003-11-23T08:32:56Z</time>
      </trkpt>
      <trkpt lat="43.982424633577466" lon="10.938361175358295">
        <ele>403.89111328125</ele>
        <time>2003-11-23T08:32:59Z</time>
      </trkpt>
      <trkpt lat="43.982393788173795" lon="10.938505008816719">
        <ele>403.89111328125</ele>
        <time>2003-11-23T08:33:02Z</time>
      </trkpt>
      <trkpt lat="43.982350705191493" lon="10.938622523099184">
        <ele>403.410400390625</ele>
        <time>2003-11-23T08:33:05Z</time>
      </trkpt>
      <trkpt lat="43.982289684936404" lon="10.938719250261784">
        <ele>403.89111328125</ele>
        <time>2003-11-23T08:33:08Z</time>
      </trkpt>
      <trkpt lat="43.982215169817209" lon="10.938801728188992">
        <ele>404.3717041015625</ele>
        <time>2003-11-23T08:33:11Z</time>
      </trkpt>
      <trkpt lat="43.982135122641921" lon="10.938884792849422">
        <ele>404.3717041015625</ele>
        <time>2003-11-23T08:33:14Z</time>
      </trkpt>
      <trkpt lat="43.982052309438586" lon="10.938966516405344">
        <ele>404.3717041015625</ele>
        <time>2003-11-23T08:33:17Z</time>
      </trkpt>
      <trkpt lat="43.981971004977822" lon="10.939055783674121">
        <ele>404.852294921875</ele>
        <time>2003-11-23T08:33:20Z</time>
      </trkpt>
      <trkpt lat="43.981899926438928" lon="10.939161982387304">
        <ele>404.852294921875</ele>
        <time>2003-11-23T08:33:23Z</time>
      </trkpt>
      <trkpt lat="43.981839576736093" lon="10.939286453649402">
        <ele>404.3717041015625</ele>
        <time>2003-11-23T08:33:26Z</time>
      </trkpt>
      <trkpt lat="43.981784423813224" lon="10.939424587413669">
        <ele>404.852294921875</ele>
        <time>2003-11-23T08:33:29Z</time>
      </trkpt>
      <trkpt lat="43.981728348881006" lon="10.939555009827018">
        <ele>404.852294921875</ele>
        <time>2003-11-23T08:33:32Z</time>
      </trkpt>
      <trkpt lat="43.981679733842611" lon="10.939677804708481">
        <ele>405.3330078125</ele>
        <time>2003-11-23T08:33:35Z</time>
      </trkpt>
      <trkpt lat="43.981632543727756" lon="10.939808310940862">
        <ele>405.3330078125</ele>
        <time>2003-11-23T08:33:38Z</time>
      </trkpt>
      <trkpt lat="43.981597423553467" lon="10.939931441098452">
        <ele>405.3330078125</ele>
        <time>2003-11-23T08:33:41Z</time>
      </trkpt>
      <trkpt lat="43.981567164883018" lon="10.940048787742853">
        <ele>405.3330078125</ele>
        <time>2003-11-23T08:33:44Z</time>
      </trkpt>
      <trkpt lat="43.981543192639947" lon="10.94017468392849">
        <ele>405.813720703125</ele>
        <time>2003-11-23T08:33:47Z</time>
      </trkpt>
      <trkpt lat="43.981528440490365" lon="10.940318768844008">
        <ele>405.813720703125</ele>
        <time>2003-11-23T08:33:50Z</time>
      </trkpt>
      <trkpt lat="43.981520477682352" lon="10.940461764112115">
        <ele>405.813720703125</ele>
        <time>2003-11-23T08:33:53Z</time>
      </trkpt>
      <trkpt lat="43.981517879292369" lon="10.940602160990238">
        <ele>406.2943115234375</ele>
        <time>2003-11-23T08:33:56Z</time>
      </trkpt>
      <trkpt lat="43.981527769938111" lon="10.94074540771544">
        <ele>405.813720703125</ele>
        <time>2003-11-23T08:33:59Z</time>
      </trkpt>
      <trkpt lat="43.981596920639277" lon="10.940878260880709">
        <ele>405.813720703125</ele>
        <time>2003-11-23T08:34:03Z</time>
      </trkpt>
      <trkpt lat="43.981693228706717" lon="10.940968114882708">
        <ele>405.813720703125</ele>
        <time>2003-11-23T08:34:07Z</time>
      </trkpt>
      <trkpt lat="43.981803115457296" lon="10.940968533977866">
        <ele>404.852294921875</ele>
        <time>2003-11-23T08:34:11Z</time>
      </trkpt>
      <trkpt lat="43.981902608647943" lon="10.940956966951489">
        <ele>404.852294921875</ele>
        <time>2003-11-23T08:34:14Z</time>
      </trkpt>
      <trkpt lat="43.982005370780826" lon="10.940928468480706">
        <ele>404.852294921875</ele>
        <time>2003-11-23T08:34:17Z</time>
      </trkpt>
      <trkpt lat="43.982117772102356" lon="10.940902819857001">
        <ele>404.3717041015625</ele>
        <time>2003-11-23T08:34:20Z</time>
      </trkpt>
      <trkpt lat="43.982226820662618" lon="10.940869627520442">
        <ele>404.3717041015625</ele>
        <time>2003-11-23T08:34:23Z</time>
      </trkpt>
      <trkpt lat="43.982355650514364" lon="10.94083677046001">
        <ele>404.3717041015625</ele>
        <time>2003-11-23T08:34:26Z</time>
      </trkpt>
      <trkpt lat="43.982502417638898" lon="10.940823946148157">
        <ele>404.3717041015625</ele>
        <time>2003-11-23T08:34:29Z</time>
      </trkpt>
      <trkpt lat="43.982635941356421" lon="10.940870465710759">
        <ele>404.852294921875</ele>
        <time>2003-11-23T08:34:32Z</time>
      </trkpt>
      <trkpt lat="43.982763765379786" lon="10.940924109891057">
        <ele>404.3717041015625</ele>
        <time>2003-11-23T08:34:35Z</time>
      </trkpt>
      <trkpt lat="43.982887985184789" lon="10.940967025235295">
        <ele>403.89111328125</ele>
        <time>2003-11-23T08:34:38Z</time>
      </trkpt>
      <trkpt lat="43.983009774237871" lon="10.94101220369339">
        <ele>403.89111328125</ele>
        <time>2003-11-23T08:34:41Z</time>
      </trkpt>
      <trkpt lat="43.983126617968082" lon="10.941090909764171">
        <ele>403.410400390625</ele>
        <time>2003-11-23T08:34:44Z</time>
      </trkpt>
      <trkpt lat="43.983211275190115" lon="10.941231641918421">
        <ele>403.410400390625</ele>
        <time>2003-11-23T08:34:47Z</time>
      </trkpt>
      <trkpt lat="43.983266931027174" lon="10.94133566133678">
        <ele>403.410400390625</ele>
        <time>2003-11-23T08:34:49Z</time>
      </trkpt>
      <trkpt lat="43.98332535289228" lon="10.941434567794204">
        <ele>402.9296875</ele>
        <time>2003-11-23T08:34:51Z</time>
      </trkpt>
      <trkpt lat="43.983393162488937" lon="10.941522410139441">
        <ele>402.4490966796875</ele>
        <time>2003-11-23T08:34:53Z</time>
      </trkpt>
      <trkpt lat="43.98347002454102" lon="10.941592315211892">
        <ele>402.4490966796875</ele>
        <time>2003-11-23T08:34:55Z</time>
      </trkpt>
      <trkpt lat="43.983584018424153" lon="10.94168409705162">
        <ele>401.968505859375</ele>
        <time>2003-11-23T08:34:58Z</time>
      </trkpt>
      <trkpt lat="43.983662556856871" lon="10.941753163933754">
        <ele>401.48779296875</ele>
        <time>2003-11-23T08:35:00Z</time>
      </trkpt>
      <trkpt lat="43.983745956793427" lon="10.941821560263634">
        <ele>400.5264892578125</ele>
        <time>2003-11-23T08:35:02Z</time>
      </trkpt>
      <trkpt lat="43.983826255425811" lon="10.941906971856952">
        <ele>400.5264892578125</ele>
        <time>2003-11-23T08:35:04Z</time>
      </trkpt>
      <trkpt lat="43.983888952061534" lon="10.942023228853941">
        <ele>400.0458984375</ele>
        <time>2003-11-23T08:35:06Z</time>
      </trkpt>
      <trkpt lat="43.983937483280897" lon="10.942152813076973">
        <ele>399.5650634765625</ele>
        <time>2003-11-23T08:35:08Z</time>
      </trkpt>
      <trkpt lat="43.9839718490839" lon="10.942284241318703">
        <ele>399.5650634765625</ele>
        <time>2003-11-23T08:35:10Z</time>
      </trkpt>
      <trkpt lat="43.984013674780726" lon="10.942441234365106">
        <ele>399.0843505859375</ele>
        <time>2003-11-23T08:35:13Z</time>
      </trkpt>
      <trkpt lat="43.984050555154681" lon="10.942589761689305">
        <ele>399.0843505859375</ele>
        <time>2003-11-23T08:35:16Z</time>
      </trkpt>
      <trkpt lat="43.984098751097918" lon="10.942749353125691">
        <ele>398.603759765625</ele>
        <time>2003-11-23T08:35:19Z</time>
      </trkpt>
      <trkpt lat="43.984155831858516" lon="10.94291539862752">
        <ele>398.603759765625</ele>
        <time>2003-11-23T08:35:22Z</time>
      </trkpt>
      <trkpt lat="43.984224395826459" lon="10.943055795505643">
        <ele>398.1231689453125</ele>
        <time>2003-11-23T08:35:25Z</time>
      </trkpt>
      <trkpt lat="43.984299832955003" lon="10.943113043904305">
        <ele>398.1231689453125</ele>
        <time>2003-11-23T08:35:28Z</time>
      </trkpt>
      <trkpt lat="43.984392285346985" lon="10.943167107179761">
        <ele>397.6424560546875</ele>
        <time>2003-11-23T08:35:32Z</time>
      </trkpt>
      <trkpt lat="43.984491694718599" lon="10.943202814087272">
        <ele>397.1617431640625</ele>
        <time>2003-11-23T08:35:36Z</time>
      </trkpt>
      <trkpt lat="43.984599988907576" lon="10.943201472982764">
        <ele>397.1617431640625</ele>
        <time>2003-11-23T08:35:40Z</time>
      </trkpt>
      <trkpt lat="43.984712725505233" lon="10.943169118836522">
        <ele>396.68115234375</ele>
        <time>2003-11-23T08:35:44Z</time>
      </trkpt>
      <trkpt lat="43.98481909185648" lon="10.943120839074254">
        <ele>396.68115234375</ele>
        <time>2003-11-23T08:35:48Z</time>
      </trkpt>
      <trkpt lat="43.984914561733603" lon="10.943070212379098">
        <ele>396.2005615234375</ele>
        <time>2003-11-23T08:35:52Z</time>
      </trkpt>
      <trkpt lat="43.985011540353298" lon="10.943013466894627">
        <ele>396.68115234375</ele>
        <time>2003-11-23T08:35:56Z</time>
      </trkpt>
      <trkpt lat="43.98510399274528" lon="10.94295253045857">
        <ele>396.68115234375</ele>
        <time>2003-11-23T08:36:00Z</time>
      </trkpt>
      <trkpt lat="43.985196361318231" lon="10.942888660356402">
        <ele>396.2005615234375</ele>
        <time>2003-11-23T08:36:04Z</time>
      </trkpt>
      <trkpt lat="43.985292669385672" lon="10.94281523488462">
        <ele>395.7198486328125</ele>
        <time>2003-11-23T08:36:08Z</time>
      </trkpt>
      <trkpt lat="43.985392916947603" lon="10.942735942080617">
        <ele>396.2005615234375</ele>
        <time>2003-11-23T08:36:12Z</time>
      </trkpt>
      <trkpt lat="43.985502468422055" lon="10.94264910556376">
        <ele>396.2005615234375</ele>
        <time>2003-11-23T08:36:16Z</time>
      </trkpt>
      <trkpt lat="43.985592741519213" lon="10.942590935155749">
        <ele>396.2005615234375</ele>
        <time>2003-11-23T08:36:19Z</time>
      </trkpt>
      <trkpt lat="43.985693408176303" lon="10.942546343430877">
        <ele>396.2005615234375</ele>
        <time>2003-11-23T08:36:22Z</time>
      </trkpt>
      <trkpt lat="43.98580027744174" lon="10.942521616816521">
        <ele>396.2005615234375</ele>
        <time>2003-11-23T08:36:25Z</time>
      </trkpt>
      <trkpt lat="43.985899183899164" lon="10.942561514675617">
        <ele>396.68115234375</ele>
        <time>2003-11-23T08:36:28Z</time>
      </trkpt>
      <trkpt lat="43.985984846949577" lon="10.942616919055581">
        <ele>397.1617431640625</ele>
        <time>2003-11-23T08:36:31Z</time>
      </trkpt>
      <trkpt lat="43.986066319048405" lon="10.942676598206162">
        <ele>397.6424560546875</ele>
        <time>2003-11-23T08:36:34Z</time>
      </trkpt>
      <trkpt lat="43.98617897182703" lon="10.942729907110333">
        <ele>398.603759765625</ele>
        <time>2003-11-23T08:36:38Z</time>
      </trkpt>
      <trkpt lat="43.986267987638712" lon="10.94276636838913">
        <ele>398.603759765625</ele>
        <time>2003-11-23T08:36:41Z</time>
      </trkpt>
      <trkpt lat="43.986370079219341" lon="10.942841889336705">
        <ele>398.603759765625</ele>
        <time>2003-11-23T08:36:45Z</time>
      </trkpt>
      <trkpt lat="43.986469572409987" lon="10.942934090271592">
        <ele>399.0843505859375</ele>
        <time>2003-11-23T08:36:49Z</time>
      </trkpt>
      <trkpt lat="43.98656495846808" lon="10.943037187680602">
        <ele>399.5650634765625</ele>
        <time>2003-11-23T08:36:53Z</time>
      </trkpt>
      <trkpt lat="43.986641736701131" lon="10.943099884316325">
        <ele>400.0458984375</ele>
        <time>2003-11-23T08:36:56Z</time>
      </trkpt>
      <trkpt lat="43.986749779433012" lon="10.943166352808475">
        <ele>400.5264892578125</ele>
        <time>2003-11-23T08:37:00Z</time>
      </trkpt>
      <trkpt lat="43.986835526302457" lon="10.943206250667572">
        <ele>400.5264892578125</ele>
        <time>2003-11-23T08:37:03Z</time>
      </trkpt>
      <trkpt lat="43.986958656460047" lon="10.943244053050876">
        <ele>400.0458984375</ele>
        <time>2003-11-23T08:37:07Z</time>
      </trkpt>
      <trkpt lat="43.987052533775568" lon="10.943218907341361">
        <ele>400.0458984375</ele>
        <time>2003-11-23T08:37:10Z</time>
      </trkpt>
      <trkpt lat="43.987143728882074" lon="10.94316752627492">
        <ele>401.007080078125</ele>
        <time>2003-11-23T08:37:13Z</time>
      </trkpt>
      <trkpt lat="43.987235929816961" lon="10.943116396665573">
        <ele>401.007080078125</ele>
        <time>2003-11-23T08:37:16Z</time>
      </trkpt>
      <trkpt lat="43.987328298389912" lon="10.943057723343372">
        <ele>400.5264892578125</ele>
        <time>2003-11-23T08:37:19Z</time>
      </trkpt>
      <trkpt lat="43.987422175705433" lon="10.943012125790119">
        <ele>401.007080078125</ele>
        <time>2003-11-23T08:37:22Z</time>
      </trkpt>
      <trkpt lat="43.987481351941824" lon="10.943121174350381">
        <ele>400.5264892578125</ele>
        <time>2003-11-23T08:37:25Z</time>
      </trkpt>
      <trkpt lat="43.987513286992908" lon="10.943252434954047">
        <ele>400.5264892578125</ele>
        <time>2003-11-23T08:37:28Z</time>
      </trkpt>
      <trkpt lat="43.987547401338816" lon="10.943392748013139">
        <ele>401.48779296875</ele>
        <time>2003-11-23T08:37:31Z</time>
      </trkpt>
      <trkpt lat="43.9875896461308" lon="10.943525936454535">
        <ele>401.007080078125</ele>
        <time>2003-11-23T08:37:34Z</time>
      </trkpt>
      <trkpt lat="43.987645972520113" lon="10.943651245906949">
        <ele>400.5264892578125</ele>
        <time>2003-11-23T08:37:37Z</time>
      </trkpt>
      <trkpt lat="43.987662065774202" lon="10.943787954747677">
        <ele>401.007080078125</ele>
        <time>2003-11-23T08:37:40Z</time>
      </trkpt>
      <trkpt lat="43.98763214237988" lon="10.943917203694582">
        <ele>401.48779296875</ele>
        <time>2003-11-23T08:37:43Z</time>
      </trkpt>
      <trkpt lat="43.987596519291401" lon="10.944028347730637">
        <ele>401.968505859375</ele>
        <time>2003-11-23T08:37:46Z</time>
      </trkpt>
      <trkpt lat="43.987584114074707" lon="10.944155417382717">
        <ele>402.9296875</ele>
        <time>2003-11-23T08:37:49Z</time>
      </trkpt>
      <trkpt lat="43.987607667222619" lon="10.944292042404413">
        <ele>402.9296875</ele>
        <time>2003-11-23T08:37:52Z</time>
      </trkpt>
      <trkpt lat="43.987655863165855" lon="10.944420117884874">
        <ele>402.9296875</ele>
        <time>2003-11-23T08:37:55Z</time>
      </trkpt>
      <trkpt lat="43.987713614478707" lon="10.944539895281196">
        <ele>403.410400390625</ele>
        <time>2003-11-23T08:37:58Z</time>
      </trkpt>
      <trkpt lat="43.987751249223948" lon="10.944670317694545">
        <ele>403.89111328125</ele>
        <time>2003-11-23T08:38:01Z</time>
      </trkpt>
      <trkpt lat="43.987757032737136" lon="10.94480300322175">
        <ele>403.89111328125</ele>
        <time>2003-11-23T08:38:04Z</time>
      </trkpt>
      <trkpt lat="43.987745381891727" lon="10.944924959912896">
        <ele>403.410400390625</ele>
        <time>2003-11-23T08:38:07Z</time>
      </trkpt>
      <trkpt lat="43.987721242010593" lon="10.945092514157295">
        <ele>403.410400390625</ele>
        <time>2003-11-23T08:38:11Z</time>
      </trkpt>
      <trkpt lat="43.987708669155836" lon="10.945218075066805">
        <ele>403.410400390625</ele>
        <time>2003-11-23T08:38:14Z</time>
      </trkpt>
      <trkpt lat="43.98770154453814" lon="10.945357047021389">
        <ele>402.9296875</ele>
        <time>2003-11-23T08:38:17Z</time>
      </trkpt>
      <trkpt lat="43.987673381343484" lon="10.945507250726223">
        <ele>401.968505859375</ele>
        <time>2003-11-23T08:38:20Z</time>
      </trkpt>
      <trkpt lat="43.987615965306759" lon="10.945636918768287">
        <ele>401.968505859375</ele>
        <time>2003-11-23T08:38:23Z</time>
      </trkpt>
      <trkpt lat="43.98749828338623" lon="10.945700202137232">
        <ele>401.48779296875</ele>
        <time>2003-11-23T08:38:26Z</time>
      </trkpt>
      <trkpt lat="43.987388228997588" lon="10.945713948458433">
        <ele>401.007080078125</ele>
        <time>2003-11-23T08:38:29Z</time>
      </trkpt>
      <trkpt lat="43.987283622846007" lon="10.945706823840737">
        <ele>400.5264892578125</ele>
        <time>2003-11-23T08:38:32Z</time>
      </trkpt>
      <trkpt lat="43.987179603427649" lon="10.945731550455093">
        <ele>400.0458984375</ele>
        <time>2003-11-23T08:38:35Z</time>
      </trkpt>
      <trkpt lat="43.987104166299105" lon="10.945845209062099">
        <ele>400.5264892578125</ele>
        <time>2003-11-23T08:38:38Z</time>
      </trkpt>
      <trkpt lat="43.987090587615967" lon="10.945995412766933">
        <ele>400.0458984375</ele>
        <time>2003-11-23T08:38:41Z</time>
      </trkpt>
      <trkpt lat="43.987125372514129" lon="10.946127763018012">
        <ele>400.0458984375</ele>
        <time>2003-11-23T08:38:44Z</time>
      </trkpt>
      <trkpt lat="43.98719728924334" lon="10.946225579828024">
        <ele>399.5650634765625</ele>
        <time>2003-11-23T08:38:47Z</time>
      </trkpt>
      <trkpt lat="43.987296782433987" lon="10.946279894560575">
        <ele>399.5650634765625</ele>
        <time>2003-11-23T08:38:50Z</time>
      </trkpt>
      <trkpt lat="43.987398371100426" lon="10.946337981149554">
        <ele>399.5650634765625</ele>
        <time>2003-11-23T08:38:53Z</time>
      </trkpt>
      <trkpt lat="43.98749484680593" lon="10.946403946727514">
        <ele>399.5650634765625</ele>
        <time>2003-11-23T08:38:56Z</time>
      </trkpt>
      <trkpt lat="43.987569948658347" lon="10.946489358320832">
        <ele>399.5650634765625</ele>
        <time>2003-11-23T08:38:59Z</time>
      </trkpt>
      <trkpt lat="43.987636752426624" lon="10.946624977514148">
        <ele>398.603759765625</ele>
        <time>2003-11-23T08:39:03Z</time>
      </trkpt>
      <trkpt lat="43.987696431577206" lon="10.946747101843357">
        <ele>399.0843505859375</ele>
        <time>2003-11-23T08:39:07Z</time>
      </trkpt>
      <trkpt lat="43.987746806815267" lon="10.946859838441014">
        <ele>399.0843505859375</ele>
        <time>2003-11-23T08:39:11Z</time>
      </trkpt>
      <trkpt lat="43.987811179831624" lon="10.946969473734498">
        <ele>399.0843505859375</ele>
        <time>2003-11-23T08:39:15Z</time>
      </trkpt>
      <trkpt lat="43.987829284742475" lon="10.947019932791591">
        <ele>398.1231689453125</ele>
        <time>2003-11-23T08:42:32Z</time>
      </trkpt>
      <trkpt lat="43.987918719649315" lon="10.947143984958529">
        <ele>399.0843505859375</ele>
        <time>2003-11-23T08:48:13Z</time>
      </trkpt>
      <trkpt lat="43.98794679902494" lon="10.947257475927472">
        <ele>398.1231689453125</ele>
        <time>2003-11-23T08:48:16Z</time>
      </trkpt>
      <trkpt lat="43.987967921420932" lon="10.947419079020619">
        <ele>397.6424560546875</ele>
        <time>2003-11-23T08:48:20Z</time>
      </trkpt>
      <trkpt lat="43.987997341901064" lon="10.947575317695737">
        <ele>396.68115234375</ele>
        <time>2003-11-23T08:48:24Z</time>
      </trkpt>
      <trkpt lat="43.988025086000562" lon="10.947696771472692">
        <ele>395.7198486328125</ele>
        <time>2003-11-23T08:48:27Z</time>
      </trkpt>
      <trkpt lat="43.988064397126436" lon="10.947818895801902">
        <ele>395.2391357421875</ele>
        <time>2003-11-23T08:48:30Z</time>
      </trkpt>
      <trkpt lat="43.988164560869336" lon="10.947920233011246">
        <ele>394.2779541015625</ele>
        <time>2003-11-23T08:48:33Z</time>
      </trkpt>
      <trkpt lat="43.988247206434608" lon="10.947978990152478">
        <ele>393.7972412109375</ele>
        <time>2003-11-23T08:48:35Z</time>
      </trkpt>
      <trkpt lat="43.988357847556472" lon="10.948073621839285">
        <ele>392.8359375</ele>
        <time>2003-11-23T08:48:38Z</time>
      </trkpt>
      <trkpt lat="43.988448288291693" lon="10.948191471397877">
        <ele>391.87451171875</ele>
        <time>2003-11-23T08:48:41Z</time>
      </trkpt>
      <trkpt lat="43.988493885844946" lon="10.948331868276">
        <ele>391.87451171875</ele>
        <time>2003-11-23T08:48:44Z</time>
      </trkpt>
      <trkpt lat="43.988391123712063" lon="10.948438905179501">
        <ele>391.393798828125</ele>
        <time>2003-11-23T08:48:47Z</time>
      </trkpt>
      <trkpt lat="43.988276962190866" lon="10.948510067537427">
        <ele>389.951904296875</ele>
        <time>2003-11-23T08:48:50Z</time>
      </trkpt>
      <trkpt lat="43.988188868388534" lon="10.948561448603868">
        <ele>388.9906005859375</ele>
        <time>2003-11-23T08:48:55Z</time>
      </trkpt>
      <trkpt lat="43.988186605274677" lon="10.948646357282996">
        <ele>388.9906005859375</ele>
        <time>2003-11-23T08:49:30Z</time>
      </trkpt>
      <trkpt lat="43.988270005211234" lon="10.948590785264969">
        <ele>390.9132080078125</ele>
        <time>2003-11-23T08:49:36Z</time>
      </trkpt>
      <trkpt lat="43.988360781222582" lon="10.948604783043265">
        <ele>393.7972412109375</ele>
        <time>2003-11-23T08:49:43Z</time>
      </trkpt>
      <trkpt lat="43.988363966345787" lon="10.948731182143092">
        <ele>395.2391357421875</ele>
        <time>2003-11-23T08:49:48Z</time>
      </trkpt>
      <trkpt lat="43.988333372399211" lon="10.948870154097676">
        <ele>396.2005615234375</ele>
        <time>2003-11-23T08:49:53Z</time>
      </trkpt>
      <trkpt lat="43.988293223083019" lon="10.949008790776134">
        <ele>396.68115234375</ele>
        <time>2003-11-23T08:49:58Z</time>
      </trkpt>
      <trkpt lat="43.988236812874675" lon="10.949127478525043">
        <ele>398.603759765625</ele>
        <time>2003-11-23T08:50:03Z</time>
      </trkpt>
      <trkpt lat="43.988185515627265" lon="10.949245495721698">
        <ele>399.0843505859375</ele>
        <time>2003-11-23T08:50:07Z</time>
      </trkpt>
      <trkpt lat="43.988122399896383" lon="10.949354376643896">
        <ele>398.603759765625</ele>
        <time>2003-11-23T08:50:10Z</time>
      </trkpt>
      <trkpt lat="43.988068923354149" lon="10.949473986402154">
        <ele>399.0843505859375</ele>
        <time>2003-11-23T08:50:13Z</time>
      </trkpt>
      <trkpt lat="43.98801913484931" lon="10.949599128216505">
        <ele>399.0843505859375</ele>
        <time>2003-11-23T08:50:16Z</time>
      </trkpt>
      <trkpt lat="43.98796540684998" lon="10.949738854542375">
        <ele>399.0843505859375</ele>
        <time>2003-11-23T08:50:20Z</time>
      </trkpt>
      <trkpt lat="43.987898183986545" lon="10.949840694665909">
        <ele>398.603759765625</ele>
        <time>2003-11-23T08:50:24Z</time>
      </trkpt>
      <trkpt lat="43.987781759351492" lon="10.949871456250548">
        <ele>398.603759765625</ele>
        <time>2003-11-23T08:50:29Z</time>
      </trkpt>
      <trkpt lat="43.987664747983217" lon="10.949875060468912">
        <ele>398.1231689453125</ele>
        <time>2003-11-23T08:50:33Z</time>
      </trkpt>
      <trkpt lat="43.987562824040651" lon="10.949894255027175">
        <ele>398.1231689453125</ele>
        <time>2003-11-23T08:50:37Z</time>
      </trkpt>
      <trkpt lat="43.987466432154179" lon="10.949906576424837">
        <ele>398.1231689453125</ele>
        <time>2003-11-23T08:50:41Z</time>
      </trkpt>
      <trkpt lat="43.987369788810611" lon="10.949950329959393">
        <ele>398.1231689453125</ele>
        <time>2003-11-23T08:50:45Z</time>
      </trkpt>
      <trkpt lat="43.987273396924138" lon="10.949997520074248">
        <ele>397.6424560546875</ele>
        <time>2003-11-23T08:50:49Z</time>
      </trkpt>
      <trkpt lat="43.987186895683408" lon="10.950057283043861">
        <ele>397.6424560546875</ele>
        <time>2003-11-23T08:50:53Z</time>
      </trkpt>
      <trkpt lat="43.987098215147853" lon="10.950128026306629">
        <ele>398.603759765625</ele>
        <time>2003-11-23T08:50:58Z</time>
      </trkpt>
      <trkpt lat="43.987033674493432" lon="10.95022433437407">
        <ele>398.1231689453125</ele>
        <time>2003-11-23T08:51:16Z</time>
      </trkpt>
      <trkpt lat="43.98700182326138" lon="10.950375879183412">
        <ele>398.1231689453125</ele>
        <time>2003-11-23T08:51:21Z</time>
      </trkpt>
      <trkpt lat="43.986967708915472" lon="10.950498338788748">
        <ele>397.6424560546875</ele>
        <time>2003-11-23T08:51:25Z</time>
      </trkpt>
      <trkpt lat="43.986956309527159" lon="10.950652314350009">
        <ele>397.1617431640625</ele>
        <time>2003-11-23T08:51:32Z</time>
      </trkpt>
      <trkpt lat="43.98698371835053" lon="10.95079212449491">
        <ele>397.6424560546875</ele>
        <time>2003-11-23T08:51:37Z</time>
      </trkpt>
      <trkpt lat="43.987008193507791" lon="10.950940065085888">
        <ele>397.1617431640625</ele>
        <time>2003-11-23T08:51:41Z</time>
      </trkpt>
      <trkpt lat="43.987030237913132" lon="10.951092950999737">
        <ele>397.1617431640625</ele>
        <time>2003-11-23T08:51:45Z</time>
      </trkpt>
      <trkpt lat="43.987099891528487" lon="10.951204597949982">
        <ele>396.68115234375</ele>
        <time>2003-11-23T08:51:49Z</time>
      </trkpt>
      <trkpt lat="43.987152278423309" lon="10.951322950422764">
        <ele>396.68115234375</ele>
        <time>2003-11-23T08:51:53Z</time>
      </trkpt>
      <trkpt lat="43.987177424132824" lon="10.951458821073174">
        <ele>396.68115234375</ele>
        <time>2003-11-23T08:51:56Z</time>
      </trkpt>
      <trkpt lat="43.987222351133823" lon="10.951594021171331">
        <ele>394.758544921875</ele>
        <time>2003-11-23T08:51:59Z</time>
      </trkpt>
      <trkpt lat="43.98729594424367" lon="10.951683623716235">
        <ele>393.7972412109375</ele>
        <time>2003-11-23T08:52:02Z</time>
      </trkpt>
      <trkpt lat="43.987398706376553" lon="10.951741626486182">
        <ele>393.7972412109375</ele>
        <time>2003-11-23T08:52:06Z</time>
      </trkpt>
      <trkpt lat="43.987519908696413" lon="10.951787726953626">
        <ele>392.8359375</ele>
        <time>2003-11-23T08:52:09Z</time>
      </trkpt>
      <trkpt lat="43.987636081874371" lon="10.951842209324241">
        <ele>391.393798828125</ele>
        <time>2003-11-23T08:52:12Z</time>
      </trkpt>
      <trkpt lat="43.987729623913765" lon="10.951909516006708">
        <ele>391.393798828125</ele>
        <time>2003-11-23T08:52:15Z</time>
      </trkpt>
      <trkpt lat="43.987806318327785" lon="10.9519721288234">
        <ele>389.951904296875</ele>
        <time>2003-11-23T08:52:18Z</time>
      </trkpt>
      <trkpt lat="43.987842025235295" lon="10.952003393322229">
        <ele>388.9906005859375</ele>
        <time>2003-11-23T08:52:48Z</time>
      </trkpt>
      <trkpt lat="43.987937159836292" lon="10.952016972005367">
        <ele>385.6259765625</ele>
        <time>2003-11-23T08:52:54Z</time>
      </trkpt>
      <trkpt lat="43.988064983859658" lon="10.952031975612044">
        <ele>383.7032470703125</ele>
        <time>2003-11-23T08:52:59Z</time>
      </trkpt>
      <trkpt lat="43.988180989399552" lon="10.952060306444764">
        <ele>382.7420654296875</ele>
        <time>2003-11-23T08:53:02Z</time>
      </trkpt>
      <trkpt lat="43.988301269710064" lon="10.952104981988668">
        <ele>382.2613525390625</ele>
        <time>2003-11-23T08:53:05Z</time>
      </trkpt>
      <trkpt lat="43.98842322640121" lon="10.952138090506196">
        <ele>382.2613525390625</ele>
        <time>2003-11-23T08:53:08Z</time>
      </trkpt>
      <trkpt lat="43.988563790917397" lon="10.952167343348265">
        <ele>382.2613525390625</ele>
        <time>2003-11-23T08:53:11Z</time>
      </trkpt>
      <trkpt lat="43.988681808114052" lon="10.952189136296511">
        <ele>380.8194580078125</ele>
        <time>2003-11-23T08:53:14Z</time>
      </trkpt>
      <trkpt lat="43.988793706521392" lon="10.952234733849764">
        <ele>380.3387451171875</ele>
        <time>2003-11-23T08:53:18Z</time>
      </trkpt>
      <trkpt lat="43.988796388730407" lon="10.952353002503514">
        <ele>382.2613525390625</ele>
        <time>2003-11-23T08:53:25Z</time>
      </trkpt>
      <trkpt lat="43.98873008787632" lon="10.952454507350922">
        <ele>382.2613525390625</ele>
        <time>2003-11-23T08:53:31Z</time>
      </trkpt>
      <trkpt lat="43.988667726516724" lon="10.952555174008012">
        <ele>382.7420654296875</ele>
        <time>2003-11-23T08:53:37Z</time>
      </trkpt>
      <trkpt lat="43.988614669069648" lon="10.952660366892815">
        <ele>383.22265625</ele>
        <time>2003-11-23T08:53:43Z</time>
      </trkpt>
      <trkpt lat="43.988566976040602" lon="10.952781485393643">
        <ele>384.18408203125</ele>
        <time>2003-11-23T08:53:50Z</time>
      </trkpt>
      <trkpt lat="43.988525904715061" lon="10.952905872836709">
        <ele>387.0679931640625</ele>
        <time>2003-11-23T08:54:01Z</time>
      </trkpt>
      <trkpt lat="43.9885273296386" lon="10.953041408210993">
        <ele>389.47119140625</ele>
        <time>2003-11-23T08:54:12Z</time>
      </trkpt>
      <trkpt lat="43.988532107323408" lon="10.95294208265841">
        <ele>390.9132080078125</ele>
        <time>2003-11-23T08:56:58Z</time>
      </trkpt>
      <trkpt lat="43.988535460084677" lon="10.953121371567249">
        <ele>390.9132080078125</ele>
        <time>2003-11-23T08:57:12Z</time>
      </trkpt>
      <trkpt lat="43.988600838929415" lon="10.953233856707811">
        <ele>390.4326171875</ele>
        <time>2003-11-23T08:57:20Z</time>
      </trkpt>
      <trkpt lat="43.988681975752115" lon="10.95332664437592">
        <ele>389.951904296875</ele>
        <time>2003-11-23T08:57:25Z</time>
      </trkpt>
      <trkpt lat="43.988775433972478" lon="10.953438375145197">
        <ele>388.9906005859375</ele>
        <time>2003-11-23T08:57:30Z</time>
      </trkpt>
      <trkpt lat="43.988854140043259" lon="10.953564858064055">
        <ele>387.548583984375</ele>
        <time>2003-11-23T08:57:34Z</time>
      </trkpt>
      <trkpt lat="43.988930834457278" lon="10.953681785613298">
        <ele>386.106689453125</ele>
        <time>2003-11-23T08:57:38Z</time>
      </trkpt>
      <trkpt lat="43.988993866369128" lon="10.953783458098769">
        <ele>385.6259765625</ele>
        <time>2003-11-23T08:57:41Z</time>
      </trkpt>
      <trkpt lat="43.989078355953097" lon="10.953901559114456">
        <ele>385.1453857421875</ele>
        <time>2003-11-23T08:57:44Z</time>
      </trkpt>
      <trkpt lat="43.989191763103008" lon="10.953996023163199">
        <ele>384.664794921875</ele>
        <time>2003-11-23T08:57:47Z</time>
      </trkpt>
      <trkpt lat="43.989305170252919" lon="10.954111525788903">
        <ele>382.7420654296875</ele>
        <time>2003-11-23T08:57:50Z</time>
      </trkpt>
      <trkpt lat="43.989418409764767" lon="10.954220239073038">
        <ele>383.22265625</ele>
        <time>2003-11-23T08:57:53Z</time>
      </trkpt>
      <trkpt lat="43.989524692296982" lon="10.954334400594234">
        <ele>382.2613525390625</ele>
        <time>2003-11-23T08:57:56Z</time>
      </trkpt>
      <trkpt lat="43.989617312327027" lon="10.95444462262094">
        <ele>381.7806396484375</ele>
        <time>2003-11-23T08:57:59Z</time>
      </trkpt>
      <trkpt lat="43.989706328138709" lon="10.954522490501404">
        <ele>381.300048828125</ele>
        <time>2003-11-23T08:58:02Z</time>
      </trkpt>
      <trkpt lat="43.989796182140708" lon="10.954601028934121">
        <ele>379.8580322265625</ele>
        <time>2003-11-23T08:58:06Z</time>
      </trkpt>
      <trkpt lat="43.989890394732356" lon="10.95467671751976">
        <ele>378.4161376953125</ele>
        <time>2003-11-23T08:58:10Z</time>
      </trkpt>
      <trkpt lat="43.990000616759062" lon="10.954728769138455">
        <ele>375.5321044921875</ele>
        <time>2003-11-23T08:58:14Z</time>
      </trkpt>
      <trkpt lat="43.990089129656553" lon="10.954756177961826">
        <ele>375.5321044921875</ele>
        <time>2003-11-23T08:58:21Z</time>
      </trkpt>
      <trkpt lat="43.990182084962726" lon="10.954799428582191">
        <ele>373.6094970703125</ele>
        <time>2003-11-23T08:58:35Z</time>
      </trkpt>
      <trkpt lat="43.990254001691937" lon="10.954892802983522">
        <ele>371.206298828125</ele>
        <time>2003-11-23T08:58:48Z</time>
      </trkpt>
      <trkpt lat="43.990263640880585" lon="10.955013753846288">
        <ele>368.322265625</ele>
        <time>2003-11-23T08:59:20Z</time>
      </trkpt>
      <trkpt lat="43.990209577605128" lon="10.955102685838938">
        <ele>371.206298828125</ele>
        <time>2003-11-23T08:59:37Z</time>
      </trkpt>
      <trkpt lat="43.990075383335352" lon="10.9551374707371">
        <ele>374.090087890625</ele>
        <time>2003-11-23T08:59:59Z</time>
      </trkpt>
      <trkpt lat="43.989982847124338" lon="10.955210393294692">
        <ele>375.5321044921875</ele>
        <time>2003-11-23T09:00:08Z</time>
      </trkpt>
      <trkpt lat="43.989892154932022" lon="10.955240903422236">
        <ele>376.0128173828125</ele>
        <time>2003-11-23T09:00:24Z</time>
      </trkpt>
      <trkpt lat="43.989808754995465" lon="10.95532463863492">
        <ele>375.5321044921875</ele>
        <time>2003-11-23T09:00:30Z</time>
      </trkpt>
      <trkpt lat="43.989758463576436" lon="10.955435279756784">
        <ele>376.0128173828125</ele>
        <time>2003-11-23T09:00:35Z</time>
      </trkpt>
      <trkpt lat="43.989697862416506" lon="10.955533934757113">
        <ele>376.0128173828125</ele>
        <time>2003-11-23T09:00:41Z</time>
      </trkpt>
      <trkpt lat="43.989617396146059" lon="10.955597637221217">
        <ele>376.0128173828125</ele>
        <time>2003-11-23T09:00:47Z</time>
      </trkpt>
      <trkpt lat="43.989542713388801" lon="10.955687323585153">
        <ele>377.454833984375</ele>
        <time>2003-11-23T09:01:07Z</time>
      </trkpt>
      <trkpt lat="43.98948211222887" lon="10.955788241699338">
        <ele>380.3387451171875</ele>
        <time>2003-11-23T09:01:19Z</time>
      </trkpt>
      <trkpt lat="43.989413883537054" lon="10.955885807052255">
        <ele>382.7420654296875</ele>
        <time>2003-11-23T09:01:31Z</time>
      </trkpt>
      <trkpt lat="43.989348588511348" lon="10.955980606377125">
        <ele>384.18408203125</ele>
        <time>2003-11-23T09:01:43Z</time>
      </trkpt>
      <trkpt lat="43.989230068400502" lon="10.955993514508009">
        <ele>384.18408203125</ele>
        <time>2003-11-23T09:01:52Z</time>
      </trkpt>
      <trkpt lat="43.989134933799505" lon="10.95601555891335">
        <ele>385.6259765625</ele>
        <time>2003-11-23T09:01:58Z</time>
      </trkpt>
      <trkpt lat="43.989044995978475" lon="10.956066688522696">
        <ele>386.58740234375</ele>
        <time>2003-11-23T09:02:06Z</time>
      </trkpt>
      <trkpt lat="43.988986238837242" lon="10.956171965226531">
        <ele>388.029296875</ele>
        <time>2003-11-23T09:02:16Z</time>
      </trkpt>
      <trkpt lat="43.988926643505692" lon="10.956277577206492">
        <ele>389.951904296875</ele>
        <time>2003-11-23T09:02:29Z</time>
      </trkpt>
      <trkpt lat="43.988831508904696" lon="10.956301465630531">
        <ele>391.393798828125</ele>
        <time>2003-11-23T09:02:38Z</time>
      </trkpt>
      <trkpt lat="43.988722544163465" lon="10.956310853362083">
        <ele>392.8359375</ele>
        <time>2003-11-23T09:02:46Z</time>
      </trkpt>
      <trkpt lat="43.98863771930337" lon="10.956384278833866">
        <ele>394.2779541015625</ele>
        <time>2003-11-23T09:02:55Z</time>
      </trkpt>
      <trkpt lat="43.988556666299701" lon="10.956471869722009">
        <ele>396.2005615234375</ele>
        <time>2003-11-23T09:03:05Z</time>
      </trkpt>
      <trkpt lat="43.988531604409218" lon="10.956559292972088">
        <ele>399.0843505859375</ele>
        <time>2003-11-23T09:10:00Z</time>
      </trkpt>
      <trkpt lat="43.988443510606885" lon="10.956516796723008">
        <ele>397.6424560546875</ele>
        <time>2003-11-23T09:10:11Z</time>
      </trkpt>
      <trkpt lat="43.988353572785854" lon="10.956474719569087">
        <ele>396.68115234375</ele>
        <time>2003-11-23T09:10:20Z</time>
      </trkpt>
      <trkpt lat="43.988249888643622" lon="10.956454267725348">
        <ele>395.7198486328125</ele>
        <time>2003-11-23T09:10:29Z</time>
      </trkpt>
      <trkpt lat="43.98816330358386" lon="10.956578738987446">
        <ele>393.7972412109375</ele>
        <time>2003-11-23T09:10:44Z</time>
      </trkpt>
      <trkpt lat="43.988046459853649" lon="10.956686530262232">
        <ele>387.548583984375</ele>
        <time>2003-11-23T09:10:57Z</time>
      </trkpt>
      <trkpt lat="43.987926011905074" lon="10.956728523597121">
        <ele>386.58740234375</ele>
        <time>2003-11-23T09:11:04Z</time>
      </trkpt>
      <trkpt lat="43.987801456823945" lon="10.956799853593111">
        <ele>386.106689453125</ele>
        <time>2003-11-23T09:11:21Z</time>
      </trkpt>
      <trkpt lat="43.987652761861682" lon="10.956844696775079">
        <ele>385.1453857421875</ele>
        <time>2003-11-23T09:11:49Z</time>
      </trkpt>
      <trkpt lat="43.987553855404258" lon="10.956865400075912">
        <ele>383.7032470703125</ele>
        <time>2003-11-23T09:11:53Z</time>
      </trkpt>
      <trkpt lat="43.987454110756516" lon="10.95686330460012">
        <ele>382.2613525390625</ele>
        <time>2003-11-23T09:11:56Z</time>
      </trkpt>
      <trkpt lat="43.987358640879393" lon="10.956851402297616">
        <ele>381.7806396484375</ele>
        <time>2003-11-23T09:11:59Z</time>
      </trkpt>
      <trkpt lat="43.987251687794924" lon="10.956828435882926">
        <ele>381.300048828125</ele>
        <time>2003-11-23T09:12:03Z</time>
      </trkpt>
      <trkpt lat="43.98715378716588" lon="10.956797758117318">
        <ele>378.8968505859375</ele>
        <time>2003-11-23T09:12:07Z</time>
      </trkpt>
      <trkpt lat="43.987069800496101" lon="10.956754591315985">
        <ele>378.4161376953125</ele>
        <time>2003-11-23T09:12:11Z</time>
      </trkpt>
      <trkpt lat="43.986963769420981" lon="10.956719387322664">
        <ele>378.4161376953125</ele>
        <time>2003-11-23T09:12:16Z</time>
      </trkpt>
      <trkpt lat="43.986857738345861" lon="10.956684267148376">
        <ele>376.9742431640625</ele>
        <time>2003-11-23T09:12:21Z</time>
      </trkpt>
      <trkpt lat="43.986753886565566" lon="10.956650404259562">
        <ele>376.9742431640625</ele>
        <time>2003-11-23T09:12:26Z</time>
      </trkpt>
      <trkpt lat="43.986649783328176" lon="10.956620732322335">
        <ele>375.5321044921875</ele>
        <time>2003-11-23T09:12:31Z</time>
      </trkpt>
      <trkpt lat="43.986549535766244" lon="10.956583600491285">
        <ele>371.6868896484375</ele>
        <time>2003-11-23T09:12:35Z</time>
      </trkpt>
      <trkpt lat="43.98645062930882" lon="10.956540433689952">
        <ele>370.244873046875</ele>
        <time>2003-11-23T09:12:39Z</time>
      </trkpt>
      <trkpt lat="43.986351555213332" lon="10.956501206383109">
        <ele>368.802978515625</ele>
        <time>2003-11-23T09:12:43Z</time>
      </trkpt>
      <trkpt lat="43.986254660412669" lon="10.956461308524013">
        <ele>367.841552734375</ele>
        <time>2003-11-23T09:12:47Z</time>
      </trkpt>
      <trkpt lat="43.986149802803993" lon="10.956458710134029">
        <ele>365.9189453125</ele>
        <time>2003-11-23T09:12:51Z</time>
      </trkpt>
      <trkpt lat="43.986034216359258" lon="10.956500619649887">
        <ele>364.9576416015625</ele>
        <time>2003-11-23T09:12:54Z</time>
      </trkpt>
      <trkpt lat="43.985907146707177" lon="10.956549067050219">
        <ele>363.5157470703125</ele>
        <time>2003-11-23T09:12:57Z</time>
      </trkpt>
      <trkpt lat="43.985773790627718" lon="10.956572704017162">
        <ele>363.0350341796875</ele>
        <time>2003-11-23T09:13:00Z</time>
      </trkpt>
      <trkpt lat="43.985676057636738" lon="10.956569854170084">
        <ele>363.0350341796875</ele>
        <time>2003-11-23T09:13:03Z</time>
      </trkpt>
      <trkpt lat="43.985581928864121" lon="10.956533309072256">
        <ele>360.6317138671875</ele>
        <time>2003-11-23T09:13:06Z</time>
      </trkpt>
      <trkpt lat="43.985468605533242" lon="10.95649148337543">
        <ele>357.26708984375</ele>
        <time>2003-11-23T09:13:09Z</time>
      </trkpt>
      <trkpt lat="43.985352935269475" lon="10.956452507525682">
        <ele>355.344482421875</ele>
        <time>2003-11-23T09:13:12Z</time>
      </trkpt>
      <trkpt lat="43.985252436250448" lon="10.956377489492297">
        <ele>354.3831787109375</ele>
        <time>2003-11-23T09:13:15Z</time>
      </trkpt>
      <trkpt lat="43.985170964151621" lon="10.956324599683285">
        <ele>351.9798583984375</ele>
        <time>2003-11-23T09:13:18Z</time>
      </trkpt>
      <trkpt lat="43.985079852864146" lon="10.956240277737379">
        <ele>350.537841796875</ele>
        <time>2003-11-23T09:13:22Z</time>
      </trkpt>
      <trkpt lat="43.985009528696537" lon="10.956137264147401">
        <ele>348.615234375</ele>
        <time>2003-11-23T09:13:27Z</time>
      </trkpt>
      <trkpt lat="43.984909448772669" lon="10.956049086526036">
        <ele>345.7313232421875</ele>
        <time>2003-11-23T09:13:31Z</time>
      </trkpt>
      <trkpt lat="43.984833089634776" lon="10.955976666882634">
        <ele>343.327880859375</ele>
        <time>2003-11-23T09:13:34Z</time>
      </trkpt>
      <trkpt lat="43.984753293916583" lon="10.955881699919701">
        <ele>339.482666015625</ele>
        <time>2003-11-23T09:13:38Z</time>
      </trkpt>
      <trkpt lat="43.984681041911244" lon="10.955816991627216">
        <ele>337.56005859375</ele>
        <time>2003-11-23T09:13:42Z</time>
      </trkpt>
      <trkpt lat="43.984622955322266" lon="10.955738620832562">
        <ele>334.6761474609375</ele>
        <time>2003-11-23T09:13:46Z</time>
      </trkpt>
      <trkpt lat="43.984539555385709" lon="10.955689670518041">
        <ele>332.7535400390625</ele>
        <time>2003-11-23T09:13:50Z</time>
      </trkpt>
      <trkpt lat="43.984444169327617" lon="10.955639379099011">
        <ele>329.388916015625</ele>
        <time>2003-11-23T09:13:53Z</time>
      </trkpt>
      <trkpt lat="43.984359009191394" lon="10.955616580322385">
        <ele>327.4661865234375</ele>
        <time>2003-11-23T09:13:57Z</time>
      </trkpt>
      <trkpt lat="43.984282398596406" lon="10.95558020286262">
        <ele>325.5435791015625</ele>
        <time>2003-11-23T09:14:02Z</time>
      </trkpt>
      <trkpt lat="43.984206961467862" lon="10.955485319718719">
        <ele>322.65966796875</ele>
        <time>2003-11-23T09:14:07Z</time>
      </trkpt>
      <trkpt lat="43.984166560694575" lon="10.955368643626571">
        <ele>320.25634765625</ele>
        <time>2003-11-23T09:14:11Z</time>
      </trkpt>
      <trkpt lat="43.984120041131973" lon="10.955240400508046">
        <ele>316.4110107421875</ele>
        <time>2003-11-23T09:14:16Z</time>
      </trkpt>
      <trkpt lat="43.984077628701925" lon="10.955127747729421">
        <ele>314.0078125</ele>
        <time>2003-11-23T09:14:20Z</time>
      </trkpt>
      <trkpt lat="43.983997078612447" lon="10.955066559836268">
        <ele>311.123779296875</ele>
        <time>2003-11-23T09:14:24Z</time>
      </trkpt>
      <trkpt lat="43.983923150226474" lon="10.955015681684017">
        <ele>307.75927734375</ele>
        <time>2003-11-23T09:14:28Z</time>
      </trkpt>
      <trkpt lat="43.983852071687579" lon="10.954939071089029">
        <ele>305.836669921875</ele>
        <time>2003-11-23T09:14:34Z</time>
      </trkpt>
      <trkpt lat="43.983768587931991" lon="10.954854246228933">
        <ele>303.9139404296875</ele>
        <time>2003-11-23T09:14:41Z</time>
      </trkpt>
      <trkpt lat="43.983682924881577" lon="10.954787023365498">
        <ele>302.9525146484375</ele>
        <time>2003-11-23T09:14:47Z</time>
      </trkpt>
      <trkpt lat="43.983580498024821" lon="10.954825915396214">
        <ele>300.54931640625</ele>
        <time>2003-11-23T09:14:53Z</time>
      </trkpt>
      <trkpt lat="43.983488464727998" lon="10.95480521209538">
        <ele>299.1072998046875</ele>
        <time>2003-11-23T09:14:57Z</time>
      </trkpt>
      <trkpt lat="43.983511095866561" lon="10.954671017825603">
        <ele>297.1846923828125</ele>
        <time>2003-11-23T09:15:01Z</time>
      </trkpt>
      <trkpt lat="43.983582509681582" lon="10.954554760828614">
        <ele>292.8587646484375</ele>
        <time>2003-11-23T09:15:05Z</time>
      </trkpt>
      <trkpt lat="43.983657946810126" lon="10.954442443326116">
        <ele>290.45556640625</ele>
        <time>2003-11-23T09:15:09Z</time>
      </trkpt>
      <trkpt lat="43.983597429469228" lon="10.954392906278372">
        <ele>290.9361572265625</ele>
        <time>2003-11-23T09:15:37Z</time>
      </trkpt>
      <trkpt lat="43.983499696478248" lon="10.954440766945481">
        <ele>290.45556640625</ele>
        <time>2003-11-23T09:15:41Z</time>
      </trkpt>
      <trkpt lat="43.983407579362392" lon="10.954521652311087">
        <ele>290.9361572265625</ele>
        <time>2003-11-23T09:15:46Z</time>
      </trkpt>
      <trkpt lat="43.983324347063899" lon="10.954634891822934">
        <ele>290.45556640625</ele>
        <time>2003-11-23T09:15:50Z</time>
      </trkpt>
      <trkpt lat="43.983271457254887" lon="10.954756010323763">
        <ele>290.45556640625</ele>
        <time>2003-11-23T09:15:53Z</time>
      </trkpt>
      <trkpt lat="43.983235163614154" lon="10.95490638166666">
        <ele>289.494140625</ele>
        <time>2003-11-23T09:15:56Z</time>
      </trkpt>
      <trkpt lat="43.983224015682936" lon="10.955093633383512">
        <ele>289.494140625</ele>
        <time>2003-11-23T09:15:59Z</time>
      </trkpt>
      <trkpt lat="43.983243796974421" lon="10.955259008333087">
        <ele>288.532958984375</ele>
        <time>2003-11-23T09:16:02Z</time>
      </trkpt>
      <trkpt lat="43.983296351507306" lon="10.955402841791511">
        <ele>287.5714111328125</ele>
        <time>2003-11-23T09:16:06Z</time>
      </trkpt>
      <trkpt lat="43.983356701210141" lon="10.955501832067966">
        <ele>286.6102294921875</ele>
        <time>2003-11-23T09:16:09Z</time>
      </trkpt>
      <trkpt lat="43.983424343168736" lon="10.955604845657945">
        <ele>285.6488037109375</ele>
        <time>2003-11-23T09:16:13Z</time>
      </trkpt>
      <trkpt lat="43.983479915186763" lon="10.955712301656604">
        <ele>284.2069091796875</ele>
        <time>2003-11-23T09:16:17Z</time>
      </trkpt>
      <trkpt lat="43.98346365429461" lon="10.955822691321373">
        <ele>283.24560546875</ele>
        <time>2003-11-23T09:16:21Z</time>
      </trkpt>
      <trkpt lat="43.983409171923995" lon="10.955916233360767">
        <ele>282.7650146484375</ele>
        <time>2003-11-23T09:16:29Z</time>
      </trkpt>
      <trkpt lat="43.983313115313649" lon="10.95585722476244">
        <ele>281.8035888671875</ele>
        <time>2003-11-23T09:19:12Z</time>
      </trkpt>
      <trkpt lat="43.983249580487609" lon="10.955735938623548">
        <ele>281.322998046875</ele>
        <time>2003-11-23T09:19:15Z</time>
      </trkpt>
      <trkpt lat="43.983162324875593" lon="10.955587578937411">
        <ele>280.3616943359375</ele>
        <time>2003-11-23T09:19:18Z</time>
      </trkpt>
      <trkpt lat="43.983102981001139" lon="10.955450534820557">
        <ele>280.3616943359375</ele>
        <time>2003-11-23T09:19:20Z</time>
      </trkpt>
      <trkpt lat="43.983062077313662" lon="10.955300414934754">
        <ele>279.4002685546875</ele>
        <time>2003-11-23T09:19:22Z</time>
      </trkpt>
      <trkpt lat="43.983017988502979" lon="10.955136464908719">
        <ele>277.958251953125</ele>
        <time>2003-11-23T09:19:24Z</time>
      </trkpt>
      <trkpt lat="43.982955794781446" lon="10.954956589266658">
        <ele>277.4776611328125</ele>
        <time>2003-11-23T09:19:26Z</time>
      </trkpt>
      <trkpt lat="43.982880860567093" lon="10.954804457724094">
        <ele>276.516357421875</ele>
        <time>2003-11-23T09:19:28Z</time>
      </trkpt>
      <trkpt lat="43.982788324356079" lon="10.954694822430611">
        <ele>275.5550537109375</ele>
        <time>2003-11-23T09:19:30Z</time>
      </trkpt>
      <trkpt lat="43.982714144513011" lon="10.954614607617259">
        <ele>273.6324462890625</ele>
        <time>2003-11-23T09:19:33Z</time>
      </trkpt>
      <trkpt lat="43.982640048488975" lon="10.954534895718098">
        <ele>272.671142578125</ele>
        <time>2003-11-23T09:19:50Z</time>
      </trkpt>
      <trkpt lat="43.982536699622869" lon="10.954600274562836">
        <ele>271.2291259765625</ele>
        <time>2003-11-23T09:19:54Z</time>
      </trkpt>
      <trkpt lat="43.9824971370399" lon="10.954741509631276">
        <ele>267.864501953125</ele>
        <time>2003-11-23T09:19:57Z</time>
      </trkpt>
      <trkpt lat="43.982537789270282" lon="10.954890791326761">
        <ele>267.3839111328125</ele>
        <time>2003-11-23T09:19:59Z</time>
      </trkpt>
      <trkpt lat="43.982575004920363" lon="10.955036301165819">
        <ele>266.4224853515625</ele>
        <time>2003-11-23T09:20:01Z</time>
      </trkpt>
      <trkpt lat="43.982566120103002" lon="10.955168902873993">
        <ele>265.4613037109375</ele>
        <time>2003-11-23T09:20:03Z</time>
      </trkpt>
      <trkpt lat="43.982529323548079" lon="10.955294296145439">
        <ele>264.4998779296875</ele>
        <time>2003-11-23T09:20:05Z</time>
      </trkpt>
      <trkpt lat="43.982443828135729" lon="10.955301420763135">
        <ele>263.057861328125</ele>
        <time>2003-11-23T09:20:08Z</time>
      </trkpt>
      <trkpt lat="43.982392027974129" lon="10.955175021663308">
        <ele>262.5771484375</ele>
        <time>2003-11-23T09:20:11Z</time>
      </trkpt>
      <trkpt lat="43.982301503419876" lon="10.95510913990438">
        <ele>259.693359375</ele>
        <time>2003-11-23T09:20:15Z</time>
      </trkpt>
      <trkpt lat="43.982132440432906" lon="10.954930437728763">
        <ele>258.73193359375</ele>
        <time>2003-11-23T09:22:06Z</time>
      </trkpt>
      <trkpt lat="43.982118861749768" lon="10.954785598441958">
        <ele>258.73193359375</ele>
        <time>2003-11-23T09:22:11Z</time>
      </trkpt>
      <trkpt lat="43.98210670799017" lon="10.954686189070344">
        <ele>257.770751953125</ele>
        <time>2003-11-23T09:22:16Z</time>
      </trkpt>
      <trkpt lat="43.982045603916049" lon="10.954580493271351">
        <ele>257.2900390625</ele>
        <time>2003-11-23T09:22:20Z</time>
      </trkpt>
      <trkpt lat="43.981980392709374" lon="10.954493321478367">
        <ele>256.3287353515625</ele>
        <time>2003-11-23T09:22:23Z</time>
      </trkpt>
      <trkpt lat="43.981908056885004" lon="10.954386703670025">
        <ele>255.3673095703125</ele>
        <time>2003-11-23T09:22:26Z</time>
      </trkpt>
      <trkpt lat="43.981830524280667" lon="10.954282432794571">
        <ele>254.8865966796875</ele>
        <time>2003-11-23T09:22:29Z</time>
      </trkpt>
      <trkpt lat="43.981743939220905" lon="10.954177072271705">
        <ele>253.9254150390625</ele>
        <time>2003-11-23T09:22:32Z</time>
      </trkpt>
      <trkpt lat="43.981662467122078" lon="10.954071125015616">
        <ele>252.9639892578125</ele>
        <time>2003-11-23T09:22:35Z</time>
      </trkpt>
      <trkpt lat="43.981629610061646" lon="10.95392812974751">
        <ele>251.5220947265625</ele>
        <time>2003-11-23T09:22:38Z</time>
      </trkpt>
      <trkpt lat="43.981647882610559" lon="10.953793181106448">
        <ele>251.5220947265625</ele>
        <time>2003-11-23T09:22:40Z</time>
      </trkpt>
      <trkpt lat="43.981666155159473" lon="10.953658148646355">
        <ele>251.5220947265625</ele>
        <time>2003-11-23T09:22:42Z</time>
      </trkpt>
      <trkpt lat="43.981684427708387" lon="10.953523200005293">
        <ele>251.5220947265625</ele>
        <time>2003-11-23T09:22:44Z</time>
      </trkpt>
      <trkpt lat="43.981702700257301" lon="10.953388251364231">
        <ele>252.0028076171875</ele>
        <time>2003-11-23T09:22:46Z</time>
      </trkpt>
      <trkpt lat="43.981720972806215" lon="10.953253302723169">
        <ele>252.0028076171875</ele>
        <time>2003-11-23T09:22:48Z</time>
      </trkpt>
      <trkpt lat="43.981739245355129" lon="10.953118270263076">
        <ele>252.0028076171875</ele>
        <time>2003-11-23T09:22:50Z</time>
      </trkpt>
      <trkpt lat="43.981757517904043" lon="10.952983321622014">
        <ele>252.4833984375</ele>
        <time>2003-11-23T09:22:52Z</time>
      </trkpt>
      <trkpt lat="43.9817856810987" lon="10.952868321910501">
        <ele>252.4833984375</ele>
        <time>2003-11-23T09:22:55Z</time>
      </trkpt>
      <trkpt lat="43.981790039688349" lon="10.952842170372605">
        <ele>254.8865966796875</ele>
        <time>2003-11-23T09:23:01Z</time>
      </trkpt>
      <trkpt lat="43.981754165142775" lon="10.952789867296815">
        <ele>253.4447021484375</ele>
        <time>2003-11-23T09:23:07Z</time>
      </trkpt>
      <trkpt lat="43.981691217049956" lon="10.952746281400323">
        <ele>252.0028076171875</ele>
        <time>2003-11-23T09:23:11Z</time>
      </trkpt>
      <trkpt lat="43.981614103540778" lon="10.952692972496152">
        <ele>251.5220947265625</ele>
        <time>2003-11-23T09:23:14Z</time>
      </trkpt>
      <trkpt lat="43.981539839878678" lon="10.952637484297156">
        <ele>249.5994873046875</ele>
        <time>2003-11-23T09:23:17Z</time>
      </trkpt>
      <trkpt lat="43.981428779661655" lon="10.952900759875774">
        <ele>248.1575927734375</ele>
        <time>2003-11-23T09:25:01Z</time>
      </trkpt>
      <trkpt lat="43.98141922429204" lon="10.953055489808321">
        <ele>247.196044921875</ele>
        <time>2003-11-23T09:25:06Z</time>
      </trkpt>
      <trkpt lat="43.981390725821257" lon="10.953215584158897">
        <ele>247.6767578125</ele>
        <time>2003-11-23T09:25:10Z</time>
      </trkpt>
      <trkpt lat="43.981394162401557" lon="10.953338965773582">
        <ele>247.6767578125</ele>
        <time>2003-11-23T09:25:14Z</time>
      </trkpt>
      <trkpt lat="43.981427857652307" lon="10.95346444286406">
        <ele>248.63818359375</ele>
        <time>2003-11-23T09:25:20Z</time>
      </trkpt>
      <trkpt lat="43.981489967554808" lon="10.953591763973236">
        <ele>248.63818359375</ele>
        <time>2003-11-23T09:25:27Z</time>
      </trkpt>
      <trkpt lat="43.981536738574505" lon="10.953727466985583">
        <ele>249.5994873046875</ele>
        <time>2003-11-23T09:25:34Z</time>
      </trkpt>
      <trkpt lat="43.981503630056977" lon="10.953835174441338">
        <ele>250.560791015625</ele>
        <time>2003-11-23T09:25:40Z</time>
      </trkpt>
      <trkpt lat="43.981427187100053" lon="10.953800724819303">
        <ele>252.0028076171875</ele>
        <time>2003-11-23T09:25:47Z</time>
      </trkpt>
      <trkpt lat="43.981378069147468" lon="10.953673990443349">
        <ele>253.4447021484375</ele>
        <time>2003-11-23T09:25:53Z</time>
      </trkpt>
      <trkpt lat="43.981282683089375" lon="10.953638618811965">
        <ele>255.3673095703125</ele>
        <time>2003-11-23T09:25:59Z</time>
      </trkpt>
      <trkpt lat="43.981231385841966" lon="10.953758228570223">
        <ele>255.8480224609375</ele>
        <time>2003-11-23T09:26:05Z</time>
      </trkpt>
      <trkpt lat="43.981248568743467" lon="10.953891081735492">
        <ele>256.809326171875</ele>
        <time>2003-11-23T09:26:11Z</time>
      </trkpt>
      <trkpt lat="43.981278240680695" lon="10.954013457521796">
        <ele>257.770751953125</ele>
        <time>2003-11-23T09:26:18Z</time>
      </trkpt>
      <trkpt lat="43.981322329491377" lon="10.954119488596916">
        <ele>258.73193359375</ele>
        <time>2003-11-23T09:26:25Z</time>
      </trkpt>
      <trkpt lat="43.981364239007235" lon="10.954242954030633">
        <ele>260.1739501953125</ele>
        <time>2003-11-23T09:26:32Z</time>
      </trkpt>
      <trkpt lat="43.98132249712944" lon="10.954360887408257">
        <ele>261.13525390625</ele>
        <time>2003-11-23T09:26:39Z</time>
      </trkpt>
      <trkpt lat="43.981219902634621" lon="10.954389218240976">
        <ele>261.615966796875</ele>
        <time>2003-11-23T09:26:45Z</time>
      </trkpt>
      <trkpt lat="43.981122588738799" lon="10.954317385330796">
        <ele>262.0965576171875</ele>
        <time>2003-11-23T09:26:51Z</time>
      </trkpt>
      <trkpt lat="43.981048660352826" lon="10.954238176345825">
        <ele>263.057861328125</ele>
        <time>2003-11-23T09:26:56Z</time>
      </trkpt>
      <trkpt lat="43.980970373377204" lon="10.954147903248668">
        <ele>264.019287109375</ele>
        <time>2003-11-23T09:27:01Z</time>
      </trkpt>
      <trkpt lat="43.980891248211265" lon="10.954041201621294">
        <ele>264.4998779296875</ele>
        <time>2003-11-23T09:27:06Z</time>
      </trkpt>
      <trkpt lat="43.980817822739482" lon="10.953932823613286">
        <ele>264.9805908203125</ele>
        <time>2003-11-23T09:27:11Z</time>
      </trkpt>
      <trkpt lat="43.980722101405263" lon="10.953818075358868">
        <ele>265.4613037109375</ele>
        <time>2003-11-23T09:27:16Z</time>
      </trkpt>
      <trkpt lat="43.980636522173882" lon="10.95370726659894">
        <ele>265.94189453125</ele>
        <time>2003-11-23T09:27:21Z</time>
      </trkpt>
      <trkpt lat="43.980549601837993" lon="10.953612131997943">
        <ele>266.9031982421875</ele>
        <time>2003-11-23T09:27:26Z</time>
      </trkpt>
      <trkpt lat="43.980466620996594" lon="10.953522529453039">
        <ele>267.864501953125</ele>
        <time>2003-11-23T09:27:31Z</time>
      </trkpt>
      <trkpt lat="43.980383221060038" lon="10.953433429822326">
        <ele>268.3450927734375</ele>
        <time>2003-11-23T09:27:36Z</time>
      </trkpt>
      <trkpt lat="43.980285488069057" lon="10.953341061249375">
        <ele>270.2677001953125</ele>
        <time>2003-11-23T09:27:42Z</time>
      </trkpt>
      <trkpt lat="43.980176523327827" lon="10.953300995752215">
        <ele>270.7484130859375</ele>
        <time>2003-11-23T09:27:49Z</time>
      </trkpt>
      <trkpt lat="43.980101589113474" lon="10.953236371278763">
        <ele>271.2291259765625</ele>
        <time>2003-11-23T09:27:56Z</time>
      </trkpt>
      <trkpt lat="43.980129500851035" lon="10.953084323555231">
        <ele>270.7484130859375</ele>
        <time>2003-11-23T09:28:05Z</time>
      </trkpt>
      <trkpt lat="43.980170991271734" lon="10.952954739332199">
        <ele>269.787109375</ele>
        <time>2003-11-23T09:28:12Z</time>
      </trkpt>
      <trkpt lat="43.98020644672215" lon="10.952815432101488">
        <ele>268.8258056640625</ele>
        <time>2003-11-23T09:28:19Z</time>
      </trkpt>
      <trkpt lat="43.980231089517474" lon="10.95267042517662">
        <ele>268.3450927734375</ele>
        <time>2003-11-23T09:28:26Z</time>
      </trkpt>
      <trkpt lat="43.980259504169226" lon="10.952506978064775">
        <ele>268.3450927734375</ele>
        <time>2003-11-23T09:28:33Z</time>
      </trkpt>
      <trkpt lat="43.980292025953531" lon="10.95234889537096">
        <ele>267.864501953125</ele>
        <time>2003-11-23T09:28:40Z</time>
      </trkpt>
      <trkpt lat="43.98027584888041" lon="10.952148903161287">
        <ele>266.9031982421875</ele>
        <time>2003-11-23T09:28:47Z</time>
      </trkpt>
      <trkpt lat="43.980234107002616" lon="10.951955784112215">
        <ele>266.4224853515625</ele>
        <time>2003-11-23T09:28:53Z</time>
      </trkpt>
      <trkpt lat="43.980179708451033" lon="10.95183583907783">
        <ele>265.94189453125</ele>
        <time>2003-11-23T09:28:58Z</time>
      </trkpt>
      <trkpt lat="43.980128327384591" lon="10.951726036146283">
        <ele>264.9805908203125</ele>
        <time>2003-11-23T09:29:03Z</time>
      </trkpt>
      <trkpt lat="43.980069486424327" lon="10.951600223779678">
        <ele>264.9805908203125</ele>
        <time>2003-11-23T09:29:08Z</time>
      </trkpt>
      <trkpt lat="43.98002958856523" lon="10.951439710333943">
        <ele>264.4998779296875</ele>
        <time>2003-11-23T09:29:13Z</time>
      </trkpt>
      <trkpt lat="43.979997653514147" lon="10.95123385079205">
        <ele>263.53857421875</ele>
        <time>2003-11-23T09:29:18Z</time>
      </trkpt>
      <trkpt lat="43.979969825595617" lon="10.951061267405748">
        <ele>263.53857421875</ele>
        <time>2003-11-23T09:29:23Z</time>
      </trkpt>
      <trkpt lat="43.979958090931177" lon="10.950902262702584">
        <ele>263.057861328125</ele>
        <time>2003-11-23T09:29:29Z</time>
      </trkpt>
      <trkpt lat="43.979944344609976" lon="10.950754405930638">
        <ele>262.0965576171875</ele>
        <time>2003-11-23T09:29:35Z</time>
      </trkpt>
      <trkpt lat="43.979888940230012" lon="10.950591713190079">
        <ele>262.0965576171875</ele>
        <time>2003-11-23T09:29:41Z</time>
      </trkpt>
      <trkpt lat="43.979839738458395" lon="10.950482496991754">
        <ele>260.1739501953125</ele>
        <time>2003-11-23T09:29:47Z</time>
      </trkpt>
      <trkpt lat="43.979790536686778" lon="10.95037336461246">
        <ele>257.2900390625</ele>
        <time>2003-11-23T09:29:53Z</time>
      </trkpt>
      <trkpt lat="43.979741251096129" lon="10.950264148414135">
        <ele>254.8865966796875</ele>
        <time>2003-11-23T09:29:59Z</time>
      </trkpt>
      <trkpt lat="43.979692049324512" lon="10.95015493221581">
        <ele>252.4833984375</ele>
        <time>2003-11-23T09:30:05Z</time>
      </trkpt>
      <trkpt lat="43.97965919226408" lon="10.950082177296281">
        <ele>251.5220947265625</ele>
        <time>2003-11-23T09:30:10Z</time>
      </trkpt>
      <trkpt lat="43.979267338290811" lon="10.949007449671626">
        <ele>251.5220947265625</ele>
        <time>2003-11-23T09:30:11Z</time>
      </trkpt>
      <trkpt lat="43.979353420436382" lon="10.948946429416537">
        <ele>252.0028076171875</ele>
        <time>2003-11-23T09:30:18Z</time>
      </trkpt>
      <trkpt lat="43.979311678558588" lon="10.94882195815444">
        <ele>253.9254150390625</ele>
        <time>2003-11-23T09:30:25Z</time>
      </trkpt>
      <trkpt lat="43.979269936680794" lon="10.948697570711374">
        <ele>255.8480224609375</ele>
        <time>2003-11-23T09:30:32Z</time>
      </trkpt>
      <trkpt lat="43.979442939162254" lon="10.94861039891839">
        <ele>262.0965576171875</ele>
        <time>2003-11-23T09:31:03Z</time>
      </trkpt>
      <trkpt lat="43.979332549497485" lon="10.948443431407213">
        <ele>263.53857421875</ele>
        <time>2003-11-23T09:31:15Z</time>
      </trkpt>
      <trkpt lat="43.979228949174285" lon="10.948285264894366">
        <ele>264.019287109375</ele>
        <time>2003-11-23T09:31:27Z</time>
      </trkpt>
      <trkpt lat="43.979131048545241" lon="10.948156602680683">
        <ele>263.53857421875</ele>
        <time>2003-11-23T09:31:37Z</time>
      </trkpt>
      <trkpt lat="43.979049744084477" lon="10.948045793920755">
        <ele>263.057861328125</ele>
        <time>2003-11-23T09:31:43Z</time>
      </trkpt>
      <trkpt lat="43.978962823748589" lon="10.947917215526104">
        <ele>262.0965576171875</ele>
        <time>2003-11-23T09:31:49Z</time>
      </trkpt>
      <trkpt lat="43.978858385235071" lon="10.947781763970852">
        <ele>261.13525390625</ele>
        <time>2003-11-23T09:32:00Z</time>
      </trkpt>
      <trkpt lat="43.978756461292505" lon="10.947678666561842">
        <ele>260.654541015625</ele>
        <time>2003-11-23T09:32:08Z</time>
      </trkpt>
      <trkpt lat="43.978639282286167" lon="10.947597529739141">
        <ele>260.1739501953125</ele>
        <time>2003-11-23T09:32:16Z</time>
      </trkpt>
      <trkpt lat="43.9785201754421" lon="10.947534833103418">
        <ele>260.1739501953125</ele>
        <time>2003-11-23T09:32:24Z</time>
      </trkpt>
      <trkpt lat="43.978402996435761" lon="10.94749384559691">
        <ele>258.73193359375</ele>
        <time>2003-11-23T09:32:32Z</time>
      </trkpt>
      <trkpt lat="43.978270478546619" lon="10.947436932474375">
        <ele>257.2900390625</ele>
        <time>2003-11-23T09:32:38Z</time>
      </trkpt>
      <trkpt lat="43.978169644251466" lon="10.947382114827633">
        <ele>255.8480224609375</ele>
        <time>2003-11-23T09:32:42Z</time>
      </trkpt>
      <trkpt lat="43.97806721739471" lon="10.947340708225965">
        <ele>254.8865966796875</ele>
        <time>2003-11-23T09:32:46Z</time>
      </trkpt>
      <trkpt lat="43.977956408634782" lon="10.947325117886066">
        <ele>252.9639892578125</ele>
        <time>2003-11-23T09:32:50Z</time>
      </trkpt>
      <trkpt lat="43.977841744199395" lon="10.94731941819191">
        <ele>252.4833984375</ele>
        <time>2003-11-23T09:32:54Z</time>
      </trkpt>
      <trkpt lat="43.97772422991693" lon="10.947315897792578">
        <ele>252.0028076171875</ele>
        <time>2003-11-23T09:32:58Z</time>
      </trkpt>
      <trkpt lat="43.977606631815434" lon="10.94729159027338">
        <ele>252.9639892578125</ele>
        <time>2003-11-23T09:33:03Z</time>
      </trkpt>
      <trkpt lat="43.977486183866858" lon="10.947263929992914">
        <ele>253.9254150390625</ele>
        <time>2003-11-23T09:33:09Z</time>
      </trkpt>
      <trkpt lat="43.977416111156344" lon="10.947311371564865">
        <ele>256.809326171875</ele>
        <time>2003-11-23T09:33:18Z</time>
      </trkpt>
      <trkpt lat="43.977371016517282" lon="10.947423605248332">
        <ele>260.1739501953125</ele>
        <time>2003-11-23T09:33:36Z</time>
      </trkpt>
      <trkpt lat="43.977290717884898" lon="10.947539191693068">
        <ele>260.1739501953125</ele>
        <time>2003-11-23T09:33:54Z</time>
      </trkpt>
      <trkpt lat="43.977210251614451" lon="10.947613874450326">
        <ele>259.212646484375</ele>
        <time>2003-11-23T09:33:58Z</time>
      </trkpt>
      <trkpt lat="43.977127186954021" lon="10.947712613269687">
        <ele>258.2513427734375</ele>
        <time>2003-11-23T09:34:02Z</time>
      </trkpt>
      <trkpt lat="43.977014198899269" lon="10.947752930223942">
        <ele>256.809326171875</ele>
        <time>2003-11-23T09:34:06Z</time>
      </trkpt>
      <trkpt lat="43.976902719587088" lon="10.94779634848237">
        <ele>257.2900390625</ele>
        <time>2003-11-23T09:34:10Z</time>
      </trkpt>
      <trkpt lat="43.976804567500949" lon="10.947848232463002">
        <ele>256.809326171875</ele>
        <time>2003-11-23T09:34:14Z</time>
      </trkpt>
      <trkpt lat="43.97670398466289" lon="10.947916209697723">
        <ele>257.2900390625</ele>
        <time>2003-11-23T09:34:19Z</time>
      </trkpt>
      <trkpt lat="43.97659937851131" lon="10.947940684854984">
        <ele>256.809326171875</ele>
        <time>2003-11-23T09:35:33Z</time>
      </trkpt>
      <trkpt lat="43.976515140384436" lon="10.947984270751476">
        <ele>256.809326171875</ele>
        <time>2003-11-23T09:35:41Z</time>
      </trkpt>
      <trkpt lat="43.976437859237194" lon="10.9479243401438">
        <ele>257.2900390625</ele>
        <time>2003-11-23T09:35:48Z</time>
      </trkpt>
      <trkpt lat="43.976381029933691" lon="10.947806406766176">
        <ele>257.2900390625</ele>
        <time>2003-11-23T09:35:55Z</time>
      </trkpt>
      <trkpt lat="43.976507596671581" lon="10.947901792824268">
        <ele>257.770751953125</ele>
        <time>2003-11-23T09:39:05Z</time>
      </trkpt>
      <trkpt lat="43.976388992741704" lon="10.947699872776866">
        <ele>257.2900390625</ele>
        <time>2003-11-23T09:39:36Z</time>
      </trkpt>
      <trkpt lat="43.976329732686281" lon="10.947571629658341">
        <ele>257.770751953125</ele>
        <time>2003-11-23T09:39:42Z</time>
      </trkpt>
      <trkpt lat="43.976281033828855" lon="10.9474459849298">
        <ele>259.212646484375</ele>
        <time>2003-11-23T09:39:48Z</time>
      </trkpt>
      <trkpt lat="43.976209368556738" lon="10.94732184894383">
        <ele>260.654541015625</ele>
        <time>2003-11-23T09:39:54Z</time>
      </trkpt>
      <trkpt lat="43.976146504282951" lon="10.947184134274721">
        <ele>260.1739501953125</ele>
        <time>2003-11-23T09:39:59Z</time>
      </trkpt>
      <trkpt lat="43.976082969456911" lon="10.947067206725478">
        <ele>258.73193359375</ele>
        <time>2003-11-23T09:40:03Z</time>
      </trkpt>
      <trkpt lat="43.976014237850904" lon="10.946934521198273">
        <ele>257.2900390625</ele>
        <time>2003-11-23T09:40:07Z</time>
      </trkpt>
      <trkpt lat="43.975932681933045" lon="10.946813318878412">
        <ele>256.809326171875</ele>
        <time>2003-11-23T09:40:11Z</time>
      </trkpt>
      <trkpt lat="43.975851880386472" lon="10.946706365793943">
        <ele>256.3287353515625</ele>
        <time>2003-11-23T09:40:15Z</time>
      </trkpt>
      <trkpt lat="43.975765043869615" lon="10.946617098525167">
        <ele>255.3673095703125</ele>
        <time>2003-11-23T09:40:19Z</time>
      </trkpt>
      <trkpt lat="43.975679632276297" lon="10.946555659174919">
        <ele>253.9254150390625</ele>
        <time>2003-11-23T09:40:22Z</time>
      </trkpt>
      <trkpt lat="43.975560441613197" lon="10.946535961702466">
        <ele>253.4447021484375</ele>
        <time>2003-11-23T09:40:24Z</time>
      </trkpt>
      <trkpt lat="43.975439909845591" lon="10.946516934782267">
        <ele>253.4447021484375</ele>
        <time>2003-11-23T09:40:26Z</time>
      </trkpt>
      <trkpt lat="43.975327089428902" lon="10.946502266451716">
        <ele>253.4447021484375</ele>
        <time>2003-11-23T09:40:28Z</time>
      </trkpt>
      <trkpt lat="43.975190967321396" lon="10.946494052186608">
        <ele>252.9639892578125</ele>
        <time>2003-11-23T09:40:31Z</time>
      </trkpt>
      <trkpt lat="43.975087869912386" lon="10.946479383856058">
        <ele>252.9639892578125</ele>
        <time>2003-11-23T09:40:34Z</time>
      </trkpt>
      <trkpt lat="43.97495225071907" lon="10.946508133783937">
        <ele>252.4833984375</ele>
        <time>2003-11-23T09:40:38Z</time>
      </trkpt>
      <trkpt lat="43.974825348705053" lon="10.946565130725503">
        <ele>252.9639892578125</ele>
        <time>2003-11-23T09:40:42Z</time>
      </trkpt>
      <trkpt lat="43.974712193012238" lon="10.946633191779256">
        <ele>252.9639892578125</ele>
        <time>2003-11-23T09:40:46Z</time>
      </trkpt>
      <trkpt lat="43.974609179422259" lon="10.946740563958883">
        <ele>252.4833984375</ele>
        <time>2003-11-23T09:40:50Z</time>
      </trkpt>
      <trkpt lat="43.974541537463665" lon="10.946852462366223">
        <ele>251.5220947265625</ele>
        <time>2003-11-23T09:40:54Z</time>
      </trkpt>
      <trkpt lat="43.974491246044636" lon="10.946971904486418">
        <ele>251.0413818359375</ele>
        <time>2003-11-23T09:40:57Z</time>
      </trkpt>
      <trkpt lat="43.974444223567843" lon="10.947098890319467">
        <ele>248.1575927734375</ele>
        <time>2003-11-23T09:41:00Z</time>
      </trkpt>
      <trkpt lat="43.974402481690049" lon="10.947221769019961">
        <ele>247.196044921875</ele>
        <time>2003-11-23T09:41:03Z</time>
      </trkpt>
      <trkpt lat="43.974319249391556" lon="10.947350179776549">
        <ele>245.754150390625</ele>
        <time>2003-11-23T09:41:07Z</time>
      </trkpt>
      <trkpt lat="43.974213721230626" lon="10.947337271645665">
        <ele>242.3896484375</ele>
        <time>2003-11-23T09:41:11Z</time>
      </trkpt>
      <trkpt lat="43.974120346829295" lon="10.947273233905435">
        <ele>239.9862060546875</ele>
        <time>2003-11-23T09:41:14Z</time>
      </trkpt>
      <trkpt lat="43.974023116752505" lon="10.947210034355521">
        <ele>239.5054931640625</ele>
        <time>2003-11-23T09:41:17Z</time>
      </trkpt>
      <trkpt lat="43.97392513230443" lon="10.947150606662035">
        <ele>239.02490234375</ele>
        <time>2003-11-23T09:41:20Z</time>
      </trkpt>
      <trkpt lat="43.973829410970211" lon="10.947135183960199">
        <ele>239.02490234375</ele>
        <time>2003-11-23T09:41:26Z</time>
      </trkpt>
      <trkpt lat="43.973742742091417" lon="10.947207771241665">
        <ele>241.42822265625</ele>
        <time>2003-11-23T09:41:36Z</time>
      </trkpt>
      <trkpt lat="43.973677195608616" lon="10.947336768731475">
        <ele>243.350830078125</ele>
        <time>2003-11-23T09:41:44Z</time>
      </trkpt>
      <trkpt lat="43.973605278879404" lon="10.947453109547496">
        <ele>244.312255859375</ele>
        <time>2003-11-23T09:41:50Z</time>
      </trkpt>
      <trkpt lat="43.973534116521478" lon="10.947585627436638">
        <ele>244.7928466796875</ele>
        <time>2003-11-23T09:41:57Z</time>
      </trkpt>
      <trkpt lat="43.973534032702446" lon="10.947801629081368">
        <ele>243.83154296875</ele>
        <time>2003-11-23T09:42:38Z</time>
      </trkpt>
      <trkpt lat="43.973511569201946" lon="10.94795661047101">
        <ele>245.754150390625</ele>
        <time>2003-11-23T09:42:47Z</time>
      </trkpt>
      <trkpt lat="43.973486507311463" lon="10.948096420615911">
        <ele>246.7154541015625</ele>
        <time>2003-11-23T09:42:53Z</time>
      </trkpt>
      <trkpt lat="43.973497655242682" lon="10.948229609057307">
        <ele>246.7154541015625</ele>
        <time>2003-11-23T09:42:59Z</time>
      </trkpt>
      <trkpt lat="43.973517101258039" lon="10.948362043127418">
        <ele>247.196044921875</ele>
        <time>2003-11-23T09:43:04Z</time>
      </trkpt>
      <trkpt lat="43.973526991903782" lon="10.94849606975913">
        <ele>247.196044921875</ele>
        <time>2003-11-23T09:43:08Z</time>
      </trkpt>
      <trkpt lat="43.973536547273397" lon="10.948638813570142">
        <ele>246.7154541015625</ele>
        <time>2003-11-23T09:43:14Z</time>
      </trkpt>
      <trkpt lat="43.973544342443347" lon="10.948774432763457">
        <ele>246.7154541015625</ele>
        <time>2003-11-23T09:43:19Z</time>
      </trkpt>
      <trkpt lat="43.973547862842679" lon="10.948913572356105">
        <ele>247.196044921875</ele>
        <time>2003-11-23T09:43:29Z</time>
      </trkpt>
      <trkpt lat="43.973560100421309" lon="10.949058076366782">
        <ele>246.23486328125</ele>
        <time>2003-11-23T09:43:54Z</time>
      </trkpt>
      <trkpt lat="43.973593628033996" lon="10.949192689731717">
        <ele>245.754150390625</ele>
        <time>2003-11-23T09:43:57Z</time>
      </trkpt>
      <trkpt lat="43.973632771521807" lon="10.949342306703329">
        <ele>244.7928466796875</ele>
        <time>2003-11-23T09:44:00Z</time>
      </trkpt>
      <trkpt lat="43.973683565855026" lon="10.949506424367428">
        <ele>240.467041015625</ele>
        <time>2003-11-23T09:44:03Z</time>
      </trkpt>
      <trkpt lat="43.973730923607945" lon="10.949666434898973">
        <ele>239.02490234375</ele>
        <time>2003-11-23T09:44:06Z</time>
      </trkpt>
      <trkpt lat="43.973751794546843" lon="10.94979090616107">
        <ele>237.102294921875</ele>
        <time>2003-11-23T09:44:08Z</time>
      </trkpt>
      <trkpt lat="43.973762607201934" lon="10.949935661628842">
        <ele>235.6602783203125</ele>
        <time>2003-11-23T09:44:10Z</time>
      </trkpt>
      <trkpt lat="43.973770821467042" lon="10.950068850070238">
        <ele>233.7376708984375</ele>
        <time>2003-11-23T09:44:12Z</time>
      </trkpt>
      <trkpt lat="43.973768642172217" lon="10.950254341587424">
        <ele>232.7764892578125</ele>
        <time>2003-11-23T09:44:15Z</time>
      </trkpt>
      <trkpt lat="43.9736383035779" lon="10.950293317437172">
        <ele>232.2957763671875</ele>
        <time>2003-11-23T09:45:11Z</time>
      </trkpt>
      <trkpt lat="43.973565548658371" lon="10.950168846175075">
        <ele>232.7764892578125</ele>
        <time>2003-11-23T09:45:18Z</time>
      </trkpt>
      <trkpt lat="43.973492542281747" lon="10.950068598613143">
        <ele>233.7376708984375</ele>
        <time>2003-11-23T09:45:23Z</time>
      </trkpt>
      <trkpt lat="43.973406376317143" lon="10.949990814551711">
        <ele>235.1796875</ele>
        <time>2003-11-23T09:45:29Z</time>
      </trkpt>
      <trkpt lat="43.97331777960062" lon="10.949902217835188">
        <ele>236.6217041015625</ele>
        <time>2003-11-23T09:45:35Z</time>
      </trkpt>
      <trkpt lat="43.973225327208638" lon="10.94986273907125">
        <ele>238.0635986328125</ele>
        <time>2003-11-23T09:45:43Z</time>
      </trkpt>
      <trkpt lat="43.973123570904136" lon="10.949835497885942">
        <ele>239.9862060546875</ele>
        <time>2003-11-23T09:45:54Z</time>
      </trkpt>
      <trkpt lat="43.973033716902137" lon="10.949779339134693">
        <ele>240.9476318359375</ele>
        <time>2003-11-23T09:46:04Z</time>
      </trkpt>
      <trkpt lat="43.972945204004645" lon="10.949746398255229">
        <ele>241.908935546875</ele>
        <time>2003-11-23T09:46:17Z</time>
      </trkpt>
      <trkpt lat="43.972846129909158" lon="10.949729215353727">
        <ele>243.350830078125</ele>
        <time>2003-11-23T09:46:24Z</time>
      </trkpt>
      <trkpt lat="43.972742613404989" lon="10.949723767116666">
        <ele>245.754150390625</ele>
        <time>2003-11-23T09:46:31Z</time>
      </trkpt>
      <trkpt lat="43.972645970061421" lon="10.949726365506649">
        <ele>246.7154541015625</ele>
        <time>2003-11-23T09:46:38Z</time>
      </trkpt>
      <trkpt lat="43.972553350031376" lon="10.949724270030856">
        <ele>247.196044921875</ele>
        <time>2003-11-23T09:46:45Z</time>
      </trkpt>
      <trkpt lat="43.972476571798325" lon="10.949795348569751">
        <ele>248.63818359375</ele>
        <time>2003-11-23T09:46:53Z</time>
      </trkpt>
      <trkpt lat="43.972424352541566" lon="10.949913449585438">
        <ele>250.0802001953125</ele>
        <time>2003-11-23T09:47:01Z</time>
      </trkpt>
      <trkpt lat="43.972372636198997" lon="10.950010679662228">
        <ele>252.0028076171875</ele>
        <time>2003-11-23T09:47:08Z</time>
      </trkpt>
      <trkpt lat="43.972316812723875" lon="10.950122829526663">
        <ele>252.0028076171875</ele>
        <time>2003-11-23T09:47:15Z</time>
      </trkpt>
      <trkpt lat="43.972258307039738" lon="10.950234644114971">
        <ele>252.4833984375</ele>
        <time>2003-11-23T09:47:21Z</time>
      </trkpt>
      <trkpt lat="43.972206255421042" lon="10.950340256094933">
        <ele>252.9639892578125</ele>
        <time>2003-11-23T09:47:27Z</time>
      </trkpt>
      <trkpt lat="43.972152611240745" lon="10.950449556112289">
        <ele>253.4447021484375</ele>
        <time>2003-11-23T09:47:34Z</time>
      </trkpt>
      <trkpt lat="43.972094357013702" lon="10.950560700148344">
        <ele>255.3673095703125</ele>
        <time>2003-11-23T09:47:42Z</time>
      </trkpt>
      <trkpt lat="43.972037108615041" lon="10.950676118955016">
        <ele>255.8480224609375</ele>
        <time>2003-11-23T09:47:50Z</time>
      </trkpt>
      <trkpt lat="43.97201213054359" lon="10.950803188607097">
        <ele>257.2900390625</ele>
        <time>2003-11-23T09:47:59Z</time>
      </trkpt>
      <trkpt lat="43.971992013975978" lon="10.950942244380713">
        <ele>258.73193359375</ele>
        <time>2003-11-23T09:48:08Z</time>
      </trkpt>
      <trkpt lat="43.971924372017384" lon="10.951071409508586">
        <ele>258.73193359375</ele>
        <time>2003-11-23T09:48:33Z</time>
      </trkpt>
      <trkpt lat="43.971918923780322" lon="10.951211052015424">
        <ele>259.693359375</ele>
        <time>2003-11-23T09:48:39Z</time>
      </trkpt>
      <trkpt lat="43.971945578232408" lon="10.951337367296219">
        <ele>261.13525390625</ele>
        <time>2003-11-23T09:48:45Z</time>
      </trkpt>
      <trkpt lat="43.971989583224058" lon="10.951447254046798">
        <ele>261.615966796875</ele>
        <time>2003-11-23T09:48:51Z</time>
      </trkpt>
      <trkpt lat="43.972029145807028" lon="10.951563091948628">
        <ele>263.53857421875</ele>
        <time>2003-11-23T09:48:58Z</time>
      </trkpt>
      <trkpt lat="43.972044987604022" lon="10.951689491048455">
        <ele>264.4998779296875</ele>
        <time>2003-11-23T09:49:06Z</time>
      </trkpt>
      <trkpt lat="43.972060829401016" lon="10.951825110241771">
        <ele>267.3839111328125</ele>
        <time>2003-11-23T09:49:15Z</time>
      </trkpt>
      <trkpt lat="43.972074156627059" lon="10.951949916779995">
        <ele>268.3450927734375</ele>
        <time>2003-11-23T09:49:24Z</time>
      </trkpt>
      <trkpt lat="43.972077509388328" lon="10.952094253152609">
        <ele>270.2677001953125</ele>
        <time>2003-11-23T09:49:33Z</time>
      </trkpt>
      <trkpt lat="43.972079185768962" lon="10.952226938679814">
        <ele>273.15185546875</ele>
        <time>2003-11-23T09:49:43Z</time>
      </trkpt>
      <trkpt lat="43.9720703009516" lon="10.952376890927553">
        <ele>275.5550537109375</ele>
        <time>2003-11-23T09:49:53Z</time>
      </trkpt>
      <trkpt lat="43.972056806087494" lon="10.952530028298497">
        <ele>277.958251953125</ele>
        <time>2003-11-23T09:50:02Z</time>
      </trkpt>
      <trkpt lat="43.972062338143587" lon="10.952655673027039">
        <ele>279.4002685546875</ele>
        <time>2003-11-23T09:50:11Z</time>
      </trkpt>
      <trkpt lat="43.972089076414704" lon="10.952784586697817">
        <ele>281.8035888671875</ele>
        <time>2003-11-23T09:50:24Z</time>
      </trkpt>
      <trkpt lat="43.972137104719877" lon="10.952899921685457">
        <ele>283.7261962890625</ele>
        <time>2003-11-23T09:50:36Z</time>
      </trkpt>
      <trkpt lat="43.97217876277864" lon="10.953029757365584">
        <ele>285.6488037109375</ele>
        <time>2003-11-23T09:50:48Z</time>
      </trkpt>
      <trkpt lat="43.972183037549257" lon="10.953152636066079">
        <ele>287.5714111328125</ele>
        <time>2003-11-23T09:51:02Z</time>
      </trkpt>
      <trkpt lat="43.972176751121879" lon="10.953280963003635">
        <ele>288.532958984375</ele>
        <time>2003-11-23T09:51:19Z</time>
      </trkpt>
      <trkpt lat="43.972137020900846" lon="10.953396465629339">
        <ele>290.45556640625</ele>
        <time>2003-11-23T09:51:37Z</time>
      </trkpt>
      <trkpt lat="43.972108438611031" lon="10.95352646894753">
        <ele>293.33935546875</ele>
        <time>2003-11-23T09:51:53Z</time>
      </trkpt>
      <trkpt lat="43.972077090293169" lon="10.953638451173902">
        <ele>295.74267578125</ele>
        <time>2003-11-23T09:52:06Z</time>
      </trkpt>
      <trkpt lat="43.972066361457109" lon="10.953763090074062">
        <ele>297.1846923828125</ele>
        <time>2003-11-23T09:52:17Z</time>
      </trkpt>
      <trkpt lat="43.972063846886158" lon="10.95389736816287">
        <ele>299.5880126953125</ele>
        <time>2003-11-23T09:52:29Z</time>
      </trkpt>
      <trkpt lat="43.972024954855442" lon="10.954039609059691">
        <ele>302.471923828125</ele>
        <time>2003-11-23T09:52:49Z</time>
      </trkpt>
      <trkpt lat="43.971974579617381" lon="10.954141365364194">
        <ele>304.875244140625</ele>
        <time>2003-11-23T09:53:07Z</time>
      </trkpt>
      <trkpt lat="43.971891682595015" lon="10.954212360084057">
        <ele>305.836669921875</ele>
        <time>2003-11-23T09:53:21Z</time>
      </trkpt>
      <trkpt lat="43.971818089485168" lon="10.954299615696073">
        <ele>307.75927734375</ele>
        <time>2003-11-23T09:53:31Z</time>
      </trkpt>
      <trkpt lat="43.971749022603035" lon="10.954382009804249">
        <ele>308.720458984375</ele>
        <time>2003-11-23T09:53:44Z</time>
      </trkpt>
      <trkpt lat="43.971656234934926" lon="10.954455351457">
        <ele>308.720458984375</ele>
        <time>2003-11-23T09:53:50Z</time>
      </trkpt>
      <trkpt lat="43.971573924645782" lon="10.954509079456329">
        <ele>308.720458984375</ele>
        <time>2003-11-23T09:53:54Z</time>
      </trkpt>
      <trkpt lat="43.971473928540945" lon="10.954570267349482">
        <ele>308.2398681640625</ele>
        <time>2003-11-23T09:53:58Z</time>
      </trkpt>
      <trkpt lat="43.971385667100549" lon="10.954608069732785">
        <ele>308.2398681640625</ele>
        <time>2003-11-23T09:54:01Z</time>
      </trkpt>
      <trkpt lat="43.9712880179286" lon="10.954640340059996">
        <ele>307.278564453125</ele>
        <time>2003-11-23T09:54:04Z</time>
      </trkpt>
      <trkpt lat="43.971172263845801" lon="10.954682668671012">
        <ele>306.3172607421875</ele>
        <time>2003-11-23T09:54:07Z</time>
      </trkpt>
      <trkpt lat="43.971047708764672" lon="10.954673113301396">
        <ele>305.836669921875</ele>
        <time>2003-11-23T09:54:10Z</time>
      </trkpt>
      <trkpt lat="43.970956765115261" lon="10.954696834087372">
        <ele>306.3172607421875</ele>
        <time>2003-11-23T09:54:14Z</time>
      </trkpt>
      <trkpt lat="43.970854338258505" lon="10.954744527116418">
        <ele>307.75927734375</ele>
        <time>2003-11-23T09:54:20Z</time>
      </trkpt>
      <trkpt lat="43.970761885866523" lon="10.954801524057984">
        <ele>309.201171875</ele>
        <time>2003-11-23T09:54:26Z</time>
      </trkpt>
      <trkpt lat="43.970673037692904" lon="10.954857598990202">
        <ele>310.64306640625</ele>
        <time>2003-11-23T09:54:32Z</time>
      </trkpt>
      <trkpt lat="43.970600450411439" lon="10.95493764616549">
        <ele>311.6044921875</ele>
        <time>2003-11-23T09:54:38Z</time>
      </trkpt>
      <trkpt lat="43.970531802624464" lon="10.955019285902381">
        <ele>312.085205078125</ele>
        <time>2003-11-23T09:54:45Z</time>
      </trkpt>
      <trkpt lat="43.970434907823801" lon="10.955064799636602">
        <ele>313.5272216796875</ele>
        <time>2003-11-23T09:54:52Z</time>
      </trkpt>
      <trkpt lat="43.970341365784407" lon="10.955088352784514">
        <ele>314.4884033203125</ele>
        <time>2003-11-23T09:54:59Z</time>
      </trkpt>
      <trkpt lat="43.970244387164712" lon="10.955108050256968">
        <ele>315.930419921875</ele>
        <time>2003-11-23T09:55:06Z</time>
      </trkpt>
      <trkpt lat="43.970147240906954" lon="10.955122970044613">
        <ele>315.930419921875</ele>
        <time>2003-11-23T09:55:13Z</time>
      </trkpt>
      <trkpt lat="43.970058644190431" lon="10.955162784084678">
        <ele>318.3336181640625</ele>
        <time>2003-11-23T09:55:22Z</time>
      </trkpt>
      <trkpt lat="43.969951691105962" lon="10.955185163766146">
        <ele>317.85302734375</ele>
        <time>2003-11-23T09:56:08Z</time>
      </trkpt>
      <trkpt lat="43.96984021179378" lon="10.955152725800872">
        <ele>316.8917236328125</ele>
        <time>2003-11-23T09:56:13Z</time>
      </trkpt>
      <trkpt lat="43.969720769673586" lon="10.955125149339437">
        <ele>316.4110107421875</ele>
        <time>2003-11-23T09:56:17Z</time>
      </trkpt>
      <trkpt lat="43.96961105056107" lon="10.955116096884012">
        <ele>315.930419921875</ele>
        <time>2003-11-23T09:56:20Z</time>
      </trkpt>
      <trkpt lat="43.969490602612495" lon="10.955117857083678">
        <ele>315.4498291015625</ele>
        <time>2003-11-23T09:56:23Z</time>
      </trkpt>
      <trkpt lat="43.969390522688627" lon="10.955113163217902">
        <ele>315.4498291015625</ele>
        <time>2003-11-23T09:56:26Z</time>
      </trkpt>
      <trkpt lat="43.969321120530367" lon="10.955093801021576">
        <ele>314.9691162109375</ele>
        <time>2003-11-23T09:56:33Z</time>
      </trkpt>
      <trkpt lat="43.969242246821523" lon="10.955034708604217">
        <ele>314.4884033203125</ele>
        <time>2003-11-23T09:57:30Z</time>
      </trkpt>
      <trkpt lat="43.96919178776443" lon="10.954900262877345">
        <ele>315.930419921875</ele>
        <time>2003-11-23T09:57:38Z</time>
      </trkpt>
      <trkpt lat="43.969140909612179" lon="10.954756010323763">
        <ele>317.85302734375</ele>
        <time>2003-11-23T09:57:44Z</time>
      </trkpt>
      <trkpt lat="43.96909212693572" lon="10.954632963985205">
        <ele>319.2950439453125</ele>
        <time>2003-11-23T09:57:50Z</time>
      </trkpt>
      <trkpt lat="43.969039488583803" lon="10.954499440267682">
        <ele>319.775634765625</ele>
        <time>2003-11-23T09:57:57Z</time>
      </trkpt>
      <trkpt lat="43.968989280983806" lon="10.954373376443982">
        <ele>320.737060546875</ele>
        <time>2003-11-23T09:58:02Z</time>
      </trkpt>
      <trkpt lat="43.968924824148417" lon="10.954261645674706">
        <ele>320.737060546875</ele>
        <time>2003-11-23T09:58:09Z</time>
      </trkpt>
      <trkpt lat="43.968863217160106" lon="10.954159218817949">
        <ele>321.2177734375</ele>
        <time>2003-11-23T09:58:15Z</time>
      </trkpt>
      <trkpt lat="43.968790713697672" lon="10.954113872721791">
        <ele>321.2177734375</ele>
        <time>2003-11-23T09:58:26Z</time>
      </trkpt>
      <trkpt lat="43.968668337911367" lon="10.954082356765866">
        <ele>319.775634765625</ele>
        <time>2003-11-23T09:58:54Z</time>
      </trkpt>
      <trkpt lat="43.96856389939785" lon="10.954089481383562">
        <ele>319.2950439453125</ele>
        <time>2003-11-23T09:58:58Z</time>
      </trkpt>
      <trkpt lat="43.968465998768806" lon="10.954098785296082">
        <ele>318.8143310546875</ele>
        <time>2003-11-23T09:59:03Z</time>
      </trkpt>
      <trkpt lat="43.968369858339429" lon="10.954072466120124">
        <ele>318.3336181640625</ele>
        <time>2003-11-23T09:59:09Z</time>
      </trkpt>
      <trkpt lat="43.968291068449616" lon="10.9539510961622">
        <ele>317.3724365234375</ele>
        <time>2003-11-23T10:02:23Z</time>
      </trkpt>
      <trkpt lat="43.968385783955455" lon="10.954015469178557">
        <ele>318.8143310546875</ele>
        <time>2003-11-23T10:02:31Z</time>
      </trkpt>
      <trkpt lat="43.968489971011877" lon="10.954000968486071">
        <ele>319.775634765625</ele>
        <time>2003-11-23T10:02:37Z</time>
      </trkpt>
      <trkpt lat="43.968591559678316" lon="10.953966854140162">
        <ele>319.775634765625</ele>
        <time>2003-11-23T10:02:43Z</time>
      </trkpt>
      <trkpt lat="43.968695495277643" lon="10.953957885503769">
        <ele>321.2177734375</ele>
        <time>2003-11-23T10:02:49Z</time>
      </trkpt>
      <trkpt lat="43.968795910477638" lon="10.953987892717123">
        <ele>321.6983642578125</ele>
        <time>2003-11-23T10:02:55Z</time>
      </trkpt>
      <trkpt lat="43.968878639861941" lon="10.954084619879723">
        <ele>322.178955078125</ele>
        <time>2003-11-23T10:03:00Z</time>
      </trkpt>
      <trkpt lat="43.968959609046578" lon="10.954169612377882">
        <ele>322.65966796875</ele>
        <time>2003-11-23T10:03:04Z</time>
      </trkpt>
      <trkpt lat="43.96903638727963" lon="10.95428922213614">
        <ele>321.6983642578125</ele>
        <time>2003-11-23T10:03:09Z</time>
      </trkpt>
      <trkpt lat="43.969096317887306" lon="10.954407742246985">
        <ele>321.6983642578125</ele>
        <time>2003-11-23T10:03:15Z</time>
      </trkpt>
      <trkpt lat="43.969146441668272" lon="10.954541685059667">
        <ele>320.737060546875</ele>
        <time>2003-11-23T10:03:21Z</time>
      </trkpt>
      <trkpt lat="43.969195894896984" lon="10.954671772196889">
        <ele>318.8143310546875</ele>
        <time>2003-11-23T10:03:27Z</time>
      </trkpt>
      <trkpt lat="43.969252724200487" lon="10.954798674210906">
        <ele>317.3724365234375</ele>
        <time>2003-11-23T10:03:33Z</time>
      </trkpt>
      <trkpt lat="43.969295639544725" lon="10.954928006976843">
        <ele>315.4498291015625</ele>
        <time>2003-11-23T10:03:47Z</time>
      </trkpt>
      <trkpt lat="43.969218777492642" lon="10.955010065808892">
        <ele>309.681884765625</ele>
        <time>2003-11-23T10:04:14Z</time>
      </trkpt>
      <trkpt lat="43.969187345355749" lon="10.95513260923326">
        <ele>305.836669921875</ele>
        <time>2003-11-23T10:04:20Z</time>
      </trkpt>
      <trkpt lat="43.969156332314014" lon="10.955255404114723">
        <ele>303.4332275390625</ele>
        <time>2003-11-23T10:04:25Z</time>
      </trkpt>
      <trkpt lat="43.969029430299997" lon="10.955359758809209">
        <ele>301.0299072265625</ele>
        <time>2003-11-23T10:04:28Z</time>
      </trkpt>
      <trkpt lat="43.96894745528698" lon="10.955431424081326">
        <ele>299.5880126953125</ele>
        <time>2003-11-23T10:04:30Z</time>
      </trkpt>
      <trkpt lat="43.968870006501675" lon="10.95559143461287">
        <ele>297.6654052734375</ele>
        <time>2003-11-23T10:04:32Z</time>
      </trkpt>
      <trkpt lat="43.96883362904191" lon="10.955759575590491">
        <ele>296.7041015625</ele>
        <time>2003-11-23T10:04:35Z</time>
      </trkpt>
      <trkpt lat="43.968796329572797" lon="10.955936433747411">
        <ele>295.74267578125</ele>
        <time>2003-11-23T10:04:39Z</time>
      </trkpt>
      <trkpt lat="43.96869339980185" lon="10.956603297963738">
        <ele>294.7813720703125</ele>
        <time>2003-11-23T10:04:42Z</time>
      </trkpt>
      <trkpt lat="43.968648388981819" lon="10.956854922696948">
        <ele>292.8587646484375</ele>
        <time>2003-11-23T10:04:45Z</time>
      </trkpt>
      <trkpt lat="43.968608407303691" lon="10.957067739218473">
        <ele>290.45556640625</ele>
        <time>2003-11-23T10:04:48Z</time>
      </trkpt>
      <trkpt lat="43.968634391203523" lon="10.957158096134663">
        <ele>289.494140625</ele>
        <time>2003-11-23T10:04:51Z</time>
      </trkpt>
      <trkpt lat="43.968740925192833" lon="10.957138817757368">
        <ele>288.532958984375</ele>
        <time>2003-11-23T10:04:54Z</time>
      </trkpt>
      <trkpt lat="43.9687495585531" lon="10.957309305667877">
        <ele>287.5714111328125</ele>
        <time>2003-11-23T10:04:57Z</time>
      </trkpt>
      <trkpt lat="43.968787863850594" lon="10.957458503544331">
        <ele>286.1295166015625</ele>
        <time>2003-11-23T10:05:00Z</time>
      </trkpt>
      <trkpt lat="43.968862127512693" lon="10.957628656178713">
        <ele>284.2069091796875</ele>
        <time>2003-11-23T10:05:03Z</time>
      </trkpt>
      <trkpt lat="43.96891962736845" lon="10.957761006429791">
        <ele>283.7261962890625</ele>
        <time>2003-11-23T10:05:05Z</time>
      </trkpt>
      <trkpt lat="43.96896212361753" lon="10.957892183214426">
        <ele>283.7261962890625</ele>
        <time>2003-11-23T10:05:07Z</time>
      </trkpt>
      <trkpt lat="43.968948880210519" lon="10.957990670576692">
        <ele>283.24560546875</ele>
        <time>2003-11-23T10:05:09Z</time>
      </trkpt>
      <trkpt lat="43.968878304585814" lon="10.958076920360327">
        <ele>282.7650146484375</ele>
        <time>2003-11-23T10:05:12Z</time>
      </trkpt>
      <trkpt lat="43.968814685940742" lon="10.958186890929937">
        <ele>283.24560546875</ele>
        <time>2003-11-23T10:05:16Z</time>
      </trkpt>
      <trkpt lat="43.968737069517374" lon="10.958314128220081">
        <ele>282.7650146484375</ele>
        <time>2003-11-23T10:05:20Z</time>
      </trkpt>
      <trkpt lat="43.96866749972105" lon="10.958439353853464">
        <ele>281.8035888671875</ele>
        <time>2003-11-23T10:05:24Z</time>
      </trkpt>
      <trkpt lat="43.968619722872972" lon="10.958549743518233">
        <ele>280.8424072265625</ele>
        <time>2003-11-23T10:05:27Z</time>
      </trkpt>
      <trkpt lat="43.968566581606865" lon="10.958686200901866">
        <ele>280.3616943359375</ele>
        <time>2003-11-23T10:05:32Z</time>
      </trkpt>
      <trkpt lat="43.968555685132742" lon="10.958812097087502">
        <ele>280.3616943359375</ele>
        <time>2003-11-23T10:05:38Z</time>
      </trkpt>
      <trkpt lat="43.968510758131742" lon="10.95894293859601">
        <ele>280.8424072265625</ele>
        <time>2003-11-23T10:06:24Z</time>
      </trkpt>
      <trkpt lat="43.968515703454614" lon="10.959101440384984">
        <ele>280.3616943359375</ele>
        <time>2003-11-23T10:06:49Z</time>
      </trkpt>
      <trkpt lat="43.96853850223124" lon="10.959259439259768">
        <ele>279.880859375</ele>
        <time>2003-11-23T10:06:53Z</time>
      </trkpt>
      <trkpt lat="43.968579322099686" lon="10.959399752318859">
        <ele>278.919677734375</ele>
        <time>2003-11-23T10:06:56Z</time>
      </trkpt>
      <trkpt lat="43.968609916046262" lon="10.95953612588346">
        <ele>276.9970703125</ele>
        <time>2003-11-23T10:06:59Z</time>
      </trkpt>
      <trkpt lat="43.968673702329397" lon="10.959665458649397">
        <ele>275.5550537109375</ele>
        <time>2003-11-23T10:07:02Z</time>
      </trkpt>
      <trkpt lat="43.968760371208191" lon="10.959807531908154">
        <ele>274.59375</ele>
        <time>2003-11-23T10:07:05Z</time>
      </trkpt>
      <trkpt lat="43.968827677890658" lon="10.959905013442039">
        <ele>274.113037109375</ele>
        <time>2003-11-23T10:07:07Z</time>
      </trkpt>
      <trkpt lat="43.968899175524712" lon="10.959995621815324">
        <ele>273.15185546875</ele>
        <time>2003-11-23T10:07:09Z</time>
      </trkpt>
      <trkpt lat="43.968999506905675" lon="10.960104586556554">
        <ele>273.6324462890625</ele>
        <time>2003-11-23T10:07:12Z</time>
      </trkpt>
      <trkpt lat="43.969081062823534" lon="10.960189243778586">
        <ele>273.15185546875</ele>
        <time>2003-11-23T10:07:15Z</time>
      </trkpt>
      <trkpt lat="43.969154236838222" lon="10.960260992869735">
        <ele>273.15185546875</ele>
        <time>2003-11-23T10:07:19Z</time>
      </trkpt>
      <trkpt lat="43.969240318983793" lon="10.960327545180917">
        <ele>272.1904296875</ele>
        <time>2003-11-23T10:07:24Z</time>
      </trkpt>
      <trkpt lat="43.969332771375775" lon="10.960369873791933">
        <ele>272.1904296875</ele>
        <time>2003-11-23T10:07:51Z</time>
      </trkpt>
      <trkpt lat="43.969430588185787" lon="10.960380937904119">
        <ele>272.671142578125</ele>
        <time>2003-11-23T10:07:55Z</time>
      </trkpt>
      <trkpt lat="43.969541732221842" lon="10.96038973890245">
        <ele>272.1904296875</ele>
        <time>2003-11-23T10:08:00Z</time>
      </trkpt>
      <trkpt lat="43.969589928165078" lon="10.960507085546851">
        <ele>272.1904296875</ele>
        <time>2003-11-23T10:08:05Z</time>
      </trkpt>
      <trkpt lat="43.969633681699634" lon="10.960638262331486">
        <ele>272.1904296875</ele>
        <time>2003-11-23T10:08:09Z</time>
      </trkpt>
      <trkpt lat="43.969625635072589" lon="10.960779748857021">
        <ele>271.709716796875</ele>
        <time>2003-11-23T10:08:12Z</time>
      </trkpt>
      <trkpt lat="43.96960518322885" lon="10.96090723760426">
        <ele>272.1904296875</ele>
        <time>2003-11-23T10:08:15Z</time>
      </trkpt>
      <trkpt lat="43.969564279541373" lon="10.961033804342151">
        <ele>272.1904296875</ele>
        <time>2003-11-23T10:08:19Z</time>
      </trkpt>
      <trkpt lat="43.969523375853896" lon="10.961164981126785">
        <ele>271.709716796875</ele>
        <time>2003-11-23T10:08:23Z</time>
      </trkpt>
      <trkpt lat="43.969494374468923" lon="10.961308311671019">
        <ele>270.7484130859375</ele>
        <time>2003-11-23T10:08:27Z</time>
      </trkpt>
      <trkpt lat="43.969487752765417" lon="10.961431777104735">
        <ele>271.2291259765625</ele>
        <time>2003-11-23T10:08:31Z</time>
      </trkpt>
      <trkpt lat="43.969520274549723" lon="10.961656998842955">
        <ele>268.3450927734375</ele>
        <time>2003-11-23T10:09:11Z</time>
      </trkpt>
      <trkpt lat="43.969558412209153" lon="10.961842657998204">
        <ele>266.9031982421875</ele>
        <time>2003-11-23T10:09:14Z</time>
      </trkpt>
      <trkpt lat="43.969575259834528" lon="10.961987748742104">
        <ele>266.9031982421875</ele>
        <time>2003-11-23T10:09:16Z</time>
      </trkpt>
      <trkpt lat="43.969582132995129" lon="10.962118003517389">
        <ele>265.94189453125</ele>
        <time>2003-11-23T10:09:18Z</time>
      </trkpt>
      <trkpt lat="43.969570063054562" lon="10.962310284376144">
        <ele>264.4998779296875</ele>
        <time>2003-11-23T10:09:21Z</time>
      </trkpt>
      <trkpt lat="43.96955288015306" lon="10.962447496131063">
        <ele>263.53857421875</ele>
        <time>2003-11-23T10:09:23Z</time>
      </trkpt>
      <trkpt lat="43.969524130225182" lon="10.962595604360104">
        <ele>262.5771484375</ele>
        <time>2003-11-23T10:09:25Z</time>
      </trkpt>
      <trkpt lat="43.969479287043214" lon="10.962737426161766">
        <ele>261.615966796875</ele>
        <time>2003-11-23T10:09:27Z</time>
      </trkpt>
      <trkpt lat="43.969422625377774" lon="10.962868602946401">
        <ele>260.1739501953125</ele>
        <time>2003-11-23T10:09:29Z</time>
      </trkpt>
      <trkpt lat="43.969357078894973" lon="10.963000115007162">
        <ele>259.212646484375</ele>
        <time>2003-11-23T10:09:31Z</time>
      </trkpt>
      <trkpt lat="43.969306033104658" lon="10.963103296235204">
        <ele>258.73193359375</ele>
        <time>2003-11-23T10:09:33Z</time>
      </trkpt>
      <trkpt lat="43.969247527420521" lon="10.963225420564413">
        <ele>257.2900390625</ele>
        <time>2003-11-23T10:09:36Z</time>
      </trkpt>
      <trkpt lat="43.969196565449238" lon="10.963328015059233">
        <ele>256.809326171875</ele>
        <time>2003-11-23T10:09:39Z</time>
      </trkpt>
      <trkpt lat="43.969132527709007" lon="10.963395237922668">
        <ele>255.3673095703125</ele>
        <time>2003-11-23T10:10:04Z</time>
      </trkpt>
      <trkpt lat="43.969182735309005" lon="10.963502610102296">
        <ele>256.3287353515625</ele>
        <time>2003-11-23T10:10:10Z</time>
      </trkpt>
      <trkpt lat="43.969246186316013" lon="10.963598415255547">
        <ele>256.809326171875</ele>
        <time>2003-11-23T10:10:15Z</time>
      </trkpt>
      <trkpt lat="43.969301423057914" lon="10.963694052770734">
        <ele>257.2900390625</ele>
        <time>2003-11-23T10:10:20Z</time>
      </trkpt>
      <trkpt lat="43.969375602900982" lon="10.96377057954669">
        <ele>258.2513427734375</ele>
        <time>2003-11-23T10:10:26Z</time>
      </trkpt>
      <trkpt lat="43.969466546550393" lon="10.963834533467889">
        <ele>259.212646484375</ele>
        <time>2003-11-23T10:10:33Z</time>
      </trkpt>
      <trkpt lat="43.969568135216832" lon="10.96386588178575">
        <ele>259.212646484375</ele>
        <time>2003-11-23T10:10:38Z</time>
      </trkpt>
      <trkpt lat="43.969678860157728" lon="10.963896308094263">
        <ele>258.73193359375</ele>
        <time>2003-11-23T10:10:42Z</time>
      </trkpt>
      <trkpt lat="43.96978153847158" lon="10.963889854028821">
        <ele>257.770751953125</ele>
        <time>2003-11-23T10:10:44Z</time>
      </trkpt>
      <trkpt lat="43.969916068017483" lon="10.96391960978508">
        <ele>256.809326171875</ele>
        <time>2003-11-23T10:10:46Z</time>
      </trkpt>
      <trkpt lat="43.970049172639847" lon="10.963990185409784">
        <ele>255.8480224609375</ele>
        <time>2003-11-23T10:10:48Z</time>
      </trkpt>
      <trkpt lat="43.970191329717636" lon="10.964093450456858">
        <ele>254.8865966796875</ele>
        <time>2003-11-23T10:10:50Z</time>
      </trkpt>
      <trkpt lat="43.970329966396093" lon="10.964207863435149">
        <ele>253.9254150390625</ele>
        <time>2003-11-23T10:10:52Z</time>
      </trkpt>
      <trkpt lat="43.970359638333321" lon="10.964440712705255">
        <ele>253.4447021484375</ele>
        <time>2003-11-23T10:10:54Z</time>
      </trkpt>
      <trkpt lat="43.97038109600544" lon="10.96468579955399">
        <ele>252.0028076171875</ele>
        <time>2003-11-23T10:10:56Z</time>
      </trkpt>
      <trkpt lat="43.970392243936658" lon="10.964923175051808">
        <ele>252.0028076171875</ele>
        <time>2003-11-23T10:10:58Z</time>
      </trkpt>
      <trkpt lat="43.970379084348679" lon="10.96517194993794">
        <ele>251.0413818359375</ele>
        <time>2003-11-23T10:11:00Z</time>
      </trkpt>
      <trkpt lat="43.970328206196427" lon="10.965368589386344">
        <ele>250.560791015625</ele>
        <time>2003-11-23T10:11:02Z</time>
      </trkpt>
      <trkpt lat="43.970260145142674" lon="10.965524660423398">
        <ele>250.0802001953125</ele>
        <time>2003-11-23T10:11:04Z</time>
      </trkpt>
      <trkpt lat="43.97019300609827" lon="10.965651981532574">
        <ele>249.5994873046875</ele>
        <time>2003-11-23T10:11:06Z</time>
      </trkpt>
      <trkpt lat="43.970137434080243" lon="10.965759437531233">
        <ele>249.5994873046875</ele>
        <time>2003-11-23T10:11:08Z</time>
      </trkpt>
      <trkpt lat="43.97005956619978" lon="10.965902516618371">
        <ele>251.0413818359375</ele>
        <time>2003-11-23T10:11:11Z</time>
      </trkpt>
      <trkpt lat="43.970003742724657" lon="10.966026987880468">
        <ele>251.5220947265625</ele>
        <time>2003-11-23T10:11:14Z</time>
      </trkpt>
      <trkpt lat="43.969940459355712" lon="10.966145256534219">
        <ele>252.4833984375</ele>
        <time>2003-11-23T10:11:17Z</time>
      </trkpt>
      <trkpt lat="43.96988027729094" lon="10.966260340064764">
        <ele>252.0028076171875</ele>
        <time>2003-11-23T10:11:20Z</time>
      </trkpt>
      <trkpt lat="43.969811126589775" lon="10.966368885710835">
        <ele>252.4833984375</ele>
        <time>2003-11-23T10:11:23Z</time>
      </trkpt>
      <trkpt lat="43.969746166840196" lon="10.966479862108827">
        <ele>253.4447021484375</ele>
        <time>2003-11-23T10:11:26Z</time>
      </trkpt>
      <trkpt lat="43.96968238055706" lon="10.966584049165249">
        <ele>254.8865966796875</ele>
        <time>2003-11-23T10:11:29Z</time>
      </trkpt>
      <trkpt lat="43.969621444121003" lon="10.966695444658399">
        <ele>255.3673095703125</ele>
        <time>2003-11-23T10:11:33Z</time>
      </trkpt>
      <trkpt lat="43.969580288976431" lon="10.966804912313819">
        <ele>255.3673095703125</ele>
        <time>2003-11-23T10:11:38Z</time>
      </trkpt>
      <trkpt lat="43.969552796334028" lon="10.966943968087435">
        <ele>257.2900390625</ele>
        <time>2003-11-23T10:11:45Z</time>
      </trkpt>
      <trkpt lat="43.969546090811491" lon="10.96710498444736">
        <ele>260.1739501953125</ele>
        <time>2003-11-23T10:11:53Z</time>
      </trkpt>
      <trkpt lat="43.96952748298645" lon="10.96726767718792">
        <ele>260.1739501953125</ele>
        <time>2003-11-23T10:11:58Z</time>
      </trkpt>
      <trkpt lat="43.969536451622844" lon="10.967396171763539">
        <ele>261.13525390625</ele>
        <time>2003-11-23T10:12:02Z</time>
      </trkpt>
      <trkpt lat="43.969559585675597" lon="10.967523828148842">
        <ele>262.0965576171875</ele>
        <time>2003-11-23T10:12:06Z</time>
      </trkpt>
      <trkpt lat="43.969629490748048" lon="10.967653328552842">
        <ele>262.5771484375</ele>
        <time>2003-11-23T10:12:11Z</time>
      </trkpt>
      <trkpt lat="43.969668131321669" lon="10.967781320214272">
        <ele>263.057861328125</ele>
        <time>2003-11-23T10:12:16Z</time>
      </trkpt>
      <trkpt lat="43.969680704176426" lon="10.967915095388889">
        <ele>263.53857421875</ele>
        <time>2003-11-23T10:12:27Z</time>
      </trkpt>
      <trkpt lat="43.969653714448214" lon="10.968054654076695">
        <ele>262.5771484375</ele>
        <time>2003-11-23T10:12:35Z</time>
      </trkpt>
      <trkpt lat="43.969631670042872" lon="10.968167306855321">
        <ele>262.0965576171875</ele>
        <time>2003-11-23T10:12:37Z</time>
      </trkpt>
      <trkpt lat="43.969603590667248" lon="10.968345087021589">
        <ele>260.1739501953125</ele>
        <time>2003-11-23T10:12:39Z</time>
      </trkpt>
      <trkpt lat="43.969574421644211" lon="10.968571482226253">
        <ele>256.809326171875</ele>
        <time>2003-11-23T10:12:41Z</time>
      </trkpt>
      <trkpt lat="43.969560423865914" lon="10.968699809163809">
        <ele>255.8480224609375</ele>
        <time>2003-11-23T10:12:42Z</time>
      </trkpt>
      <trkpt lat="43.969559166580439" lon="10.96893978305161">
        <ele>253.4447021484375</ele>
        <time>2003-11-23T10:12:44Z</time>
      </trkpt>
      <trkpt lat="43.969562854617834" lon="10.969172213226557">
        <ele>250.560791015625</ele>
        <time>2003-11-23T10:12:46Z</time>
      </trkpt>
      <trkpt lat="43.969567967578769" lon="10.969406571239233">
        <ele>248.63818359375</ele>
        <time>2003-11-23T10:12:48Z</time>
      </trkpt>
      <trkpt lat="43.969588251784444" lon="10.969605892896652">
        <ele>246.7154541015625</ele>
        <time>2003-11-23T10:12:50Z</time>
      </trkpt>
      <trkpt lat="43.969614990055561" lon="10.969787612557411">
        <ele>244.7928466796875</ele>
        <time>2003-11-23T10:12:52Z</time>
      </trkpt>
      <trkpt lat="43.969645919278264" lon="10.969939408823848">
        <ele>242.8702392578125</ele>
        <time>2003-11-23T10:12:54Z</time>
      </trkpt>
      <trkpt lat="43.969678357243538" lon="10.970081482082605">
        <ele>241.42822265625</ele>
        <time>2003-11-23T10:12:56Z</time>
      </trkpt>
      <trkpt lat="43.969726720824838" lon="10.97022196277976">
        <ele>239.9862060546875</ele>
        <time>2003-11-23T10:12:58Z</time>
      </trkpt>
      <trkpt lat="43.969766199588776" lon="10.970355151221156">
        <ele>237.102294921875</ele>
        <time>2003-11-23T10:13:00Z</time>
      </trkpt>
      <trkpt lat="43.969805343076587" lon="10.970481969416142">
        <ele>236.1409912109375</ele>
        <time>2003-11-23T10:13:02Z</time>
      </trkpt>
      <trkpt lat="43.969846582040191" lon="10.970603004097939">
        <ele>232.7764892578125</ele>
        <time>2003-11-23T10:13:04Z</time>
      </trkpt>
      <trkpt lat="43.969888910651207" lon="10.970732253044844">
        <ele>231.81494140625</ele>
        <time>2003-11-23T10:13:06Z</time>
      </trkpt>
      <trkpt lat="43.969922354444861" lon="10.970867453143001">
        <ele>231.3343505859375</ele>
        <time>2003-11-23T10:13:08Z</time>
      </trkpt>
      <trkpt lat="43.96993501111865" lon="10.971028050407767">
        <ele>227.9697265625</ele>
        <time>2003-11-23T10:13:10Z</time>
      </trkpt>
      <trkpt lat="43.969945488497615" lon="10.971222342923284">
        <ele>226.52783203125</ele>
        <time>2003-11-23T10:13:12Z</time>
      </trkpt>
      <trkpt lat="43.969955882057548" lon="10.9714166354388">
        <ele>224.605224609375</ele>
        <time>2003-11-23T10:13:14Z</time>
      </trkpt>
      <trkpt lat="43.96996627561748" lon="10.971610927954316">
        <ele>223.1632080078125</ele>
        <time>2003-11-23T10:13:16Z</time>
      </trkpt>
      <trkpt lat="43.96995160728693" lon="10.971753671765327">
        <ele>222.2017822265625</ele>
        <time>2003-11-23T10:13:19Z</time>
      </trkpt>
      <trkpt lat="43.969898130744696" lon="10.97179189324379">
        <ele>221.2406005859375</ele>
        <time>2003-11-23T10:13:26Z</time>
      </trkpt>
      <trkpt lat="43.969801655039191" lon="10.971675803884864">
        <ele>220.7598876953125</ele>
        <time>2003-11-23T10:13:50Z</time>
      </trkpt>
      <trkpt lat="43.969730995595455" lon="10.971752749755979">
        <ele>220.2791748046875</ele>
        <time>2003-11-23T10:13:54Z</time>
      </trkpt>
      <trkpt lat="43.969673328101635" lon="10.971876131370664">
        <ele>219.3179931640625</ele>
        <time>2003-11-23T10:13:58Z</time>
      </trkpt>
      <trkpt lat="43.969660419970751" lon="10.972014600411057">
        <ele>217.8759765625</ele>
        <time>2003-11-23T10:14:01Z</time>
      </trkpt>
      <trkpt lat="43.969665868207812" lon="10.972126331180334">
        <ele>216.9146728515625</ele>
        <time>2003-11-23T10:14:05Z</time>
      </trkpt>
      <trkpt lat="43.969672909006476" lon="10.972267901524901">
        <ele>219.3179931640625</ele>
        <time>2003-11-23T10:14:11Z</time>
      </trkpt>
      <trkpt lat="43.969640387222171" lon="10.972401844337583">
        <ele>220.7598876953125</ele>
        <time>2003-11-23T10:14:17Z</time>
      </trkpt>
      <trkpt lat="43.969536954537034" lon="10.972467139363289">
        <ele>220.7598876953125</ele>
        <time>2003-11-23T10:14:23Z</time>
      </trkpt>
      <trkpt lat="43.969428576529026" lon="10.972398910671473">
        <ele>221.2406005859375</ele>
        <time>2003-11-23T10:14:28Z</time>
      </trkpt>
      <trkpt lat="43.969324138015509" lon="10.972293466329575">
        <ele>221.72119140625</ele>
        <time>2003-11-23T10:14:32Z</time>
      </trkpt>
      <trkpt lat="43.969241743907332" lon="10.972220879048109">
        <ele>221.2406005859375</ele>
        <time>2003-11-23T10:14:35Z</time>
      </trkpt>
      <trkpt lat="43.969149878248572" lon="10.972099928185344">
        <ele>221.72119140625</ele>
        <time>2003-11-23T10:14:39Z</time>
      </trkpt>
      <trkpt lat="43.969088438898325" lon="10.971982078626752">
        <ele>222.2017822265625</ele>
        <time>2003-11-23T10:14:42Z</time>
      </trkpt>
      <trkpt lat="43.969033788889647" lon="10.971846710890532">
        <ele>221.72119140625</ele>
        <time>2003-11-23T10:14:45Z</time>
      </trkpt>
      <trkpt lat="43.968981066718698" lon="10.971713270992041">
        <ele>222.2017822265625</ele>
        <time>2003-11-23T10:14:48Z</time>
      </trkpt>
      <trkpt lat="43.968922896310687" lon="10.971602378413081">
        <ele>222.2017822265625</ele>
        <time>2003-11-23T10:14:51Z</time>
      </trkpt>
      <trkpt lat="43.968840669840574" lon="10.971492324024439">
        <ele>222.6824951171875</ele>
        <time>2003-11-23T10:14:55Z</time>
      </trkpt>
      <trkpt lat="43.968762550503016" lon="10.97138294018805">
        <ele>223.1632080078125</ele>
        <time>2003-11-23T10:14:59Z</time>
      </trkpt>
      <trkpt lat="43.968651741743088" lon="10.971302054822445">
        <ele>223.643798828125</ele>
        <time>2003-11-23T10:15:03Z</time>
      </trkpt>
      <trkpt lat="43.968531545251608" lon="10.971257127821445">
        <ele>224.12451171875</ele>
        <time>2003-11-23T10:15:07Z</time>
      </trkpt>
      <trkpt lat="43.968435656279325" lon="10.971222510561347">
        <ele>224.12451171875</ele>
        <time>2003-11-23T10:15:10Z</time>
      </trkpt>
      <trkpt lat="43.968352256342769" lon="10.971147576346993">
        <ele>224.12451171875</ele>
        <time>2003-11-23T10:15:13Z</time>
      </trkpt>
      <trkpt lat="43.968311939388514" lon="10.971032828092575">
        <ele>224.605224609375</ele>
        <time>2003-11-23T10:15:16Z</time>
      </trkpt>
      <trkpt lat="43.968283357098699" lon="10.970887821167707">
        <ele>224.605224609375</ele>
        <time>2003-11-23T10:15:20Z</time>
      </trkpt>
      <trkpt lat="43.968286458402872" lon="10.970756728202105">
        <ele>225.5665283203125</ele>
        <time>2003-11-23T10:15:24Z</time>
      </trkpt>
      <trkpt lat="43.968249829486012" lon="10.970640638843179">
        <ele>226.047119140625</ele>
        <time>2003-11-23T10:15:28Z</time>
      </trkpt>
      <trkpt lat="43.968189395964146" lon="10.970521531999111">
        <ele>227.4891357421875</ele>
        <time>2003-11-23T10:15:33Z</time>
      </trkpt>
      <trkpt lat="43.968123933300376" lon="10.970412651076913">
        <ele>228.450439453125</ele>
        <time>2003-11-23T10:15:38Z</time>
      </trkpt>
      <trkpt lat="43.968058889731765" lon="10.970316091552377">
        <ele>230.373046875</ele>
        <time>2003-11-23T10:15:43Z</time>
      </trkpt>
      <trkpt lat="43.96798781119287" lon="10.970231685787439">
        <ele>231.3343505859375</ele>
        <time>2003-11-23T10:15:48Z</time>
      </trkpt>
      <trkpt lat="43.967923102900386" lon="10.970129007473588">
        <ele>231.81494140625</ele>
        <time>2003-11-23T10:15:53Z</time>
      </trkpt>
      <trkpt lat="43.967867782339454" lon="10.970022557303309">
        <ele>232.7764892578125</ele>
        <time>2003-11-23T10:15:58Z</time>
      </trkpt>
      <trkpt lat="43.967816988006234" lon="10.96991996280849">
        <ele>233.7376708984375</ele>
        <time>2003-11-23T10:16:03Z</time>
      </trkpt>
      <trkpt lat="43.967761918902397" lon="10.969820972532034">
        <ele>234.6990966796875</ele>
        <time>2003-11-23T10:16:08Z</time>
      </trkpt>
      <trkpt lat="43.967704921960831" lon="10.969714522361755">
        <ele>236.1409912109375</ele>
        <time>2003-11-23T10:16:13Z</time>
      </trkpt>
      <trkpt lat="43.967645158991218" lon="10.969604467973113">
        <ele>237.102294921875</ele>
        <time>2003-11-23T10:16:18Z</time>
      </trkpt>
      <trkpt lat="43.967583468183875" lon="10.969480164349079">
        <ele>237.5828857421875</ele>
        <time>2003-11-23T10:16:23Z</time>
      </trkpt>
      <trkpt lat="43.967508366331458" lon="10.969372121617198">
        <ele>238.0635986328125</ele>
        <time>2003-11-23T10:16:28Z</time>
      </trkpt>
      <trkpt lat="43.967434354126453" lon="10.969275645911694">
        <ele>238.5443115234375</ele>
        <time>2003-11-23T10:16:33Z</time>
      </trkpt>
      <trkpt lat="43.967368891462684" lon="10.96917824819684">
        <ele>239.5054931640625</ele>
        <time>2003-11-23T10:16:38Z</time>
      </trkpt>
      <trkpt lat="43.967298232018948" lon="10.969086969271302">
        <ele>240.467041015625</ele>
        <time>2003-11-23T10:16:43Z</time>
      </trkpt>
      <trkpt lat="43.967220867052674" lon="10.968992337584496">
        <ele>241.42822265625</ele>
        <time>2003-11-23T10:16:48Z</time>
      </trkpt>
      <trkpt lat="43.967142663896084" lon="10.968910194933414">
        <ele>242.8702392578125</ele>
        <time>2003-11-23T10:16:53Z</time>
      </trkpt>
      <trkpt lat="43.96707309409976" lon="10.968814641237259">
        <ele>243.83154296875</ele>
        <time>2003-11-23T10:16:58Z</time>
      </trkpt>
      <trkpt lat="43.966995812952518" lon="10.968728726729751">
        <ele>245.2734375</ele>
        <time>2003-11-23T10:17:03Z</time>
      </trkpt>
      <trkpt lat="43.966921716928482" lon="10.968640465289354">
        <ele>245.754150390625</ele>
        <time>2003-11-23T10:17:08Z</time>
      </trkpt>
      <trkpt lat="43.966843010857701" lon="10.968532087281346">
        <ele>246.23486328125</ele>
        <time>2003-11-23T10:17:14Z</time>
      </trkpt>
      <trkpt lat="43.966775955632329" lon="10.968437204137444">
        <ele>247.196044921875</ele>
        <time>2003-11-23T10:17:19Z</time>
      </trkpt>
      <trkpt lat="43.966705547645688" lon="10.968333771452308">
        <ele>248.1575927734375</ele>
        <time>2003-11-23T10:17:24Z</time>
      </trkpt>
      <trkpt lat="43.966639079153538" lon="10.968234781175852">
        <ele>248.1575927734375</ele>
        <time>2003-11-23T10:17:29Z</time>
      </trkpt>
      <trkpt lat="43.966575711965561" lon="10.968120535835624">
        <ele>249.1187744140625</ele>
        <time>2003-11-23T10:17:34Z</time>
      </trkpt>
      <trkpt lat="43.966510500758886" lon="10.968018444254994">
        <ele>249.1187744140625</ele>
        <time>2003-11-23T10:17:39Z</time>
      </trkpt>
      <trkpt lat="43.966447217389941" lon="10.967918783426285">
        <ele>250.0802001953125</ele>
        <time>2003-11-23T10:17:44Z</time>
      </trkpt>
      <trkpt lat="43.966375468298793" lon="10.967821720987558">
        <ele>250.560791015625</ele>
        <time>2003-11-23T10:17:49Z</time>
      </trkpt>
      <trkpt lat="43.966306988149881" lon="10.967715522274375">
        <ele>251.5220947265625</ele>
        <time>2003-11-23T10:17:54Z</time>
      </trkpt>
      <trkpt lat="43.966249907389283" lon="10.967616615816951">
        <ele>252.0028076171875</ele>
        <time>2003-11-23T10:17:59Z</time>
      </trkpt>
      <trkpt lat="43.966181091964245" lon="10.967540759593248">
        <ele>252.9639892578125</ele>
        <time>2003-11-23T10:18:05Z</time>
      </trkpt>
      <trkpt lat="43.966114707291126" lon="10.96758970990777">
        <ele>253.9254150390625</ele>
        <time>2003-11-23T10:18:12Z</time>
      </trkpt>
      <trkpt lat="43.966166842728853" lon="10.967712169513106">
        <ele>256.3287353515625</ele>
        <time>2003-11-23T10:18:20Z</time>
      </trkpt>
      <trkpt lat="43.966239346191287" lon="10.967828007414937">
        <ele>258.73193359375</ele>
        <time>2003-11-23T10:18:28Z</time>
      </trkpt>
      <trkpt lat="43.96628201007843" lon="10.9679508022964">
        <ele>260.654541015625</ele>
        <time>2003-11-23T10:18:35Z</time>
      </trkpt>
      <trkpt lat="43.966337414458394" lon="10.968086505308747">
        <ele>262.5771484375</ele>
        <time>2003-11-23T10:18:43Z</time>
      </trkpt>
      <trkpt lat="43.966385861858726" lon="10.968212652951479">
        <ele>263.057861328125</ele>
        <time>2003-11-23T10:18:51Z</time>
      </trkpt>
      <trkpt lat="43.966441014781594" lon="10.968330167233944">
        <ele>264.4998779296875</ele>
        <time>2003-11-23T10:18:58Z</time>
      </trkpt>
      <trkpt lat="43.966493485495448" lon="10.968461763113737">
        <ele>266.4224853515625</ele>
        <time>2003-11-23T10:19:06Z</time>
      </trkpt>
      <trkpt lat="43.966541094705462" lon="10.968592772260308">
        <ele>267.3839111328125</ele>
        <time>2003-11-23T10:19:13Z</time>
      </trkpt>
      <trkpt lat="43.966586273163557" lon="10.968706849962473">
        <ele>267.864501953125</ele>
        <time>2003-11-23T10:19:20Z</time>
      </trkpt>
      <trkpt lat="43.966628350317478" lon="10.968828219920397">
        <ele>269.3065185546875</ele>
        <time>2003-11-23T10:19:27Z</time>
      </trkpt>
      <trkpt lat="43.966680988669395" lon="10.968947075307369">
        <ele>269.787109375</ele>
        <time>2003-11-23T10:19:34Z</time>
      </trkpt>
      <trkpt lat="43.966745277866721" lon="10.969057213515043">
        <ele>271.709716796875</ele>
        <time>2003-11-23T10:19:41Z</time>
      </trkpt>
      <trkpt lat="43.966788193210959" lon="10.969188893213868">
        <ele>272.671142578125</ele>
        <time>2003-11-23T10:19:49Z</time>
      </trkpt>
      <trkpt lat="43.966799005866051" lon="10.969326188787818">
        <ele>273.6324462890625</ele>
        <time>2003-11-23T10:19:57Z</time>
      </trkpt>
      <trkpt lat="43.966810740530491" lon="10.969463149085641">
        <ele>275.074462890625</ele>
        <time>2003-11-23T10:20:05Z</time>
      </trkpt>
      <trkpt lat="43.966772435232997" lon="10.969590889289975">
        <ele>276.9970703125</ele>
        <time>2003-11-23T10:20:12Z</time>
      </trkpt>
      <trkpt lat="43.966820714995265" lon="10.969724077731371">
        <ele>278.919677734375</ele>
        <time>2003-11-23T10:20:22Z</time>
      </trkpt>
      <trkpt lat="43.966937055811286" lon="10.969904623925686">
        <ele>282.2843017578125</ele>
        <time>2003-11-23T10:20:50Z</time>
      </trkpt>
      <trkpt lat="43.966990616172552" lon="10.970019707456231">
        <ele>284.6876220703125</ele>
        <time>2003-11-23T10:21:06Z</time>
      </trkpt>
      <trkpt lat="43.967048367485404" lon="10.970162535086274">
        <ele>287.5714111328125</ele>
        <time>2003-11-23T10:21:20Z</time>
      </trkpt>
      <trkpt lat="43.967059515416622" lon="10.97029522061348">
        <ele>289.494140625</ele>
        <time>2003-11-23T10:21:32Z</time>
      </trkpt>
      <trkpt lat="43.967065885663033" lon="10.970463026314974">
        <ele>291.416748046875</ele>
        <time>2003-11-23T10:21:43Z</time>
      </trkpt>
      <trkpt lat="43.9670295920223" lon="10.970624042674899">
        <ele>293.33935546875</ele>
        <time>2003-11-23T10:21:54Z</time>
      </trkpt>
      <trkpt lat="43.966966392472386" lon="10.970748094841838">
        <ele>294.7813720703125</ele>
        <time>2003-11-23T10:22:04Z</time>
      </trkpt>
      <trkpt lat="43.966890536248684" lon="10.97084591165185">
        <ele>296.2235107421875</ele>
        <time>2003-11-23T10:22:14Z</time>
      </trkpt>
      <trkpt lat="43.966806214302778" lon="10.970927635207772">
        <ele>297.6654052734375</ele>
        <time>2003-11-23T10:22:24Z</time>
      </trkpt>
      <trkpt lat="43.966733375564218" lon="10.97100323997438">
        <ele>300.54931640625</ele>
        <time>2003-11-23T10:22:33Z</time>
      </trkpt>
      <trkpt lat="43.966651568189263" lon="10.971057889983058">
        <ele>301.5106201171875</ele>
        <time>2003-11-23T10:22:43Z</time>
      </trkpt>
      <trkpt lat="43.966554841026664" lon="10.971105750650167">
        <ele>302.9525146484375</ele>
        <time>2003-11-23T10:22:54Z</time>
      </trkpt>
      <trkpt lat="43.966459957882762" lon="10.971139362081885">
        <ele>304.875244140625</ele>
        <time>2003-11-23T10:23:03Z</time>
      </trkpt>
      <trkpt lat="43.966369098052382" lon="10.971200633794069">
        <ele>305.836669921875</ele>
        <time>2003-11-23T10:23:12Z</time>
      </trkpt>
      <trkpt lat="43.966277316212654" lon="10.971255535259843">
        <ele>307.278564453125</ele>
        <time>2003-11-23T10:23:22Z</time>
      </trkpt>
      <trkpt lat="43.966212188825011" lon="10.971294427290559">
        <ele>308.2398681640625</ele>
        <time>2003-11-23T10:23:33Z</time>
      </trkpt>
      <trkpt lat="43.966145636513829" lon="10.971378497779369">
        <ele>309.681884765625</ele>
        <time>2003-11-23T10:23:40Z</time>
      </trkpt>
      <trkpt lat="43.966069277375937" lon="10.971462735906243">
        <ele>310.64306640625</ele>
        <time>2003-11-23T10:23:47Z</time>
      </trkpt>
      <trkpt lat="43.965991158038378" lon="10.971551081165671">
        <ele>312.085205078125</ele>
        <time>2003-11-23T10:23:54Z</time>
      </trkpt>
      <trkpt lat="43.965920750051737" lon="10.971638420596719">
        <ele>313.0465087890625</ele>
        <time>2003-11-23T10:24:01Z</time>
      </trkpt>
      <trkpt lat="43.965830560773611" lon="10.971694579347968">
        <ele>313.0465087890625</ele>
        <time>2003-11-23T10:24:10Z</time>
      </trkpt>
      <trkpt lat="43.965754453092813" lon="10.971718551591039">
        <ele>314.0078125</ele>
        <time>2003-11-23T10:24:23Z</time>
      </trkpt>
      <trkpt lat="43.966006329283118" lon="10.97139467485249">
        <ele>315.930419921875</ele>
        <time>2003-11-23T10:25:57Z</time>
      </trkpt>
      <trkpt lat="43.966061482205987" lon="10.971185211092234">
        <ele>316.8917236328125</ele>
        <time>2003-11-23T10:26:03Z</time>
      </trkpt>
      <trkpt lat="43.966100541874766" lon="10.97100131213665">
        <ele>317.85302734375</ele>
        <time>2003-11-23T10:26:08Z</time>
      </trkpt>
      <trkpt lat="43.966125939041376" lon="10.970820682123303">
        <ele>318.8143310546875</ele>
        <time>2003-11-23T10:26:13Z</time>
      </trkpt>
      <trkpt lat="43.966097189113498" lon="10.970640638843179">
        <ele>320.25634765625</ele>
        <time>2003-11-23T10:26:18Z</time>
      </trkpt>
      <trkpt lat="43.966038348153234" lon="10.970519939437509">
        <ele>320.737060546875</ele>
        <time>2003-11-23T10:26:22Z</time>
      </trkpt>
      <trkpt lat="43.965968443080783" lon="10.970404520630836">
        <ele>321.2177734375</ele>
        <time>2003-11-23T10:26:26Z</time>
      </trkpt>
      <trkpt lat="43.965895688161254" lon="10.970299998298287">
        <ele>321.2177734375</ele>
        <time>2003-11-23T10:26:30Z</time>
      </trkpt>
      <trkpt lat="43.965815473347902" lon="10.970194637775421">
        <ele>322.178955078125</ele>
        <time>2003-11-23T10:26:34Z</time>
      </trkpt>
      <trkpt lat="43.965724781155586" lon="10.970092210918665">
        <ele>321.2177734375</ele>
        <time>2003-11-23T10:26:38Z</time>
      </trkpt>
      <trkpt lat="43.965652529150248" lon="10.970010235905647">
        <ele>321.2177734375</ele>
        <time>2003-11-23T10:26:41Z</time>
      </trkpt>
      <trkpt lat="43.965577343478799" lon="10.969919627532363">
        <ele>320.25634765625</ele>
        <time>2003-11-23T10:26:44Z</time>
      </trkpt>
      <trkpt lat="43.96548111923039" lon="10.969828767701983">
        <ele>320.737060546875</ele>
        <time>2003-11-23T10:26:47Z</time>
      </trkpt>
      <trkpt lat="43.965354636311531" lon="10.96973430365324">
        <ele>319.775634765625</ele>
        <time>2003-11-23T10:26:50Z</time>
      </trkpt>
      <trkpt lat="43.965244749560952" lon="10.969707984477282">
        <ele>319.775634765625</ele>
        <time>2003-11-23T10:26:52Z</time>
      </trkpt>
      <trkpt lat="43.965120865032077" lon="10.969730699434876">
        <ele>318.3336181640625</ele>
        <time>2003-11-23T10:26:54Z</time>
      </trkpt>
      <trkpt lat="43.964995220303535" lon="10.969686359167099">
        <ele>317.3724365234375</ele>
        <time>2003-11-23T10:26:56Z</time>
      </trkpt>
      <trkpt lat="43.964909808710217" lon="10.969571024179459">
        <ele>316.8917236328125</ele>
        <time>2003-11-23T10:26:58Z</time>
      </trkpt>
      <trkpt lat="43.964853566139936" lon="10.969460550695658">
        <ele>317.3724365234375</ele>
        <time>2003-11-23T10:27:00Z</time>
      </trkpt>
      <trkpt lat="43.964788019657135" lon="10.969349155202508">
        <ele>317.85302734375</ele>
        <time>2003-11-23T10:27:03Z</time>
      </trkpt>
      <trkpt lat="43.964700009673834" lon="10.969268521293998">
        <ele>319.2950439453125</ele>
        <time>2003-11-23T10:27:07Z</time>
      </trkpt>
      <trkpt lat="43.964603701606393" lon="10.969229377806187">
        <ele>320.25634765625</ele>
        <time>2003-11-23T10:27:11Z</time>
      </trkpt>
      <trkpt lat="43.964514853432775" lon="10.96920557320118">
        <ele>320.737060546875</ele>
        <time>2003-11-23T10:27:15Z</time>
      </trkpt>
      <trkpt lat="43.964421395212412" lon="10.969175398349762">
        <ele>321.2177734375</ele>
        <time>2003-11-23T10:27:20Z</time>
      </trkpt>
      <trkpt lat="43.964341683313251" lon="10.969084287062287">
        <ele>321.6983642578125</ele>
        <time>2003-11-23T10:27:25Z</time>
      </trkpt>
      <trkpt lat="43.964309664443135" lon="10.968937939032912">
        <ele>322.65966796875</ele>
        <time>2003-11-23T10:27:30Z</time>
      </trkpt>
      <trkpt lat="43.964300528168678" lon="10.968788405880332">
        <ele>324.1015625</ele>
        <time>2003-11-23T10:27:35Z</time>
      </trkpt>
      <trkpt lat="43.964287284761667" lon="10.968648847192526">
        <ele>325.06298828125</ele>
        <time>2003-11-23T10:27:40Z</time>
      </trkpt>
      <trkpt lat="43.964271862059832" lon="10.968508534133434">
        <ele>326.5048828125</ele>
        <time>2003-11-23T10:27:46Z</time>
      </trkpt>
      <trkpt lat="43.964253002777696" lon="10.968359168618917">
        <ele>326.985595703125</ele>
        <time>2003-11-23T10:27:52Z</time>
      </trkpt>
      <trkpt lat="43.96422928199172" lon="10.968228578567505">
        <ele>327.4661865234375</ele>
        <time>2003-11-23T10:27:57Z</time>
      </trkpt>
      <trkpt lat="43.964182175695896" lon="10.968096060678363">
        <ele>327.94677734375</ele>
        <time>2003-11-23T10:28:02Z</time>
      </trkpt>
      <trkpt lat="43.964128531515598" lon="10.96796253696084">
        <ele>327.94677734375</ele>
        <time>2003-11-23T10:28:07Z</time>
      </trkpt>
      <trkpt lat="43.964080084115267" lon="10.96785013563931">
        <ele>326.985595703125</ele>
        <time>2003-11-23T10:28:10Z</time>
      </trkpt>
      <trkpt lat="43.964013950899243" lon="10.967718288302422">
        <ele>326.5048828125</ele>
        <time>2003-11-23T10:28:13Z</time>
      </trkpt>
      <trkpt lat="43.9639385137707" lon="10.967592056840658">
        <ele>326.5048828125</ele>
        <time>2003-11-23T10:28:15Z</time>
      </trkpt>
      <trkpt lat="43.963877744972706" lon="10.967462724074721">
        <ele>326.985595703125</ele>
        <time>2003-11-23T10:28:17Z</time>
      </trkpt>
      <trkpt lat="43.963821334764361" lon="10.967334900051355">
        <ele>326.024169921875</ele>
        <time>2003-11-23T10:28:19Z</time>
      </trkpt>
      <trkpt lat="43.963762409985065" lon="10.967205483466387">
        <ele>326.024169921875</ele>
        <time>2003-11-23T10:28:21Z</time>
      </trkpt>
      <trkpt lat="43.96369812078774" lon="10.967068858444691">
        <ele>326.024169921875</ele>
        <time>2003-11-23T10:28:23Z</time>
      </trkpt>
      <trkpt lat="43.963621845468879" lon="10.966937514021993">
        <ele>326.024169921875</ele>
        <time>2003-11-23T10:28:25Z</time>
      </trkpt>
      <trkpt lat="43.963533500209451" lon="10.966816646978259">
        <ele>325.5435791015625</ele>
        <time>2003-11-23T10:28:27Z</time>
      </trkpt>
      <trkpt lat="43.963445238769054" lon="10.966700641438365">
        <ele>326.024169921875</ele>
        <time>2003-11-23T10:28:29Z</time>
      </trkpt>
      <trkpt lat="43.96336829289794" lon="10.966581534594297">
        <ele>326.024169921875</ele>
        <time>2003-11-23T10:28:31Z</time>
      </trkpt>
      <trkpt lat="43.963295537978411" lon="10.966471061110497">
        <ele>326.5048828125</ele>
        <time>2003-11-23T10:28:33Z</time>
      </trkpt>
      <trkpt lat="43.96323099732399" lon="10.966368215158582">
        <ele>326.024169921875</ele>
        <time>2003-11-23T10:28:35Z</time>
      </trkpt>
      <trkpt lat="43.963145669549704" lon="10.966238044202328">
        <ele>326.5048828125</ele>
        <time>2003-11-23T10:28:38Z</time>
      </trkpt>
      <trkpt lat="43.963068723678589" lon="10.966125307604671">
        <ele>326.024169921875</ele>
        <time>2003-11-23T10:28:41Z</time>
      </trkpt>
      <trkpt lat="43.962980881333351" lon="10.966076944023371">
        <ele>326.5048828125</ele>
        <time>2003-11-23T10:28:44Z</time>
      </trkpt>
      <trkpt lat="43.962873928248882" lon="10.966096390038729">
        <ele>326.985595703125</ele>
        <time>2003-11-23T10:28:48Z</time>
      </trkpt>
      <trkpt lat="43.962798491120338" lon="10.966186411678791">
        <ele>327.94677734375</ele>
        <time>2003-11-23T10:28:52Z</time>
      </trkpt>
      <trkpt lat="43.96273260936141" lon="10.966272996738553">
        <ele>329.8695068359375</ele>
        <time>2003-11-23T10:28:56Z</time>
      </trkpt>
      <trkpt lat="43.96265004761517" lon="10.966354636475444">
        <ele>329.8695068359375</ele>
        <time>2003-11-23T10:29:00Z</time>
      </trkpt>
      <trkpt lat="43.96255717612803" lon="10.966417584568262">
        <ele>330.3502197265625</ele>
        <time>2003-11-23T10:29:04Z</time>
      </trkpt>
      <trkpt lat="43.962456677109003" lon="10.966443819925189">
        <ele>331.3115234375</ele>
        <time>2003-11-23T10:29:08Z</time>
      </trkpt>
      <trkpt lat="43.962351065129042" lon="10.966408364474773">
        <ele>331.7921142578125</ele>
        <time>2003-11-23T10:29:12Z</time>
      </trkpt>
      <trkpt lat="43.962247213348746" lon="10.966354887932539">
        <ele>332.2728271484375</ele>
        <time>2003-11-23T10:29:16Z</time>
      </trkpt>
      <trkpt lat="43.962146881967783" lon="10.966316582635045">
        <ele>332.2728271484375</ele>
        <time>2003-11-23T10:29:20Z</time>
      </trkpt>
      <trkpt lat="43.96206515841186" lon="10.966259082779288">
        <ele>333.7147216796875</ele>
        <time>2003-11-23T10:29:24Z</time>
      </trkpt>
      <trkpt lat="43.961972370743752" lon="10.966224884614348">
        <ele>334.1954345703125</ele>
        <time>2003-11-23T10:29:29Z</time>
      </trkpt>
      <trkpt lat="43.961889306083322" lon="10.966260172426701">
        <ele>334.6761474609375</ele>
        <time>2003-11-23T10:29:36Z</time>
      </trkpt>
      <trkpt lat="43.961816215887666" lon="10.966336196288466">
        <ele>334.6761474609375</ele>
        <time>2003-11-23T10:29:47Z</time>
      </trkpt>
      <trkpt lat="43.96176022477448" lon="10.966439377516508">
        <ele>335.6373291015625</ele>
        <time>2003-11-23T10:29:56Z</time>
      </trkpt>
      <trkpt lat="43.961703730747104" lon="10.966569883748889">
        <ele>334.6761474609375</ele>
        <time>2003-11-23T10:30:02Z</time>
      </trkpt>
      <trkpt lat="43.961639106273651" lon="10.966711370274425">
        <ele>335.15673828125</ele>
        <time>2003-11-23T10:30:07Z</time>
      </trkpt>
      <trkpt lat="43.961553107947111" lon="10.966809689998627">
        <ele>335.6373291015625</ele>
        <time>2003-11-23T10:30:13Z</time>
      </trkpt>
      <trkpt lat="43.961469121277332" lon="10.966902812942863">
        <ele>335.6373291015625</ele>
        <time>2003-11-23T10:30:19Z</time>
      </trkpt>
      <trkpt lat="43.961389157921076" lon="10.967019237577915">
        <ele>335.6373291015625</ele>
        <time>2003-11-23T10:30:24Z</time>
      </trkpt>
      <trkpt lat="43.961338615044951" lon="10.967131471261382">
        <ele>335.6373291015625</ele>
        <time>2003-11-23T10:30:29Z</time>
      </trkpt>
      <trkpt lat="43.961245324462652" lon="10.967157203704119">
        <ele>334.6761474609375</ele>
        <time>2003-11-23T10:30:35Z</time>
      </trkpt>
      <trkpt lat="43.961147423833609" lon="10.967144044116139">
        <ele>333.7147216796875</ele>
        <time>2003-11-23T10:30:39Z</time>
      </trkpt>
      <trkpt lat="43.961050529032946" lon="10.967093920335174">
        <ele>333.234130859375</ele>
        <time>2003-11-23T10:30:43Z</time>
      </trkpt>
      <trkpt lat="43.960964446887374" lon="10.967086041346192">
        <ele>331.3115234375</ele>
        <time>2003-11-23T10:30:47Z</time>
      </trkpt>
      <trkpt lat="43.960900660604239" lon="10.967192240059376">
        <ele>329.8695068359375</ele>
        <time>2003-11-23T10:30:52Z</time>
      </trkpt>
      <trkpt lat="43.960851123556495" lon="10.967335570603609">
        <ele>329.8695068359375</ele>
        <time>2003-11-23T10:30:58Z</time>
      </trkpt>
      <trkpt lat="43.960820864886045" lon="10.967378821223974">
        <ele>329.388916015625</ele>
        <time>2003-11-23T10:33:55Z</time>
      </trkpt>
      <trkpt lat="43.960738303139806" lon="10.967489462345839">
        <ele>329.8695068359375</ele>
        <time>2003-11-23T10:34:06Z</time>
      </trkpt>
      <trkpt lat="43.960661524906754" lon="10.967595661059022">
        <ele>329.388916015625</ele>
        <time>2003-11-23T10:34:10Z</time>
      </trkpt>
      <trkpt lat="43.960551638156176" lon="10.96763513982296">
        <ele>330.8309326171875</ele>
        <time>2003-11-23T10:34:14Z</time>
      </trkpt>
      <trkpt lat="43.960451055318117" lon="10.967639749869704">
        <ele>330.3502197265625</ele>
        <time>2003-11-23T10:34:18Z</time>
      </trkpt>
      <trkpt lat="43.960321554914117" lon="10.967653663828969">
        <ele>330.3502197265625</ele>
        <time>2003-11-23T10:34:22Z</time>
      </trkpt>
      <trkpt lat="43.960219295695424" lon="10.967686101794243">
        <ele>330.3502197265625</ele>
        <time>2003-11-23T10:34:25Z</time>
      </trkpt>
      <trkpt lat="43.960133716464043" lon="10.967745278030634">
        <ele>330.8309326171875</ele>
        <time>2003-11-23T10:34:28Z</time>
      </trkpt>
      <trkpt lat="43.960043443366885" lon="10.967821888625622">
        <ele>330.8309326171875</ele>
        <time>2003-11-23T10:34:32Z</time>
      </trkpt>
      <trkpt lat="43.959954343736172" lon="10.967892380431294">
        <ele>330.8309326171875</ele>
        <time>2003-11-23T10:34:36Z</time>
      </trkpt>
      <trkpt lat="43.95987412892282" lon="10.967967817559838">
        <ele>330.8309326171875</ele>
        <time>2003-11-23T10:34:40Z</time>
      </trkpt>
      <trkpt lat="43.959777485579252" lon="10.968043506145477">
        <ele>330.8309326171875</ele>
        <time>2003-11-23T10:34:44Z</time>
      </trkpt>
      <trkpt lat="43.959691822528839" lon="10.968133695423603">
        <ele>330.3502197265625</ele>
        <time>2003-11-23T10:34:48Z</time>
      </trkpt>
      <trkpt lat="43.959611104801297" lon="10.968242911621928">
        <ele>330.3502197265625</ele>
        <time>2003-11-23T10:34:52Z</time>
      </trkpt>
      <trkpt lat="43.959531141445041" lon="10.968299824744463">
        <ele>330.8309326171875</ele>
        <time>2003-11-23T10:34:56Z</time>
      </trkpt>
      <trkpt lat="43.959496859461069" lon="10.968188345432281">
        <ele>331.7921142578125</ele>
        <time>2003-11-23T10:35:02Z</time>
      </trkpt>
      <trkpt lat="43.959469869732857" lon="10.96805389970541">
        <ele>331.3115234375</ele>
        <time>2003-11-23T10:35:07Z</time>
      </trkpt>
      <trkpt lat="43.959412034600973" lon="10.967960273846984">
        <ele>330.8309326171875</ele>
        <time>2003-11-23T10:35:12Z</time>
      </trkpt>
      <trkpt lat="43.959352690726519" lon="10.96787360496819">
        <ele>331.3115234375</ele>
        <time>2003-11-23T10:35:17Z</time>
      </trkpt>
      <trkpt lat="43.959273481741548" lon="10.967779392376542">
        <ele>330.3502197265625</ele>
        <time>2003-11-23T10:35:23Z</time>
      </trkpt>
      <trkpt lat="43.959268033504486" lon="10.967603120952845">
        <ele>328.9083251953125</ele>
        <time>2003-11-23T10:35:29Z</time>
      </trkpt>
      <trkpt lat="43.959281109273434" lon="10.967423915863037">
        <ele>326.985595703125</ele>
        <time>2003-11-23T10:35:33Z</time>
      </trkpt>
      <trkpt lat="43.959256550297141" lon="10.967270275577903">
        <ele>326.5048828125</ele>
        <time>2003-11-23T10:35:37Z</time>
      </trkpt>
      <trkpt lat="43.95922084338963" lon="10.967131052166224">
        <ele>325.06298828125</ele>
        <time>2003-11-23T10:35:41Z</time>
      </trkpt>
      <trkpt lat="43.95918513648212" lon="10.966991744935513">
        <ele>323.6209716796875</ele>
        <time>2003-11-23T10:35:45Z</time>
      </trkpt>
      <trkpt lat="43.959149513393641" lon="10.966852437704802">
        <ele>323.6209716796875</ele>
        <time>2003-11-23T10:35:49Z</time>
      </trkpt>
      <trkpt lat="43.959138449281454" lon="10.966670718044043">
        <ele>324.1015625</ele>
        <time>2003-11-23T10:35:53Z</time>
      </trkpt>
      <trkpt lat="43.959163008257747" lon="10.96646536141634">
        <ele>325.06298828125</ele>
        <time>2003-11-23T10:35:57Z</time>
      </trkpt>
      <trkpt lat="43.959170468151569" lon="10.966289676725864">
        <ele>326.024169921875</ele>
        <time>2003-11-23T10:36:01Z</time>
      </trkpt>
      <trkpt lat="43.959169881418347" lon="10.966113740578294">
        <ele>326.5048828125</ele>
        <time>2003-11-23T10:36:05Z</time>
      </trkpt>
      <trkpt lat="43.959149429574609" lon="10.965981474146247">
        <ele>326.5048828125</ele>
        <time>2003-11-23T10:36:09Z</time>
      </trkpt>
      <trkpt lat="43.959125373512506" lon="10.965833952650428">
        <ele>326.5048828125</ele>
        <time>2003-11-23T10:36:13Z</time>
      </trkpt>
      <trkpt lat="43.959103748202324" lon="10.965687688440084">
        <ele>326.985595703125</ele>
        <time>2003-11-23T10:36:17Z</time>
      </trkpt>
      <trkpt lat="43.959112297743559" lon="10.965518206357956">
        <ele>326.5048828125</ele>
        <time>2003-11-23T10:36:21Z</time>
      </trkpt>
      <trkpt lat="43.959147166460752" lon="10.965352077037096">
        <ele>327.4661865234375</ele>
        <time>2003-11-23T10:36:25Z</time>
      </trkpt>
      <trkpt lat="43.959183963015676" lon="10.9651446249336">
        <ele>328.4276123046875</ele>
        <time>2003-11-23T10:36:29Z</time>
      </trkpt>
      <trkpt lat="43.959180107340217" lon="10.964964916929603">
        <ele>328.9083251953125</ele>
        <time>2003-11-23T10:36:33Z</time>
      </trkpt>
      <trkpt lat="43.959161918610334" lon="10.964817898347974">
        <ele>329.388916015625</ele>
        <time>2003-11-23T10:36:37Z</time>
      </trkpt>
      <trkpt lat="43.959160912781954" lon="10.964639615267515">
        <ele>329.8695068359375</ele>
        <time>2003-11-23T10:36:41Z</time>
      </trkpt>
      <trkpt lat="43.959142724052072" lon="10.964474156498909">
        <ele>330.3502197265625</ele>
        <time>2003-11-23T10:36:45Z</time>
      </trkpt>
      <trkpt lat="43.959120847284794" lon="10.964320097118616">
        <ele>331.3115234375</ele>
        <time>2003-11-23T10:36:49Z</time>
      </trkpt>
      <trkpt lat="43.959073573350906" lon="10.964206689968705">
        <ele>331.7921142578125</ele>
        <time>2003-11-23T10:36:53Z</time>
      </trkpt>
      <trkpt lat="43.959013894200325" lon="10.964061683043838">
        <ele>332.7535400390625</ele>
        <time>2003-11-23T10:36:58Z</time>
      </trkpt>
      <trkpt lat="43.958929320797324" lon="10.96396260894835">
        <ele>333.7147216796875</ele>
        <time>2003-11-23T10:37:03Z</time>
      </trkpt>
      <trkpt lat="43.958846842870116" lon="10.963875185698271">
        <ele>334.1954345703125</ele>
        <time>2003-11-23T10:37:08Z</time>
      </trkpt>
      <trkpt lat="43.958753468468785" lon="10.963778961449862">
        <ele>334.1954345703125</ele>
        <time>2003-11-23T10:37:13Z</time>
      </trkpt>
      <trkpt lat="43.958676438778639" lon="10.963698327541351">
        <ele>334.6761474609375</ele>
        <time>2003-11-23T10:37:17Z</time>
      </trkpt>
      <trkpt lat="43.958602845668793" lon="10.963613335043192">
        <ele>334.6761474609375</ele>
        <time>2003-11-23T10:37:21Z</time>
      </trkpt>
      <trkpt lat="43.958522714674473" lon="10.96351744607091">
        <ele>334.6761474609375</ele>
        <time>2003-11-23T10:37:26Z</time>
      </trkpt>
      <trkpt lat="43.958438560366631" lon="10.963520128279924">
        <ele>334.6761474609375</ele>
        <time>2003-11-23T10:37:32Z</time>
      </trkpt>
      <trkpt lat="43.958349879831076" lon="10.963562540709972">
        <ele>335.15673828125</ele>
        <time>2003-11-23T10:37:40Z</time>
      </trkpt>
      <trkpt lat="43.958270754665136" lon="10.963630015030503">
        <ele>335.15673828125</ele>
        <time>2003-11-23T10:37:45Z</time>
      </trkpt>
      <trkpt lat="43.958187019452453" lon="10.963688353076577">
        <ele>335.15673828125</ele>
        <time>2003-11-23T10:37:49Z</time>
      </trkpt>
      <trkpt lat="43.958096746355295" lon="10.963753312826157">
        <ele>335.15673828125</ele>
        <time>2003-11-23T10:37:53Z</time>
      </trkpt>
      <trkpt lat="43.958009071648121" lon="10.963820032775402">
        <ele>335.15673828125</ele>
        <time>2003-11-23T10:37:57Z</time>
      </trkpt>
      <trkpt lat="43.957911841571331" lon="10.963885998353362">
        <ele>335.6373291015625</ele>
        <time>2003-11-23T10:38:01Z</time>
      </trkpt>
      <trkpt lat="43.957810588181019" lon="10.963968392461538">
        <ele>335.6373291015625</ele>
        <time>2003-11-23T10:38:05Z</time>
      </trkpt>
      <trkpt lat="43.95773003809154" lon="10.964017007499933">
        <ele>335.6373291015625</ele>
        <time>2003-11-23T10:38:08Z</time>
      </trkpt>
      <trkpt lat="43.957625767216086" lon="10.964096635580063">
        <ele>336.598876953125</ele>
        <time>2003-11-23T10:38:12Z</time>
      </trkpt>
      <trkpt lat="43.957551503553987" lon="10.964192021638155">
        <ele>336.598876953125</ele>
        <time>2003-11-23T10:38:15Z</time>
      </trkpt>
      <trkpt lat="43.957482939586043" lon="10.964292855933309">
        <ele>336.598876953125</ele>
        <time>2003-11-23T10:38:18Z</time>
      </trkpt>
      <trkpt lat="43.957397863268852" lon="10.964385224506259">
        <ele>336.1181640625</ele>
        <time>2003-11-23T10:38:21Z</time>
      </trkpt>
      <trkpt lat="43.957255706191063" lon="10.964425206184387">
        <ele>335.6373291015625</ele>
        <time>2003-11-23T10:38:24Z</time>
      </trkpt>
      <trkpt lat="43.957144981250167" lon="10.964424451813102">
        <ele>335.15673828125</ele>
        <time>2003-11-23T10:38:26Z</time>
      </trkpt>
      <trkpt lat="43.957041380926967" lon="10.964372484013438">
        <ele>334.6761474609375</ele>
        <time>2003-11-23T10:38:28Z</time>
      </trkpt>
      <trkpt lat="43.956949096173048" lon="10.964318420737982">
        <ele>334.6761474609375</ele>
        <time>2003-11-23T10:38:30Z</time>
      </trkpt>
      <trkpt lat="43.956853542476892" lon="10.964276092126966">
        <ele>334.1954345703125</ele>
        <time>2003-11-23T10:38:32Z</time>
      </trkpt>
      <trkpt lat="43.956749187782407" lon="10.964255975559354">
        <ele>334.1954345703125</ele>
        <time>2003-11-23T10:38:34Z</time>
      </trkpt>
      <trkpt lat="43.956646677106619" lon="10.964239547029138">
        <ele>333.7147216796875</ele>
        <time>2003-11-23T10:38:36Z</time>
      </trkpt>
      <trkpt lat="43.956543831154704" lon="10.964209958910942">
        <ele>332.7535400390625</ele>
        <time>2003-11-23T10:38:38Z</time>
      </trkpt>
      <trkpt lat="43.95644299685955" lon="10.964158242568374">
        <ele>331.7921142578125</ele>
        <time>2003-11-23T10:38:40Z</time>
      </trkpt>
      <trkpt lat="43.956347526982427" lon="10.964104346930981">
        <ele>329.8695068359375</ele>
        <time>2003-11-23T10:38:42Z</time>
      </trkpt>
      <trkpt lat="43.956258175894618" lon="10.96403444185853">
        <ele>327.94677734375</ele>
        <time>2003-11-23T10:38:44Z</time>
      </trkpt>
      <trkpt lat="43.956173770129681" lon="10.963967135176063">
        <ele>326.5048828125</ele>
        <time>2003-11-23T10:38:46Z</time>
      </trkpt>
      <trkpt lat="43.956093890592456" lon="10.963894128799438">
        <ele>325.5435791015625</ele>
        <time>2003-11-23T10:38:48Z</time>
      </trkpt>
      <trkpt lat="43.956019124016166" lon="10.963809974491596">
        <ele>323.6209716796875</ele>
        <time>2003-11-23T10:38:50Z</time>
      </trkpt>
      <trkpt lat="43.955941507592797" lon="10.963719449937344">
        <ele>323.140380859375</ele>
        <time>2003-11-23T10:38:52Z</time>
      </trkpt>
      <trkpt lat="43.955857520923018" lon="10.963629260659218">
        <ele>322.65966796875</ele>
        <time>2003-11-23T10:38:54Z</time>
      </trkpt>
      <trkpt lat="43.955775462090969" lon="10.963555416092277">
        <ele>322.178955078125</ele>
        <time>2003-11-23T10:38:56Z</time>
      </trkpt>
      <trkpt lat="43.955694912001491" lon="10.963493976742029">
        <ele>322.178955078125</ele>
        <time>2003-11-23T10:38:58Z</time>
      </trkpt>
      <trkpt lat="43.955576308071613" lon="10.96341879107058">
        <ele>323.140380859375</ele>
        <time>2003-11-23T10:39:01Z</time>
      </trkpt>
      <trkpt lat="43.955478491261601" lon="10.963370092213154">
        <ele>323.6209716796875</ele>
        <time>2003-11-23T10:39:04Z</time>
      </trkpt>
      <trkpt lat="43.955384278669953" lon="10.963312089443207">
        <ele>323.6209716796875</ele>
        <time>2003-11-23T10:39:07Z</time>
      </trkpt>
      <trkpt lat="43.955294424667954" lon="10.963244112208486">
        <ele>323.6209716796875</ele>
        <time>2003-11-23T10:39:10Z</time>
      </trkpt>
      <trkpt lat="43.955198954790831" lon="10.96317638643086">
        <ele>323.6209716796875</ele>
        <time>2003-11-23T10:39:13Z</time>
      </trkpt>
      <trkpt lat="43.955103736370802" lon="10.963095501065254">
        <ele>323.6209716796875</ele>
        <time>2003-11-23T10:39:16Z</time>
      </trkpt>
      <trkpt lat="43.955012205988169" lon="10.963026350364089">
        <ele>323.6209716796875</ele>
        <time>2003-11-23T10:39:19Z</time>
      </trkpt>
      <trkpt lat="43.954923860728741" lon="10.962960300967097">
        <ele>323.6209716796875</ele>
        <time>2003-11-23T10:39:22Z</time>
      </trkpt>
      <trkpt lat="43.954837694764137" lon="10.962893161922693">
        <ele>323.6209716796875</ele>
        <time>2003-11-23T10:39:25Z</time>
      </trkpt>
      <trkpt lat="43.954763598740101" lon="10.962826861068606">
        <ele>323.6209716796875</ele>
        <time>2003-11-23T10:39:28Z</time>
      </trkpt>
      <trkpt lat="43.954694699496031" lon="10.962759051471949">
        <ele>324.1015625</ele>
        <time>2003-11-23T10:39:31Z</time>
      </trkpt>
      <trkpt lat="43.954603839665651" lon="10.96268973313272">
        <ele>323.6209716796875</ele>
        <time>2003-11-23T10:39:34Z</time>
      </trkpt>
      <trkpt lat="43.954512560740113" lon="10.962620498612523">
        <ele>323.6209716796875</ele>
        <time>2003-11-23T10:39:37Z</time>
      </trkpt>
      <trkpt lat="43.954416168853641" lon="10.962547324597836">
        <ele>324.1015625</ele>
        <time>2003-11-23T10:39:40Z</time>
      </trkpt>
      <trkpt lat="43.954315753653646" lon="10.962461158633232">
        <ele>324.582275390625</ele>
        <time>2003-11-23T10:39:43Z</time>
      </trkpt>
      <trkpt lat="43.954223301261663" lon="10.962361916899681">
        <ele>324.1015625</ele>
        <time>2003-11-23T10:39:46Z</time>
      </trkpt>
      <trkpt lat="43.954168064519763" lon="10.96220157109201">
        <ele>323.140380859375</ele>
        <time>2003-11-23T10:39:49Z</time>
      </trkpt>
      <trkpt lat="43.954097907990217" lon="10.962046170607209">
        <ele>321.6983642578125</ele>
        <time>2003-11-23T10:39:52Z</time>
      </trkpt>
      <trkpt lat="43.954028589650989" lon="10.961922286078334">
        <ele>320.737060546875</ele>
        <time>2003-11-23T10:39:54Z</time>
      </trkpt>
      <trkpt lat="43.953954325988889" lon="10.961800999939442">
        <ele>320.25634765625</ele>
        <time>2003-11-23T10:39:56Z</time>
      </trkpt>
      <trkpt lat="43.953874781727791" lon="10.961677031591535">
        <ele>318.3336181640625</ele>
        <time>2003-11-23T10:39:58Z</time>
      </trkpt>
      <trkpt lat="43.953797249123454" lon="10.961547531187534">
        <ele>317.85302734375</ele>
        <time>2003-11-23T10:40:00Z</time>
      </trkpt>
      <trkpt lat="43.953703371807933" lon="10.961418533697724">
        <ele>316.8917236328125</ele>
        <time>2003-11-23T10:40:02Z</time>
      </trkpt>
      <trkpt lat="43.953606560826302" lon="10.961286853998899">
        <ele>315.930419921875</ele>
        <time>2003-11-23T10:40:04Z</time>
      </trkpt>
      <trkpt lat="43.953510923311114" lon="10.961166908964515">
        <ele>315.4498291015625</ele>
        <time>2003-11-23T10:40:06Z</time>
      </trkpt>
      <trkpt lat="43.953425008803606" lon="10.961067583411932">
        <ele>315.4498291015625</ele>
        <time>2003-11-23T10:40:08Z</time>
      </trkpt>
      <trkpt lat="43.953342027962208" lon="10.961025841534138">
        <ele>315.4498291015625</ele>
        <time>2003-11-23T10:40:11Z</time>
      </trkpt>
      <trkpt lat="43.953254520893097" lon="10.960977729409933">
        <ele>315.4498291015625</ele>
        <time>2003-11-23T10:40:14Z</time>
      </trkpt>
      <trkpt lat="43.953164834529161" lon="10.960947722196579">
        <ele>315.930419921875</ele>
        <time>2003-11-23T10:40:18Z</time>
      </trkpt>
      <trkpt lat="43.95307045429945" lon="10.960950320586562">
        <ele>315.930419921875</ele>
        <time>2003-11-23T10:40:22Z</time>
      </trkpt>
      <trkpt lat="43.952989233657718" lon="10.961025925353169">
        <ele>314.4884033203125</ele>
        <time>2003-11-23T10:40:26Z</time>
      </trkpt>
      <trkpt lat="43.952933074906468" lon="10.96114662475884">
        <ele>314.0078125</ele>
        <time>2003-11-23T10:40:33Z</time>
      </trkpt>
      <trkpt lat="43.952883286401629" lon="10.961263049393892">
        <ele>312.085205078125</ele>
        <time>2003-11-23T10:40:39Z</time>
      </trkpt>
      <trkpt lat="43.952818410471082" lon="10.961400764063001">
        <ele>310.64306640625</ele>
        <time>2003-11-23T10:40:41Z</time>
      </trkpt>
      <trkpt lat="43.95274942740798" lon="10.961533030495048">
        <ele>308.720458984375</ele>
        <time>2003-11-23T10:40:43Z</time>
      </trkpt>
      <trkpt lat="43.952680360525846" lon="10.961665296927094">
        <ele>306.7978515625</ele>
        <time>2003-11-23T10:40:45Z</time>
      </trkpt>
      <trkpt lat="43.952611377462745" lon="10.961797563359141">
        <ele>304.3946533203125</ele>
        <time>2003-11-23T10:40:47Z</time>
      </trkpt>
      <trkpt lat="43.952539209276438" lon="10.961942235007882">
        <ele>302.471923828125</ele>
        <time>2003-11-23T10:40:49Z</time>
      </trkpt>
      <trkpt lat="43.952443404123187" lon="10.962135773152113">
        <ele>300.0687255859375</ele>
        <time>2003-11-23T10:40:51Z</time>
      </trkpt>
      <trkpt lat="43.95233997143805" lon="10.962294274941087">
        <ele>299.1072998046875</ele>
        <time>2003-11-23T10:40:53Z</time>
      </trkpt>
      <trkpt lat="43.952241819351912" lon="10.962410867214203">
        <ele>297.6654052734375</ele>
        <time>2003-11-23T10:40:55Z</time>
      </trkpt>
      <trkpt lat="43.952155653387308" lon="10.9625025652349">
        <ele>297.6654052734375</ele>
        <time>2003-11-23T10:40:57Z</time>
      </trkpt>
      <trkpt lat="43.952042330056429" lon="10.962598118931055">
        <ele>297.1846923828125</ele>
        <time>2003-11-23T10:41:00Z</time>
      </trkpt>
      <trkpt lat="43.95197007805109" lon="10.962692582979798">
        <ele>296.7041015625</ele>
        <time>2003-11-23T10:41:06Z</time>
      </trkpt>
      <trkpt lat="43.951919535174966" lon="10.962854102253914">
        <ele>297.1846923828125</ele>
        <time>2003-11-23T10:41:12Z</time>
      </trkpt>
      <trkpt lat="43.951873937621713" lon="10.963006904348731">
        <ele>296.7041015625</ele>
        <time>2003-11-23T10:41:15Z</time>
      </trkpt>
      <trkpt lat="43.951828759163618" lon="10.963188875466585">
        <ele>296.2235107421875</ele>
        <time>2003-11-23T10:41:18Z</time>
      </trkpt>
      <trkpt lat="43.95178978331387" lon="10.96333472058177">
        <ele>295.74267578125</ele>
        <time>2003-11-23T10:41:20Z</time>
      </trkpt>
      <trkpt lat="43.951746951788664" lon="10.963472602888942">
        <ele>295.261962890625</ele>
        <time>2003-11-23T10:41:22Z</time>
      </trkpt>
      <trkpt lat="43.951695570722222" lon="10.963629679754376">
        <ele>294.7813720703125</ele>
        <time>2003-11-23T10:41:24Z</time>
      </trkpt>
      <trkpt lat="43.95165148191154" lon="10.963787427172065">
        <ele>293.820068359375</ele>
        <time>2003-11-23T10:41:26Z</time>
      </trkpt>
      <trkpt lat="43.951604040339589" lon="10.963926482945681">
        <ele>293.820068359375</ele>
        <time>2003-11-23T10:41:28Z</time>
      </trkpt>
      <trkpt lat="43.951568081974983" lon="10.964056989178061">
        <ele>293.820068359375</ele>
        <time>2003-11-23T10:41:30Z</time>
      </trkpt>
      <trkpt lat="43.951510079205036" lon="10.964225297793746">
        <ele>293.820068359375</ele>
        <time>2003-11-23T10:41:33Z</time>
      </trkpt>
      <trkpt lat="43.951462553814054" lon="10.964353373274207">
        <ele>293.33935546875</ele>
        <time>2003-11-23T10:41:36Z</time>
      </trkpt>
      <trkpt lat="43.951403126120567" lon="10.964454375207424">
        <ele>294.30078125</ele>
        <time>2003-11-23T10:41:39Z</time>
      </trkpt>
      <trkpt lat="43.951317295432091" lon="10.964529644697905">
        <ele>295.261962890625</ele>
        <time>2003-11-23T10:41:43Z</time>
      </trkpt>
      <trkpt lat="43.951210929080844" lon="10.964558562263846">
        <ele>296.2235107421875</ele>
        <time>2003-11-23T10:41:48Z</time>
      </trkpt>
      <trkpt lat="43.951118309050798" lon="10.964610781520605">
        <ele>297.1846923828125</ele>
        <time>2003-11-23T10:41:53Z</time>
      </trkpt>
      <trkpt lat="43.951036585494876" lon="10.964673394337296">
        <ele>297.1846923828125</ele>
        <time>2003-11-23T10:41:58Z</time>
      </trkpt>
      <trkpt lat="43.950959723442793" lon="10.964743131771684">
        <ele>297.6654052734375</ele>
        <time>2003-11-23T10:42:03Z</time>
      </trkpt>
      <trkpt lat="43.950875485315919" lon="10.964829046279192">
        <ele>297.6654052734375</ele>
        <time>2003-11-23T10:42:09Z</time>
      </trkpt>
      <trkpt lat="43.950997022911906" lon="10.965051082894206">
        <ele>297.6654052734375</ele>
        <time>2003-11-23T10:43:13Z</time>
      </trkpt>
      <trkpt lat="43.951138760894537" lon="10.965196425095201">
        <ele>297.1846923828125</ele>
        <time>2003-11-23T10:44:26Z</time>
      </trkpt>
      <trkpt lat="43.951133899390697" lon="10.965340510010719">
        <ele>296.2235107421875</ele>
        <time>2003-11-23T10:44:28Z</time>
      </trkpt>
      <trkpt lat="43.951134486123919" lon="10.965502532199025">
        <ele>295.74267578125</ele>
        <time>2003-11-23T10:44:30Z</time>
      </trkpt>
      <trkpt lat="43.95113741979003" lon="10.965674109756947">
        <ele>295.261962890625</ele>
        <time>2003-11-23T10:44:32Z</time>
      </trkpt>
      <trkpt lat="43.951136497780681" lon="10.965826995670795">
        <ele>294.7813720703125</ele>
        <time>2003-11-23T10:44:34Z</time>
      </trkpt>
      <trkpt lat="43.951131217181683" lon="10.965952556580305">
        <ele>294.7813720703125</ele>
        <time>2003-11-23T10:44:36Z</time>
      </trkpt>
      <trkpt lat="43.951124763116241" lon="10.966118769720197">
        <ele>294.30078125</ele>
        <time>2003-11-23T10:44:39Z</time>
      </trkpt>
      <trkpt lat="43.951116297394037" lon="10.966277522966266">
        <ele>294.30078125</ele>
        <time>2003-11-23T10:44:42Z</time>
      </trkpt>
      <trkpt lat="43.951107831671834" lon="10.966438371688128">
        <ele>293.33935546875</ele>
        <time>2003-11-23T10:44:45Z</time>
      </trkpt>
      <trkpt lat="43.951099617406726" lon="10.96660953015089">
        <ele>293.33935546875</ele>
        <time>2003-11-23T10:44:48Z</time>
      </trkpt>
      <trkpt lat="43.951091403141618" lon="10.96679468639195">
        <ele>292.8587646484375</ele>
        <time>2003-11-23T10:44:51Z</time>
      </trkpt>
      <trkpt lat="43.951082099229097" lon="10.966991744935513">
        <ele>292.8587646484375</ele>
        <time>2003-11-23T10:44:54Z</time>
      </trkpt>
      <trkpt lat="43.951067011803389" lon="10.967191904783249">
        <ele>291.8974609375</ele>
        <time>2003-11-23T10:44:57Z</time>
      </trkpt>
      <trkpt lat="43.951051086187363" lon="10.967338671907783">
        <ele>291.8974609375</ele>
        <time>2003-11-23T10:44:59Z</time>
      </trkpt>
      <trkpt lat="43.95103239454329" lon="10.967494156211615">
        <ele>289.974853515625</ele>
        <time>2003-11-23T10:45:01Z</time>
      </trkpt>
      <trkpt lat="43.951015044003725" lon="10.967664644122124">
        <ele>289.974853515625</ele>
        <time>2003-11-23T10:45:03Z</time>
      </trkpt>
      <trkpt lat="43.951000291854143" lon="10.967837562784553">
        <ele>289.0135498046875</ele>
        <time>2003-11-23T10:45:05Z</time>
      </trkpt>
      <trkpt lat="43.950984785333276" lon="10.968047278001904">
        <ele>287.5714111328125</ele>
        <time>2003-11-23T10:45:07Z</time>
      </trkpt>
      <trkpt lat="43.950969111174345" lon="10.968256490305066">
        <ele>286.1295166015625</ele>
        <time>2003-11-23T10:45:09Z</time>
      </trkpt>
      <trkpt lat="43.950947485864162" lon="10.968458410352468">
        <ele>286.1295166015625</ele>
        <time>2003-11-23T10:45:11Z</time>
      </trkpt>
      <trkpt lat="43.950929045677185" lon="10.968659240752459">
        <ele>286.1295166015625</ele>
        <time>2003-11-23T10:45:13Z</time>
      </trkpt>
      <trkpt lat="43.950942708179355" lon="10.968844229355454">
        <ele>285.6488037109375</ele>
        <time>2003-11-23T10:45:15Z</time>
      </trkpt>
      <trkpt lat="43.950980342924595" lon="10.969003736972809">
        <ele>285.168212890625</ele>
        <time>2003-11-23T10:45:17Z</time>
      </trkpt>
      <trkpt lat="43.951016720384359" lon="10.969149582087994">
        <ele>285.168212890625</ele>
        <time>2003-11-23T10:45:19Z</time>
      </trkpt>
      <trkpt lat="43.951046979054809" lon="10.969281764701009">
        <ele>285.6488037109375</ele>
        <time>2003-11-23T10:45:21Z</time>
      </trkpt>
      <trkpt lat="43.951088385656476" lon="10.969452923163772">
        <ele>285.168212890625</ele>
        <time>2003-11-23T10:45:24Z</time>
      </trkpt>
      <trkpt lat="43.951132977381349" lon="10.969594325870275">
        <ele>285.168212890625</ele>
        <time>2003-11-23T10:45:27Z</time>
      </trkpt>
      <trkpt lat="43.951191063970327" lon="10.969725921750069">
        <ele>286.1295166015625</ele>
        <time>2003-11-23T10:45:30Z</time>
      </trkpt>
      <trkpt lat="43.951274547725916" lon="10.96986380405724">
        <ele>285.6488037109375</ele>
        <time>2003-11-23T10:45:33Z</time>
      </trkpt>
      <trkpt lat="43.95133288577199" lon="10.969963045790792">
        <ele>285.6488037109375</ele>
        <time>2003-11-23T10:45:35Z</time>
      </trkpt>
      <trkpt lat="43.951391223818064" lon="10.97006999887526">
        <ele>285.6488037109375</ele>
        <time>2003-11-23T10:45:37Z</time>
      </trkpt>
      <trkpt lat="43.951461464166641" lon="10.970232523977757">
        <ele>285.6488037109375</ele>
        <time>2003-11-23T10:45:40Z</time>
      </trkpt>
      <trkpt lat="43.951523825526237" lon="10.970373675227165">
        <ele>285.6488037109375</ele>
        <time>2003-11-23T10:45:43Z</time>
      </trkpt>
      <trkpt lat="43.951594401150942" lon="10.970483645796776">
        <ele>285.6488037109375</ele>
        <time>2003-11-23T10:45:46Z</time>
      </trkpt>
      <trkpt lat="43.951668161898851" lon="10.970585905015469">
        <ele>285.6488037109375</ele>
        <time>2003-11-23T10:45:49Z</time>
      </trkpt>
      <trkpt lat="43.951752316206694" lon="10.970701575279236">
        <ele>287.0908203125</ele>
        <time>2003-11-23T10:45:53Z</time>
      </trkpt>
      <trkpt lat="43.951828591525555" lon="10.970804002135992">
        <ele>288.532958984375</ele>
        <time>2003-11-23T10:45:57Z</time>
      </trkpt>
      <trkpt lat="43.951908051967621" lon="10.970898550003767">
        <ele>289.0135498046875</ele>
        <time>2003-11-23T10:46:01Z</time>
      </trkpt>
      <trkpt lat="43.952018693089485" lon="10.970985637977719">
        <ele>288.05224609375</ele>
        <time>2003-11-23T10:46:05Z</time>
      </trkpt>
      <trkpt lat="43.952111816033721" lon="10.971054201945662">
        <ele>288.05224609375</ele>
        <time>2003-11-23T10:46:08Z</time>
      </trkpt>
      <trkpt lat="43.952206447720528" lon="10.971123604103923">
        <ele>288.532958984375</ele>
        <time>2003-11-23T10:46:11Z</time>
      </trkpt>
      <trkpt lat="43.952293200418353" lon="10.971206501126289">
        <ele>288.532958984375</ele>
        <time>2003-11-23T10:46:14Z</time>
      </trkpt>
      <trkpt lat="43.95236830227077" lon="10.971299204975367">
        <ele>289.0135498046875</ele>
        <time>2003-11-23T10:46:17Z</time>
      </trkpt>
      <trkpt lat="43.952438374981284" lon="10.971392663195729">
        <ele>289.974853515625</ele>
        <time>2003-11-23T10:46:20Z</time>
      </trkpt>
      <trkpt lat="43.952517416328192" lon="10.971475979313254">
        <ele>290.9361572265625</ele>
        <time>2003-11-23T10:46:23Z</time>
      </trkpt>
      <trkpt lat="43.952602911740541" lon="10.971589302644134">
        <ele>291.416748046875</ele>
        <time>2003-11-23T10:46:27Z</time>
      </trkpt>
      <trkpt lat="43.95269469358027" lon="10.971670774742961">
        <ele>292.8587646484375</ele>
        <time>2003-11-23T10:46:31Z</time>
      </trkpt>
      <trkpt lat="43.952777590602636" lon="10.971745289862156">
        <ele>293.820068359375</ele>
        <time>2003-11-23T10:46:35Z</time>
      </trkpt>
      <trkpt lat="43.952853279188275" lon="10.971797844395041">
        <ele>293.820068359375</ele>
        <time>2003-11-23T10:46:39Z</time>
      </trkpt>
      <trkpt lat="43.952924776822329" lon="10.971833635121584">
        <ele>294.7813720703125</ele>
        <time>2003-11-23T10:46:44Z</time>
      </trkpt>
      <trkpt lat="43.952994933351874" lon="10.971895745024085">
        <ele>294.30078125</ele>
        <time>2003-11-23T10:46:50Z</time>
      </trkpt>
      <trkpt lat="43.952953778207302" lon="10.971845956519246">
        <ele>294.7813720703125</ele>
        <time>2003-11-23T10:47:06Z</time>
      </trkpt>
      <trkpt lat="43.952883705496788" lon="10.971786445006728">
        <ele>293.33935546875</ele>
        <time>2003-11-23T10:47:08Z</time>
      </trkpt>
      <trkpt lat="43.95278706215322" lon="10.971783176064491">
        <ele>292.378173828125</ele>
        <time>2003-11-23T10:47:10Z</time>
      </trkpt>
      <trkpt lat="43.952684886753559" lon="10.971847968176007">
        <ele>291.416748046875</ele>
        <time>2003-11-23T10:47:12Z</time>
      </trkpt>
      <trkpt lat="43.952572485432029" lon="10.971929021179676">
        <ele>288.532958984375</ele>
        <time>2003-11-23T10:47:14Z</time>
      </trkpt>
      <trkpt lat="43.952462514862418" lon="10.972008230164647">
        <ele>286.1295166015625</ele>
        <time>2003-11-23T10:47:16Z</time>
      </trkpt>
      <trkpt lat="43.952358830720186" lon="10.972090875729918">
        <ele>282.7650146484375</ele>
        <time>2003-11-23T10:47:18Z</time>
      </trkpt>
      <trkpt lat="43.95225397311151" lon="10.972170419991016">
        <ele>280.3616943359375</ele>
        <time>2003-11-23T10:47:20Z</time>
      </trkpt>
      <trkpt lat="43.952157413586974" lon="10.97223898395896">
        <ele>277.4776611328125</ele>
        <time>2003-11-23T10:47:22Z</time>
      </trkpt>
      <trkpt lat="43.952048197388649" lon="10.972222471609712">
        <ele>274.59375</ele>
        <time>2003-11-23T10:47:26Z</time>
      </trkpt>
      <trkpt lat="43.951955996453762" lon="10.972172850742936">
        <ele>272.671142578125</ele>
        <time>2003-11-23T10:47:30Z</time>
      </trkpt>
      <trkpt lat="43.951907549053431" lon="10.972262788563967">
        <ele>270.2677001953125</ele>
        <time>2003-11-23T10:47:34Z</time>
      </trkpt>
      <trkpt lat="43.951834039762616" lon="10.97237384878099">
        <ele>268.3450927734375</ele>
        <time>2003-11-23T10:47:38Z</time>
      </trkpt>
      <trkpt lat="43.951751394197345" lon="10.972434533759952">
        <ele>264.9805908203125</ele>
        <time>2003-11-23T10:47:41Z</time>
      </trkpt>
      <trkpt lat="43.951668748632073" lon="10.972517430782318">
        <ele>263.057861328125</ele>
        <time>2003-11-23T10:47:44Z</time>
      </trkpt>
      <trkpt lat="43.951602196320891" lon="10.972595047205687">
        <ele>261.13525390625</ele>
        <time>2003-11-23T10:47:47Z</time>
      </trkpt>
      <trkpt lat="43.951514605432749" lon="10.97266361117363">
        <ele>258.73193359375</ele>
        <time>2003-11-23T10:47:49Z</time>
      </trkpt>
      <trkpt lat="43.95142475143075" lon="10.972741143777966">
        <ele>256.3287353515625</ele>
        <time>2003-11-23T10:47:51Z</time>
      </trkpt>
      <trkpt lat="43.951335987076163" lon="10.972825633361936">
        <ele>253.9254150390625</ele>
        <time>2003-11-23T10:47:53Z</time>
      </trkpt>
      <trkpt lat="43.95124395377934" lon="10.9729069378227">
        <ele>252.0028076171875</ele>
        <time>2003-11-23T10:47:55Z</time>
      </trkpt>
      <trkpt lat="43.951149741187692" lon="10.972986901178956">
        <ele>250.0802001953125</ele>
        <time>2003-11-23T10:47:57Z</time>
      </trkpt>
      <trkpt lat="43.951057875528932" lon="10.973058817908168">
        <ele>247.6767578125</ele>
        <time>2003-11-23T10:47:59Z</time>
      </trkpt>
      <trkpt lat="43.950940612703562" lon="10.973173566162586">
        <ele>245.2734375</ele>
        <time>2003-11-23T10:48:02Z</time>
      </trkpt>
      <trkpt lat="43.95084816031158" lon="10.973242800682783">
        <ele>242.8702392578125</ele>
        <time>2003-11-23T10:48:05Z</time>
      </trkpt>
      <trkpt lat="43.950911946594715" lon="10.973207512870431">
        <ele>241.42822265625</ele>
        <time>2003-11-23T10:48:29Z</time>
      </trkpt>
      <trkpt lat="43.950927117839456" lon="10.97322947345674">
        <ele>239.9862060546875</ele>
        <time>2003-11-23T10:49:06Z</time>
      </trkpt>
      <trkpt lat="43.950837096199393" lon="10.973224360495806">
        <ele>239.02490234375</ele>
        <time>2003-11-23T10:49:10Z</time>
      </trkpt>
      <trkpt lat="43.950756965205073" lon="10.973202902823687">
        <ele>238.0635986328125</ele>
        <time>2003-11-23T10:49:14Z</time>
      </trkpt>
      <trkpt lat="43.95067373290658" lon="10.973297534510493">
        <ele>236.1409912109375</ele>
        <time>2003-11-23T10:49:17Z</time>
      </trkpt>
      <trkpt lat="43.950583962723613" lon="10.97342443652451">
        <ele>234.6990966796875</ele>
        <time>2003-11-23T10:49:19Z</time>
      </trkpt>
      <trkpt lat="43.950489833950996" lon="10.973553014919162">
        <ele>232.2957763671875</ele>
        <time>2003-11-23T10:49:21Z</time>
      </trkpt>
      <trkpt lat="43.950406685471535" lon="10.97366826608777">
        <ele>228.93115234375</ele>
        <time>2003-11-23T10:49:23Z</time>
      </trkpt>
      <trkpt lat="43.950339630246162" lon="10.973752923309803">
        <ele>226.52783203125</ele>
        <time>2003-11-23T10:49:25Z</time>
      </trkpt>
      <trkpt lat="43.950274335220456" lon="10.97383439540863">
        <ele>224.605224609375</ele>
        <time>2003-11-23T10:49:27Z</time>
      </trkpt>
      <trkpt lat="43.950208788737655" lon="10.973917040973902">
        <ele>222.2017822265625</ele>
        <time>2003-11-23T10:49:29Z</time>
      </trkpt>
      <trkpt lat="43.950138464570045" lon="10.974009912461042">
        <ele>219.798583984375</ele>
        <time>2003-11-23T10:49:31Z</time>
      </trkpt>
      <trkpt lat="43.950065793469548" lon="10.974111165851355">
        <ele>217.3953857421875</ele>
        <time>2003-11-23T10:49:33Z</time>
      </trkpt>
      <trkpt lat="43.950002007186413" lon="10.974193392321467">
        <ele>215.47265625</ele>
        <time>2003-11-23T10:49:35Z</time>
      </trkpt>
      <trkpt lat="43.94993101246655" lon="10.974264470860362">
        <ele>214.0306396484375</ele>
        <time>2003-11-23T10:49:37Z</time>
      </trkpt>
      <trkpt lat="43.949850797653198" lon="10.974271846935153">
        <ele>210.1854248046875</ele>
        <time>2003-11-23T10:49:40Z</time>
      </trkpt>
      <trkpt lat="43.949754992499948" lon="10.974311828613281">
        <ele>207.7821044921875</ele>
        <time>2003-11-23T10:49:44Z</time>
      </trkpt>
      <trkpt lat="43.949677459895611" lon="10.97434644587338">
        <ele>205.8594970703125</ele>
        <time>2003-11-23T10:49:47Z</time>
      </trkpt>
      <trkpt lat="43.949599089100957" lon="10.974393887445331">
        <ele>203.4561767578125</ele>
        <time>2003-11-23T10:49:50Z</time>
      </trkpt>
      <trkpt lat="43.949525328353047" lon="10.974480556324124">
        <ele>200.0916748046875</ele>
        <time>2003-11-23T10:49:53Z</time>
      </trkpt>
      <trkpt lat="43.949472354725003" lon="10.974582144990563">
        <ele>198.1689453125</ele>
        <time>2003-11-23T10:49:56Z</time>
      </trkpt>
      <trkpt lat="43.94941309466958" lon="10.974723799154162">
        <ele>195.765625</ele>
        <time>2003-11-23T10:50:00Z</time>
      </trkpt>
      <trkpt lat="43.949341513216496" lon="10.974729750305414">
        <ele>192.401123046875</ele>
        <time>2003-11-23T10:50:04Z</time>
      </trkpt>
      <trkpt lat="43.949243193492293" lon="10.974647272378206">
        <ele>189.9976806640625</ele>
        <time>2003-11-23T10:50:11Z</time>
      </trkpt>
      <trkpt lat="43.949144957587123" lon="10.974581139162183">
        <ele>187.5943603515625</ele>
        <time>2003-11-23T10:50:15Z</time>
      </trkpt>
      <trkpt lat="43.949044123291969" lon="10.974548868834972">
        <ele>184.7105712890625</ele>
        <time>2003-11-23T10:50:18Z</time>
      </trkpt>
      <trkpt lat="43.948954856023192" lon="10.974602093920112">
        <ele>181.826416015625</ele>
        <time>2003-11-23T10:50:21Z</time>
      </trkpt>
      <trkpt lat="43.948901379480958" lon="10.974706951528788">
        <ele>179.90380859375</ele>
        <time>2003-11-23T10:50:24Z</time>
      </trkpt>
      <trkpt lat="43.948815716430545" lon="10.974811306223273">
        <ele>177.5006103515625</ele>
        <time>2003-11-23T10:50:28Z</time>
      </trkpt>
      <trkpt lat="43.948701387271285" lon="10.974791524931788">
        <ele>176.05859375</ele>
        <time>2003-11-23T10:50:32Z</time>
      </trkpt>
      <trkpt lat="43.948619831353426" lon="10.974676357582211">
        <ele>174.1358642578125</ele>
        <time>2003-11-23T10:50:35Z</time>
      </trkpt>
      <trkpt lat="43.948543220758438" lon="10.974540906026959">
        <ele>172.6939697265625</ele>
        <time>2003-11-23T10:50:38Z</time>
      </trkpt>
      <trkpt lat="43.948475494980812" lon="10.974504863843322">
        <ele>170.2906494140625</ele>
        <time>2003-11-23T10:50:42Z</time>
      </trkpt>
      <trkpt lat="43.94847247749567" lon="10.97471633926034">
        <ele>168.8487548828125</ele>
        <time>2003-11-23T10:50:45Z</time>
      </trkpt>
      <trkpt lat="43.948484295979142" lon="10.974848940968513">
        <ele>167.40673828125</ele>
        <time>2003-11-23T10:50:47Z</time>
      </trkpt>
      <trkpt lat="43.948484966531396" lon="10.974999312311411">
        <ele>166.4453125</ele>
        <time>2003-11-23T10:50:49Z</time>
      </trkpt>
      <trkpt lat="43.948431154713035" lon="10.975180109962821">
        <ele>165.00341796875</ele>
        <time>2003-11-23T10:50:52Z</time>
      </trkpt>
      <trkpt lat="43.94830291159451" lon="10.975174829363823">
        <ele>162.60009765625</ele>
        <time>2003-11-23T10:50:55Z</time>
      </trkpt>
      <trkpt lat="43.948203921318054" lon="10.975066283717752">
        <ele>161.638916015625</ele>
        <time>2003-11-23T10:50:57Z</time>
      </trkpt>
      <trkpt lat="43.948113983497024" lon="10.974963437765837">
        <ele>160.677490234375</ele>
        <time>2003-11-23T10:50:59Z</time>
      </trkpt>
      <trkpt lat="43.94803318195045" lon="10.974841061979532">
        <ele>159.2354736328125</ele>
        <time>2003-11-23T10:51:01Z</time>
      </trkpt>
      <trkpt lat="43.947984650731087" lon="10.974662359803915">
        <ele>157.3128662109375</ele>
        <time>2003-11-23T10:51:03Z</time>
      </trkpt>
      <trkpt lat="43.947961181402206" lon="10.97448231652379">
        <ele>156.3515625</ele>
        <time>2003-11-23T10:51:05Z</time>
      </trkpt>
      <trkpt lat="43.947946596890688" lon="10.97434351220727">
        <ele>154.9095458984375</ele>
        <time>2003-11-23T10:51:07Z</time>
      </trkpt>
      <trkpt lat="43.947921451181173" lon="10.974200433120131">
        <ele>152.0257568359375</ele>
        <time>2003-11-23T10:51:10Z</time>
      </trkpt>
      <trkpt lat="43.947846181690693" lon="10.974139831960201">
        <ele>148.180419921875</ele>
        <time>2003-11-23T10:51:14Z</time>
      </trkpt>
      <trkpt lat="43.947740653529763" lon="10.974197667092085">
        <ele>147.218994140625</ele>
        <time>2003-11-23T10:51:18Z</time>
      </trkpt>
      <trkpt lat="43.947658929973841" lon="10.974279893562198">
        <ele>145.29638671875</ele>
        <time>2003-11-23T10:51:21Z</time>
      </trkpt>
      <trkpt lat="43.947576619684696" lon="10.974392211064696">
        <ele>142.89306640625</ele>
        <time>2003-11-23T10:51:24Z</time>
      </trkpt>
      <trkpt lat="43.947505708783865" lon="10.974522884935141">
        <ele>140.4898681640625</ele>
        <time>2003-11-23T10:51:26Z</time>
      </trkpt>
      <trkpt lat="43.947434546425939" lon="10.974669568240643">
        <ele>138.5672607421875</ele>
        <time>2003-11-23T10:51:28Z</time>
      </trkpt>
      <trkpt lat="43.947427673265338" lon="10.974805606529117">
        <ele>137.125244140625</ele>
        <time>2003-11-23T10:51:29Z</time>
      </trkpt>
      <trkpt lat="43.947422560304403" lon="10.97504323348403">
        <ele>134.721923828125</ele>
        <time>2003-11-23T10:51:31Z</time>
      </trkpt>
      <trkpt lat="43.947420045733452" lon="10.975252026692033">
        <ele>132.79931640625</ele>
        <time>2003-11-23T10:51:33Z</time>
      </trkpt>
      <trkpt lat="43.947414346039295" lon="10.975427627563477">
        <ele>131.3572998046875</ele>
        <time>2003-11-23T10:51:35Z</time>
      </trkpt>
      <trkpt lat="43.947387440130115" lon="10.975546147674322">
        <ele>129.915283203125</ele>
        <time>2003-11-23T10:51:37Z</time>
      </trkpt>
      <trkpt lat="43.947279565036297" lon="10.97566232085228">
        <ele>128.9541015625</ele>
        <time>2003-11-23T10:51:40Z</time>
      </trkpt>
      <trkpt lat="43.94716682843864" lon="10.975688891485333">
        <ele>127.9925537109375</ele>
        <time>2003-11-23T10:51:42Z</time>
      </trkpt>
      <trkpt lat="43.947045458480716" lon="10.975709427148104">
        <ele>126.0699462890625</ele>
        <time>2003-11-23T10:51:44Z</time>
      </trkpt>
      <trkpt lat="43.946924423798919" lon="10.975727699697018">
        <ele>124.1473388671875</ele>
        <time>2003-11-23T10:51:46Z</time>
      </trkpt>
      <trkpt lat="43.946790983900428" lon="10.975745217874646">
        <ele>123.1861572265625</ele>
        <time>2003-11-23T10:51:48Z</time>
      </trkpt>
      <trkpt lat="43.946629296988249" lon="10.975756030529737">
        <ele>122.2247314453125</ele>
        <time>2003-11-23T10:51:50Z</time>
      </trkpt>
      <trkpt lat="43.946545058861375" lon="10.975761646404862">
        <ele>120.7828369140625</ele>
        <time>2003-11-23T10:51:51Z</time>
      </trkpt>
      <trkpt lat="43.946448834612966" lon="10.975770531222224">
        <ele>120.7828369140625</ele>
        <time>2003-11-23T10:51:52Z</time>
      </trkpt>
      <trkpt lat="43.946353700011969" lon="10.975784780457616">
        <ele>119.3408203125</ele>
        <time>2003-11-23T10:51:53Z</time>
      </trkpt>
      <trkpt lat="43.946262504905462" lon="10.975798945873976">
        <ele>118.37939453125</ele>
        <time>2003-11-23T10:51:54Z</time>
      </trkpt>
      <trkpt lat="43.946167537942529" lon="10.97580992616713">
        <ele>117.8988037109375</ele>
        <time>2003-11-23T10:51:55Z</time>
      </trkpt>
      <trkpt lat="43.946073409169912" lon="10.975814452394843">
        <ele>117.418212890625</ele>
        <time>2003-11-23T10:51:56Z</time>
      </trkpt>
      <trkpt lat="43.945878949016333" lon="10.97579131834209">
        <ele>115.014892578125</ele>
        <time>2003-11-23T10:51:58Z</time>
      </trkpt>
      <trkpt lat="43.945784401148558" lon="10.975789809599519">
        <ele>114.0535888671875</ele>
        <time>2003-11-23T10:51:59Z</time>
      </trkpt>
      <trkpt lat="43.945680381730199" lon="10.975797940045595">
        <ele>113.572998046875</ele>
        <time>2003-11-23T10:52:00Z</time>
      </trkpt>
      <trkpt lat="43.94557686522603" lon="10.975806070491672">
        <ele>111.6502685546875</ele>
        <time>2003-11-23T10:52:01Z</time>
      </trkpt>
      <trkpt lat="43.945473348721862" lon="10.975813278928399">
        <ele>111.1695556640625</ele>
        <time>2003-11-23T10:52:02Z</time>
      </trkpt>
      <trkpt lat="43.945370586588979" lon="10.975820403546095">
        <ele>110.208251953125</ele>
        <time>2003-11-23T10:52:03Z</time>
      </trkpt>
      <trkpt lat="43.945278385654092" lon="10.975828533992171">
        <ele>109.7276611328125</ele>
        <time>2003-11-23T10:52:04Z</time>
      </trkpt>
      <trkpt lat="43.94518836401403" lon="10.975835071876645">
        <ele>108.7662353515625</ele>
        <time>2003-11-23T10:52:05Z</time>
      </trkpt>
      <trkpt lat="43.945094235241413" lon="10.975842364132404">
        <ele>108.7662353515625</ele>
        <time>2003-11-23T10:52:06Z</time>
      </trkpt>
      <trkpt lat="43.944912599399686" lon="10.975855775177479">
        <ele>107.3243408203125</ele>
        <time>2003-11-23T10:52:08Z</time>
      </trkpt>
      <trkpt lat="43.944728448987007" lon="10.975866923108697">
        <ele>105.4017333984375</ele>
        <time>2003-11-23T10:52:10Z</time>
      </trkpt>
      <trkpt lat="43.944551339372993" lon="10.975884106010199">
        <ele>104.4404296875</ele>
        <time>2003-11-23T10:52:12Z</time>
      </trkpt>
      <trkpt lat="43.944385293871164" lon="10.975894751027226">
        <ele>102.5177001953125</ele>
        <time>2003-11-23T10:52:14Z</time>
      </trkpt>
      <trkpt lat="43.944227127358317" lon="10.975912269204855">
        <ele>102.037109375</ele>
        <time>2003-11-23T10:52:16Z</time>
      </trkpt>
      <trkpt lat="43.944080527871847" lon="10.975922495126724">
        <ele>101.556396484375</ele>
        <time>2003-11-23T10:52:18Z</time>
      </trkpt>
      <trkpt lat="43.943963767960668" lon="10.975924590602517">
        <ele>100.5950927734375</ele>
        <time>2003-11-23T10:52:20Z</time>
      </trkpt>
      <trkpt lat="43.943874165415764" lon="10.97587245516479">
        <ele>99.6337890625</ele>
        <time>2003-11-23T10:52:23Z</time>
      </trkpt>
      <trkpt lat="43.943790094926953" lon="10.975813278928399">
        <ele>99.153076171875</ele>
        <time>2003-11-23T10:52:26Z</time>
      </trkpt>
      <trkpt lat="43.943710047751665" lon="10.975885614752769">
        <ele>99.6337890625</ele>
        <time>2003-11-23T10:52:29Z</time>
      </trkpt>
      <trkpt lat="43.943625474348664" lon="10.97597798332572">
        <ele>99.6337890625</ele>
        <time>2003-11-23T10:52:32Z</time>
      </trkpt>
      <trkpt lat="43.943510223180056" lon="10.975992567837238">
        <ele>99.153076171875</ele>
        <time>2003-11-23T10:52:35Z</time>
      </trkpt>
      <trkpt lat="43.943381225690246" lon="10.976000111550093">
        <ele>98.6724853515625</ele>
        <time>2003-11-23T10:52:38Z</time>
      </trkpt>
      <trkpt lat="43.94324610941112" lon="10.976003464311361">
        <ele>99.153076171875</ele>
        <time>2003-11-23T10:52:41Z</time>
      </trkpt>
      <trkpt lat="43.943154662847519" lon="10.976001201197505">
        <ele>98.6724853515625</ele>
        <time>2003-11-23T10:52:43Z</time>
      </trkpt>
      <trkpt lat="43.943062126636505" lon="10.9760048892349">
        <ele>98.6724853515625</ele>
        <time>2003-11-23T10:52:45Z</time>
      </trkpt>
      <trkpt lat="43.942972691729665" lon="10.97601025365293">
        <ele>98.6724853515625</ele>
        <time>2003-11-23T10:52:47Z</time>
      </trkpt>
      <trkpt lat="43.942862721160054" lon="10.976007990539074">
        <ele>98.6724853515625</ele>
        <time>2003-11-23T10:52:50Z</time>
      </trkpt>
      <trkpt lat="43.94277554936707" lon="10.976002542302012">
        <ele>98.6724853515625</ele>
        <time>2003-11-23T10:52:55Z</time>
      </trkpt>
      <trkpt lat="43.942691730335355" lon="10.975926015526056">
        <ele>96.7498779296875</ele>
        <time>2003-11-23T10:53:01Z</time>
      </trkpt>
      <trkpt lat="43.942610844969749" lon="10.975811937823892">
        <ele>95.7884521484375</ele>
        <time>2003-11-23T10:53:04Z</time>
      </trkpt>
      <trkpt lat="43.942543286830187" lon="10.975668607279658">
        <ele>94.8271484375</ele>
        <time>2003-11-23T10:53:07Z</time>
      </trkpt>
      <trkpt lat="43.942506825551391" lon="10.975567102432251">
        <ele>93.3851318359375</ele>
        <time>2003-11-23T10:53:10Z</time>
      </trkpt>
      <trkpt lat="43.942441362887621" lon="10.975472638383508">
        <ele>91.9432373046875</ele>
        <time>2003-11-23T10:53:38Z</time>
      </trkpt>
      <trkpt lat="43.942341115325689" lon="10.975478840991855">
        <ele>93.3851318359375</ele>
        <time>2003-11-23T10:53:43Z</time>
      </trkpt>
      <trkpt lat="43.942232988774776" lon="10.975438943132758">
        <ele>93.3851318359375</ele>
        <time>2003-11-23T10:53:49Z</time>
      </trkpt>
      <trkpt lat="43.942132908850908" lon="10.975404996424913">
        <ele>92.4239501953125</ele>
        <time>2003-11-23T10:53:53Z</time>
      </trkpt>
      <trkpt lat="43.942015143111348" lon="10.975360823795199">
        <ele>91.4625244140625</ele>
        <time>2003-11-23T10:53:57Z</time>
      </trkpt>
      <trkpt lat="43.941903579980135" lon="10.975312376394868">
        <ele>90.5013427734375</ele>
        <time>2003-11-23T10:54:00Z</time>
      </trkpt>
      <trkpt lat="43.941806852817535" lon="10.975271724164486">
        <ele>89.059326171875</ele>
        <time>2003-11-23T10:54:03Z</time>
      </trkpt>
      <trkpt lat="43.941714400425553" lon="10.975233670324087">
        <ele>88.5787353515625</ele>
        <time>2003-11-23T10:54:06Z</time>
      </trkpt>
      <trkpt lat="43.941618679091334" lon="10.975201735273004">
        <ele>88.0980224609375</ele>
        <time>2003-11-23T10:54:09Z</time>
      </trkpt>
      <trkpt lat="43.9415168389678" lon="10.975166615098715">
        <ele>87.1365966796875</ele>
        <time>2003-11-23T10:54:12Z</time>
      </trkpt>
      <trkpt lat="43.941396307200193" lon="10.975135853514075">
        <ele>86.17529296875</ele>
        <time>2003-11-23T10:54:15Z</time>
      </trkpt>
      <trkpt lat="43.941265968605876" lon="10.97511020489037">
        <ele>86.17529296875</ele>
        <time>2003-11-23T10:54:18Z</time>
      </trkpt>
      <trkpt lat="43.941167397424579" lon="10.975098637863994">
        <ele>86.17529296875</ele>
        <time>2003-11-23T10:54:20Z</time>
      </trkpt>
      <trkpt lat="43.941064719110727" lon="10.975089333951473">
        <ele>85.694580078125</ele>
        <time>2003-11-23T10:54:22Z</time>
      </trkpt>
      <trkpt lat="43.940959861502051" lon="10.975079191848636">
        <ele>85.694580078125</ele>
        <time>2003-11-23T10:54:24Z</time>
      </trkpt>
      <trkpt lat="43.940855255350471" lon="10.975071229040623">
        <ele>85.694580078125</ele>
        <time>2003-11-23T10:54:26Z</time>
      </trkpt>
      <trkpt lat="43.940750397741795" lon="10.9750603325665">
        <ele>85.2139892578125</ele>
        <time>2003-11-23T10:54:28Z</time>
      </trkpt>
      <trkpt lat="43.940644953399897" lon="10.975048681721091">
        <ele>84.252685546875</ele>
        <time>2003-11-23T10:54:30Z</time>
      </trkpt>
      <trkpt lat="43.940538503229618" lon="10.975044406950474">
        <ele>84.252685546875</ele>
        <time>2003-11-23T10:54:32Z</time>
      </trkpt>
      <trkpt lat="43.940429203212261" lon="10.975038874894381">
        <ele>83.2913818359375</ele>
        <time>2003-11-23T10:54:34Z</time>
      </trkpt>
      <trkpt lat="43.940317807719111" lon="10.975028062239289">
        <ele>83.2913818359375</ele>
        <time>2003-11-23T10:54:36Z</time>
      </trkpt>
      <trkpt lat="43.940205071121454" lon="10.975011549890041">
        <ele>82.330078125</ele>
        <time>2003-11-23T10:54:38Z</time>
      </trkpt>
      <trkpt lat="43.94008956849575" lon="10.974996378645301">
        <ele>81.849365234375</ele>
        <time>2003-11-23T10:54:40Z</time>
      </trkpt>
      <trkpt lat="43.939969539642334" lon="10.974975088611245">
        <ele>80.88818359375</ele>
        <time>2003-11-23T10:54:42Z</time>
      </trkpt>
      <trkpt lat="43.939849929884076" lon="10.974950110539794">
        <ele>81.3687744140625</ele>
        <time>2003-11-23T10:54:44Z</time>
      </trkpt>
      <trkpt lat="43.939726548269391" lon="10.974919935688376">
        <ele>80.88818359375</ele>
        <time>2003-11-23T10:54:46Z</time>
      </trkpt>
      <trkpt lat="43.939600400626659" lon="10.974887916818261">
        <ele>80.407470703125</ele>
        <time>2003-11-23T10:54:48Z</time>
      </trkpt>
      <trkpt lat="43.939471319317818" lon="10.974854724481702">
        <ele>79.9266357421875</ele>
        <time>2003-11-23T10:54:50Z</time>
      </trkpt>
      <trkpt lat="43.939341232180595" lon="10.974820861592889">
        <ele>79.446044921875</ele>
        <time>2003-11-23T10:54:52Z</time>
      </trkpt>
      <trkpt lat="43.939211899414659" lon="10.974787836894393">
        <ele>79.446044921875</ele>
        <time>2003-11-23T10:54:54Z</time>
      </trkpt>
      <trkpt lat="43.939080471172929" lon="10.974755231291056">
        <ele>78.9654541015625</ele>
        <time>2003-11-23T10:54:56Z</time>
      </trkpt>
      <trkpt lat="43.938949462026358" lon="10.974720027297735">
        <ele>78.9654541015625</ele>
        <time>2003-11-23T10:54:58Z</time>
      </trkpt>
      <trkpt lat="43.938819542527199" lon="10.974687254056334">
        <ele>77.5234375</ele>
        <time>2003-11-23T10:55:00Z</time>
      </trkpt>
      <trkpt lat="43.938687527552247" lon="10.974640315398574">
        <ele>77.5234375</ele>
        <time>2003-11-23T10:55:02Z</time>
      </trkpt>
      <trkpt lat="43.938558613881469" lon="10.974571080878377">
        <ele>77.0428466796875</ele>
        <time>2003-11-23T10:55:04Z</time>
      </trkpt>
      <trkpt lat="43.938439758494496" lon="10.974472677335143">
        <ele>76.5621337890625</ele>
        <time>2003-11-23T10:55:06Z</time>
      </trkpt>
      <trkpt lat="43.938326435163617" lon="10.97436941228807">
        <ele>75.600830078125</ele>
        <time>2003-11-23T10:55:08Z</time>
      </trkpt>
      <trkpt lat="43.938218308612704" lon="10.974262878298759">
        <ele>75.1202392578125</ele>
        <time>2003-11-23T10:55:10Z</time>
      </trkpt>
      <trkpt lat="43.938112612813711" lon="10.974157098680735">
        <ele>74.6395263671875</ele>
        <time>2003-11-23T10:55:12Z</time>
      </trkpt>
      <trkpt lat="43.938007336109877" lon="10.974054504185915">
        <ele>74.6395263671875</ele>
        <time>2003-11-23T10:55:14Z</time>
      </trkpt>
      <trkpt lat="43.937899544835091" lon="10.973952747881413">
        <ele>73.67822265625</ele>
        <time>2003-11-23T10:55:16Z</time>
      </trkpt>
      <trkpt lat="43.937789238989353" lon="10.973869683220983">
        <ele>73.67822265625</ele>
        <time>2003-11-23T10:55:18Z</time>
      </trkpt>
      <trkpt lat="43.937671976163983" lon="10.973805226385593">
        <ele>73.67822265625</ele>
        <time>2003-11-23T10:55:20Z</time>
      </trkpt>
      <trkpt lat="43.937543397769332" lon="10.973757784813643">
        <ele>72.7169189453125</ele>
        <time>2003-11-23T10:55:22Z</time>
      </trkpt>
      <trkpt lat="43.937410796061158" lon="10.97370975650847">
        <ele>72.2362060546875</ele>
        <time>2003-11-23T10:55:24Z</time>
      </trkpt>
      <trkpt lat="43.937289342284203" lon="10.973669774830341">
        <ele>71.7554931640625</ele>
        <time>2003-11-23T10:55:26Z</time>
      </trkpt>
      <trkpt lat="43.93717928789556" lon="10.97363255918026">
        <ele>71.27490234375</ele>
        <time>2003-11-23T10:55:28Z</time>
      </trkpt>
      <trkpt lat="43.937069401144981" lon="10.973592828959227">
        <ele>70.794189453125</ele>
        <time>2003-11-23T10:55:30Z</time>
      </trkpt>
      <trkpt lat="43.936959514394403" lon="10.973553517833352">
        <ele>69.8328857421875</ele>
        <time>2003-11-23T10:55:32Z</time>
      </trkpt>
      <trkpt lat="43.936847951263189" lon="10.973517140373588">
        <ele>69.8328857421875</ele>
        <time>2003-11-23T10:55:34Z</time>
      </trkpt>
      <trkpt lat="43.936737813055515" lon="10.973482439294457">
        <ele>69.352294921875</ele>
        <time>2003-11-23T10:55:36Z</time>
      </trkpt>
      <trkpt lat="43.936627926304936" lon="10.97345519810915">
        <ele>68.87158203125</ele>
        <time>2003-11-23T10:55:38Z</time>
      </trkpt>
      <trkpt lat="43.936518877744675" lon="10.973434997722507">
        <ele>69.352294921875</ele>
        <time>2003-11-23T10:55:40Z</time>
      </trkpt>
      <trkpt lat="43.93640723079443" lon="10.973417647182941">
        <ele>69.352294921875</ele>
        <time>2003-11-23T10:55:42Z</time>
      </trkpt>
      <trkpt lat="43.936294410377741" lon="10.973400799557567">
        <ele>68.390869140625</ele>
        <time>2003-11-23T10:55:44Z</time>
      </trkpt>
      <trkpt lat="43.936180248856544" lon="10.973384203389287">
        <ele>68.390869140625</ele>
        <time>2003-11-23T10:55:46Z</time>
      </trkpt>
      <trkpt lat="43.936067763715982" lon="10.973364589735866">
        <ele>68.390869140625</ele>
        <time>2003-11-23T10:55:48Z</time>
      </trkpt>
      <trkpt lat="43.935954608023167" lon="10.973342880606651">
        <ele>68.390869140625</ele>
        <time>2003-11-23T10:55:50Z</time>
      </trkpt>
      <trkpt lat="43.935842961072922" lon="10.97331153228879">
        <ele>68.390869140625</ele>
        <time>2003-11-23T10:55:52Z</time>
      </trkpt>
      <trkpt lat="43.935729889199138" lon="10.9732661023736">
        <ele>67.4296875</ele>
        <time>2003-11-23T10:55:54Z</time>
      </trkpt>
      <trkpt lat="43.935627629980445" lon="10.973220588639379">
        <ele>67.4296875</ele>
        <time>2003-11-23T10:55:56Z</time>
      </trkpt>
      <trkpt lat="43.935527801513672" lon="10.973165519535542">
        <ele>67.9102783203125</ele>
        <time>2003-11-23T10:55:58Z</time>
      </trkpt>
      <trkpt lat="43.93542948178947" lon="10.973108438774943">
        <ele>67.4296875</ele>
        <time>2003-11-23T10:56:00Z</time>
      </trkpt>
      <trkpt lat="43.935329569503665" lon="10.973052531480789">
        <ele>67.4296875</ele>
        <time>2003-11-23T10:56:02Z</time>
      </trkpt>
      <trkpt lat="43.935229573398829" lon="10.972992852330208">
        <ele>67.9102783203125</ele>
        <time>2003-11-23T10:56:04Z</time>
      </trkpt>
      <trkpt lat="43.935128739103675" lon="10.972934011369944">
        <ele>67.4296875</ele>
        <time>2003-11-23T10:56:06Z</time>
      </trkpt>
      <trkpt lat="43.935026563704014" lon="10.972881792113185">
        <ele>66.948974609375</ele>
        <time>2003-11-23T10:56:08Z</time>
      </trkpt>
      <trkpt lat="43.934925813227892" lon="10.972828064113855">
        <ele>67.4296875</ele>
        <time>2003-11-23T10:56:10Z</time>
      </trkpt>
      <trkpt lat="43.93482506275177" lon="10.972777018323541">
        <ele>66.948974609375</ele>
        <time>2003-11-23T10:56:12Z</time>
      </trkpt>
      <trkpt lat="43.934724479913712" lon="10.972727984189987">
        <ele>66.948974609375</ele>
        <time>2003-11-23T10:56:14Z</time>
      </trkpt>
      <trkpt lat="43.934624819085002" lon="10.972679452970624">
        <ele>66.46826171875</ele>
        <time>2003-11-23T10:56:16Z</time>
      </trkpt>
      <trkpt lat="43.934523481875658" lon="10.972633101046085">
        <ele>66.46826171875</ele>
        <time>2003-11-23T10:56:18Z</time>
      </trkpt>
      <trkpt lat="43.934420635923743" lon="10.972595885396004">
        <ele>66.46826171875</ele>
        <time>2003-11-23T10:56:20Z</time>
      </trkpt>
      <trkpt lat="43.934316281229258" lon="10.972565459087491">
        <ele>65.9876708984375</ele>
        <time>2003-11-23T10:56:22Z</time>
      </trkpt>
      <trkpt lat="43.934209914878011" lon="10.972540816292167">
        <ele>65.9876708984375</ele>
        <time>2003-11-23T10:56:24Z</time>
      </trkpt>
      <trkpt lat="43.934099357575178" lon="10.972523465752602">
        <ele>65.507080078125</ele>
        <time>2003-11-23T10:56:26Z</time>
      </trkpt>
      <trkpt lat="43.933982513844967" lon="10.972515251487494">
        <ele>65.507080078125</ele>
        <time>2003-11-23T10:56:28Z</time>
      </trkpt>
      <trkpt lat="43.93386734649539" lon="10.972502930089831">
        <ele>65.0263671875</ele>
        <time>2003-11-23T10:56:30Z</time>
      </trkpt>
      <trkpt lat="43.933755615726113" lon="10.972495889291167">
        <ele>65.0263671875</ele>
        <time>2003-11-23T10:56:32Z</time>
      </trkpt>
      <trkpt lat="43.933648411184549" lon="10.972486920654774">
        <ele>64.545654296875</ele>
        <time>2003-11-23T10:56:34Z</time>
      </trkpt>
      <trkpt lat="43.933542631566525" lon="10.972481891512871">
        <ele>64.545654296875</ele>
        <time>2003-11-23T10:56:36Z</time>
      </trkpt>
      <trkpt lat="43.933430397883058" lon="10.972500499337912">
        <ele>64.545654296875</ele>
        <time>2003-11-23T10:56:38Z</time>
      </trkpt>
      <trkpt lat="43.933325791731477" lon="10.972482981160283">
        <ele>64.545654296875</ele>
        <time>2003-11-23T10:56:40Z</time>
      </trkpt>
      <trkpt lat="43.933215318247676" lon="10.97246278077364">
        <ele>64.545654296875</ele>
        <time>2003-11-23T10:56:42Z</time>
      </trkpt>
      <trkpt lat="43.933110460639" lon="10.972451213747263">
        <ele>64.0650634765625</ele>
        <time>2003-11-23T10:56:44Z</time>
      </trkpt>
      <trkpt lat="43.933005267754197" lon="10.972434701398015">
        <ele>63.5843505859375</ele>
        <time>2003-11-23T10:56:46Z</time>
      </trkpt>
      <trkpt lat="43.932903176173568" lon="10.972414668649435">
        <ele>63.5843505859375</ele>
        <time>2003-11-23T10:56:48Z</time>
      </trkpt>
      <trkpt lat="43.932803766801953" lon="10.972400838509202">
        <ele>63.5843505859375</ele>
        <time>2003-11-23T10:56:50Z</time>
      </trkpt>
      <trkpt lat="43.932701842859387" lon="10.972401341423392">
        <ele>63.1036376953125</ele>
        <time>2003-11-23T10:56:52Z</time>
      </trkpt>
      <trkpt lat="43.932598326355219" lon="10.972397150471807">
        <ele>63.1036376953125</ele>
        <time>2003-11-23T10:56:54Z</time>
      </trkpt>
      <trkpt lat="43.932485170662403" lon="10.972348200157285">
        <ele>62.6229248046875</ele>
        <time>2003-11-23T10:56:56Z</time>
      </trkpt>
      <trkpt lat="43.932377211749554" lon="10.972295729443431">
        <ele>62.6229248046875</ele>
        <time>2003-11-23T10:56:58Z</time>
      </trkpt>
      <trkpt lat="43.932264894247055" lon="10.972245940938592">
        <ele>62.6229248046875</ele>
        <time>2003-11-23T10:57:00Z</time>
      </trkpt>
      <trkpt lat="43.932160623371601" lon="10.972197577357292">
        <ele>62.142333984375</ele>
        <time>2003-11-23T10:57:02Z</time>
      </trkpt>
      <trkpt lat="43.932059956714511" lon="10.972151812165976">
        <ele>62.142333984375</ele>
        <time>2003-11-23T10:57:04Z</time>
      </trkpt>
      <trkpt lat="43.931965073570609" lon="10.972106382250786">
        <ele>62.6229248046875</ele>
        <time>2003-11-23T10:57:06Z</time>
      </trkpt>
      <trkpt lat="43.931876728311181" lon="10.972058018669486">
        <ele>62.6229248046875</ele>
        <time>2003-11-23T10:57:08Z</time>
      </trkpt>
      <trkpt lat="43.931788802146912" lon="10.971953077241778">
        <ele>61.6617431640625</ele>
        <time>2003-11-23T10:57:11Z</time>
      </trkpt>
      <trkpt lat="43.931783940643072" lon="10.971820140257478">
        <ele>61.6617431640625</ele>
        <time>2003-11-23T10:57:14Z</time>
      </trkpt>
      <trkpt lat="43.931838506832719" lon="10.971683347597718">
        <ele>61.6617431640625</ele>
        <time>2003-11-23T10:57:17Z</time>
      </trkpt>
      <trkpt lat="43.93190111964941" lon="10.971553847193718">
        <ele>61.6617431640625</ele>
        <time>2003-11-23T10:57:20Z</time>
      </trkpt>
      <trkpt lat="43.931968174874783" lon="10.971415629610419">
        <ele>62.142333984375</ele>
        <time>2003-11-23T10:57:23Z</time>
      </trkpt>
      <trkpt lat="43.932033721357584" lon="10.971273807808757">
        <ele>62.142333984375</ele>
        <time>2003-11-23T10:57:26Z</time>
      </trkpt>
      <trkpt lat="43.932104296982288" lon="10.971131566911936">
        <ele>61.6617431640625</ele>
        <time>2003-11-23T10:57:29Z</time>
      </trkpt>
      <trkpt lat="43.932177806273103" lon="10.970967784523964">
        <ele>62.142333984375</ele>
        <time>2003-11-23T10:57:32Z</time>
      </trkpt>
      <trkpt lat="43.932241257280111" lon="10.970804002135992">
        <ele>61.6617431640625</ele>
        <time>2003-11-23T10:57:35Z</time>
      </trkpt>
      <trkpt lat="43.932278472930193" lon="10.970622785389423">
        <ele>62.142333984375</ele>
        <time>2003-11-23T10:57:38Z</time>
      </trkpt>
      <trkpt lat="43.932286687195301" lon="10.970488423481584">
        <ele>62.142333984375</ele>
        <time>2003-11-23T10:57:40Z</time>
      </trkpt>
      <trkpt lat="43.932307474315166" lon="10.970356408506632">
        <ele>62.142333984375</ele>
        <time>2003-11-23T10:57:42Z</time>
      </trkpt>
      <trkpt lat="43.932332620024681" lon="10.970169408246875">
        <ele>62.142333984375</ele>
        <time>2003-11-23T10:57:45Z</time>
      </trkpt>
      <trkpt lat="43.932352652773261" lon="10.969990789890289">
        <ele>62.6229248046875</ele>
        <time>2003-11-23T10:57:48Z</time>
      </trkpt>
      <trkpt lat="43.932360867038369" lon="10.969836479052901">
        <ele>63.1036376953125</ele>
        <time>2003-11-23T10:57:51Z</time>
      </trkpt>
      <trkpt lat="43.932367824018002" lon="10.96966297365725">
        <ele>63.1036376953125</ele>
        <time>2003-11-23T10:57:54Z</time>
      </trkpt>
      <trkpt lat="43.932378636673093" lon="10.969472117722034">
        <ele>63.1036376953125</ele>
        <time>2003-11-23T10:57:57Z</time>
      </trkpt>
      <trkpt lat="43.93238291144371" lon="10.969287548214197">
        <ele>63.1036376953125</ele>
        <time>2003-11-23T10:58:00Z</time>
      </trkpt>
      <trkpt lat="43.932388443499804" lon="10.96910691820085">
        <ele>62.6229248046875</ele>
        <time>2003-11-23T10:58:03Z</time>
      </trkpt>
      <trkpt lat="43.932384252548218" lon="10.968928383663297">
        <ele>62.6229248046875</ele>
        <time>2003-11-23T10:58:06Z</time>
      </trkpt>
      <trkpt lat="43.932393388822675" lon="10.968741048127413">
        <ele>63.1036376953125</ele>
        <time>2003-11-23T10:58:09Z</time>
      </trkpt>
      <trkpt lat="43.932398837059736" lon="10.968613307923079">
        <ele>62.6229248046875</ele>
        <time>2003-11-23T10:58:11Z</time>
      </trkpt>
      <trkpt lat="43.932405542582273" lon="10.968491602689028">
        <ele>62.6229248046875</ele>
        <time>2003-11-23T10:58:13Z</time>
      </trkpt>
      <trkpt lat="43.932408476248384" lon="10.968308206647635">
        <ele>62.6229248046875</ele>
        <time>2003-11-23T10:58:16Z</time>
      </trkpt>
      <trkpt lat="43.932402608916163" lon="10.968138305470347">
        <ele>62.6229248046875</ele>
        <time>2003-11-23T10:58:19Z</time>
      </trkpt>
      <trkpt lat="43.932374361902475" lon="10.968013582751155">
        <ele>63.1036376953125</ele>
        <time>2003-11-23T10:58:22Z</time>
      </trkpt>
      <trkpt lat="43.932298086583614" lon="10.967896906659007">
        <ele>63.5843505859375</ele>
        <time>2003-11-23T10:58:26Z</time>
      </trkpt>
      <trkpt lat="43.932210495695472" lon="10.96783840097487">
        <ele>65.507080078125</ele>
        <time>2003-11-23T10:58:30Z</time>
      </trkpt>
      <trkpt lat="43.932130532339215" lon="10.967738488689065">
        <ele>65.507080078125</ele>
        <time>2003-11-23T10:58:35Z</time>
      </trkpt>
      <trkpt lat="43.932184427976608" lon="10.967608569189906">
        <ele>64.545654296875</ele>
        <time>2003-11-23T10:58:39Z</time>
      </trkpt>
      <trkpt lat="43.932244526222348" lon="10.967503124848008">
        <ele>65.0263671875</ele>
        <time>2003-11-23T10:59:13Z</time>
      </trkpt>
      <trkpt lat="43.932298254221678" lon="10.967377312481403">
        <ele>65.507080078125</ele>
        <time>2003-11-23T10:59:30Z</time>
      </trkpt>
      <trkpt lat="43.932341421023011" lon="10.967252757400274">
        <ele>65.0263671875</ele>
        <time>2003-11-23T10:59:35Z</time>
      </trkpt>
      <trkpt lat="43.932384001091123" lon="10.967143038287759">
        <ele>65.0263671875</ele>
        <time>2003-11-23T10:59:39Z</time>
      </trkpt>
      <trkpt lat="43.932437393814325" lon="10.967024685814977">
        <ele>65.0263671875</ele>
        <time>2003-11-23T10:59:43Z</time>
      </trkpt>
      <trkpt lat="43.932488607242703" lon="10.966902477666736">
        <ele>65.0263671875</ele>
        <time>2003-11-23T10:59:47Z</time>
      </trkpt>
      <trkpt lat="43.932540155947208" lon="10.966782029718161">
        <ele>64.545654296875</ele>
        <time>2003-11-23T10:59:51Z</time>
      </trkpt>
      <trkpt lat="43.932588854804635" lon="10.966668957844377">
        <ele>65.507080078125</ele>
        <time>2003-11-23T10:59:55Z</time>
      </trkpt>
      <trkpt lat="43.932635290548205" lon="10.966549683362246">
        <ele>65.0263671875</ele>
        <time>2003-11-23T10:59:59Z</time>
      </trkpt>
      <trkpt lat="43.932686001062393" lon="10.966431498527527">
        <ele>65.507080078125</ele>
        <time>2003-11-23T11:00:03Z</time>
      </trkpt>
      <trkpt lat="43.932742411270738" lon="10.966294873505831">
        <ele>65.507080078125</ele>
        <time>2003-11-23T11:00:07Z</time>
      </trkpt>
      <trkpt lat="43.932781554758549" lon="10.96618146635592">
        <ele>65.507080078125</ele>
        <time>2003-11-23T11:00:10Z</time>
      </trkpt>
      <trkpt lat="43.932826397940516" lon="10.966059006750584">
        <ele>65.507080078125</ele>
        <time>2003-11-23T11:00:13Z</time>
      </trkpt>
      <trkpt lat="43.932875096797943" lon="10.965935541316867">
        <ele>65.507080078125</ele>
        <time>2003-11-23T11:00:16Z</time>
      </trkpt>
      <trkpt lat="43.932922957465053" lon="10.965813668444753">
        <ele>65.507080078125</ele>
        <time>2003-11-23T11:00:19Z</time>
      </trkpt>
      <trkpt lat="43.932968974113464" lon="10.965688275173306">
        <ele>65.9876708984375</ele>
        <time>2003-11-23T11:00:22Z</time>
      </trkpt>
      <trkpt lat="43.933017589151859" lon="10.965568916872144">
        <ele>65.9876708984375</ele>
        <time>2003-11-23T11:00:25Z</time>
      </trkpt>
      <trkpt lat="43.9330620970577" lon="10.965461879968643">
        <ele>65.9876708984375</ele>
        <time>2003-11-23T11:00:28Z</time>
      </trkpt>
      <trkpt lat="43.933106353506446" lon="10.965359369292855">
        <ele>65.9876708984375</ele>
        <time>2003-11-23T11:00:32Z</time>
      </trkpt>
      <trkpt lat="43.933154046535492" lon="10.965242860838771">
        <ele>66.948974609375</ele>
        <time>2003-11-23T11:00:39Z</time>
      </trkpt>
      <trkpt lat="43.933219760656357" lon="10.965140098705888">
        <ele>66.46826171875</ele>
        <time>2003-11-23T11:00:44Z</time>
      </trkpt>
      <trkpt lat="43.933290420100093" lon="10.965047646313906">
        <ele>66.948974609375</ele>
        <time>2003-11-23T11:00:48Z</time>
      </trkpt>
      <trkpt lat="43.933382285758853" lon="10.964947901666164">
        <ele>66.948974609375</ele>
        <time>2003-11-23T11:00:52Z</time>
      </trkpt>
      <trkpt lat="43.933459650725126" lon="10.964869530871511">
        <ele>67.4296875</ele>
        <time>2003-11-23T11:00:55Z</time>
      </trkpt>
      <trkpt lat="43.933538105338812" lon="10.964793507009745">
        <ele>67.4296875</ele>
        <time>2003-11-23T11:00:58Z</time>
      </trkpt>
      <trkpt lat="43.933613374829292" lon="10.964722260832787">
        <ele>67.9102783203125</ele>
        <time>2003-11-23T11:01:01Z</time>
      </trkpt>
      <trkpt lat="43.933691577985883" lon="10.964650511741638">
        <ele>67.4296875</ele>
        <time>2003-11-23T11:01:04Z</time>
      </trkpt>
      <trkpt lat="43.933771792799234" lon="10.964578595012426">
        <ele>67.9102783203125</ele>
        <time>2003-11-23T11:01:07Z</time>
      </trkpt>
      <trkpt lat="43.933848403394222" lon="10.964514389634132">
        <ele>67.9102783203125</ele>
        <time>2003-11-23T11:01:10Z</time>
      </trkpt>
      <trkpt lat="43.933931132778525" lon="10.964447921141982">
        <ele>67.4296875</ele>
        <time>2003-11-23T11:01:13Z</time>
      </trkpt>
      <trkpt lat="43.934014029800892" lon="10.964379692450166">
        <ele>67.4296875</ele>
        <time>2003-11-23T11:01:16Z</time>
      </trkpt>
      <trkpt lat="43.934095753356814" lon="10.964304925873876">
        <ele>67.4296875</ele>
        <time>2003-11-23T11:01:19Z</time>
      </trkpt>
      <trkpt lat="43.9341742079705" lon="10.964228147640824">
        <ele>67.9102783203125</ele>
        <time>2003-11-23T11:01:22Z</time>
      </trkpt>
      <trkpt lat="43.934247633442283" lon="10.964141981676221">
        <ele>67.9102783203125</ele>
        <time>2003-11-23T11:01:25Z</time>
      </trkpt>
      <trkpt lat="43.934313347563148" lon="10.964059922844172">
        <ele>67.9102783203125</ele>
        <time>2003-11-23T11:01:28Z</time>
      </trkpt>
      <trkpt lat="43.934384090825915" lon="10.963958753272891">
        <ele>67.9102783203125</ele>
        <time>2003-11-23T11:01:33Z</time>
      </trkpt>
      <trkpt lat="43.934441171586514" lon="10.963846771046519">
        <ele>67.4296875</ele>
        <time>2003-11-23T11:01:39Z</time>
      </trkpt>
      <trkpt lat="43.934494564309716" lon="10.963722635060549">
        <ele>67.4296875</ele>
        <time>2003-11-23T11:01:43Z</time>
      </trkpt>
      <trkpt lat="43.934548543766141" lon="10.963593302294612">
        <ele>67.4296875</ele>
        <time>2003-11-23T11:01:47Z</time>
      </trkpt>
      <trkpt lat="43.934534462168813" lon="10.96363814547658">
        <ele>67.9102783203125</ele>
        <time>2003-11-23T11:05:15Z</time>
      </trkpt>
      <trkpt lat="43.934586932882667" lon="10.963482409715652">
        <ele>67.9102783203125</ele>
        <time>2003-11-23T11:05:19Z</time>
      </trkpt>
      <trkpt lat="43.934633871540427" lon="10.963344275951385">
        <ele>67.9102783203125</ele>
        <time>2003-11-23T11:05:22Z</time>
      </trkpt>
      <trkpt lat="43.934685504063964" lon="10.963196502998471">
        <ele>68.390869140625</ele>
        <time>2003-11-23T11:05:25Z</time>
      </trkpt>
      <trkpt lat="43.934739902615547" lon="10.963037330657244">
        <ele>68.87158203125</ele>
        <time>2003-11-23T11:05:28Z</time>
      </trkpt>
      <trkpt lat="43.934795474633574" lon="10.962872207164764">
        <ele>69.352294921875</ele>
        <time>2003-11-23T11:05:31Z</time>
      </trkpt>
      <trkpt lat="43.93485582433641" lon="10.96270046196878">
        <ele>68.87158203125</ele>
        <time>2003-11-23T11:05:34Z</time>
      </trkpt>
      <trkpt lat="43.934915168210864" lon="10.962583115324378">
        <ele>69.352294921875</ele>
        <time>2003-11-23T11:05:36Z</time>
      </trkpt>
      <trkpt lat="43.934980547055602" lon="10.962468450888991">
        <ele>68.390869140625</ele>
        <time>2003-11-23T11:05:38Z</time>
      </trkpt>
      <trkpt lat="43.935046596452594" lon="10.962355965748429">
        <ele>69.352294921875</ele>
        <time>2003-11-23T11:05:40Z</time>
      </trkpt>
      <trkpt lat="43.935115579515696" lon="10.962248425930738">
        <ele>69.352294921875</ele>
        <time>2003-11-23T11:05:42Z</time>
      </trkpt>
      <trkpt lat="43.93518372438848" lon="10.962144657969475">
        <ele>69.352294921875</ele>
        <time>2003-11-23T11:05:44Z</time>
      </trkpt>
      <trkpt lat="43.935249857604504" lon="10.962041141465306">
        <ele>69.352294921875</ele>
        <time>2003-11-23T11:05:46Z</time>
      </trkpt>
      <trkpt lat="43.93531515263021" lon="10.96194508485496">
        <ele>69.352294921875</ele>
        <time>2003-11-23T11:05:48Z</time>
      </trkpt>
      <trkpt lat="43.935404671356082" lon="10.961816674098372">
        <ele>69.352294921875</ele>
        <time>2003-11-23T11:05:51Z</time>
      </trkpt>
      <trkpt lat="43.93549544736743" lon="10.961705110967159">
        <ele>69.8328857421875</ele>
        <time>2003-11-23T11:05:54Z</time>
      </trkpt>
      <trkpt lat="43.935588235035539" lon="10.961608802899718">
        <ele>70.794189453125</ele>
        <time>2003-11-23T11:05:57Z</time>
      </trkpt>
      <trkpt lat="43.935662498697639" lon="10.961528001353145">
        <ele>70.3134765625</ele>
        <time>2003-11-23T11:06:00Z</time>
      </trkpt>
      <trkpt lat="43.93574858084321" lon="10.961418030783534">
        <ele>70.3134765625</ele>
        <time>2003-11-23T11:06:04Z</time>
      </trkpt>
      <trkpt lat="43.935824604704976" lon="10.961302947252989">
        <ele>70.3134765625</ele>
        <time>2003-11-23T11:06:08Z</time>
      </trkpt>
      <trkpt lat="43.935899203643203" lon="10.961182750761509">
        <ele>70.3134765625</ele>
        <time>2003-11-23T11:06:12Z</time>
      </trkpt>
      <trkpt lat="43.935965420678258" lon="10.961074875667691">
        <ele>70.3134765625</ele>
        <time>2003-11-23T11:06:15Z</time>
      </trkpt>
      <trkpt lat="43.936034822836518" lon="10.960953086614609">
        <ele>70.3134765625</ele>
        <time>2003-11-23T11:06:18Z</time>
      </trkpt>
      <trkpt lat="43.936104476451874" lon="10.960817467421293">
        <ele>70.3134765625</ele>
        <time>2003-11-23T11:06:21Z</time>
      </trkpt>
      <trkpt lat="43.936168933287263" lon="10.960659300908446">
        <ele>69.8328857421875</ele>
        <time>2003-11-23T11:06:24Z</time>
      </trkpt>
      <trkpt lat="43.936213022097945" lon="10.960543630644679">
        <ele>69.8328857421875</ele>
        <time>2003-11-23T11:06:26Z</time>
      </trkpt>
      <trkpt lat="43.936254177242517" lon="10.960425194352865">
        <ele>70.794189453125</ele>
        <time>2003-11-23T11:06:28Z</time>
      </trkpt>
      <trkpt lat="43.936300780624151" lon="10.9603076800704">
        <ele>69.8328857421875</ele>
        <time>2003-11-23T11:06:30Z</time>
      </trkpt>
      <trkpt lat="43.936355598270893" lon="10.96019578166306">
        <ele>70.3134765625</ele>
        <time>2003-11-23T11:06:32Z</time>
      </trkpt>
      <trkpt lat="43.936409996822476" lon="10.960085391998291">
        <ele>70.3134765625</ele>
        <time>2003-11-23T11:06:34Z</time>
      </trkpt>
      <trkpt lat="43.936464143916965" lon="10.959977935999632">
        <ele>70.794189453125</ele>
        <time>2003-11-23T11:06:36Z</time>
      </trkpt>
      <trkpt lat="43.936520554125309" lon="10.959885315969586">
        <ele>70.3134765625</ele>
        <time>2003-11-23T11:06:38Z</time>
      </trkpt>
      <trkpt lat="43.9365797303617" lon="10.959786912426353">
        <ele>70.794189453125</ele>
        <time>2003-11-23T11:06:40Z</time>
      </trkpt>
      <trkpt lat="43.936664974316955" lon="10.959637295454741">
        <ele>70.794189453125</ele>
        <time>2003-11-23T11:06:43Z</time>
      </trkpt>
      <trkpt lat="43.936748374253511" lon="10.959496814757586">
        <ele>70.794189453125</ele>
        <time>2003-11-23T11:06:46Z</time>
      </trkpt>
      <trkpt lat="43.936825236305594" lon="10.959365302696824">
        <ele>71.7554931640625</ele>
        <time>2003-11-23T11:06:49Z</time>
      </trkpt>
      <trkpt lat="43.936899751424789" lon="10.959247620776296">
        <ele>72.2362060546875</ele>
        <time>2003-11-23T11:06:52Z</time>
      </trkpt>
      <trkpt lat="43.936973428353667" lon="10.959143601357937">
        <ele>71.7554931640625</ele>
        <time>2003-11-23T11:06:55Z</time>
      </trkpt>
      <trkpt lat="43.937042914330959" lon="10.959041425958276">
        <ele>72.2362060546875</ele>
        <time>2003-11-23T11:06:58Z</time>
      </trkpt>
      <trkpt lat="43.937105108052492" lon="10.958945536985993">
        <ele>71.7554931640625</ele>
        <time>2003-11-23T11:07:01Z</time>
      </trkpt>
      <trkpt lat="43.937163529917598" lon="10.958854928612709">
        <ele>71.7554931640625</ele>
        <time>2003-11-23T11:07:04Z</time>
      </trkpt>
      <trkpt lat="43.937237374484539" lon="10.958735905587673">
        <ele>71.7554931640625</ele>
        <time>2003-11-23T11:07:08Z</time>
      </trkpt>
      <trkpt lat="43.937305854633451" lon="10.958609422668815">
        <ele>71.7554931640625</ele>
        <time>2003-11-23T11:07:12Z</time>
      </trkpt>
      <trkpt lat="43.937382129952312" lon="10.958477575331926">
        <ele>71.27490234375</ele>
        <time>2003-11-23T11:07:16Z</time>
      </trkpt>
      <trkpt lat="43.937440048903227" lon="10.958373555913568">
        <ele>71.7554931640625</ele>
        <time>2003-11-23T11:07:19Z</time>
      </trkpt>
      <trkpt lat="43.937508026137948" lon="10.958238355815411">
        <ele>71.7554931640625</ele>
        <time>2003-11-23T11:07:23Z</time>
      </trkpt>
      <trkpt lat="43.937562089413404" lon="10.958129223436117">
        <ele>71.7554931640625</ele>
        <time>2003-11-23T11:07:26Z</time>
      </trkpt>
      <trkpt lat="43.937618499621749" lon="10.958022773265839">
        <ele>72.2362060546875</ele>
        <time>2003-11-23T11:07:29Z</time>
      </trkpt>
      <trkpt lat="43.937677843496203" lon="10.957910791039467">
        <ele>71.7554931640625</ele>
        <time>2003-11-23T11:07:33Z</time>
      </trkpt>
      <trkpt lat="43.937750849872828" lon="10.957822529599071">
        <ele>71.7554931640625</ele>
        <time>2003-11-23T11:07:38Z</time>
      </trkpt>
      <trkpt lat="43.937757723033428" lon="10.957735441625118">
        <ele>70.3134765625</ele>
        <time>2003-11-23T11:08:03Z</time>
      </trkpt>
      <trkpt lat="43.937833914533257" lon="10.957593116909266">
        <ele>69.352294921875</ele>
        <time>2003-11-23T11:08:07Z</time>
      </trkpt>
      <trkpt lat="43.937919829040766" lon="10.957517344504595">
        <ele>69.352294921875</ele>
        <time>2003-11-23T11:08:10Z</time>
      </trkpt>
      <trkpt lat="43.937992583960295" lon="10.957468310371041">
        <ele>69.352294921875</ele>
        <time>2003-11-23T11:08:42Z</time>
      </trkpt>
      <trkpt lat="43.938076067715883" lon="10.957391113042831">
        <ele>68.87158203125</ele>
        <time>2003-11-23T11:08:46Z</time>
      </trkpt>
      <trkpt lat="43.938154857605696" lon="10.957313077524304">
        <ele>68.87158203125</ele>
        <time>2003-11-23T11:08:49Z</time>
      </trkpt>
      <trkpt lat="43.938235826790333" lon="10.957219954580069">
        <ele>69.352294921875</ele>
        <time>2003-11-23T11:08:52Z</time>
      </trkpt>
      <trkpt lat="43.938321825116873" lon="10.957133620977402">
        <ele>69.352294921875</ele>
        <time>2003-11-23T11:08:55Z</time>
      </trkpt>
      <trkpt lat="43.938406733796" lon="10.957038905471563">
        <ele>69.8328857421875</ele>
        <time>2003-11-23T11:08:58Z</time>
      </trkpt>
      <trkpt lat="43.938482422381639" lon="10.956933964043856">
        <ele>69.352294921875</ele>
        <time>2003-11-23T11:09:01Z</time>
      </trkpt>
      <trkpt lat="43.938546711578965" lon="10.956823406741023">
        <ele>70.3134765625</ele>
        <time>2003-11-23T11:09:04Z</time>
      </trkpt>
      <trkpt lat="43.938601613044739" lon="10.956693068146706">
        <ele>69.8328857421875</ele>
        <time>2003-11-23T11:09:07Z</time>
      </trkpt>
      <trkpt lat="43.938656849786639" lon="10.956572955474257">
        <ele>70.794189453125</ele>
        <time>2003-11-23T11:09:10Z</time>
      </trkpt>
      <trkpt lat="43.938709823414683" lon="10.956451753154397">
        <ele>70.3134765625</ele>
        <time>2003-11-23T11:09:13Z</time>
      </trkpt>
      <trkpt lat="43.938763551414013" lon="10.956333233043551">
        <ele>70.3134765625</ele>
        <time>2003-11-23T11:09:16Z</time>
      </trkpt>
      <trkpt lat="43.938819291070104" lon="10.956214293837547">
        <ele>70.794189453125</ele>
        <time>2003-11-23T11:09:19Z</time>
      </trkpt>
      <trkpt lat="43.938874695450068" lon="10.956093510612845">
        <ele>70.794189453125</ele>
        <time>2003-11-23T11:09:22Z</time>
      </trkpt>
      <trkpt lat="43.938935212790966" lon="10.955962920561433">
        <ele>70.794189453125</ele>
        <time>2003-11-23T11:09:25Z</time>
      </trkpt>
      <trkpt lat="43.938999501988292" lon="10.955820847302675">
        <ele>70.3134765625</ele>
        <time>2003-11-23T11:09:28Z</time>
      </trkpt>
      <trkpt lat="43.93906588666141" lon="10.955673158168793">
        <ele>71.27490234375</ele>
        <time>2003-11-23T11:09:31Z</time>
      </trkpt>
      <trkpt lat="43.939132355153561" lon="10.955520775169134">
        <ele>70.794189453125</ele>
        <time>2003-11-23T11:09:34Z</time>
      </trkpt>
      <trkpt lat="43.939201757311821" lon="10.955369230359793">
        <ele>70.794189453125</ele>
        <time>2003-11-23T11:09:37Z</time>
      </trkpt>
      <trkpt lat="43.939265795052052" lon="10.955222379416227">
        <ele>71.27490234375</ele>
        <time>2003-11-23T11:09:40Z</time>
      </trkpt>
      <trkpt lat="43.939330000430346" lon="10.955077288672328">
        <ele>70.794189453125</ele>
        <time>2003-11-23T11:09:43Z</time>
      </trkpt>
      <trkpt lat="43.939402922987938" lon="10.954940663650632">
        <ele>70.794189453125</ele>
        <time>2003-11-23T11:09:46Z</time>
      </trkpt>
      <trkpt lat="43.93947777338326" lon="10.954825999215245">
        <ele>70.794189453125</ele>
        <time>2003-11-23T11:09:49Z</time>
      </trkpt>
      <trkpt lat="43.93955203704536" lon="10.954730780795217">
        <ele>71.27490234375</ele>
        <time>2003-11-23T11:09:52Z</time>
      </trkpt>
      <trkpt lat="43.939624121412635" lon="10.954642267897725">
        <ele>72.2362060546875</ele>
        <time>2003-11-23T11:09:55Z</time>
      </trkpt>
      <trkpt lat="43.939699977636337" lon="10.954574039205909">
        <ele>73.1976318359375</ele>
        <time>2003-11-23T11:09:58Z</time>
      </trkpt>
      <trkpt lat="43.939795028418303" lon="10.954499440267682">
        <ele>73.1976318359375</ele>
        <time>2003-11-23T11:10:01Z</time>
      </trkpt>
      <trkpt lat="43.939896449446678" lon="10.954415621235967">
        <ele>73.1976318359375</ele>
        <time>2003-11-23T11:10:04Z</time>
      </trkpt>
      <trkpt lat="43.940008264034986" lon="10.954326940700412">
        <ele>72.7169189453125</ele>
        <time>2003-11-23T11:10:07Z</time>
      </trkpt>
      <trkpt lat="43.940111445263028" lon="10.954233482480049">
        <ele>75.600830078125</ele>
        <time>2003-11-23T11:10:10Z</time>
      </trkpt>
      <trkpt lat="43.940187217667699" lon="10.954171204939485">
        <ele>74.1588134765625</ele>
        <time>2003-11-23T11:10:12Z</time>
      </trkpt>
      <trkpt lat="43.940261397510767" lon="10.954102473333478">
        <ele>73.1976318359375</ele>
        <time>2003-11-23T11:10:14Z</time>
      </trkpt>
      <trkpt lat="43.940357454121113" lon="10.953986132517457">
        <ele>73.67822265625</ele>
        <time>2003-11-23T11:10:17Z</time>
      </trkpt>
      <trkpt lat="43.940438674762845" lon="10.953844897449017">
        <ele>73.67822265625</ele>
        <time>2003-11-23T11:10:20Z</time>
      </trkpt>
      <trkpt lat="43.940524505451322" lon="10.953682875260711">
        <ele>73.1976318359375</ele>
        <time>2003-11-23T11:10:23Z</time>
      </trkpt>
      <trkpt lat="43.940579909831285" lon="10.95357047393918">
        <ele>74.1588134765625</ele>
        <time>2003-11-23T11:10:25Z</time>
      </trkpt>
      <trkpt lat="43.940631374716759" lon="10.95345857553184">
        <ele>74.1588134765625</ele>
        <time>2003-11-23T11:10:27Z</time>
      </trkpt>
      <trkpt lat="43.940685857087374" lon="10.953346258029342">
        <ele>74.1588134765625</ele>
        <time>2003-11-23T11:10:29Z</time>
      </trkpt>
      <trkpt lat="43.940734388306737" lon="10.953235030174255">
        <ele>74.1588134765625</ele>
        <time>2003-11-23T11:10:31Z</time>
      </trkpt>
      <trkpt lat="43.940809909254313" lon="10.953070996329188">
        <ele>74.6395263671875</ele>
        <time>2003-11-23T11:10:34Z</time>
      </trkpt>
      <trkpt lat="43.940859781578183" lon="10.952963875606656">
        <ele>74.6395263671875</ele>
        <time>2003-11-23T11:10:36Z</time>
      </trkpt>
      <trkpt lat="43.940909570083022" lon="10.952857509255409">
        <ele>75.1202392578125</ele>
        <time>2003-11-23T11:10:38Z</time>
      </trkpt>
      <trkpt lat="43.940957682207227" lon="10.952751897275448">
        <ele>74.1588134765625</ele>
        <time>2003-11-23T11:10:40Z</time>
      </trkpt>
      <trkpt lat="43.941027503460646" lon="10.952602364122868">
        <ele>75.1202392578125</ele>
        <time>2003-11-23T11:10:43Z</time>
      </trkpt>
      <trkpt lat="43.941099755465984" lon="10.95245098695159">
        <ele>75.1202392578125</ele>
        <time>2003-11-23T11:10:46Z</time>
      </trkpt>
      <trkpt lat="43.941166140139103" lon="10.952296927571297">
        <ele>75.600830078125</ele>
        <time>2003-11-23T11:10:49Z</time>
      </trkpt>
      <trkpt lat="43.941219449043274" lon="10.952179916203022">
        <ele>75.600830078125</ele>
        <time>2003-11-23T11:10:52Z</time>
      </trkpt>
      <trkpt lat="43.941273596137762" lon="10.952062401920557">
        <ele>76.5621337890625</ele>
        <time>2003-11-23T11:10:55Z</time>
      </trkpt>
      <trkpt lat="43.941333275288343" lon="10.951934326440096">
        <ele>77.0428466796875</ele>
        <time>2003-11-23T11:10:59Z</time>
      </trkpt>
      <trkpt lat="43.941340064629912" lon="10.951825445517898">
        <ele>77.0428466796875</ele>
        <time>2003-11-23T11:11:04Z</time>
      </trkpt>
      <trkpt lat="43.941357415169477" lon="10.951699214056134">
        <ele>77.5234375</ele>
        <time>2003-11-23T11:11:13Z</time>
      </trkpt>
      <trkpt lat="43.941367892548442" lon="10.951568959280849">
        <ele>77.5234375</ele>
        <time>2003-11-23T11:11:22Z</time>
      </trkpt>
      <trkpt lat="43.941394882276654" lon="10.951421773061156">
        <ele>77.5234375</ele>
        <time>2003-11-23T11:11:30Z</time>
      </trkpt>
      <trkpt lat="43.941413909196854" lon="10.951297469437122">
        <ele>77.0428466796875</ele>
        <time>2003-11-23T11:11:37Z</time>
      </trkpt>
      <trkpt lat="43.941409047693014" lon="10.951075097545981">
        <ele>77.5234375</ele>
        <time>2003-11-23T11:11:42Z</time>
      </trkpt>
      <trkpt lat="43.941393541172147" lon="10.950881140306592">
        <ele>77.5234375</ele>
        <time>2003-11-23T11:11:45Z</time>
      </trkpt>
      <trkpt lat="43.941377364099026" lon="10.95068508759141">
        <ele>77.0428466796875</ele>
        <time>2003-11-23T11:11:48Z</time>
      </trkpt>
      <trkpt lat="43.941364623606205" lon="10.950493980199099">
        <ele>77.5234375</ele>
        <time>2003-11-23T11:11:51Z</time>
      </trkpt>
      <trkpt lat="43.941352469846606" lon="10.950331036001444">
        <ele>77.5234375</ele>
        <time>2003-11-23T11:11:54Z</time>
      </trkpt>
      <trkpt lat="43.941337885335088" lon="10.950139677152038">
        <ele>77.5234375</ele>
        <time>2003-11-23T11:11:57Z</time>
      </trkpt>
      <trkpt lat="43.941327156499028" lon="10.94996097497642">
        <ele>77.5234375</ele>
        <time>2003-11-23T11:12:00Z</time>
      </trkpt>
      <trkpt lat="43.941318271681666" lon="10.949790067970753">
        <ele>77.0428466796875</ele>
        <time>2003-11-23T11:12:03Z</time>
      </trkpt>
      <trkpt lat="43.941309889778495" lon="10.949623016640544">
        <ele>77.0428466796875</ele>
        <time>2003-11-23T11:12:06Z</time>
      </trkpt>
      <trkpt lat="43.941305447369814" lon="10.949454875662923">
        <ele>77.0428466796875</ele>
        <time>2003-11-23T11:12:09Z</time>
      </trkpt>
      <trkpt lat="43.941294131800532" lon="10.949287237599492">
        <ele>77.0428466796875</ele>
        <time>2003-11-23T11:12:12Z</time>
      </trkpt>
      <trkpt lat="43.941288599744439" lon="10.949138961732388">
        <ele>77.0428466796875</ele>
        <time>2003-11-23T11:12:15Z</time>
      </trkpt>
      <trkpt lat="43.94128424115479" lon="10.948982136324048">
        <ele>77.0428466796875</ele>
        <time>2003-11-23T11:12:18Z</time>
      </trkpt>
      <trkpt lat="43.941277954727411" lon="10.948822293430567">
        <ele>77.0428466796875</ele>
        <time>2003-11-23T11:12:21Z</time>
      </trkpt>
      <trkpt lat="43.941277451813221" lon="10.9486392326653">
        <ele>77.0428466796875</ele>
        <time>2003-11-23T11:12:24Z</time>
      </trkpt>
      <trkpt lat="43.941277619451284" lon="10.948450639843941">
        <ele>76.5621337890625</ele>
        <time>2003-11-23T11:12:27Z</time>
      </trkpt>
      <trkpt lat="43.941280553117394" lon="10.948264980688691">
        <ele>77.0428466796875</ele>
        <time>2003-11-23T11:12:30Z</time>
      </trkpt>
      <trkpt lat="43.941282145678997" lon="10.948096001520753">
        <ele>76.5621337890625</ele>
        <time>2003-11-23T11:12:33Z</time>
      </trkpt>
      <trkpt lat="43.941285414621234" lon="10.947918724268675">
        <ele>76.0814208984375</ele>
        <time>2003-11-23T11:12:36Z</time>
      </trkpt>
      <trkpt lat="43.941284492611885" lon="10.94774940982461">
        <ele>76.0814208984375</ele>
        <time>2003-11-23T11:12:39Z</time>
      </trkpt>
      <trkpt lat="43.941287510097027" lon="10.947582023218274">
        <ele>76.0814208984375</ele>
        <time>2003-11-23T11:12:42Z</time>
      </trkpt>
      <trkpt lat="43.941294969990849" lon="10.947397537529469">
        <ele>76.0814208984375</ele>
        <time>2003-11-23T11:12:45Z</time>
      </trkpt>
      <trkpt lat="43.941299999132752" lon="10.947220176458359">
        <ele>76.0814208984375</ele>
        <time>2003-11-23T11:12:48Z</time>
      </trkpt>
      <trkpt lat="43.941307542845607" lon="10.947043318301439">
        <ele>75.600830078125</ele>
        <time>2003-11-23T11:12:51Z</time>
      </trkpt>
      <trkpt lat="43.941311398521066" lon="10.946870986372232">
        <ele>75.600830078125</ele>
        <time>2003-11-23T11:12:54Z</time>
      </trkpt>
      <trkpt lat="43.94130477681756" lon="10.946698905900121">
        <ele>75.600830078125</ele>
        <time>2003-11-23T11:12:57Z</time>
      </trkpt>
      <trkpt lat="43.941300334408879" lon="10.946532189846039">
        <ele>76.0814208984375</ele>
        <time>2003-11-23T11:13:00Z</time>
      </trkpt>
      <trkpt lat="43.941299160942435" lon="10.946368323639035">
        <ele>76.0814208984375</ele>
        <time>2003-11-23T11:13:03Z</time>
      </trkpt>
      <trkpt lat="43.941298071295023" lon="10.946204541251063">
        <ele>76.0814208984375</ele>
        <time>2003-11-23T11:13:06Z</time>
      </trkpt>
      <trkpt lat="43.941296981647611" lon="10.946040758863091">
        <ele>76.0814208984375</ele>
        <time>2003-11-23T11:13:09Z</time>
      </trkpt>
      <trkpt lat="43.941295808181167" lon="10.94587697647512">
        <ele>75.600830078125</ele>
        <time>2003-11-23T11:13:12Z</time>
      </trkpt>
      <trkpt lat="43.941294718533754" lon="10.945713194087148">
        <ele>75.600830078125</ele>
        <time>2003-11-23T11:13:15Z</time>
      </trkpt>
      <trkpt lat="43.941293628886342" lon="10.945549411699176">
        <ele>74.6395263671875</ele>
        <time>2003-11-23T11:13:18Z</time>
      </trkpt>
      <trkpt lat="43.941292455419898" lon="10.945385629311204">
        <ele>75.600830078125</ele>
        <time>2003-11-23T11:13:21Z</time>
      </trkpt>
      <trkpt lat="43.941269489005208" lon="10.945151438936591">
        <ele>75.1202392578125</ele>
        <time>2003-11-23T11:13:24Z</time>
      </trkpt>
      <trkpt lat="43.941248450428247" lon="10.944983549416065">
        <ele>75.1202392578125</ele>
        <time>2003-11-23T11:13:26Z</time>
      </trkpt>
      <trkpt lat="43.941234452649951" lon="10.944816330447793">
        <ele>75.1202392578125</ele>
        <time>2003-11-23T11:13:28Z</time>
      </trkpt>
      <trkpt lat="43.941214587539434" lon="10.944648943841457">
        <ele>74.6395263671875</ele>
        <time>2003-11-23T11:13:30Z</time>
      </trkpt>
      <trkpt lat="43.941180892288685" lon="10.94448147341609">
        <ele>75.1202392578125</ele>
        <time>2003-11-23T11:13:32Z</time>
      </trkpt>
      <trkpt lat="43.941157925873995" lon="10.944313667714596">
        <ele>74.1588134765625</ele>
        <time>2003-11-23T11:13:34Z</time>
      </trkpt>
      <trkpt lat="43.941123643890023" lon="10.94414385035634">
        <ele>74.1588134765625</ele>
        <time>2003-11-23T11:13:36Z</time>
      </trkpt>
      <trkpt lat="43.941097659990191" lon="10.943972021341324">
        <ele>73.67822265625</ele>
        <time>2003-11-23T11:13:38Z</time>
      </trkpt>
      <trkpt lat="43.941070921719074" lon="10.943799186497927">
        <ele>74.1588134765625</ele>
        <time>2003-11-23T11:13:40Z</time>
      </trkpt>
      <trkpt lat="43.941038651391864" lon="10.94362635165453">
        <ele>74.1588134765625</ele>
        <time>2003-11-23T11:13:42Z</time>
      </trkpt>
      <trkpt lat="43.941027587279677" lon="10.943446224555373">
        <ele>74.1588134765625</ele>
        <time>2003-11-23T11:13:44Z</time>
      </trkpt>
      <trkpt lat="43.941020546481013" lon="10.943261571228504">
        <ele>73.67822265625</ele>
        <time>2003-11-23T11:13:46Z</time>
      </trkpt>
      <trkpt lat="43.941018534824252" lon="10.943075744435191">
        <ele>73.1976318359375</ele>
        <time>2003-11-23T11:13:48Z</time>
      </trkpt>
      <trkpt lat="43.941018283367157" lon="10.942886983975768">
        <ele>73.1976318359375</ele>
        <time>2003-11-23T11:13:50Z</time>
      </trkpt>
      <trkpt lat="43.941017696633935" lon="10.942697133868933">
        <ele>73.67822265625</ele>
        <time>2003-11-23T11:13:52Z</time>
      </trkpt>
      <trkpt lat="43.941011242568493" lon="10.942510720342398">
        <ele>73.1976318359375</ele>
        <time>2003-11-23T11:13:54Z</time>
      </trkpt>
      <trkpt lat="43.941005626693368" lon="10.9423275757581">
        <ele>73.1976318359375</ele>
        <time>2003-11-23T11:13:56Z</time>
      </trkpt>
      <trkpt lat="43.941001016646624" lon="10.942146442830563">
        <ele>72.7169189453125</ele>
        <time>2003-11-23T11:13:58Z</time>
      </trkpt>
      <trkpt lat="43.94099741242826" lon="10.94197235070169">
        <ele>72.7169189453125</ele>
        <time>2003-11-23T11:14:00Z</time>
      </trkpt>
      <trkpt lat="43.940990203991532" lon="10.941803455352783">
        <ele>72.2362060546875</ele>
        <time>2003-11-23T11:14:02Z</time>
      </trkpt>
      <trkpt lat="43.940976457670331" lon="10.941632967442274">
        <ele>72.7169189453125</ele>
        <time>2003-11-23T11:14:04Z</time>
      </trkpt>
      <trkpt lat="43.940965309739113" lon="10.941457198932767">
        <ele>72.2362060546875</ele>
        <time>2003-11-23T11:14:06Z</time>
      </trkpt>
      <trkpt lat="43.940960867330432" lon="10.941283609718084">
        <ele>72.2362060546875</ele>
        <time>2003-11-23T11:14:08Z</time>
      </trkpt>
      <trkpt lat="43.940955083817244" lon="10.941114211454988">
        <ele>72.2362060546875</ele>
        <time>2003-11-23T11:14:10Z</time>
      </trkpt>
      <trkpt lat="43.940952150151134" lon="10.940947495400906">
        <ele>72.7169189453125</ele>
        <time>2003-11-23T11:14:12Z</time>
      </trkpt>
      <trkpt lat="43.940955670550466" lon="10.940779438242316">
        <ele>72.7169189453125</ele>
        <time>2003-11-23T11:14:14Z</time>
      </trkpt>
      <trkpt lat="43.940957514569163" lon="10.940610794350505">
        <ele>72.7169189453125</ele>
        <time>2003-11-23T11:14:16Z</time>
      </trkpt>
      <trkpt lat="43.940957011654973" lon="10.940442569553852">
        <ele>72.7169189453125</ele>
        <time>2003-11-23T11:14:18Z</time>
      </trkpt>
      <trkpt lat="43.940955922007561" lon="10.940271411091089">
        <ele>72.7169189453125</ele>
        <time>2003-11-23T11:14:20Z</time>
      </trkpt>
      <trkpt lat="43.94095541909337" lon="10.940096480771899">
        <ele>73.1976318359375</ele>
        <time>2003-11-23T11:14:22Z</time>
      </trkpt>
      <trkpt lat="43.940952904522419" lon="10.939922053366899">
        <ele>73.1976318359375</ele>
        <time>2003-11-23T11:14:24Z</time>
      </trkpt>
      <trkpt lat="43.940948881208897" lon="10.939745530486107">
        <ele>73.1976318359375</ele>
        <time>2003-11-23T11:14:26Z</time>
      </trkpt>
      <trkpt lat="43.940947875380516" lon="10.939573869109154">
        <ele>72.7169189453125</ele>
        <time>2003-11-23T11:14:28Z</time>
      </trkpt>
      <trkpt lat="43.940945528447628" lon="10.939402626827359">
        <ele>73.1976318359375</ele>
        <time>2003-11-23T11:14:30Z</time>
      </trkpt>
      <trkpt lat="43.940938403829932" lon="10.939230043441057">
        <ele>73.1976318359375</ele>
        <time>2003-11-23T11:14:32Z</time>
      </trkpt>
      <trkpt lat="43.940933793783188" lon="10.939056286588311">
        <ele>73.1976318359375</ele>
        <time>2003-11-23T11:14:34Z</time>
      </trkpt>
      <trkpt lat="43.940931614488363" lon="10.93888177536428">
        <ele>73.1976318359375</ele>
        <time>2003-11-23T11:14:36Z</time>
      </trkpt>
      <trkpt lat="43.940929267555475" lon="10.938711371272802">
        <ele>73.1976318359375</ele>
        <time>2003-11-23T11:14:38Z</time>
      </trkpt>
      <trkpt lat="43.940925747156143" lon="10.938546247780323">
        <ele>73.67822265625</ele>
        <time>2003-11-23T11:14:40Z</time>
      </trkpt>
      <trkpt lat="43.940923064947128" lon="10.938388500362635">
        <ele>73.1976318359375</ele>
        <time>2003-11-23T11:14:42Z</time>
      </trkpt>
      <trkpt lat="43.940922478213906" lon="10.938231674954295">
        <ele>73.1976318359375</ele>
        <time>2003-11-23T11:14:44Z</time>
      </trkpt>
      <trkpt lat="43.940920466557145" lon="10.938069568946958">
        <ele>73.1976318359375</ele>
        <time>2003-11-23T11:14:46Z</time>
      </trkpt>
      <trkpt lat="43.94092021510005" lon="10.937909390777349">
        <ele>73.1976318359375</ele>
        <time>2003-11-23T11:14:48Z</time>
      </trkpt>
      <trkpt lat="43.940918371081352" lon="10.937750805169344">
        <ele>73.1976318359375</ele>
        <time>2003-11-23T11:14:50Z</time>
      </trkpt>
      <trkpt lat="43.940916694700718" lon="10.937586100772023">
        <ele>73.1976318359375</ele>
        <time>2003-11-23T11:14:52Z</time>
      </trkpt>
      <trkpt lat="43.940918119624257" lon="10.937417037785053">
        <ele>73.1976318359375</ele>
        <time>2003-11-23T11:14:54Z</time>
      </trkpt>
      <trkpt lat="43.940917616710067" lon="10.937247555702925">
        <ele>73.67822265625</ele>
        <time>2003-11-23T11:14:56Z</time>
      </trkpt>
      <trkpt lat="43.94091485068202" lon="10.937078325077891">
        <ele>73.1976318359375</ele>
        <time>2003-11-23T11:14:58Z</time>
      </trkpt>
      <trkpt lat="43.940912336111069" lon="10.936912866309285">
        <ele>73.1976318359375</ele>
        <time>2003-11-23T11:15:00Z</time>
      </trkpt>
      <trkpt lat="43.9409124199301" lon="10.936753358691931">
        <ele>73.1976318359375</ele>
        <time>2003-11-23T11:15:02Z</time>
      </trkpt>
      <trkpt lat="43.940910408273339" lon="10.936596365645528">
        <ele>73.1976318359375</ele>
        <time>2003-11-23T11:15:04Z</time>
      </trkpt>
      <trkpt lat="43.940907474607229" lon="10.936435768380761">
        <ele>73.1976318359375</ele>
        <time>2003-11-23T11:15:06Z</time>
      </trkpt>
      <trkpt lat="43.940906636416912" lon="10.936272237449884">
        <ele>73.1976318359375</ele>
        <time>2003-11-23T11:15:08Z</time>
      </trkpt>
      <trkpt lat="43.940904289484024" lon="10.936103593558073">
        <ele>73.67822265625</ele>
        <time>2003-11-23T11:15:10Z</time>
      </trkpt>
      <trkpt lat="43.940900266170502" lon="10.935928244143724">
        <ele>72.7169189453125</ele>
        <time>2003-11-23T11:15:12Z</time>
      </trkpt>
      <trkpt lat="43.940898338332772" lon="10.93575214035809">
        <ele>72.7169189453125</ele>
        <time>2003-11-23T11:15:14Z</time>
      </trkpt>
      <trkpt lat="43.940897081047297" lon="10.93558307737112">
        <ele>73.1976318359375</ele>
        <time>2003-11-23T11:15:16Z</time>
      </trkpt>
      <trkpt lat="43.940896829590201" lon="10.935417534783483">
        <ele>72.7169189453125</ele>
        <time>2003-11-23T11:15:18Z</time>
      </trkpt>
      <trkpt lat="43.940896829590201" lon="10.93525174073875">
        <ele>72.2362060546875</ele>
        <time>2003-11-23T11:15:20Z</time>
      </trkpt>
      <trkpt lat="43.940891213715076" lon="10.935095669701695">
        <ele>72.2362060546875</ele>
        <time>2003-11-23T11:15:22Z</time>
      </trkpt>
      <trkpt lat="43.940874869003892" lon="10.934933228418231">
        <ele>72.2362060546875</ele>
        <time>2003-11-23T11:15:24Z</time>
      </trkpt>
      <trkpt lat="43.940862212330103" lon="10.934781515970826">
        <ele>72.2362060546875</ele>
        <time>2003-11-23T11:15:26Z</time>
      </trkpt>
      <trkpt lat="43.940851064398885" lon="10.934626534581184">
        <ele>71.7554931640625</ele>
        <time>2003-11-23T11:15:28Z</time>
      </trkpt>
      <trkpt lat="43.940841760486364" lon="10.934467362239957">
        <ele>71.27490234375</ele>
        <time>2003-11-23T11:15:30Z</time>
      </trkpt>
      <trkpt lat="43.940826673060656" lon="10.934305591508746">
        <ele>71.27490234375</ele>
        <time>2003-11-23T11:15:32Z</time>
      </trkpt>
      <trkpt lat="43.940815608948469" lon="10.934137618169188">
        <ele>71.27490234375</ele>
        <time>2003-11-23T11:15:34Z</time>
      </trkpt>
      <trkpt lat="43.940801527351141" lon="10.933969644829631">
        <ele>71.27490234375</ele>
        <time>2003-11-23T11:15:36Z</time>
      </trkpt>
      <trkpt lat="43.940783087164164" lon="10.933804688975215">
        <ele>70.794189453125</ele>
        <time>2003-11-23T11:15:38Z</time>
      </trkpt>
      <trkpt lat="43.9407570194453" lon="10.933630345389247">
        <ele>70.3134765625</ele>
        <time>2003-11-23T11:15:40Z</time>
      </trkpt>
      <trkpt lat="43.940734388306737" lon="10.933461701497436">
        <ele>69.8328857421875</ele>
        <time>2003-11-23T11:15:42Z</time>
      </trkpt>
      <trkpt lat="43.940722486004233" lon="10.933302445337176">
        <ele>70.3134765625</ele>
        <time>2003-11-23T11:15:44Z</time>
      </trkpt>
      <trkpt lat="43.940703794360161" lon="10.933140842244029">
        <ele>69.352294921875</ele>
        <time>2003-11-23T11:15:46Z</time>
      </trkpt>
      <trkpt lat="43.940688204020262" lon="10.932976640760899">
        <ele>69.8328857421875</ele>
        <time>2003-11-23T11:15:48Z</time>
      </trkpt>
      <trkpt lat="43.940681330859661" lon="10.932811936363578">
        <ele>69.8328857421875</ele>
        <time>2003-11-23T11:15:50Z</time>
      </trkpt>
      <trkpt lat="43.940670685842633" lon="10.932653769850731">
        <ele>68.87158203125</ele>
        <time>2003-11-23T11:15:52Z</time>
      </trkpt>
      <trkpt lat="43.940661130473018" lon="10.932495268061757">
        <ele>68.87158203125</ele>
        <time>2003-11-23T11:15:54Z</time>
      </trkpt>
      <trkpt lat="43.940646378323436" lon="10.932349758222699">
        <ele>68.87158203125</ele>
        <time>2003-11-23T11:15:56Z</time>
      </trkpt>
      <trkpt lat="43.94063632003963" lon="10.932203494012356">
        <ele>68.390869140625</ele>
        <time>2003-11-23T11:15:58Z</time>
      </trkpt>
      <trkpt lat="43.940634559839964" lon="10.932049434632063">
        <ele>68.390869140625</ele>
        <time>2003-11-23T11:16:00Z</time>
      </trkpt>
      <trkpt lat="43.94063288345933" lon="10.931895459070802">
        <ele>68.390869140625</ele>
        <time>2003-11-23T11:16:02Z</time>
      </trkpt>
      <trkpt lat="43.940629782155156" lon="10.931741734966636">
        <ele>68.390869140625</ele>
        <time>2003-11-23T11:16:04Z</time>
      </trkpt>
      <trkpt lat="43.940633051097393" lon="10.931587675586343">
        <ele>68.390869140625</ele>
        <time>2003-11-23T11:16:06Z</time>
      </trkpt>
      <trkpt lat="43.940631542354822" lon="10.931431101635098">
        <ele>68.390869140625</ele>
        <time>2003-11-23T11:16:08Z</time>
      </trkpt>
      <trkpt lat="43.940628189593554" lon="10.931271929293871">
        <ele>68.390869140625</ele>
        <time>2003-11-23T11:16:10Z</time>
      </trkpt>
      <trkpt lat="43.940626429393888" lon="10.931108314543962">
        <ele>68.390869140625</ele>
        <time>2003-11-23T11:16:12Z</time>
      </trkpt>
      <trkpt lat="43.940620897337794" lon="10.930953081697226">
        <ele>67.9102783203125</ele>
        <time>2003-11-23T11:16:14Z</time>
      </trkpt>
      <trkpt lat="43.940614275634289" lon="10.930796591565013">
        <ele>68.390869140625</ele>
        <time>2003-11-23T11:16:16Z</time>
      </trkpt>
      <trkpt lat="43.940604384988546" lon="10.930632306262851">
        <ele>67.9102783203125</ele>
        <time>2003-11-23T11:16:18Z</time>
      </trkpt>
      <trkpt lat="43.940591728314757" lon="10.930470284074545">
        <ele>67.4296875</ele>
        <time>2003-11-23T11:16:20Z</time>
      </trkpt>
      <trkpt lat="43.940577898174524" lon="10.930310860276222">
        <ele>67.4296875</ele>
        <time>2003-11-23T11:16:22Z</time>
      </trkpt>
      <trkpt lat="43.940564906224608" lon="10.930154537782073">
        <ele>68.390869140625</ele>
        <time>2003-11-23T11:16:24Z</time>
      </trkpt>
      <trkpt lat="43.940558116883039" lon="10.929989162832499">
        <ele>67.4296875</ele>
        <time>2003-11-23T11:16:26Z</time>
      </trkpt>
      <trkpt lat="43.940542442724109" lon="10.929835271090269">
        <ele>67.4296875</ele>
        <time>2003-11-23T11:16:28Z</time>
      </trkpt>
      <trkpt lat="43.940526517108083" lon="10.929677523672581">
        <ele>66.948974609375</ele>
        <time>2003-11-23T11:16:30Z</time>
      </trkpt>
      <trkpt lat="43.940508328378201" lon="10.929514663293958">
        <ele>66.948974609375</ele>
        <time>2003-11-23T11:16:32Z</time>
      </trkpt>
      <trkpt lat="43.940482763573527" lon="10.929351719096303">
        <ele>66.46826171875</ele>
        <time>2003-11-23T11:16:34Z</time>
      </trkpt>
      <trkpt lat="43.940458204597235" lon="10.929188942536712">
        <ele>66.948974609375</ele>
        <time>2003-11-23T11:16:36Z</time>
      </trkpt>
      <trkpt lat="43.940436746925116" lon="10.929026501253247">
        <ele>65.9876708984375</ele>
        <time>2003-11-23T11:16:38Z</time>
      </trkpt>
      <trkpt lat="43.940411936491728" lon="10.928867496550083">
        <ele>66.46826171875</ele>
        <time>2003-11-23T11:16:40Z</time>
      </trkpt>
      <trkpt lat="43.940397603437304" lon="10.92870069667697">
        <ele>66.948974609375</ele>
        <time>2003-11-23T11:16:42Z</time>
      </trkpt>
      <trkpt lat="43.940379079431295" lon="10.928539847955108">
        <ele>66.46826171875</ele>
        <time>2003-11-23T11:16:44Z</time>
      </trkpt>
      <trkpt lat="43.94036466255784" lon="10.928370952606201">
        <ele>65.9876708984375</ele>
        <time>2003-11-23T11:16:46Z</time>
      </trkpt>
      <trkpt lat="43.940350664779544" lon="10.928211025893688">
        <ele>65.507080078125</ele>
        <time>2003-11-23T11:16:48Z</time>
      </trkpt>
      <trkpt lat="43.940332476049662" lon="10.928057720884681">
        <ele>65.0263671875</ele>
        <time>2003-11-23T11:16:50Z</time>
      </trkpt>
      <trkpt lat="43.940313030034304" lon="10.927906092256308">
        <ele>65.0263671875</ele>
        <time>2003-11-23T11:16:52Z</time>
      </trkpt>
      <trkpt lat="43.940297523513436" lon="10.927767874673009">
        <ele>65.507080078125</ele>
        <time>2003-11-23T11:16:54Z</time>
      </trkpt>
      <trkpt lat="43.940276736393571" lon="10.927570480853319">
        <ele>65.0263671875</ele>
        <time>2003-11-23T11:16:57Z</time>
      </trkpt>
      <trkpt lat="43.940263828262687" lon="10.927436370402575">
        <ele>64.545654296875</ele>
        <time>2003-11-23T11:16:59Z</time>
      </trkpt>
      <trkpt lat="43.940256452187896" lon="10.927304523065686">
        <ele>64.0650634765625</ele>
        <time>2003-11-23T11:17:01Z</time>
      </trkpt>
      <trkpt lat="43.940247735008597" lon="10.927175022661686">
        <ele>64.0650634765625</ele>
        <time>2003-11-23T11:17:03Z</time>
      </trkpt>
      <trkpt lat="43.940253602340817" lon="10.926994057372212">
        <ele>63.5843505859375</ele>
        <time>2003-11-23T11:17:06Z</time>
      </trkpt>
      <trkpt lat="43.940338427200913" lon="10.926909232512116">
        <ele>63.5843505859375</ele>
        <time>2003-11-23T11:17:09Z</time>
      </trkpt>
      <trkpt lat="43.940439848229289" lon="10.92680093832314">
        <ele>63.5843505859375</ele>
        <time>2003-11-23T11:17:13Z</time>
      </trkpt>
      <trkpt lat="43.940502209588885" lon="10.926731871441007">
        <ele>64.0650634765625</ele>
        <time>2003-11-23T11:17:16Z</time>
      </trkpt>
      <trkpt lat="43.940621567890048" lon="10.926702534779906">
        <ele>63.5843505859375</ele>
        <time>2003-11-23T11:17:19Z</time>
      </trkpt>
      <trkpt lat="43.940729107707739" lon="10.926690632477403">
        <ele>63.5843505859375</ele>
        <time>2003-11-23T11:17:23Z</time>
      </trkpt>
      <trkpt lat="43.940831953659654" lon="10.926597006618977">
        <ele>63.5843505859375</ele>
        <time>2003-11-23T11:17:28Z</time>
      </trkpt>
      <trkpt lat="43.940905798226595" lon="10.926513103768229">
        <ele>64.545654296875</ele>
        <time>2003-11-23T11:17:32Z</time>
      </trkpt>
      <trkpt lat="43.940998585894704" lon="10.926407407969236">
        <ele>64.545654296875</ele>
        <time>2003-11-23T11:17:37Z</time>
      </trkpt>
      <trkpt lat="43.941077124327421" lon="10.926300538703799">
        <ele>64.545654296875</ele>
        <time>2003-11-23T11:17:41Z</time>
      </trkpt>
      <trkpt lat="43.941147951409221" lon="10.926197776570916">
        <ele>65.0263671875</ele>
        <time>2003-11-23T11:17:44Z</time>
      </trkpt>
      <trkpt lat="43.941257502883673" lon="10.92605235055089">
        <ele>65.0263671875</ele>
        <time>2003-11-23T11:17:47Z</time>
      </trkpt>
      <trkpt lat="43.941330006346107" lon="10.925954785197973">
        <ele>65.507080078125</ele>
        <time>2003-11-23T11:17:49Z</time>
      </trkpt>
      <trkpt lat="43.941397313028574" lon="10.925857974216342">
        <ele>65.507080078125</ele>
        <time>2003-11-23T11:17:51Z</time>
      </trkpt>
      <trkpt lat="43.941492447629571" lon="10.925724450498819">
        <ele>66.46826171875</ele>
        <time>2003-11-23T11:17:54Z</time>
      </trkpt>
      <trkpt lat="43.941585402935743" lon="10.925611881539226">
        <ele>66.46826171875</ele>
        <time>2003-11-23T11:17:57Z</time>
      </trkpt>
      <trkpt lat="43.941684141755104" lon="10.925515908747911">
        <ele>66.46826171875</ele>
        <time>2003-11-23T11:18:00Z</time>
      </trkpt>
      <trkpt lat="43.941784473136067" lon="10.925411554053426">
        <ele>65.9876708984375</ele>
        <time>2003-11-23T11:18:03Z</time>
      </trkpt>
      <trkpt lat="43.941879775375128" lon="10.92529010027647">
        <ele>66.46826171875</ele>
        <time>2003-11-23T11:18:06Z</time>
      </trkpt>
      <trkpt lat="43.941946914419532" lon="10.925205610692501">
        <ele>65.9876708984375</ele>
        <time>2003-11-23T11:18:08Z</time>
      </trkpt>
      <trkpt lat="43.9420469943434" lon="10.92507703229785">
        <ele>65.9876708984375</ele>
        <time>2003-11-23T11:18:11Z</time>
      </trkpt>
      <trkpt lat="43.942117234691978" lon="10.924996398389339">
        <ele>66.46826171875</ele>
        <time>2003-11-23T11:18:13Z</time>
      </trkpt>
      <trkpt lat="43.942223684862256" lon="10.924872513860464">
        <ele>66.948974609375</ele>
        <time>2003-11-23T11:18:16Z</time>
      </trkpt>
      <trkpt lat="43.942298535257578" lon="10.924801435321569">
        <ele>66.948974609375</ele>
        <time>2003-11-23T11:18:18Z</time>
      </trkpt>
      <trkpt lat="43.94241638481617" lon="10.924729350954294">
        <ele>66.46826171875</ele>
        <time>2003-11-23T11:18:21Z</time>
      </trkpt>
      <trkpt lat="43.94253171980381" lon="10.924690626561642">
        <ele>66.948974609375</ele>
        <time>2003-11-23T11:18:24Z</time>
      </trkpt>
      <trkpt lat="43.942642947658896" lon="10.924658942967653">
        <ele>67.4296875</ele>
        <time>2003-11-23T11:18:27Z</time>
      </trkpt>
      <trkpt lat="43.942754175513983" lon="10.924628516659141">
        <ele>67.9102783203125</ele>
        <time>2003-11-23T11:18:30Z</time>
      </trkpt>
      <trkpt lat="43.942865403369069" lon="10.92460697516799">
        <ele>68.390869140625</ele>
        <time>2003-11-23T11:18:33Z</time>
      </trkpt>
      <trkpt lat="43.94297101534903" lon="10.924580823630095">
        <ele>68.390869140625</ele>
        <time>2003-11-23T11:18:36Z</time>
      </trkpt>
      <trkpt lat="43.943079225718975" lon="10.924562299624085">
        <ele>68.87158203125</ele>
        <time>2003-11-23T11:18:39Z</time>
      </trkpt>
      <trkpt lat="43.94319087266922" lon="10.92454444617033">
        <ele>68.87158203125</ele>
        <time>2003-11-23T11:18:42Z</time>
      </trkpt>
      <trkpt lat="43.943301513791084" lon="10.924535058438778">
        <ele>68.87158203125</ele>
        <time>2003-11-23T11:18:45Z</time>
      </trkpt>
      <trkpt lat="43.943414585664868" lon="10.924525838345289">
        <ele>68.87158203125</ele>
        <time>2003-11-23T11:18:48Z</time>
      </trkpt>
      <trkpt lat="43.943532351404428" lon="10.924479905515909">
        <ele>69.352294921875</ele>
        <time>2003-11-23T11:18:51Z</time>
      </trkpt>
      <trkpt lat="43.943635197356343" lon="10.924368007108569">
        <ele>69.352294921875</ele>
        <time>2003-11-23T11:18:54Z</time>
      </trkpt>
      <trkpt lat="43.943680124357343" lon="10.924260132014751">
        <ele>69.352294921875</ele>
        <time>2003-11-23T11:18:56Z</time>
      </trkpt>
      <trkpt lat="43.943720608949661" lon="10.924080843105912">
        <ele>69.352294921875</ele>
        <time>2003-11-23T11:18:59Z</time>
      </trkpt>
      <trkpt lat="43.943755980581045" lon="10.923958467319608">
        <ele>69.352294921875</ele>
        <time>2003-11-23T11:19:01Z</time>
      </trkpt>
      <trkpt lat="43.943803086876869" lon="10.923841120675206">
        <ele>69.352294921875</ele>
        <time>2003-11-23T11:19:03Z</time>
      </trkpt>
      <trkpt lat="43.94385589286685" lon="10.923724193125963">
        <ele>69.352294921875</ele>
        <time>2003-11-23T11:19:05Z</time>
      </trkpt>
      <trkpt lat="43.943919343873858" lon="10.923615479841828">
        <ele>69.8328857421875</ele>
        <time>2003-11-23T11:19:07Z</time>
      </trkpt>
      <trkpt lat="43.943996373564005" lon="10.923522943630815">
        <ele>69.352294921875</ele>
        <time>2003-11-23T11:19:09Z</time>
      </trkpt>
      <trkpt lat="43.944081952795386" lon="10.923455217853189">
        <ele>68.87158203125</ele>
        <time>2003-11-23T11:19:11Z</time>
      </trkpt>
      <trkpt lat="43.944172980263829" lon="10.923399645835161">
        <ele>69.352294921875</ele>
        <time>2003-11-23T11:19:13Z</time>
      </trkpt>
      <trkpt lat="43.944263840094209" lon="10.923345163464546">
        <ele>69.8328857421875</ele>
        <time>2003-11-23T11:19:15Z</time>
      </trkpt>
      <trkpt lat="43.944345815107226" lon="10.923275845125318">
        <ele>69.8328857421875</ele>
        <time>2003-11-23T11:19:17Z</time>
      </trkpt>
      <trkpt lat="43.944407003000379" lon="10.923169478774071">
        <ele>70.794189453125</ele>
        <time>2003-11-23T11:19:19Z</time>
      </trkpt>
      <trkpt lat="43.944452768191695" lon="10.923054059967399">
        <ele>70.794189453125</ele>
        <time>2003-11-23T11:19:21Z</time>
      </trkpt>
      <trkpt lat="43.944486547261477" lon="10.922938473522663">
        <ele>72.2362060546875</ele>
        <time>2003-11-23T11:19:23Z</time>
      </trkpt>
      <trkpt lat="43.944523930549622" lon="10.922762621194124">
        <ele>72.2362060546875</ele>
        <time>2003-11-23T11:19:26Z</time>
      </trkpt>
      <trkpt lat="43.944561146199703" lon="10.92258894816041">
        <ele>73.1976318359375</ele>
        <time>2003-11-23T11:19:29Z</time>
      </trkpt>
      <trkpt lat="43.944592159241438" lon="10.922476965934038">
        <ele>72.7169189453125</ele>
        <time>2003-11-23T11:19:31Z</time>
      </trkpt>
      <trkpt lat="43.944620657712221" lon="10.922357188537717">
        <ele>72.7169189453125</ele>
        <time>2003-11-23T11:19:33Z</time>
      </trkpt>
      <trkpt lat="43.944646725431085" lon="10.922236070036888">
        <ele>72.2362060546875</ele>
        <time>2003-11-23T11:19:35Z</time>
      </trkpt>
      <trkpt lat="43.944689137861133" lon="10.922059128060937">
        <ele>72.7169189453125</ele>
        <time>2003-11-23T11:19:38Z</time>
      </trkpt>
      <trkpt lat="43.944738088175654" lon="10.921888388693333">
        <ele>73.1976318359375</ele>
        <time>2003-11-23T11:19:41Z</time>
      </trkpt>
      <trkpt lat="43.944808831438422" lon="10.921724773943424">
        <ele>74.1588134765625</ele>
        <time>2003-11-23T11:19:44Z</time>
      </trkpt>
      <trkpt lat="43.944869684055448" lon="10.921627711504698">
        <ele>73.67822265625</ele>
        <time>2003-11-23T11:19:46Z</time>
      </trkpt>
      <trkpt lat="43.944938834756613" lon="10.921541377902031">
        <ele>74.1588134765625</ele>
        <time>2003-11-23T11:19:48Z</time>
      </trkpt>
      <trkpt lat="43.945009913295507" lon="10.921473987400532">
        <ele>74.1588134765625</ele>
        <time>2003-11-23T11:19:50Z</time>
      </trkpt>
      <trkpt lat="43.94511803984642" lon="10.921385977417231">
        <ele>74.1588134765625</ele>
        <time>2003-11-23T11:19:53Z</time>
      </trkpt>
      <trkpt lat="43.945236476138234" lon="10.921298889443278">
        <ele>74.1588134765625</ele>
        <time>2003-11-23T11:19:56Z</time>
      </trkpt>
      <trkpt lat="43.94531543366611" lon="10.9212408028543">
        <ele>74.1588134765625</ele>
        <time>2003-11-23T11:19:58Z</time>
      </trkpt>
      <trkpt lat="43.945394055917859" lon="10.921200485900044">
        <ele>73.67822265625</ele>
        <time>2003-11-23T11:20:00Z</time>
      </trkpt>
      <trkpt lat="43.945530178025365" lon="10.921144494786859">
        <ele>73.67822265625</ele>
        <time>2003-11-23T11:20:03Z</time>
      </trkpt>
      <trkpt lat="43.94566185772419" lon="10.921165701001883">
        <ele>73.67822265625</ele>
        <time>2003-11-23T11:20:05Z</time>
      </trkpt>
      <trkpt lat="43.945778952911496" lon="10.921148601919413">
        <ele>73.67822265625</ele>
        <time>2003-11-23T11:20:07Z</time>
      </trkpt>
      <trkpt lat="43.945885319262743" lon="10.921120019629598">
        <ele>73.67822265625</ele>
        <time>2003-11-23T11:20:09Z</time>
      </trkpt>
      <trkpt lat="43.945983806625009" lon="10.921085989102721">
        <ele>73.67822265625</ele>
        <time>2003-11-23T11:20:11Z</time>
      </trkpt>
      <trkpt lat="43.94611238501966" lon="10.921032596379519">
        <ele>73.67822265625</ele>
        <time>2003-11-23T11:20:14Z</time>
      </trkpt>
      <trkpt lat="43.946208190172911" lon="10.920978700742126">
        <ele>73.67822265625</ele>
        <time>2003-11-23T11:20:17Z</time>
      </trkpt>
      <trkpt lat="43.946243310347199" lon="10.920887840911746">
        <ele>74.1588134765625</ele>
        <time>2003-11-23T11:20:20Z</time>
      </trkpt>
      <trkpt lat="43.946211710572243" lon="10.920789856463671">
        <ele>75.1202392578125</ele>
        <time>2003-11-23T11:20:24Z</time>
      </trkpt>
      <trkpt lat="43.946179440245032" lon="10.920697236433625">
        <ele>76.5621337890625</ele>
        <time>2003-11-23T11:20:28Z</time>
      </trkpt>
      <trkpt lat="43.946129065006971" lon="10.920587768778205">
        <ele>76.5621337890625</ele>
        <time>2003-11-23T11:20:32Z</time>
      </trkpt>
      <trkpt lat="43.9461206831038" lon="10.920466231182218">
        <ele>77.0428466796875</ele>
        <time>2003-11-23T11:20:35Z</time>
      </trkpt>
      <trkpt lat="43.946117581799626" lon="10.920325582846999">
        <ele>76.5621337890625</ele>
        <time>2003-11-23T11:20:38Z</time>
      </trkpt>
      <trkpt lat="43.946116743609309" lon="10.920188622549176">
        <ele>76.5621337890625</ele>
        <time>2003-11-23T11:20:41Z</time>
      </trkpt>
      <trkpt lat="43.946111630648375" lon="10.920044286176562">
        <ele>76.5621337890625</ele>
        <time>2003-11-23T11:20:44Z</time>
      </trkpt>
      <trkpt lat="43.946108696982265" lon="10.919907912611961">
        <ele>76.5621337890625</ele>
        <time>2003-11-23T11:20:47Z</time>
      </trkpt>
      <trkpt lat="43.94611531868577" lon="10.919794589281082">
        <ele>76.0814208984375</ele>
        <time>2003-11-23T11:20:50Z</time>
      </trkpt>
      <trkpt lat="43.946106350049376" lon="10.919706076383591">
        <ele>75.600830078125</ele>
        <time>2003-11-23T11:20:58Z</time>
      </trkpt>
      <trkpt lat="43.946016244590282" lon="10.919661903753877">
        <ele>77.0428466796875</ele>
        <time>2003-11-23T11:21:02Z</time>
      </trkpt>
      <trkpt lat="43.945902418345213" lon="10.919684199616313">
        <ele>76.0814208984375</ele>
        <time>2003-11-23T11:21:05Z</time>
      </trkpt>
      <trkpt lat="43.945773923769593" lon="10.91970456764102">
        <ele>75.600830078125</ele>
        <time>2003-11-23T11:21:08Z</time>
      </trkpt>
      <trkpt lat="43.945639142766595" lon="10.919722924008965">
        <ele>76.0814208984375</ele>
        <time>2003-11-23T11:21:11Z</time>
      </trkpt>
      <trkpt lat="43.945550126954913" lon="10.919740777462721">
        <ele>76.0814208984375</ele>
        <time>2003-11-23T11:21:13Z</time>
      </trkpt>
      <trkpt lat="43.945411238819361" lon="10.919768689200282">
        <ele>75.600830078125</ele>
        <time>2003-11-23T11:21:16Z</time>
      </trkpt>
      <trkpt lat="43.94531543366611" lon="10.919779250398278">
        <ele>75.600830078125</ele>
        <time>2003-11-23T11:21:18Z</time>
      </trkpt>
      <trkpt lat="43.945218455046415" lon="10.919786207377911">
        <ele>74.6395263671875</ele>
        <time>2003-11-23T11:21:20Z</time>
      </trkpt>
      <trkpt lat="43.945124493911862" lon="10.919799786061049">
        <ele>74.6395263671875</ele>
        <time>2003-11-23T11:21:22Z</time>
      </trkpt>
      <trkpt lat="43.945031370967627" lon="10.919817807152867">
        <ele>74.6395263671875</ele>
        <time>2003-11-23T11:21:24Z</time>
      </trkpt>
      <trkpt lat="43.944938415661454" lon="10.91983599588275">
        <ele>74.1588134765625</ele>
        <time>2003-11-23T11:21:26Z</time>
      </trkpt>
      <trkpt lat="43.944844203069806" lon="10.91985602863133">
        <ele>74.1588134765625</ele>
        <time>2003-11-23T11:21:28Z</time>
      </trkpt>
      <trkpt lat="43.944744458422065" lon="10.919872792437673">
        <ele>73.67822265625</ele>
        <time>2003-11-23T11:21:30Z</time>
      </trkpt>
      <trkpt lat="43.944639684632421" lon="10.919883688911796">
        <ele>73.67822265625</ele>
        <time>2003-11-23T11:21:32Z</time>
      </trkpt>
      <trkpt lat="43.944535749033093" lon="10.919893328100443">
        <ele>73.67822265625</ele>
        <time>2003-11-23T11:21:34Z</time>
      </trkpt>
      <trkpt lat="43.944431729614735" lon="10.919906487688422">
        <ele>73.1976318359375</ele>
        <time>2003-11-23T11:21:36Z</time>
      </trkpt>
      <trkpt lat="43.944331146776676" lon="10.919916378334165">
        <ele>72.7169189453125</ele>
        <time>2003-11-23T11:21:38Z</time>
      </trkpt>
      <trkpt lat="43.944223690778017" lon="10.919923419132829">
        <ele>72.7169189453125</ele>
        <time>2003-11-23T11:21:40Z</time>
      </trkpt>
      <trkpt lat="43.944118916988373" lon="10.919926017522812">
        <ele>72.2362060546875</ele>
        <time>2003-11-23T11:21:42Z</time>
      </trkpt>
      <trkpt lat="43.944020848721266" lon="10.919925346970558">
        <ele>71.7554931640625</ele>
        <time>2003-11-23T11:21:44Z</time>
      </trkpt>
      <trkpt lat="43.943886151537299" lon="10.919901793822646">
        <ele>71.7554931640625</ele>
        <time>2003-11-23T11:21:47Z</time>
      </trkpt>
      <trkpt lat="43.943784646689892" lon="10.919846473261714">
        <ele>70.794189453125</ele>
        <time>2003-11-23T11:21:50Z</time>
      </trkpt>
      <trkpt lat="43.943686746060848" lon="10.919755278155208">
        <ele>70.794189453125</ele>
        <time>2003-11-23T11:21:53Z</time>
      </trkpt>
      <trkpt lat="43.943613907322288" lon="10.919610355049372">
        <ele>70.794189453125</ele>
        <time>2003-11-23T11:21:56Z</time>
      </trkpt>
      <trkpt lat="43.943564873188734" lon="10.919442716985941">
        <ele>71.27490234375</ele>
        <time>2003-11-23T11:21:59Z</time>
      </trkpt>
      <trkpt lat="43.943550288677216" lon="10.919318161904812">
        <ele>71.27490234375</ele>
        <time>2003-11-23T11:22:01Z</time>
      </trkpt>
      <trkpt lat="43.943545343354344" lon="10.919187571853399">
        <ele>71.27490234375</ele>
        <time>2003-11-23T11:22:03Z</time>
      </trkpt>
      <trkpt lat="43.943535620346665" lon="10.919050863012671">
        <ele>71.27490234375</ele>
        <time>2003-11-23T11:22:05Z</time>
      </trkpt>
      <trkpt lat="43.943526316434145" lon="10.918914992362261">
        <ele>71.7554931640625</ele>
        <time>2003-11-23T11:22:07Z</time>
      </trkpt>
      <trkpt lat="43.943521119654179" lon="10.91877811588347">
        <ele>71.7554931640625</ele>
        <time>2003-11-23T11:22:09Z</time>
      </trkpt>
      <trkpt lat="43.943514162674546" lon="10.918640987947583">
        <ele>71.7554931640625</ele>
        <time>2003-11-23T11:22:11Z</time>
      </trkpt>
      <trkpt lat="43.943504774942994" lon="10.918512493371964">
        <ele>72.2362060546875</ele>
        <time>2003-11-23T11:22:13Z</time>
      </trkpt>
      <trkpt lat="43.943496309220791" lon="10.918386429548264">
        <ele>72.2362060546875</ele>
        <time>2003-11-23T11:22:15Z</time>
      </trkpt>
      <trkpt lat="43.943490944802761" lon="10.918209655210376">
        <ele>72.2362060546875</ele>
        <time>2003-11-23T11:22:18Z</time>
      </trkpt>
      <trkpt lat="43.943486418575048" lon="10.918027935549617">
        <ele>71.7554931640625</ele>
        <time>2003-11-23T11:22:21Z</time>
      </trkpt>
      <trkpt lat="43.94347770139575" lon="10.917892064899206">
        <ele>71.7554931640625</ele>
        <time>2003-11-23T11:22:23Z</time>
      </trkpt>
      <trkpt lat="43.943469068035483" lon="10.917758205905557">
        <ele>72.2362060546875</ele>
        <time>2003-11-23T11:22:25Z</time>
      </trkpt>
      <trkpt lat="43.943467475473881" lon="10.917628286406398">
        <ele>72.7169189453125</ele>
        <time>2003-11-23T11:22:27Z</time>
      </trkpt>
      <trkpt lat="43.943473007529974" lon="10.917501971125603">
        <ele>72.7169189453125</ele>
        <time>2003-11-23T11:22:29Z</time>
      </trkpt>
      <trkpt lat="43.943487759679556" lon="10.91732008382678">
        <ele>72.2362060546875</ele>
        <time>2003-11-23T11:22:32Z</time>
      </trkpt>
      <trkpt lat="43.943511648103595" lon="10.917137861251831">
        <ele>72.2362060546875</ele>
        <time>2003-11-23T11:22:35Z</time>
      </trkpt>
      <trkpt lat="43.94352849572897" lon="10.916960081085563">
        <ele>72.2362060546875</ele>
        <time>2003-11-23T11:22:38Z</time>
      </trkpt>
      <trkpt lat="43.943545091897249" lon="10.916786827147007">
        <ele>72.7169189453125</ele>
        <time>2003-11-23T11:22:41Z</time>
      </trkpt>
      <trkpt lat="43.943564034998417" lon="10.916625978425145">
        <ele>72.2362060546875</ele>
        <time>2003-11-23T11:22:44Z</time>
      </trkpt>
      <trkpt lat="43.943579709157348" lon="10.916476612910628">
        <ele>72.2362060546875</ele>
        <time>2003-11-23T11:22:47Z</time>
      </trkpt>
      <trkpt lat="43.943595550954342" lon="10.91634526848793">
        <ele>71.7554931640625</ele>
        <time>2003-11-23T11:22:50Z</time>
      </trkpt>
      <trkpt lat="43.943609716370702" lon="10.91619917191565">
        <ele>72.2362060546875</ele>
        <time>2003-11-23T11:22:53Z</time>
      </trkpt>
      <trkpt lat="43.943612817674875" lon="10.916064558550715">
        <ele>71.7554931640625</ele>
        <time>2003-11-23T11:22:56Z</time>
      </trkpt>
      <trkpt lat="43.943624049425125" lon="10.915941847488284">
        <ele>71.27490234375</ele>
        <time>2003-11-23T11:23:00Z</time>
      </trkpt>
      <trkpt lat="43.943634778261185" lon="10.915864063426852">
        <ele>71.27490234375</ele>
        <time>2003-11-23T11:23:37Z</time>
      </trkpt>
      <trkpt lat="43.943526316434145" lon="10.915876049548388">
        <ele>70.794189453125</ele>
        <time>2003-11-23T11:23:44Z</time>
      </trkpt>
      <trkpt lat="43.943427158519626" lon="10.915899435058236">
        <ele>70.794189453125</ele>
        <time>2003-11-23T11:23:48Z</time>
      </trkpt>
      <trkpt lat="43.943309225142002" lon="10.915916198864579">
        <ele>70.794189453125</ele>
        <time>2003-11-23T11:23:52Z</time>
      </trkpt>
      <trkpt lat="43.943208307027817" lon="10.915931453928351">
        <ele>70.3134765625</ele>
        <time>2003-11-23T11:23:55Z</time>
      </trkpt>
      <trkpt lat="43.943097749724984" lon="10.915944613516331">
        <ele>70.3134765625</ele>
        <time>2003-11-23T11:23:58Z</time>
      </trkpt>
      <trkpt lat="43.942982330918312" lon="10.915963221341372">
        <ele>69.8328857421875</ele>
        <time>2003-11-23T11:24:01Z</time>
      </trkpt>
      <trkpt lat="43.942854506894946" lon="10.91597436927259">
        <ele>69.352294921875</ele>
        <time>2003-11-23T11:24:04Z</time>
      </trkpt>
      <trkpt lat="43.94276381470263" lon="10.915982332080603">
        <ele>69.352294921875</ele>
        <time>2003-11-23T11:24:06Z</time>
      </trkpt>
      <trkpt lat="43.942628698423505" lon="10.915986690670252">
        <ele>68.390869140625</ele>
        <time>2003-11-23T11:24:09Z</time>
      </trkpt>
      <trkpt lat="43.942502550780773" lon="10.915992558002472">
        <ele>68.390869140625</ele>
        <time>2003-11-23T11:24:12Z</time>
      </trkpt>
      <trkpt lat="43.942390736192465" lon="10.915990630164742">
        <ele>67.9102783203125</ele>
        <time>2003-11-23T11:24:15Z</time>
      </trkpt>
      <trkpt lat="43.942283112555742" lon="10.91599146835506">
        <ele>67.9102783203125</ele>
        <time>2003-11-23T11:24:18Z</time>
      </trkpt>
      <trkpt lat="43.942175153642893" lon="10.915999012067914">
        <ele>67.9102783203125</ele>
        <time>2003-11-23T11:24:21Z</time>
      </trkpt>
      <trkpt lat="43.942072140052915" lon="10.915999934077263">
        <ele>67.9102783203125</ele>
        <time>2003-11-23T11:24:24Z</time>
      </trkpt>
      <trkpt lat="43.941981699317694" lon="10.916012926027179">
        <ele>67.4296875</ele>
        <time>2003-11-23T11:24:27Z</time>
      </trkpt>
      <trkpt lat="43.941872147843242" lon="10.916016446426511">
        <ele>66.948974609375</ele>
        <time>2003-11-23T11:24:31Z</time>
      </trkpt>
      <trkpt lat="43.941795285791159" lon="10.915962215512991">
        <ele>66.46826171875</ele>
        <time>2003-11-23T11:24:35Z</time>
      </trkpt>
      <trkpt lat="43.941775253042579" lon="10.915803965181112">
        <ele>66.948974609375</ele>
        <time>2003-11-23T11:24:39Z</time>
      </trkpt>
      <trkpt lat="43.941766368225217" lon="10.915652755647898">
        <ele>66.46826171875</ele>
        <time>2003-11-23T11:24:42Z</time>
      </trkpt>
      <trkpt lat="43.941767541691661" lon="10.915464414283633">
        <ele>66.948974609375</ele>
        <time>2003-11-23T11:24:45Z</time>
      </trkpt>
      <trkpt lat="43.941776594147086" lon="10.915333740413189">
        <ele>66.948974609375</ele>
        <time>2003-11-23T11:24:47Z</time>
      </trkpt>
      <trkpt lat="43.94178606569767" lon="10.915202228352427">
        <ele>66.46826171875</ele>
        <time>2003-11-23T11:24:49Z</time>
      </trkpt>
      <trkpt lat="43.941793944686651" lon="10.915070548653603">
        <ele>66.948974609375</ele>
        <time>2003-11-23T11:24:51Z</time>
      </trkpt>
      <trkpt lat="43.94180073402822" lon="10.914880614727736">
        <ele>66.948974609375</ele>
        <time>2003-11-23T11:24:54Z</time>
      </trkpt>
      <trkpt lat="43.941803416237235" lon="10.914693949744105">
        <ele>66.948974609375</ele>
        <time>2003-11-23T11:24:57Z</time>
      </trkpt>
      <trkpt lat="43.941805511713028" lon="10.914509296417236">
        <ele>66.948974609375</ele>
        <time>2003-11-23T11:25:00Z</time>
      </trkpt>
      <trkpt lat="43.941808277741075" lon="10.914331432431936">
        <ele>66.948974609375</ele>
        <time>2003-11-23T11:25:03Z</time>
      </trkpt>
      <trkpt lat="43.941821940243244" lon="10.914214672520757">
        <ele>66.46826171875</ele>
        <time>2003-11-23T11:25:06Z</time>
      </trkpt>
      <trkpt lat="43.94190869294107" lon="10.91419237665832">
        <ele>64.545654296875</ele>
        <time>2003-11-23T11:27:12Z</time>
      </trkpt>
    </trkseg>
  </trk>

</gpx>
